<?xml version="1.0" encoding="UTF-8" standalone="no" ?>
<gpx xmlns="http://www.topografix.com/GPX/1/1" xmlns:xsi="http://www.w3.org/2001/XMLSchema-instance" xsi:schemaLocation="http://www.topografix.com/GPX/1/1 http://www.topografix.com/GPX/1/1/gpx.xsd" version="1.1" creator="VisuGPX - https://www.visugpx.com">
  <metadata>
    <name>Cagire </name>
  </metadata>
  <trk>
    <name><![CDATA[Cagire _1]]></name>
    <trkseg>
      <trkpt lat="42.9652" lon="0.74984">
        <ele>957.2</ele>
        <time>2019-08-31T08:32:52Z</time>
      </trkpt>
      <trkpt lat="42.96494" lon="0.7496">
        <ele>959.3</ele>
        <time>2019-08-31T08:32:54Z</time>
      </trkpt>
      <trkpt lat="42.96488" lon="0.74961">
        <ele>959.7</ele>
        <time>2019-08-31T08:32:55Z</time>
      </trkpt>
      <trkpt lat="42.96496" lon="0.74974">
        <ele>960.5</ele>
        <time>2019-08-31T08:32:56Z</time>
      </trkpt>
      <trkpt lat="42.96498" lon="0.74966">
        <ele>961</ele>
        <time>2019-08-31T08:33:01Z</time>
      </trkpt>
      <trkpt lat="42.96496" lon="0.74969">
        <ele>961.2</ele>
        <time>2019-08-31T08:33:04Z</time>
      </trkpt>
      <trkpt lat="42.96494" lon="0.74973">
        <ele>961.6</ele>
        <time>2019-08-31T08:33:08Z</time>
      </trkpt>
      <trkpt lat="42.96492" lon="0.74976">
        <ele>961.8</ele>
        <time>2019-08-31T08:33:11Z</time>
      </trkpt>
      <trkpt lat="42.9649" lon="0.7498">
        <ele>962.2</ele>
        <time>2019-08-31T08:33:15Z</time>
      </trkpt>
      <trkpt lat="42.96488" lon="0.74984">
        <ele>962.6</ele>
        <time>2019-08-31T08:33:18Z</time>
      </trkpt>
      <trkpt lat="42.96486" lon="0.74988">
        <ele>963</ele>
        <time>2019-08-31T08:33:21Z</time>
      </trkpt>
      <trkpt lat="42.96485" lon="0.74992">
        <ele>963.4</ele>
        <time>2019-08-31T08:33:24Z</time>
      </trkpt>
      <trkpt lat="42.96483" lon="0.74995">
        <ele>963.7</ele>
        <time>2019-08-31T08:33:27Z</time>
      </trkpt>
      <trkpt lat="42.96482" lon="0.75">
        <ele>964</ele>
        <time>2019-08-31T08:33:31Z</time>
      </trkpt>
      <trkpt lat="42.9648" lon="0.74996">
        <ele>964.3</ele>
        <time>2019-08-31T08:34:11Z</time>
      </trkpt>
      <trkpt lat="42.9648" lon="0.75">
        <ele>964.6</ele>
        <time>2019-08-31T08:35:07Z</time>
      </trkpt>
      <trkpt lat="42.96479" lon="0.75004">
        <ele>964.8</ele>
        <time>2019-08-31T08:35:10Z</time>
      </trkpt>
      <trkpt lat="42.96479" lon="0.75008">
        <ele>965.2</ele>
        <time>2019-08-31T08:35:13Z</time>
      </trkpt>
      <trkpt lat="42.96478" lon="0.75013">
        <ele>965.5</ele>
        <time>2019-08-31T08:35:16Z</time>
      </trkpt>
      <trkpt lat="42.96476" lon="0.75018">
        <ele>965.8</ele>
        <time>2019-08-31T08:35:19Z</time>
      </trkpt>
      <trkpt lat="42.96475" lon="0.75022">
        <ele>966.3</ele>
        <time>2019-08-31T08:35:22Z</time>
      </trkpt>
      <trkpt lat="42.96473" lon="0.75026">
        <ele>966.6</ele>
        <time>2019-08-31T08:35:25Z</time>
      </trkpt>
      <trkpt lat="42.96472" lon="0.7503">
        <ele>966.9</ele>
        <time>2019-08-31T08:35:28Z</time>
      </trkpt>
      <trkpt lat="42.9647" lon="0.75034">
        <ele>967.3</ele>
        <time>2019-08-31T08:35:31Z</time>
      </trkpt>
      <trkpt lat="42.96469" lon="0.75038">
        <ele>967.5</ele>
        <time>2019-08-31T08:35:35Z</time>
      </trkpt>
      <trkpt lat="42.96469" lon="0.75042">
        <ele>967.8</ele>
        <time>2019-08-31T08:35:39Z</time>
      </trkpt>
      <trkpt lat="42.96472" lon="0.75044">
        <ele>967.8</ele>
        <time>2019-08-31T08:35:42Z</time>
      </trkpt>
      <trkpt lat="42.96474" lon="0.75047">
        <ele>967.8</ele>
        <time>2019-08-31T08:35:48Z</time>
      </trkpt>
      <trkpt lat="42.96474" lon="0.75052">
        <ele>968</ele>
        <time>2019-08-31T08:35:51Z</time>
      </trkpt>
      <trkpt lat="42.96473" lon="0.75056">
        <ele>968.2</ele>
        <time>2019-08-31T08:35:55Z</time>
      </trkpt>
      <trkpt lat="42.96471" lon="0.75058">
        <ele>968.4</ele>
        <time>2019-08-31T08:35:58Z</time>
      </trkpt>
      <trkpt lat="42.96468" lon="0.7506">
        <ele>968.6</ele>
        <time>2019-08-31T08:36:01Z</time>
      </trkpt>
      <trkpt lat="42.96465" lon="0.75061">
        <ele>968.7</ele>
        <time>2019-08-31T08:36:04Z</time>
      </trkpt>
      <trkpt lat="42.96463" lon="0.75063">
        <ele>969</ele>
        <time>2019-08-31T08:36:07Z</time>
      </trkpt>
      <trkpt lat="42.96459" lon="0.75065">
        <ele>969.4</ele>
        <time>2019-08-31T08:36:11Z</time>
      </trkpt>
      <trkpt lat="42.96457" lon="0.75068">
        <ele>969.8</ele>
        <time>2019-08-31T08:36:14Z</time>
      </trkpt>
      <trkpt lat="42.96455" lon="0.75071">
        <ele>970.2</ele>
        <time>2019-08-31T08:36:17Z</time>
      </trkpt>
      <trkpt lat="42.96452" lon="0.75073">
        <ele>970.6</ele>
        <time>2019-08-31T08:36:20Z</time>
      </trkpt>
      <trkpt lat="42.96449" lon="0.75076">
        <ele>971.2</ele>
        <time>2019-08-31T08:36:24Z</time>
      </trkpt>
      <trkpt lat="42.96447" lon="0.75078">
        <ele>971.8</ele>
        <time>2019-08-31T08:36:27Z</time>
      </trkpt>
      <trkpt lat="42.96444" lon="0.75079">
        <ele>972.4</ele>
        <time>2019-08-31T08:36:30Z</time>
      </trkpt>
      <trkpt lat="42.96441" lon="0.75079">
        <ele>973</ele>
        <time>2019-08-31T08:36:33Z</time>
      </trkpt>
      <trkpt lat="42.96437" lon="0.7508">
        <ele>973.7</ele>
        <time>2019-08-31T08:36:36Z</time>
      </trkpt>
      <trkpt lat="42.96434" lon="0.75081">
        <ele>974.2</ele>
        <time>2019-08-31T08:36:39Z</time>
      </trkpt>
      <trkpt lat="42.9643" lon="0.75082">
        <ele>974.8</ele>
        <time>2019-08-31T08:36:42Z</time>
      </trkpt>
      <trkpt lat="42.96427" lon="0.75083">
        <ele>975.5</ele>
        <time>2019-08-31T08:36:45Z</time>
      </trkpt>
      <trkpt lat="42.96424" lon="0.75085">
        <ele>976.2</ele>
        <time>2019-08-31T08:36:48Z</time>
      </trkpt>
      <trkpt lat="42.96421" lon="0.75086">
        <ele>977</ele>
        <time>2019-08-31T08:36:51Z</time>
      </trkpt>
      <trkpt lat="42.96418" lon="0.75089">
        <ele>978</ele>
        <time>2019-08-31T08:36:54Z</time>
      </trkpt>
      <trkpt lat="42.96415" lon="0.75091">
        <ele>978.8</ele>
        <time>2019-08-31T08:36:58Z</time>
      </trkpt>
      <trkpt lat="42.96412" lon="0.75093">
        <ele>979.6</ele>
        <time>2019-08-31T08:37:02Z</time>
      </trkpt>
      <trkpt lat="42.96409" lon="0.75094">
        <ele>980.4</ele>
        <time>2019-08-31T08:37:05Z</time>
      </trkpt>
      <trkpt lat="42.96406" lon="0.75099">
        <ele>981.2</ele>
        <time>2019-08-31T08:37:08Z</time>
      </trkpt>
      <trkpt lat="42.96404" lon="0.75102">
        <ele>981.9</ele>
        <time>2019-08-31T08:37:11Z</time>
      </trkpt>
      <trkpt lat="42.96402" lon="0.75105">
        <ele>982.5</ele>
        <time>2019-08-31T08:37:15Z</time>
      </trkpt>
      <trkpt lat="42.964" lon="0.75108">
        <ele>983.2</ele>
        <time>2019-08-31T08:37:19Z</time>
      </trkpt>
      <trkpt lat="42.96398" lon="0.75111">
        <ele>983.9</ele>
        <time>2019-08-31T08:37:23Z</time>
      </trkpt>
      <trkpt lat="42.96397" lon="0.75114">
        <ele>984.6</ele>
        <time>2019-08-31T08:37:26Z</time>
      </trkpt>
      <trkpt lat="42.96395" lon="0.75118">
        <ele>985.4</ele>
        <time>2019-08-31T08:37:29Z</time>
      </trkpt>
      <trkpt lat="42.96394" lon="0.75122">
        <ele>986.2</ele>
        <time>2019-08-31T08:37:32Z</time>
      </trkpt>
      <trkpt lat="42.96391" lon="0.75125">
        <ele>987.1</ele>
        <time>2019-08-31T08:37:35Z</time>
      </trkpt>
      <trkpt lat="42.96388" lon="0.75128">
        <ele>987.9</ele>
        <time>2019-08-31T08:37:38Z</time>
      </trkpt>
      <trkpt lat="42.96386" lon="0.75131">
        <ele>988.5</ele>
        <time>2019-08-31T08:37:41Z</time>
      </trkpt>
      <trkpt lat="42.96384" lon="0.75133">
        <ele>989.3</ele>
        <time>2019-08-31T08:37:44Z</time>
      </trkpt>
      <trkpt lat="42.96382" lon="0.75136">
        <ele>990.3</ele>
        <time>2019-08-31T08:37:47Z</time>
      </trkpt>
      <trkpt lat="42.96379" lon="0.75137">
        <ele>991.4</ele>
        <time>2019-08-31T08:37:50Z</time>
      </trkpt>
      <trkpt lat="42.96376" lon="0.75139">
        <ele>992.4</ele>
        <time>2019-08-31T08:37:53Z</time>
      </trkpt>
      <trkpt lat="42.96373" lon="0.7514">
        <ele>993.1</ele>
        <time>2019-08-31T08:37:56Z</time>
      </trkpt>
      <trkpt lat="42.9637" lon="0.75141">
        <ele>993.9</ele>
        <time>2019-08-31T08:38:00Z</time>
      </trkpt>
      <trkpt lat="42.96367" lon="0.7514">
        <ele>994.7</ele>
        <time>2019-08-31T08:38:03Z</time>
      </trkpt>
      <trkpt lat="42.96363" lon="0.75141">
        <ele>995.5</ele>
        <time>2019-08-31T08:38:07Z</time>
      </trkpt>
      <trkpt lat="42.9636" lon="0.7514">
        <ele>996.2</ele>
        <time>2019-08-31T08:38:11Z</time>
      </trkpt>
      <trkpt lat="42.9636" lon="0.75136">
        <ele>997.1</ele>
        <time>2019-08-31T08:38:13Z</time>
      </trkpt>
      <trkpt lat="42.96357" lon="0.75135">
        <ele>998.3</ele>
        <time>2019-08-31T08:38:18Z</time>
      </trkpt>
      <trkpt lat="42.96354" lon="0.75137">
        <ele>999.5</ele>
        <time>2019-08-31T08:38:21Z</time>
      </trkpt>
      <trkpt lat="42.96351" lon="0.7514">
        <ele>1000.2</ele>
        <time>2019-08-31T08:38:24Z</time>
      </trkpt>
      <trkpt lat="42.96349" lon="0.75143">
        <ele>1000.9</ele>
        <time>2019-08-31T08:38:27Z</time>
      </trkpt>
      <trkpt lat="42.96346" lon="0.75146">
        <ele>1001.5</ele>
        <time>2019-08-31T08:38:31Z</time>
      </trkpt>
      <trkpt lat="42.96344" lon="0.75148">
        <ele>1002.2</ele>
        <time>2019-08-31T08:38:34Z</time>
      </trkpt>
      <trkpt lat="42.9634" lon="0.7515">
        <ele>1002.9</ele>
        <time>2019-08-31T08:38:37Z</time>
      </trkpt>
      <trkpt lat="42.96338" lon="0.75153">
        <ele>1003.5</ele>
        <time>2019-08-31T08:38:40Z</time>
      </trkpt>
      <trkpt lat="42.96336" lon="0.75156">
        <ele>1004</ele>
        <time>2019-08-31T08:38:43Z</time>
      </trkpt>
      <trkpt lat="42.96334" lon="0.75159">
        <ele>1004.7</ele>
        <time>2019-08-31T08:38:47Z</time>
      </trkpt>
      <trkpt lat="42.96332" lon="0.75162">
        <ele>1005.2</ele>
        <time>2019-08-31T08:38:50Z</time>
      </trkpt>
      <trkpt lat="42.9633" lon="0.75165">
        <ele>1005.9</ele>
        <time>2019-08-31T08:38:54Z</time>
      </trkpt>
      <trkpt lat="42.96328" lon="0.75168">
        <ele>1006.4</ele>
        <time>2019-08-31T08:39:00Z</time>
      </trkpt>
      <trkpt lat="42.96326" lon="0.75171">
        <ele>1007</ele>
        <time>2019-08-31T08:39:10Z</time>
      </trkpt>
      <trkpt lat="42.96323" lon="0.75173">
        <ele>1007.5</ele>
        <time>2019-08-31T08:39:20Z</time>
      </trkpt>
      <trkpt lat="42.96326" lon="0.75173">
        <ele>1007.9</ele>
        <time>2019-08-31T08:39:39Z</time>
      </trkpt>
      <trkpt lat="42.96328" lon="0.75168">
        <ele>1008.6</ele>
        <time>2019-08-31T08:39:48Z</time>
      </trkpt>
      <trkpt lat="42.96326" lon="0.75168">
        <ele>1009.1</ele>
        <time>2019-08-31T08:40:12Z</time>
      </trkpt>
      <trkpt lat="42.96323" lon="0.7517">
        <ele>1009.8</ele>
        <time>2019-08-31T08:40:23Z</time>
      </trkpt>
      <trkpt lat="42.96323" lon="0.75175">
        <ele>1010.4</ele>
        <time>2019-08-31T08:41:08Z</time>
      </trkpt>
      <trkpt lat="42.96321" lon="0.75174">
        <ele>1010.9</ele>
        <time>2019-08-31T08:41:12Z</time>
      </trkpt>
      <trkpt lat="42.96319" lon="0.75176">
        <ele>1011.4</ele>
        <time>2019-08-31T08:41:16Z</time>
      </trkpt>
      <trkpt lat="42.96316" lon="0.75179">
        <ele>1012</ele>
        <time>2019-08-31T08:41:21Z</time>
      </trkpt>
      <trkpt lat="42.96314" lon="0.75182">
        <ele>1012.6</ele>
        <time>2019-08-31T08:41:24Z</time>
      </trkpt>
      <trkpt lat="42.96311" lon="0.75183">
        <ele>1013.1</ele>
        <time>2019-08-31T08:41:27Z</time>
      </trkpt>
      <trkpt lat="42.96308" lon="0.75182">
        <ele>1013.5</ele>
        <time>2019-08-31T08:41:32Z</time>
      </trkpt>
      <trkpt lat="42.96305" lon="0.75182">
        <ele>1013.7</ele>
        <time>2019-08-31T08:41:36Z</time>
      </trkpt>
      <trkpt lat="42.96301" lon="0.75183">
        <ele>1014</ele>
        <time>2019-08-31T08:41:40Z</time>
      </trkpt>
      <trkpt lat="42.96298" lon="0.75183">
        <ele>1014.7</ele>
        <time>2019-08-31T08:41:43Z</time>
      </trkpt>
      <trkpt lat="42.96295" lon="0.75183">
        <ele>1015.4</ele>
        <time>2019-08-31T08:41:46Z</time>
      </trkpt>
      <trkpt lat="42.96291" lon="0.75182">
        <ele>1015.9</ele>
        <time>2019-08-31T08:41:49Z</time>
      </trkpt>
      <trkpt lat="42.96288" lon="0.7518">
        <ele>1016.2</ele>
        <time>2019-08-31T08:41:51Z</time>
      </trkpt>
      <trkpt lat="42.96285" lon="0.75179">
        <ele>1016.5</ele>
        <time>2019-08-31T08:41:54Z</time>
      </trkpt>
      <trkpt lat="42.96282" lon="0.75177">
        <ele>1016.7</ele>
        <time>2019-08-31T08:41:57Z</time>
      </trkpt>
      <trkpt lat="42.9628" lon="0.75175">
        <ele>1016.9</ele>
        <time>2019-08-31T08:41:59Z</time>
      </trkpt>
      <trkpt lat="42.96277" lon="0.75174">
        <ele>1017.3</ele>
        <time>2019-08-31T08:42:02Z</time>
      </trkpt>
      <trkpt lat="42.96273" lon="0.75172">
        <ele>1017.9</ele>
        <time>2019-08-31T08:42:05Z</time>
      </trkpt>
      <trkpt lat="42.9627" lon="0.75172">
        <ele>1018.4</ele>
        <time>2019-08-31T08:42:08Z</time>
      </trkpt>
      <trkpt lat="42.96267" lon="0.75172">
        <ele>1019.1</ele>
        <time>2019-08-31T08:42:11Z</time>
      </trkpt>
      <trkpt lat="42.96264" lon="0.75173">
        <ele>1020.1</ele>
        <time>2019-08-31T08:42:16Z</time>
      </trkpt>
      <trkpt lat="42.96261" lon="0.75175">
        <ele>1020.9</ele>
        <time>2019-08-31T08:42:20Z</time>
      </trkpt>
      <trkpt lat="42.96259" lon="0.75178">
        <ele>1021.4</ele>
        <time>2019-08-31T08:42:24Z</time>
      </trkpt>
      <trkpt lat="42.96257" lon="0.7518">
        <ele>1021.8</ele>
        <time>2019-08-31T08:42:27Z</time>
      </trkpt>
      <trkpt lat="42.96254" lon="0.75182">
        <ele>1022.5</ele>
        <time>2019-08-31T08:42:30Z</time>
      </trkpt>
      <trkpt lat="42.96252" lon="0.75185">
        <ele>1023.7</ele>
        <time>2019-08-31T08:42:33Z</time>
      </trkpt>
      <trkpt lat="42.9625" lon="0.7519">
        <ele>1024.9</ele>
        <time>2019-08-31T08:42:36Z</time>
      </trkpt>
      <trkpt lat="42.96249" lon="0.75193">
        <ele>1026</ele>
        <time>2019-08-31T08:42:39Z</time>
      </trkpt>
      <trkpt lat="42.96246" lon="0.75197">
        <ele>1027.3</ele>
        <time>2019-08-31T08:42:42Z</time>
      </trkpt>
      <trkpt lat="42.96244" lon="0.75201">
        <ele>1028.6</ele>
        <time>2019-08-31T08:42:45Z</time>
      </trkpt>
      <trkpt lat="42.96242" lon="0.75204">
        <ele>1029.6</ele>
        <time>2019-08-31T08:42:48Z</time>
      </trkpt>
      <trkpt lat="42.9624" lon="0.75209">
        <ele>1030.7</ele>
        <time>2019-08-31T08:42:51Z</time>
      </trkpt>
      <trkpt lat="42.96238" lon="0.75213">
        <ele>1031.7</ele>
        <time>2019-08-31T08:42:54Z</time>
      </trkpt>
      <trkpt lat="42.96237" lon="0.75217">
        <ele>1032.5</ele>
        <time>2019-08-31T08:42:57Z</time>
      </trkpt>
      <trkpt lat="42.96235" lon="0.75221">
        <ele>1033.5</ele>
        <time>2019-08-31T08:43:01Z</time>
      </trkpt>
      <trkpt lat="42.96234" lon="0.75225">
        <ele>1034.4</ele>
        <time>2019-08-31T08:43:04Z</time>
      </trkpt>
      <trkpt lat="42.96231" lon="0.75227">
        <ele>1035.4</ele>
        <time>2019-08-31T08:43:07Z</time>
      </trkpt>
      <trkpt lat="42.96229" lon="0.7523">
        <ele>1036.5</ele>
        <time>2019-08-31T08:43:11Z</time>
      </trkpt>
      <trkpt lat="42.96228" lon="0.75234">
        <ele>1037.5</ele>
        <time>2019-08-31T08:43:13Z</time>
      </trkpt>
      <trkpt lat="42.96226" lon="0.75237">
        <ele>1038.5</ele>
        <time>2019-08-31T08:43:17Z</time>
      </trkpt>
      <trkpt lat="42.96224" lon="0.7524">
        <ele>1039.6</ele>
        <time>2019-08-31T08:43:21Z</time>
      </trkpt>
      <trkpt lat="42.96221" lon="0.75242">
        <ele>1040.7</ele>
        <time>2019-08-31T08:43:25Z</time>
      </trkpt>
      <trkpt lat="42.96219" lon="0.75245">
        <ele>1041.7</ele>
        <time>2019-08-31T08:43:29Z</time>
      </trkpt>
      <trkpt lat="42.96217" lon="0.75248">
        <ele>1042.8</ele>
        <time>2019-08-31T08:43:32Z</time>
      </trkpt>
      <trkpt lat="42.96215" lon="0.75251">
        <ele>1043.7</ele>
        <time>2019-08-31T08:43:35Z</time>
      </trkpt>
      <trkpt lat="42.96212" lon="0.75253">
        <ele>1044.5</ele>
        <time>2019-08-31T08:43:39Z</time>
      </trkpt>
      <trkpt lat="42.96209" lon="0.75254">
        <ele>1045.5</ele>
        <time>2019-08-31T08:43:43Z</time>
      </trkpt>
      <trkpt lat="42.96206" lon="0.75253">
        <ele>1046.6</ele>
        <time>2019-08-31T08:43:47Z</time>
      </trkpt>
      <trkpt lat="42.96203" lon="0.75254">
        <ele>1047.7</ele>
        <time>2019-08-31T08:43:52Z</time>
      </trkpt>
      <trkpt lat="42.962" lon="0.75254">
        <ele>1048.7</ele>
        <time>2019-08-31T08:43:56Z</time>
      </trkpt>
      <trkpt lat="42.96196" lon="0.75255">
        <ele>1049.8</ele>
        <time>2019-08-31T08:44:00Z</time>
      </trkpt>
      <trkpt lat="42.96193" lon="0.75254">
        <ele>1050.8</ele>
        <time>2019-08-31T08:44:04Z</time>
      </trkpt>
      <trkpt lat="42.96191" lon="0.75251">
        <ele>1051.4</ele>
        <time>2019-08-31T08:44:08Z</time>
      </trkpt>
      <trkpt lat="42.96188" lon="0.7525">
        <ele>1052</ele>
        <time>2019-08-31T08:44:12Z</time>
      </trkpt>
      <trkpt lat="42.96186" lon="0.75253">
        <ele>1052.8</ele>
        <time>2019-08-31T08:44:15Z</time>
      </trkpt>
      <trkpt lat="42.96183" lon="0.75255">
        <ele>1054.3</ele>
        <time>2019-08-31T08:44:18Z</time>
      </trkpt>
      <trkpt lat="42.9618" lon="0.75254">
        <ele>1056.3</ele>
        <time>2019-08-31T08:44:29Z</time>
      </trkpt>
      <trkpt lat="42.96176" lon="0.75254">
        <ele>1058.1</ele>
        <time>2019-08-31T08:44:33Z</time>
      </trkpt>
      <trkpt lat="42.96173" lon="0.75254">
        <ele>1059.5</ele>
        <time>2019-08-31T08:44:36Z</time>
      </trkpt>
      <trkpt lat="42.9617" lon="0.75255">
        <ele>1060.5</ele>
        <time>2019-08-31T08:44:39Z</time>
      </trkpt>
      <trkpt lat="42.96167" lon="0.75256">
        <ele>1061.2</ele>
        <time>2019-08-31T08:44:43Z</time>
      </trkpt>
      <trkpt lat="42.96164" lon="0.75255">
        <ele>1061.8</ele>
        <time>2019-08-31T08:44:47Z</time>
      </trkpt>
      <trkpt lat="42.96161" lon="0.75256">
        <ele>1062.8</ele>
        <time>2019-08-31T08:44:50Z</time>
      </trkpt>
      <trkpt lat="42.96158" lon="0.75257">
        <ele>1064</ele>
        <time>2019-08-31T08:44:54Z</time>
      </trkpt>
      <trkpt lat="42.96156" lon="0.75256">
        <ele>1065</ele>
        <time>2019-08-31T08:44:58Z</time>
      </trkpt>
      <trkpt lat="42.96153" lon="0.75257">
        <ele>1066.1</ele>
        <time>2019-08-31T08:45:03Z</time>
      </trkpt>
      <trkpt lat="42.9615" lon="0.75257">
        <ele>1067.3</ele>
        <time>2019-08-31T08:45:06Z</time>
      </trkpt>
      <trkpt lat="42.96147" lon="0.75256">
        <ele>1068.3</ele>
        <time>2019-08-31T08:45:09Z</time>
      </trkpt>
      <trkpt lat="42.96143" lon="0.75256">
        <ele>1069.7</ele>
        <time>2019-08-31T08:45:13Z</time>
      </trkpt>
      <trkpt lat="42.9614" lon="0.75255">
        <ele>1071.2</ele>
        <time>2019-08-31T08:45:18Z</time>
      </trkpt>
      <trkpt lat="42.96137" lon="0.75254">
        <ele>1072.7</ele>
        <time>2019-08-31T08:45:21Z</time>
      </trkpt>
      <trkpt lat="42.96133" lon="0.75253">
        <ele>1074.7</ele>
        <time>2019-08-31T08:45:25Z</time>
      </trkpt>
      <trkpt lat="42.9613" lon="0.75254">
        <ele>1076.1</ele>
        <time>2019-08-31T08:45:28Z</time>
      </trkpt>
      <trkpt lat="42.96128" lon="0.75255">
        <ele>1077.6</ele>
        <time>2019-08-31T08:45:31Z</time>
      </trkpt>
      <trkpt lat="42.96124" lon="0.75257">
        <ele>1079.3</ele>
        <time>2019-08-31T08:45:33Z</time>
      </trkpt>
      <trkpt lat="42.96121" lon="0.75258">
        <ele>1081</ele>
        <time>2019-08-31T08:45:36Z</time>
      </trkpt>
      <trkpt lat="42.96118" lon="0.75256">
        <ele>1082.9</ele>
        <time>2019-08-31T08:45:40Z</time>
      </trkpt>
      <trkpt lat="42.96115" lon="0.75257">
        <ele>1084.8</ele>
        <time>2019-08-31T08:45:47Z</time>
      </trkpt>
      <trkpt lat="42.96112" lon="0.75257">
        <ele>1086.5</ele>
        <time>2019-08-31T08:45:52Z</time>
      </trkpt>
      <trkpt lat="42.9611" lon="0.75259">
        <ele>1087.4</ele>
        <time>2019-08-31T08:45:57Z</time>
      </trkpt>
      <trkpt lat="42.96108" lon="0.75263">
        <ele>1088.5</ele>
        <time>2019-08-31T08:46:02Z</time>
      </trkpt>
      <trkpt lat="42.96106" lon="0.75266">
        <ele>1090.2</ele>
        <time>2019-08-31T08:46:09Z</time>
      </trkpt>
      <trkpt lat="42.96106" lon="0.7527">
        <ele>1092.1</ele>
        <time>2019-08-31T08:46:12Z</time>
      </trkpt>
      <trkpt lat="42.96105" lon="0.75273">
        <ele>1093.8</ele>
        <time>2019-08-31T08:46:18Z</time>
      </trkpt>
      <trkpt lat="42.96103" lon="0.75276">
        <ele>1095.2</ele>
        <time>2019-08-31T08:46:22Z</time>
      </trkpt>
      <trkpt lat="42.96101" lon="0.7528">
        <ele>1096.4</ele>
        <time>2019-08-31T08:46:26Z</time>
      </trkpt>
      <trkpt lat="42.96099" lon="0.75283">
        <ele>1097.5</ele>
        <time>2019-08-31T08:46:31Z</time>
      </trkpt>
      <trkpt lat="42.96097" lon="0.75286">
        <ele>1098.7</ele>
        <time>2019-08-31T08:46:37Z</time>
      </trkpt>
      <trkpt lat="42.96094" lon="0.75288">
        <ele>1099.9</ele>
        <time>2019-08-31T08:46:42Z</time>
      </trkpt>
      <trkpt lat="42.96093" lon="0.75292">
        <ele>1100.9</ele>
        <time>2019-08-31T08:46:45Z</time>
      </trkpt>
      <trkpt lat="42.96091" lon="0.75295">
        <ele>1102</ele>
        <time>2019-08-31T08:46:52Z</time>
      </trkpt>
      <trkpt lat="42.96089" lon="0.75298">
        <ele>1103</ele>
        <time>2019-08-31T08:46:55Z</time>
      </trkpt>
      <trkpt lat="42.96087" lon="0.75302">
        <ele>1104.1</ele>
        <time>2019-08-31T08:46:58Z</time>
      </trkpt>
      <trkpt lat="42.96085" lon="0.75305">
        <ele>1105.5</ele>
        <time>2019-08-31T08:47:02Z</time>
      </trkpt>
      <trkpt lat="42.96083" lon="0.75309">
        <ele>1107.2</ele>
        <time>2019-08-31T08:47:06Z</time>
      </trkpt>
      <trkpt lat="42.9608" lon="0.75311">
        <ele>1108.5</ele>
        <time>2019-08-31T08:47:10Z</time>
      </trkpt>
      <trkpt lat="42.96077" lon="0.75312">
        <ele>1109.1</ele>
        <time>2019-08-31T08:47:13Z</time>
      </trkpt>
      <trkpt lat="42.96074" lon="0.75314">
        <ele>1109.9</ele>
        <time>2019-08-31T08:47:16Z</time>
      </trkpt>
      <trkpt lat="42.96071" lon="0.75315">
        <ele>1111.1</ele>
        <time>2019-08-31T08:47:21Z</time>
      </trkpt>
      <trkpt lat="42.96068" lon="0.75313">
        <ele>1112.3</ele>
        <time>2019-08-31T08:47:26Z</time>
      </trkpt>
      <trkpt lat="42.96065" lon="0.75312">
        <ele>1113.1</ele>
        <time>2019-08-31T08:47:29Z</time>
      </trkpt>
      <trkpt lat="42.96062" lon="0.75313">
        <ele>1114</ele>
        <time>2019-08-31T08:47:34Z</time>
      </trkpt>
      <trkpt lat="42.96059" lon="0.75313">
        <ele>1115.2</ele>
        <time>2019-08-31T08:47:39Z</time>
      </trkpt>
      <trkpt lat="42.96056" lon="0.75312">
        <ele>1116.4</ele>
        <time>2019-08-31T08:47:42Z</time>
      </trkpt>
      <trkpt lat="42.96054" lon="0.7531">
        <ele>1117.7</ele>
        <time>2019-08-31T08:47:46Z</time>
      </trkpt>
      <trkpt lat="42.96053" lon="0.75315">
        <ele>1118.8</ele>
        <time>2019-08-31T08:47:53Z</time>
      </trkpt>
      <trkpt lat="42.9605" lon="0.75317">
        <ele>1119.6</ele>
        <time>2019-08-31T08:47:57Z</time>
      </trkpt>
      <trkpt lat="42.96047" lon="0.75319">
        <ele>1120.4</ele>
        <time>2019-08-31T08:48:00Z</time>
      </trkpt>
      <trkpt lat="42.96044" lon="0.75322">
        <ele>1121.3</ele>
        <time>2019-08-31T08:48:04Z</time>
      </trkpt>
      <trkpt lat="42.96041" lon="0.75324">
        <ele>1122.1</ele>
        <time>2019-08-31T08:48:08Z</time>
      </trkpt>
      <trkpt lat="42.96039" lon="0.75326">
        <ele>1123</ele>
        <time>2019-08-31T08:48:14Z</time>
      </trkpt>
      <trkpt lat="42.96035" lon="0.75327">
        <ele>1124.2</ele>
        <time>2019-08-31T08:48:18Z</time>
      </trkpt>
      <trkpt lat="42.96033" lon="0.75329">
        <ele>1124.9</ele>
        <time>2019-08-31T08:48:21Z</time>
      </trkpt>
      <trkpt lat="42.9603" lon="0.75331">
        <ele>1125.3</ele>
        <time>2019-08-31T08:48:24Z</time>
      </trkpt>
      <trkpt lat="42.96028" lon="0.75333">
        <ele>1125.8</ele>
        <time>2019-08-31T08:48:27Z</time>
      </trkpt>
      <trkpt lat="42.96025" lon="0.75335">
        <ele>1127</ele>
        <time>2019-08-31T08:48:30Z</time>
      </trkpt>
      <trkpt lat="42.96021" lon="0.75338">
        <ele>1128.5</ele>
        <time>2019-08-31T08:48:34Z</time>
      </trkpt>
      <trkpt lat="42.96019" lon="0.75339">
        <ele>1129.4</ele>
        <time>2019-08-31T08:48:37Z</time>
      </trkpt>
      <trkpt lat="42.96017" lon="0.75337">
        <ele>1130.1</ele>
        <time>2019-08-31T08:48:44Z</time>
      </trkpt>
      <trkpt lat="42.96017" lon="0.75333">
        <ele>1130.9</ele>
        <time>2019-08-31T08:48:49Z</time>
      </trkpt>
      <trkpt lat="42.96017" lon="0.75328">
        <ele>1131.6</ele>
        <time>2019-08-31T08:48:55Z</time>
      </trkpt>
      <trkpt lat="42.96015" lon="0.75325">
        <ele>1132.1</ele>
        <time>2019-08-31T08:48:58Z</time>
      </trkpt>
      <trkpt lat="42.96015" lon="0.75321">
        <ele>1132.7</ele>
        <time>2019-08-31T08:49:02Z</time>
      </trkpt>
      <trkpt lat="42.96013" lon="0.75317">
        <ele>1133</ele>
        <time>2019-08-31T08:49:06Z</time>
      </trkpt>
      <trkpt lat="42.96011" lon="0.75313">
        <ele>1133.3</ele>
        <time>2019-08-31T08:49:10Z</time>
      </trkpt>
      <trkpt lat="42.96009" lon="0.75309">
        <ele>1133.6</ele>
        <time>2019-08-31T08:49:14Z</time>
      </trkpt>
      <trkpt lat="42.96009" lon="0.75305">
        <ele>1134.4</ele>
        <time>2019-08-31T08:49:20Z</time>
      </trkpt>
      <trkpt lat="42.96008" lon="0.75301">
        <ele>1135.1</ele>
        <time>2019-08-31T08:49:22Z</time>
      </trkpt>
      <trkpt lat="42.96006" lon="0.75297">
        <ele>1136</ele>
        <time>2019-08-31T08:49:25Z</time>
      </trkpt>
      <trkpt lat="42.96003" lon="0.75294">
        <ele>1136.4</ele>
        <time>2019-08-31T08:49:28Z</time>
      </trkpt>
      <trkpt lat="42.96001" lon="0.75291">
        <ele>1136.8</ele>
        <time>2019-08-31T08:49:31Z</time>
      </trkpt>
      <trkpt lat="42.95999" lon="0.75288">
        <ele>1137.2</ele>
        <time>2019-08-31T08:49:35Z</time>
      </trkpt>
      <trkpt lat="42.95997" lon="0.75285">
        <ele>1137.7</ele>
        <time>2019-08-31T08:49:38Z</time>
      </trkpt>
      <trkpt lat="42.95995" lon="0.75281">
        <ele>1138.3</ele>
        <time>2019-08-31T08:49:40Z</time>
      </trkpt>
      <trkpt lat="42.95994" lon="0.75277">
        <ele>1138.8</ele>
        <time>2019-08-31T08:49:44Z</time>
      </trkpt>
      <trkpt lat="42.95992" lon="0.75274">
        <ele>1139.3</ele>
        <time>2019-08-31T08:49:47Z</time>
      </trkpt>
      <trkpt lat="42.95989" lon="0.75272">
        <ele>1138.8</ele>
        <time>2019-08-31T08:49:51Z</time>
      </trkpt>
      <trkpt lat="42.95987" lon="0.7527">
        <ele>1138.4</ele>
        <time>2019-08-31T08:49:53Z</time>
      </trkpt>
      <trkpt lat="42.95983" lon="0.75268">
        <ele>1139.1</ele>
        <time>2019-08-31T08:49:56Z</time>
      </trkpt>
      <trkpt lat="42.95981" lon="0.75266">
        <ele>1140</ele>
        <time>2019-08-31T08:50:01Z</time>
      </trkpt>
      <trkpt lat="42.95979" lon="0.75262">
        <ele>1140.4</ele>
        <time>2019-08-31T08:50:04Z</time>
      </trkpt>
      <trkpt lat="42.95976" lon="0.7526">
        <ele>1140.6</ele>
        <time>2019-08-31T08:50:08Z</time>
      </trkpt>
      <trkpt lat="42.95974" lon="0.75258">
        <ele>1141.4</ele>
        <time>2019-08-31T08:50:12Z</time>
      </trkpt>
      <trkpt lat="42.95972" lon="0.75256">
        <ele>1142.7</ele>
        <time>2019-08-31T08:50:15Z</time>
      </trkpt>
      <trkpt lat="42.9597" lon="0.75252">
        <ele>1143.9</ele>
        <time>2019-08-31T08:50:18Z</time>
      </trkpt>
      <trkpt lat="42.95968" lon="0.75249">
        <ele>1145.1</ele>
        <time>2019-08-31T08:50:23Z</time>
      </trkpt>
      <trkpt lat="42.95965" lon="0.75247">
        <ele>1146.2</ele>
        <time>2019-08-31T08:50:26Z</time>
      </trkpt>
      <trkpt lat="42.95962" lon="0.75245">
        <ele>1147.6</ele>
        <time>2019-08-31T08:50:30Z</time>
      </trkpt>
      <trkpt lat="42.95959" lon="0.75244">
        <ele>1148.9</ele>
        <time>2019-08-31T08:50:37Z</time>
      </trkpt>
      <trkpt lat="42.95956" lon="0.75243">
        <ele>1150.1</ele>
        <time>2019-08-31T08:50:41Z</time>
      </trkpt>
      <trkpt lat="42.95955" lon="0.75239">
        <ele>1151.3</ele>
        <time>2019-08-31T08:50:44Z</time>
      </trkpt>
      <trkpt lat="42.95952" lon="0.75238">
        <ele>1152.4</ele>
        <time>2019-08-31T08:50:48Z</time>
      </trkpt>
      <trkpt lat="42.9595" lon="0.75237">
        <ele>1153.4</ele>
        <time>2019-08-31T08:50:51Z</time>
      </trkpt>
      <trkpt lat="42.95947" lon="0.75237">
        <ele>1154.4</ele>
        <time>2019-08-31T08:50:54Z</time>
      </trkpt>
      <trkpt lat="42.95946" lon="0.75242">
        <ele>1155.5</ele>
        <time>2019-08-31T08:51:22Z</time>
      </trkpt>
      <trkpt lat="42.95945" lon="0.75245">
        <ele>1156.3</ele>
        <time>2019-08-31T08:51:25Z</time>
      </trkpt>
      <trkpt lat="42.95945" lon="0.7525">
        <ele>1157.2</ele>
        <time>2019-08-31T08:51:28Z</time>
      </trkpt>
      <trkpt lat="42.95944" lon="0.75254">
        <ele>1158.1</ele>
        <time>2019-08-31T08:51:31Z</time>
      </trkpt>
      <trkpt lat="42.95944" lon="0.75258">
        <ele>1158.9</ele>
        <time>2019-08-31T08:51:34Z</time>
      </trkpt>
      <trkpt lat="42.95943" lon="0.75263">
        <ele>1159.9</ele>
        <time>2019-08-31T08:51:37Z</time>
      </trkpt>
      <trkpt lat="42.95943" lon="0.75268">
        <ele>1160.9</ele>
        <time>2019-08-31T08:51:40Z</time>
      </trkpt>
      <trkpt lat="42.95943" lon="0.75272">
        <ele>1161.9</ele>
        <time>2019-08-31T08:51:43Z</time>
      </trkpt>
      <trkpt lat="42.95943" lon="0.75276">
        <ele>1163</ele>
        <time>2019-08-31T08:51:46Z</time>
      </trkpt>
      <trkpt lat="42.95943" lon="0.75281">
        <ele>1163.8</ele>
        <time>2019-08-31T08:51:49Z</time>
      </trkpt>
      <trkpt lat="42.95943" lon="0.75285">
        <ele>1164.5</ele>
        <time>2019-08-31T08:51:52Z</time>
      </trkpt>
      <trkpt lat="42.95943" lon="0.75289">
        <ele>1165.3</ele>
        <time>2019-08-31T08:51:55Z</time>
      </trkpt>
      <trkpt lat="42.95942" lon="0.75294">
        <ele>1166.2</ele>
        <time>2019-08-31T08:51:58Z</time>
      </trkpt>
      <trkpt lat="42.95941" lon="0.75297">
        <ele>1167.2</ele>
        <time>2019-08-31T08:52:01Z</time>
      </trkpt>
      <trkpt lat="42.9594" lon="0.75301">
        <ele>1168.4</ele>
        <time>2019-08-31T08:52:05Z</time>
      </trkpt>
      <trkpt lat="42.95938" lon="0.75304">
        <ele>1169.3</ele>
        <time>2019-08-31T08:52:08Z</time>
      </trkpt>
      <trkpt lat="42.95937" lon="0.75309">
        <ele>1170.5</ele>
        <time>2019-08-31T08:52:12Z</time>
      </trkpt>
      <trkpt lat="42.95935" lon="0.75313">
        <ele>1171.7</ele>
        <time>2019-08-31T08:52:16Z</time>
      </trkpt>
      <trkpt lat="42.95934" lon="0.75317">
        <ele>1172.9</ele>
        <time>2019-08-31T08:52:20Z</time>
      </trkpt>
      <trkpt lat="42.95932" lon="0.75321">
        <ele>1173.5</ele>
        <time>2019-08-31T08:52:24Z</time>
      </trkpt>
      <trkpt lat="42.9593" lon="0.75324">
        <ele>1173.5</ele>
        <time>2019-08-31T08:52:27Z</time>
      </trkpt>
      <trkpt lat="42.95928" lon="0.75327">
        <ele>1173.7</ele>
        <time>2019-08-31T08:52:30Z</time>
      </trkpt>
      <trkpt lat="42.95927" lon="0.75331">
        <ele>1174.3</ele>
        <time>2019-08-31T08:52:33Z</time>
      </trkpt>
      <trkpt lat="42.95925" lon="0.75335">
        <ele>1174.9</ele>
        <time>2019-08-31T08:52:36Z</time>
      </trkpt>
      <trkpt lat="42.95924" lon="0.75339">
        <ele>1175.5</ele>
        <time>2019-08-31T08:52:39Z</time>
      </trkpt>
      <trkpt lat="42.95921" lon="0.75341">
        <ele>1176.2</ele>
        <time>2019-08-31T08:52:42Z</time>
      </trkpt>
      <trkpt lat="42.95919" lon="0.75343">
        <ele>1176.5</ele>
        <time>2019-08-31T08:52:46Z</time>
      </trkpt>
      <trkpt lat="42.95916" lon="0.75342">
        <ele>1176.6</ele>
        <time>2019-08-31T08:52:49Z</time>
      </trkpt>
      <trkpt lat="42.95913" lon="0.7534">
        <ele>1177.2</ele>
        <time>2019-08-31T08:52:52Z</time>
      </trkpt>
      <trkpt lat="42.9591" lon="0.75337">
        <ele>1178.5</ele>
        <time>2019-08-31T08:52:56Z</time>
      </trkpt>
      <trkpt lat="42.95907" lon="0.75334">
        <ele>1179.6</ele>
        <time>2019-08-31T08:53:00Z</time>
      </trkpt>
      <trkpt lat="42.95905" lon="0.75331">
        <ele>1180.7</ele>
        <time>2019-08-31T08:53:03Z</time>
      </trkpt>
      <trkpt lat="42.95903" lon="0.75329">
        <ele>1181.5</ele>
        <time>2019-08-31T08:53:06Z</time>
      </trkpt>
      <trkpt lat="42.959" lon="0.75326">
        <ele>1182.4</ele>
        <time>2019-08-31T08:53:10Z</time>
      </trkpt>
      <trkpt lat="42.95898" lon="0.75324">
        <ele>1183.3</ele>
        <time>2019-08-31T08:53:13Z</time>
      </trkpt>
      <trkpt lat="42.95897" lon="0.75321">
        <ele>1184</ele>
        <time>2019-08-31T08:53:16Z</time>
      </trkpt>
      <trkpt lat="42.95894" lon="0.75317">
        <ele>1184.9</ele>
        <time>2019-08-31T08:53:20Z</time>
      </trkpt>
      <trkpt lat="42.95893" lon="0.75314">
        <ele>1186</ele>
        <time>2019-08-31T08:53:24Z</time>
      </trkpt>
      <trkpt lat="42.95891" lon="0.75311">
        <ele>1187.1</ele>
        <time>2019-08-31T08:53:29Z</time>
      </trkpt>
      <trkpt lat="42.95888" lon="0.75309">
        <ele>1188.2</ele>
        <time>2019-08-31T08:53:34Z</time>
      </trkpt>
      <trkpt lat="42.95885" lon="0.75309">
        <ele>1189.3</ele>
        <time>2019-08-31T08:53:38Z</time>
      </trkpt>
      <trkpt lat="42.95881" lon="0.7531">
        <ele>1190.7</ele>
        <time>2019-08-31T08:53:42Z</time>
      </trkpt>
      <trkpt lat="42.95878" lon="0.75311">
        <ele>1192</ele>
        <time>2019-08-31T08:53:47Z</time>
      </trkpt>
      <trkpt lat="42.95875" lon="0.75312">
        <ele>1192.9</ele>
        <time>2019-08-31T08:53:51Z</time>
      </trkpt>
      <trkpt lat="42.95872" lon="0.75312">
        <ele>1193.7</ele>
        <time>2019-08-31T08:53:55Z</time>
      </trkpt>
      <trkpt lat="42.95869" lon="0.75312">
        <ele>1194.6</ele>
        <time>2019-08-31T08:54:01Z</time>
      </trkpt>
      <trkpt lat="42.95866" lon="0.75313">
        <ele>1195.5</ele>
        <time>2019-08-31T08:54:05Z</time>
      </trkpt>
      <trkpt lat="42.95863" lon="0.75315">
        <ele>1196.5</ele>
        <time>2019-08-31T08:54:08Z</time>
      </trkpt>
      <trkpt lat="42.95862" lon="0.75319">
        <ele>1197.4</ele>
        <time>2019-08-31T08:54:11Z</time>
      </trkpt>
      <trkpt lat="42.9586" lon="0.75321">
        <ele>1198.4</ele>
        <time>2019-08-31T08:54:15Z</time>
      </trkpt>
      <trkpt lat="42.95857" lon="0.75322">
        <ele>1199.1</ele>
        <time>2019-08-31T08:54:18Z</time>
      </trkpt>
      <trkpt lat="42.95854" lon="0.75323">
        <ele>1199.8</ele>
        <time>2019-08-31T08:54:22Z</time>
      </trkpt>
      <trkpt lat="42.95851" lon="0.75323">
        <ele>1200.5</ele>
        <time>2019-08-31T08:54:25Z</time>
      </trkpt>
      <trkpt lat="42.95848" lon="0.75324">
        <ele>1201.7</ele>
        <time>2019-08-31T08:54:29Z</time>
      </trkpt>
      <trkpt lat="42.95845" lon="0.75323">
        <ele>1203.2</ele>
        <time>2019-08-31T08:54:33Z</time>
      </trkpt>
      <trkpt lat="42.95841" lon="0.75324">
        <ele>1204.3</ele>
        <time>2019-08-31T08:54:37Z</time>
      </trkpt>
      <trkpt lat="42.95838" lon="0.75327">
        <ele>1205</ele>
        <time>2019-08-31T08:54:42Z</time>
      </trkpt>
      <trkpt lat="42.95836" lon="0.7533">
        <ele>1205.7</ele>
        <time>2019-08-31T08:54:46Z</time>
      </trkpt>
      <trkpt lat="42.95835" lon="0.75333">
        <ele>1206.7</ele>
        <time>2019-08-31T08:54:49Z</time>
      </trkpt>
      <trkpt lat="42.95833" lon="0.75336">
        <ele>1207.6</ele>
        <time>2019-08-31T08:54:54Z</time>
      </trkpt>
      <trkpt lat="42.95832" lon="0.7534">
        <ele>1208.3</ele>
        <time>2019-08-31T08:54:59Z</time>
      </trkpt>
      <trkpt lat="42.95832" lon="0.75344">
        <ele>1208.9</ele>
        <time>2019-08-31T08:55:05Z</time>
      </trkpt>
      <trkpt lat="42.95832" lon="0.75348">
        <ele>1209.4</ele>
        <time>2019-08-31T08:55:09Z</time>
      </trkpt>
      <trkpt lat="42.95832" lon="0.75352">
        <ele>1210.4</ele>
        <time>2019-08-31T08:55:14Z</time>
      </trkpt>
      <trkpt lat="42.95831" lon="0.75357">
        <ele>1211.6</ele>
        <time>2019-08-31T08:55:19Z</time>
      </trkpt>
      <trkpt lat="42.95832" lon="0.7536">
        <ele>1212.5</ele>
        <time>2019-08-31T08:55:22Z</time>
      </trkpt>
      <trkpt lat="42.9583" lon="0.75364">
        <ele>1213.5</ele>
        <time>2019-08-31T08:55:27Z</time>
      </trkpt>
      <trkpt lat="42.9583" lon="0.75369">
        <ele>1214.4</ele>
        <time>2019-08-31T08:55:32Z</time>
      </trkpt>
      <trkpt lat="42.95829" lon="0.75373">
        <ele>1215.7</ele>
        <time>2019-08-31T08:55:38Z</time>
      </trkpt>
      <trkpt lat="42.95828" lon="0.75378">
        <ele>1217.1</ele>
        <time>2019-08-31T08:55:42Z</time>
      </trkpt>
      <trkpt lat="42.95826" lon="0.75382">
        <ele>1218.1</ele>
        <time>2019-08-31T08:55:46Z</time>
      </trkpt>
      <trkpt lat="42.95824" lon="0.75385">
        <ele>1218.9</ele>
        <time>2019-08-31T08:55:50Z</time>
      </trkpt>
      <trkpt lat="42.95824" lon="0.7539">
        <ele>1219.6</ele>
        <time>2019-08-31T08:55:54Z</time>
      </trkpt>
      <trkpt lat="42.95823" lon="0.75393">
        <ele>1220.3</ele>
        <time>2019-08-31T08:55:57Z</time>
      </trkpt>
      <trkpt lat="42.95822" lon="0.75397">
        <ele>1221.1</ele>
        <time>2019-08-31T08:56:01Z</time>
      </trkpt>
      <trkpt lat="42.95821" lon="0.75401">
        <ele>1221.9</ele>
        <time>2019-08-31T08:56:05Z</time>
      </trkpt>
      <trkpt lat="42.9582" lon="0.75404">
        <ele>1222.7</ele>
        <time>2019-08-31T08:56:09Z</time>
      </trkpt>
      <trkpt lat="42.95818" lon="0.75407">
        <ele>1223.5</ele>
        <time>2019-08-31T08:56:38Z</time>
      </trkpt>
      <trkpt lat="42.95816" lon="0.7541">
        <ele>1224.3</ele>
        <time>2019-08-31T08:56:42Z</time>
      </trkpt>
      <trkpt lat="42.95814" lon="0.75413">
        <ele>1225.1</ele>
        <time>2019-08-31T08:56:46Z</time>
      </trkpt>
      <trkpt lat="42.95813" lon="0.75417">
        <ele>1225.9</ele>
        <time>2019-08-31T08:56:49Z</time>
      </trkpt>
      <trkpt lat="42.9581" lon="0.75419">
        <ele>1226.7</ele>
        <time>2019-08-31T08:56:53Z</time>
      </trkpt>
      <trkpt lat="42.95808" lon="0.75421">
        <ele>1227.4</ele>
        <time>2019-08-31T08:56:57Z</time>
      </trkpt>
      <trkpt lat="42.95806" lon="0.75424">
        <ele>1227.7</ele>
        <time>2019-08-31T08:57:01Z</time>
      </trkpt>
      <trkpt lat="42.95804" lon="0.75428">
        <ele>1227.9</ele>
        <time>2019-08-31T08:57:05Z</time>
      </trkpt>
      <trkpt lat="42.95803" lon="0.75432">
        <ele>1228.5</ele>
        <time>2019-08-31T08:57:10Z</time>
      </trkpt>
      <trkpt lat="42.95803" lon="0.75436">
        <ele>1229.2</ele>
        <time>2019-08-31T08:57:15Z</time>
      </trkpt>
      <trkpt lat="42.95802" lon="0.7544">
        <ele>1229.8</ele>
        <time>2019-08-31T08:57:21Z</time>
      </trkpt>
      <trkpt lat="42.95802" lon="0.75444">
        <ele>1230</ele>
        <time>2019-08-31T08:57:25Z</time>
      </trkpt>
      <trkpt lat="42.95802" lon="0.75448">
        <ele>1230.2</ele>
        <time>2019-08-31T08:57:29Z</time>
      </trkpt>
      <trkpt lat="42.958" lon="0.75452">
        <ele>1230.5</ele>
        <time>2019-08-31T08:57:33Z</time>
      </trkpt>
      <trkpt lat="42.95799" lon="0.75456">
        <ele>1230.9</ele>
        <time>2019-08-31T08:57:38Z</time>
      </trkpt>
      <trkpt lat="42.95799" lon="0.75461">
        <ele>1231.3</ele>
        <time>2019-08-31T08:57:42Z</time>
      </trkpt>
      <trkpt lat="42.958" lon="0.75465">
        <ele>1231.8</ele>
        <time>2019-08-31T08:57:45Z</time>
      </trkpt>
      <trkpt lat="42.95799" lon="0.75469">
        <ele>1232.5</ele>
        <time>2019-08-31T08:57:50Z</time>
      </trkpt>
      <trkpt lat="42.95799" lon="0.75473">
        <ele>1233.1</ele>
        <time>2019-08-31T08:57:53Z</time>
      </trkpt>
      <trkpt lat="42.95799" lon="0.75477">
        <ele>1233.5</ele>
        <time>2019-08-31T08:57:56Z</time>
      </trkpt>
      <trkpt lat="42.95798" lon="0.75481">
        <ele>1233.8</ele>
        <time>2019-08-31T08:58:00Z</time>
      </trkpt>
      <trkpt lat="42.95798" lon="0.75486">
        <ele>1234.2</ele>
        <time>2019-08-31T08:58:05Z</time>
      </trkpt>
      <trkpt lat="42.95798" lon="0.75491">
        <ele>1235.1</ele>
        <time>2019-08-31T08:58:09Z</time>
      </trkpt>
      <trkpt lat="42.95799" lon="0.75495">
        <ele>1235.6</ele>
        <time>2019-08-31T08:58:12Z</time>
      </trkpt>
      <trkpt lat="42.95799" lon="0.75499">
        <ele>1235.9</ele>
        <time>2019-08-31T08:58:15Z</time>
      </trkpt>
      <trkpt lat="42.95798" lon="0.75503">
        <ele>1236.6</ele>
        <time>2019-08-31T08:58:19Z</time>
      </trkpt>
      <trkpt lat="42.95796" lon="0.75506">
        <ele>1237.6</ele>
        <time>2019-08-31T08:58:23Z</time>
      </trkpt>
      <trkpt lat="42.95795" lon="0.7551">
        <ele>1239</ele>
        <time>2019-08-31T08:58:27Z</time>
      </trkpt>
      <trkpt lat="42.95794" lon="0.75514">
        <ele>1240.5</ele>
        <time>2019-08-31T08:58:31Z</time>
      </trkpt>
      <trkpt lat="42.95795" lon="0.75518">
        <ele>1241.5</ele>
        <time>2019-08-31T08:58:34Z</time>
      </trkpt>
      <trkpt lat="42.95794" lon="0.75521">
        <ele>1242.4</ele>
        <time>2019-08-31T08:58:38Z</time>
      </trkpt>
      <trkpt lat="42.95792" lon="0.75525">
        <ele>1243.4</ele>
        <time>2019-08-31T08:58:42Z</time>
      </trkpt>
      <trkpt lat="42.9579" lon="0.75528">
        <ele>1244.1</ele>
        <time>2019-08-31T08:58:46Z</time>
      </trkpt>
      <trkpt lat="42.95788" lon="0.75531">
        <ele>1244.9</ele>
        <time>2019-08-31T08:58:51Z</time>
      </trkpt>
      <trkpt lat="42.95786" lon="0.75535">
        <ele>1245.8</ele>
        <time>2019-08-31T08:58:56Z</time>
      </trkpt>
      <trkpt lat="42.95783" lon="0.75534">
        <ele>1247.1</ele>
        <time>2019-08-31T08:59:37Z</time>
      </trkpt>
      <trkpt lat="42.95781" lon="0.75531">
        <ele>1248.4</ele>
        <time>2019-08-31T08:59:43Z</time>
      </trkpt>
      <trkpt lat="42.95778" lon="0.75531">
        <ele>1249.5</ele>
        <time>2019-08-31T08:59:47Z</time>
      </trkpt>
      <trkpt lat="42.95775" lon="0.75529">
        <ele>1250.5</ele>
        <time>2019-08-31T08:59:53Z</time>
      </trkpt>
      <trkpt lat="42.95772" lon="0.75525">
        <ele>1251.7</ele>
        <time>2019-08-31T08:59:57Z</time>
      </trkpt>
      <trkpt lat="42.9577" lon="0.75522">
        <ele>1252.6</ele>
        <time>2019-08-31T09:00:01Z</time>
      </trkpt>
      <trkpt lat="42.95767" lon="0.75521">
        <ele>1253.5</ele>
        <time>2019-08-31T09:00:07Z</time>
      </trkpt>
      <trkpt lat="42.95764" lon="0.75521">
        <ele>1254.4</ele>
        <time>2019-08-31T09:00:11Z</time>
      </trkpt>
      <trkpt lat="42.95761" lon="0.7552">
        <ele>1255.5</ele>
        <time>2019-08-31T09:00:14Z</time>
      </trkpt>
      <trkpt lat="42.95758" lon="0.7552">
        <ele>1256.8</ele>
        <time>2019-08-31T09:00:17Z</time>
      </trkpt>
      <trkpt lat="42.95755" lon="0.75519">
        <ele>1257.9</ele>
        <time>2019-08-31T09:00:21Z</time>
      </trkpt>
      <trkpt lat="42.95753" lon="0.75518">
        <ele>1258.7</ele>
        <time>2019-08-31T09:00:25Z</time>
      </trkpt>
      <trkpt lat="42.9575" lon="0.75518">
        <ele>1259.7</ele>
        <time>2019-08-31T09:00:29Z</time>
      </trkpt>
      <trkpt lat="42.95746" lon="0.75518">
        <ele>1260.5</ele>
        <time>2019-08-31T09:00:32Z</time>
      </trkpt>
      <trkpt lat="42.95743" lon="0.75519">
        <ele>1261.3</ele>
        <time>2019-08-31T09:00:36Z</time>
      </trkpt>
      <trkpt lat="42.9574" lon="0.75518">
        <ele>1262.1</ele>
        <time>2019-08-31T09:00:40Z</time>
      </trkpt>
      <trkpt lat="42.95738" lon="0.75516">
        <ele>1262.9</ele>
        <time>2019-08-31T09:00:44Z</time>
      </trkpt>
      <trkpt lat="42.95734" lon="0.75514">
        <ele>1263.8</ele>
        <time>2019-08-31T09:00:48Z</time>
      </trkpt>
      <trkpt lat="42.95732" lon="0.75513">
        <ele>1264.5</ele>
        <time>2019-08-31T09:00:51Z</time>
      </trkpt>
      <trkpt lat="42.95728" lon="0.75513">
        <ele>1265.3</ele>
        <time>2019-08-31T09:00:55Z</time>
      </trkpt>
      <trkpt lat="42.95725" lon="0.75512">
        <ele>1265.9</ele>
        <time>2019-08-31T09:00:58Z</time>
      </trkpt>
      <trkpt lat="42.95722" lon="0.75512">
        <ele>1266.5</ele>
        <time>2019-08-31T09:01:02Z</time>
      </trkpt>
      <trkpt lat="42.95719" lon="0.75511">
        <ele>1267.2</ele>
        <time>2019-08-31T09:01:06Z</time>
      </trkpt>
      <trkpt lat="42.95716" lon="0.7551">
        <ele>1267.6</ele>
        <time>2019-08-31T09:01:10Z</time>
      </trkpt>
      <trkpt lat="42.95713" lon="0.75509">
        <ele>1268.2</ele>
        <time>2019-08-31T09:01:15Z</time>
      </trkpt>
      <trkpt lat="42.95711" lon="0.75507">
        <ele>1268.7</ele>
        <time>2019-08-31T09:01:19Z</time>
      </trkpt>
      <trkpt lat="42.95708" lon="0.75506">
        <ele>1269.2</ele>
        <time>2019-08-31T09:01:22Z</time>
      </trkpt>
      <trkpt lat="42.95705" lon="0.75505">
        <ele>1269.8</ele>
        <time>2019-08-31T09:01:25Z</time>
      </trkpt>
      <trkpt lat="42.95702" lon="0.75503">
        <ele>1269.7</ele>
        <time>2019-08-31T09:01:29Z</time>
      </trkpt>
      <trkpt lat="42.957" lon="0.75501">
        <ele>1269.4</ele>
        <time>2019-08-31T09:01:32Z</time>
      </trkpt>
      <trkpt lat="42.95697" lon="0.755">
        <ele>1269.5</ele>
        <time>2019-08-31T09:01:36Z</time>
      </trkpt>
      <trkpt lat="42.95695" lon="0.75497">
        <ele>1269.9</ele>
        <time>2019-08-31T09:01:42Z</time>
      </trkpt>
      <trkpt lat="42.95693" lon="0.75493">
        <ele>1270.3</ele>
        <time>2019-08-31T09:01:49Z</time>
      </trkpt>
      <trkpt lat="42.95691" lon="0.75491">
        <ele>1270.5</ele>
        <time>2019-08-31T09:01:52Z</time>
      </trkpt>
      <trkpt lat="42.95689" lon="0.75487">
        <ele>1270.8</ele>
        <time>2019-08-31T09:01:56Z</time>
      </trkpt>
      <trkpt lat="42.95687" lon="0.75484">
        <ele>1271.1</ele>
        <time>2019-08-31T09:02:00Z</time>
      </trkpt>
      <trkpt lat="42.95684" lon="0.75482">
        <ele>1271.7</ele>
        <time>2019-08-31T09:02:05Z</time>
      </trkpt>
      <trkpt lat="42.95682" lon="0.75479">
        <ele>1272.3</ele>
        <time>2019-08-31T09:02:10Z</time>
      </trkpt>
      <trkpt lat="42.9568" lon="0.75477">
        <ele>1272.8</ele>
        <time>2019-08-31T09:02:13Z</time>
      </trkpt>
      <trkpt lat="42.95677" lon="0.75475">
        <ele>1273.1</ele>
        <time>2019-08-31T09:02:16Z</time>
      </trkpt>
      <trkpt lat="42.95674" lon="0.75472">
        <ele>1273.3</ele>
        <time>2019-08-31T09:02:19Z</time>
      </trkpt>
      <trkpt lat="42.95672" lon="0.75469">
        <ele>1273.7</ele>
        <time>2019-08-31T09:02:23Z</time>
      </trkpt>
      <trkpt lat="42.95669" lon="0.75469">
        <ele>1274.3</ele>
        <time>2019-08-31T09:02:26Z</time>
      </trkpt>
      <trkpt lat="42.95666" lon="0.75468">
        <ele>1274.9</ele>
        <time>2019-08-31T09:02:29Z</time>
      </trkpt>
      <trkpt lat="42.95663" lon="0.75466">
        <ele>1275.5</ele>
        <time>2019-08-31T09:02:33Z</time>
      </trkpt>
      <trkpt lat="42.95661" lon="0.75465">
        <ele>1276.1</ele>
        <time>2019-08-31T09:02:37Z</time>
      </trkpt>
      <trkpt lat="42.95657" lon="0.75464">
        <ele>1276.9</ele>
        <time>2019-08-31T09:02:40Z</time>
      </trkpt>
      <trkpt lat="42.95655" lon="0.75464">
        <ele>1277.5</ele>
        <time>2019-08-31T09:02:44Z</time>
      </trkpt>
      <trkpt lat="42.95651" lon="0.75464">
        <ele>1278.4</ele>
        <time>2019-08-31T09:02:48Z</time>
      </trkpt>
      <trkpt lat="42.95648" lon="0.75464">
        <ele>1279.3</ele>
        <time>2019-08-31T09:02:52Z</time>
      </trkpt>
      <trkpt lat="42.95645" lon="0.7546">
        <ele>1280.3</ele>
        <time>2019-08-31T09:02:56Z</time>
      </trkpt>
      <trkpt lat="42.95644" lon="0.75464">
        <ele>1281.4</ele>
        <time>2019-08-31T09:03:39Z</time>
      </trkpt>
      <trkpt lat="42.95641" lon="0.75465">
        <ele>1282.3</ele>
        <time>2019-08-31T09:03:44Z</time>
      </trkpt>
      <trkpt lat="42.95638" lon="0.75468">
        <ele>1283.3</ele>
        <time>2019-08-31T09:03:48Z</time>
      </trkpt>
      <trkpt lat="42.95635" lon="0.7547">
        <ele>1284.2</ele>
        <time>2019-08-31T09:03:51Z</time>
      </trkpt>
      <trkpt lat="42.95633" lon="0.75471">
        <ele>1285</ele>
        <time>2019-08-31T09:03:56Z</time>
      </trkpt>
      <trkpt lat="42.9563" lon="0.75472">
        <ele>1285.8</ele>
        <time>2019-08-31T09:04:00Z</time>
      </trkpt>
      <trkpt lat="42.95627" lon="0.75475">
        <ele>1287</ele>
        <time>2019-08-31T09:04:03Z</time>
      </trkpt>
      <trkpt lat="42.95625" lon="0.75477">
        <ele>1288</ele>
        <time>2019-08-31T09:04:06Z</time>
      </trkpt>
      <trkpt lat="42.95622" lon="0.75479">
        <ele>1289</ele>
        <time>2019-08-31T09:04:10Z</time>
      </trkpt>
      <trkpt lat="42.9562" lon="0.75482">
        <ele>1289.9</ele>
        <time>2019-08-31T09:04:16Z</time>
      </trkpt>
      <trkpt lat="42.95618" lon="0.75484">
        <ele>1290.6</ele>
        <time>2019-08-31T09:04:19Z</time>
      </trkpt>
      <trkpt lat="42.95616" lon="0.75487">
        <ele>1291.5</ele>
        <time>2019-08-31T09:04:23Z</time>
      </trkpt>
      <trkpt lat="42.95612" lon="0.75487">
        <ele>1293.1</ele>
        <time>2019-08-31T09:04:26Z</time>
      </trkpt>
      <trkpt lat="42.9561" lon="0.75488">
        <ele>1294.4</ele>
        <time>2019-08-31T09:04:30Z</time>
      </trkpt>
      <trkpt lat="42.95607" lon="0.7549">
        <ele>1295.8</ele>
        <time>2019-08-31T09:04:34Z</time>
      </trkpt>
      <trkpt lat="42.95604" lon="0.75493">
        <ele>1296.8</ele>
        <time>2019-08-31T09:04:40Z</time>
      </trkpt>
      <trkpt lat="42.95601" lon="0.75492">
        <ele>1297.9</ele>
        <time>2019-08-31T09:04:44Z</time>
      </trkpt>
      <trkpt lat="42.95599" lon="0.75495">
        <ele>1298.9</ele>
        <time>2019-08-31T09:04:48Z</time>
      </trkpt>
      <trkpt lat="42.95597" lon="0.75497">
        <ele>1299.9</ele>
        <time>2019-08-31T09:05:02Z</time>
      </trkpt>
      <trkpt lat="42.95594" lon="0.75498">
        <ele>1300.8</ele>
        <time>2019-08-31T09:05:07Z</time>
      </trkpt>
      <trkpt lat="42.95593" lon="0.75502">
        <ele>1301.5</ele>
        <time>2019-08-31T09:05:12Z</time>
      </trkpt>
      <trkpt lat="42.95591" lon="0.75504">
        <ele>1302.1</ele>
        <time>2019-08-31T09:05:17Z</time>
      </trkpt>
      <trkpt lat="42.95589" lon="0.75506">
        <ele>1303.2</ele>
        <time>2019-08-31T09:05:32Z</time>
      </trkpt>
      <trkpt lat="42.95587" lon="0.75509">
        <ele>1304.5</ele>
        <time>2019-08-31T09:05:38Z</time>
      </trkpt>
      <trkpt lat="42.95587" lon="0.75513">
        <ele>1305.8</ele>
        <time>2019-08-31T09:05:44Z</time>
      </trkpt>
      <trkpt lat="42.95587" lon="0.75517">
        <ele>1307</ele>
        <time>2019-08-31T09:05:50Z</time>
      </trkpt>
      <trkpt lat="42.95586" lon="0.75521">
        <ele>1308.3</ele>
        <time>2019-08-31T09:05:53Z</time>
      </trkpt>
      <trkpt lat="42.95585" lon="0.75525">
        <ele>1309.6</ele>
        <time>2019-08-31T09:05:57Z</time>
      </trkpt>
      <trkpt lat="42.95584" lon="0.75529">
        <ele>1311</ele>
        <time>2019-08-31T09:06:01Z</time>
      </trkpt>
      <trkpt lat="42.95583" lon="0.75533">
        <ele>1311.7</ele>
        <time>2019-08-31T09:06:04Z</time>
      </trkpt>
      <trkpt lat="42.95583" lon="0.75537">
        <ele>1312.6</ele>
        <time>2019-08-31T09:06:08Z</time>
      </trkpt>
      <trkpt lat="42.95583" lon="0.75541">
        <ele>1313.5</ele>
        <time>2019-08-31T09:06:13Z</time>
      </trkpt>
      <trkpt lat="42.9558" lon="0.75545">
        <ele>1314.5</ele>
        <time>2019-08-31T09:06:18Z</time>
      </trkpt>
      <trkpt lat="42.9558" lon="0.75549">
        <ele>1315.5</ele>
        <time>2019-08-31T09:06:24Z</time>
      </trkpt>
      <trkpt lat="42.95581" lon="0.75552">
        <ele>1316.3</ele>
        <time>2019-08-31T09:06:29Z</time>
      </trkpt>
      <trkpt lat="42.95584" lon="0.75556">
        <ele>1317.1</ele>
        <time>2019-08-31T09:06:34Z</time>
      </trkpt>
      <trkpt lat="42.95586" lon="0.75559">
        <ele>1317.9</ele>
        <time>2019-08-31T09:06:38Z</time>
      </trkpt>
      <trkpt lat="42.95583" lon="0.75562">
        <ele>1319.1</ele>
        <time>2019-08-31T09:06:49Z</time>
      </trkpt>
      <trkpt lat="42.9558" lon="0.75565">
        <ele>1320.1</ele>
        <time>2019-08-31T09:06:52Z</time>
      </trkpt>
      <trkpt lat="42.95577" lon="0.75564">
        <ele>1320.8</ele>
        <time>2019-08-31T09:06:55Z</time>
      </trkpt>
      <trkpt lat="42.95574" lon="0.75563">
        <ele>1321.6</ele>
        <time>2019-08-31T09:06:58Z</time>
      </trkpt>
      <trkpt lat="42.95572" lon="0.75563">
        <ele>1322.7</ele>
        <time>2019-08-31T09:07:01Z</time>
      </trkpt>
      <trkpt lat="42.95569" lon="0.75565">
        <ele>1323.9</ele>
        <time>2019-08-31T09:07:04Z</time>
      </trkpt>
      <trkpt lat="42.95566" lon="0.75569">
        <ele>1324.7</ele>
        <time>2019-08-31T09:07:08Z</time>
      </trkpt>
      <trkpt lat="42.95564" lon="0.7557">
        <ele>1325.3</ele>
        <time>2019-08-31T09:07:12Z</time>
      </trkpt>
      <trkpt lat="42.95561" lon="0.75569">
        <ele>1326</ele>
        <time>2019-08-31T09:07:16Z</time>
      </trkpt>
      <trkpt lat="42.95558" lon="0.75571">
        <ele>1326.9</ele>
        <time>2019-08-31T09:07:20Z</time>
      </trkpt>
      <trkpt lat="42.95554" lon="0.75573">
        <ele>1327.6</ele>
        <time>2019-08-31T09:07:24Z</time>
      </trkpt>
      <trkpt lat="42.95552" lon="0.75575">
        <ele>1328.4</ele>
        <time>2019-08-31T09:07:27Z</time>
      </trkpt>
      <trkpt lat="42.95549" lon="0.75575">
        <ele>1329.5</ele>
        <time>2019-08-31T09:07:31Z</time>
      </trkpt>
      <trkpt lat="42.95546" lon="0.75574">
        <ele>1330.6</ele>
        <time>2019-08-31T09:07:35Z</time>
      </trkpt>
      <trkpt lat="42.95543" lon="0.75573">
        <ele>1331.7</ele>
        <time>2019-08-31T09:07:38Z</time>
      </trkpt>
      <trkpt lat="42.9554" lon="0.75574">
        <ele>1332.6</ele>
        <time>2019-08-31T09:07:42Z</time>
      </trkpt>
      <trkpt lat="42.95537" lon="0.75575">
        <ele>1333.5</ele>
        <time>2019-08-31T09:07:46Z</time>
      </trkpt>
      <trkpt lat="42.95534" lon="0.75577">
        <ele>1334.3</ele>
        <time>2019-08-31T09:07:50Z</time>
      </trkpt>
      <trkpt lat="42.95531" lon="0.75579">
        <ele>1335.1</ele>
        <time>2019-08-31T09:07:54Z</time>
      </trkpt>
      <trkpt lat="42.95528" lon="0.7558">
        <ele>1336</ele>
        <time>2019-08-31T09:07:58Z</time>
      </trkpt>
      <trkpt lat="42.95525" lon="0.75582">
        <ele>1336.9</ele>
        <time>2019-08-31T09:08:02Z</time>
      </trkpt>
      <trkpt lat="42.95522" lon="0.75584">
        <ele>1338</ele>
        <time>2019-08-31T09:08:06Z</time>
      </trkpt>
      <trkpt lat="42.9552" lon="0.75586">
        <ele>1338.9</ele>
        <time>2019-08-31T09:08:09Z</time>
      </trkpt>
      <trkpt lat="42.95518" lon="0.75589">
        <ele>1339.7</ele>
        <time>2019-08-31T09:08:12Z</time>
      </trkpt>
      <trkpt lat="42.95516" lon="0.75592">
        <ele>1340.4</ele>
        <time>2019-08-31T09:08:15Z</time>
      </trkpt>
      <trkpt lat="42.95515" lon="0.75595">
        <ele>1341.1</ele>
        <time>2019-08-31T09:08:18Z</time>
      </trkpt>
      <trkpt lat="42.95512" lon="0.75598">
        <ele>1341.7</ele>
        <time>2019-08-31T09:08:21Z</time>
      </trkpt>
      <trkpt lat="42.9551" lon="0.756">
        <ele>1342.3</ele>
        <time>2019-08-31T09:08:24Z</time>
      </trkpt>
      <trkpt lat="42.95507" lon="0.75602">
        <ele>1342.9</ele>
        <time>2019-08-31T09:08:27Z</time>
      </trkpt>
      <trkpt lat="42.95504" lon="0.75603">
        <ele>1343.3</ele>
        <time>2019-08-31T09:08:30Z</time>
      </trkpt>
      <trkpt lat="42.95501" lon="0.75605">
        <ele>1343.8</ele>
        <time>2019-08-31T09:08:34Z</time>
      </trkpt>
      <trkpt lat="42.95498" lon="0.75608">
        <ele>1344.3</ele>
        <time>2019-08-31T09:08:38Z</time>
      </trkpt>
      <trkpt lat="42.95496" lon="0.75611">
        <ele>1344.7</ele>
        <time>2019-08-31T09:08:41Z</time>
      </trkpt>
      <trkpt lat="42.95495" lon="0.75615">
        <ele>1345.1</ele>
        <time>2019-08-31T09:08:45Z</time>
      </trkpt>
      <trkpt lat="42.95494" lon="0.75618">
        <ele>1345.7</ele>
        <time>2019-08-31T09:08:48Z</time>
      </trkpt>
      <trkpt lat="42.95492" lon="0.75622">
        <ele>1346.3</ele>
        <time>2019-08-31T09:08:51Z</time>
      </trkpt>
      <trkpt lat="42.9549" lon="0.75626">
        <ele>1347.2</ele>
        <time>2019-08-31T09:08:55Z</time>
      </trkpt>
      <trkpt lat="42.95489" lon="0.75629">
        <ele>1347.5</ele>
        <time>2019-08-31T09:08:58Z</time>
      </trkpt>
      <trkpt lat="42.95488" lon="0.75633">
        <ele>1347.9</ele>
        <time>2019-08-31T09:09:01Z</time>
      </trkpt>
      <trkpt lat="42.95486" lon="0.75636">
        <ele>1348.4</ele>
        <time>2019-08-31T09:09:05Z</time>
      </trkpt>
      <trkpt lat="42.95483" lon="0.7564">
        <ele>1349.3</ele>
        <time>2019-08-31T09:09:09Z</time>
      </trkpt>
      <trkpt lat="42.95481" lon="0.75643">
        <ele>1350</ele>
        <time>2019-08-31T09:09:12Z</time>
      </trkpt>
      <trkpt lat="42.95479" lon="0.75646">
        <ele>1350.8</ele>
        <time>2019-08-31T09:09:16Z</time>
      </trkpt>
      <trkpt lat="42.95476" lon="0.75649">
        <ele>1351.5</ele>
        <time>2019-08-31T09:09:19Z</time>
      </trkpt>
      <trkpt lat="42.95475" lon="0.75652">
        <ele>1352.1</ele>
        <time>2019-08-31T09:09:22Z</time>
      </trkpt>
      <trkpt lat="42.95473" lon="0.75656">
        <ele>1352.8</ele>
        <time>2019-08-31T09:09:25Z</time>
      </trkpt>
      <trkpt lat="42.95472" lon="0.75659">
        <ele>1353.3</ele>
        <time>2019-08-31T09:09:28Z</time>
      </trkpt>
      <trkpt lat="42.95469" lon="0.75662">
        <ele>1353.9</ele>
        <time>2019-08-31T09:09:32Z</time>
      </trkpt>
      <trkpt lat="42.95467" lon="0.75664">
        <ele>1354.8</ele>
        <time>2019-08-31T09:09:35Z</time>
      </trkpt>
      <trkpt lat="42.95464" lon="0.75666">
        <ele>1355.8</ele>
        <time>2019-08-31T09:09:39Z</time>
      </trkpt>
      <trkpt lat="42.95461" lon="0.75667">
        <ele>1356.6</ele>
        <time>2019-08-31T09:09:42Z</time>
      </trkpt>
      <trkpt lat="42.95458" lon="0.75667">
        <ele>1357.2</ele>
        <time>2019-08-31T09:09:44Z</time>
      </trkpt>
      <trkpt lat="42.95454" lon="0.75668">
        <ele>1358.1</ele>
        <time>2019-08-31T09:09:47Z</time>
      </trkpt>
      <trkpt lat="42.9545" lon="0.75669">
        <ele>1358.9</ele>
        <time>2019-08-31T09:09:50Z</time>
      </trkpt>
      <trkpt lat="42.95447" lon="0.7567">
        <ele>1359.7</ele>
        <time>2019-08-31T09:09:53Z</time>
      </trkpt>
      <trkpt lat="42.95444" lon="0.75672">
        <ele>1360.6</ele>
        <time>2019-08-31T09:09:56Z</time>
      </trkpt>
      <trkpt lat="42.95441" lon="0.75674">
        <ele>1361.2</ele>
        <time>2019-08-31T09:09:59Z</time>
      </trkpt>
      <trkpt lat="42.95438" lon="0.75678">
        <ele>1361.8</ele>
        <time>2019-08-31T09:10:02Z</time>
      </trkpt>
      <trkpt lat="42.95435" lon="0.75681">
        <ele>1362.4</ele>
        <time>2019-08-31T09:10:05Z</time>
      </trkpt>
      <trkpt lat="42.95432" lon="0.75684">
        <ele>1362.8</ele>
        <time>2019-08-31T09:10:08Z</time>
      </trkpt>
      <trkpt lat="42.9543" lon="0.75687">
        <ele>1363.2</ele>
        <time>2019-08-31T09:10:10Z</time>
      </trkpt>
      <trkpt lat="42.95427" lon="0.75691">
        <ele>1363.6</ele>
        <time>2019-08-31T09:10:13Z</time>
      </trkpt>
      <trkpt lat="42.95424" lon="0.75694">
        <ele>1364.1</ele>
        <time>2019-08-31T09:10:16Z</time>
      </trkpt>
      <trkpt lat="42.95422" lon="0.75697">
        <ele>1364.6</ele>
        <time>2019-08-31T09:10:19Z</time>
      </trkpt>
      <trkpt lat="42.95419" lon="0.75701">
        <ele>1365.3</ele>
        <time>2019-08-31T09:10:22Z</time>
      </trkpt>
      <trkpt lat="42.95418" lon="0.75705">
        <ele>1365.9</ele>
        <time>2019-08-31T09:10:25Z</time>
      </trkpt>
      <trkpt lat="42.95417" lon="0.75708">
        <ele>1366.5</ele>
        <time>2019-08-31T09:10:28Z</time>
      </trkpt>
      <trkpt lat="42.95414" lon="0.75712">
        <ele>1366.8</ele>
        <time>2019-08-31T09:10:31Z</time>
      </trkpt>
      <trkpt lat="42.95412" lon="0.75715">
        <ele>1367.1</ele>
        <time>2019-08-31T09:10:34Z</time>
      </trkpt>
      <trkpt lat="42.9541" lon="0.75718">
        <ele>1367.5</ele>
        <time>2019-08-31T09:10:37Z</time>
      </trkpt>
      <trkpt lat="42.95408" lon="0.75721">
        <ele>1367.7</ele>
        <time>2019-08-31T09:10:40Z</time>
      </trkpt>
      <trkpt lat="42.95405" lon="0.75724">
        <ele>1368</ele>
        <time>2019-08-31T09:10:43Z</time>
      </trkpt>
      <trkpt lat="42.95402" lon="0.75726">
        <ele>1368</ele>
        <time>2019-08-31T09:10:46Z</time>
      </trkpt>
      <trkpt lat="42.954" lon="0.75729">
        <ele>1367.9</ele>
        <time>2019-08-31T09:10:49Z</time>
      </trkpt>
      <trkpt lat="42.95397" lon="0.75731">
        <ele>1367.8</ele>
        <time>2019-08-31T09:10:52Z</time>
      </trkpt>
      <trkpt lat="42.95395" lon="0.75734">
        <ele>1368.1</ele>
        <time>2019-08-31T09:10:55Z</time>
      </trkpt>
      <trkpt lat="42.95393" lon="0.75738">
        <ele>1368.5</ele>
        <time>2019-08-31T09:10:58Z</time>
      </trkpt>
      <trkpt lat="42.95391" lon="0.75743">
        <ele>1368.6</ele>
        <time>2019-08-31T09:11:01Z</time>
      </trkpt>
      <trkpt lat="42.95389" lon="0.75747">
        <ele>1368.3</ele>
        <time>2019-08-31T09:11:04Z</time>
      </trkpt>
      <trkpt lat="42.95387" lon="0.75751">
        <ele>1368.1</ele>
        <time>2019-08-31T09:11:07Z</time>
      </trkpt>
      <trkpt lat="42.95385" lon="0.75754">
        <ele>1368.1</ele>
        <time>2019-08-31T09:11:10Z</time>
      </trkpt>
      <trkpt lat="42.95384" lon="0.75757">
        <ele>1368.1</ele>
        <time>2019-08-31T09:11:13Z</time>
      </trkpt>
      <trkpt lat="42.95382" lon="0.75761">
        <ele>1368</ele>
        <time>2019-08-31T09:11:16Z</time>
      </trkpt>
      <trkpt lat="42.9538" lon="0.75765">
        <ele>1367.6</ele>
        <time>2019-08-31T09:11:19Z</time>
      </trkpt>
      <trkpt lat="42.95379" lon="0.75768">
        <ele>1367.1</ele>
        <time>2019-08-31T09:11:22Z</time>
      </trkpt>
      <trkpt lat="42.95376" lon="0.75771">
        <ele>1367.1</ele>
        <time>2019-08-31T09:11:26Z</time>
      </trkpt>
      <trkpt lat="42.95374" lon="0.75775">
        <ele>1367.4</ele>
        <time>2019-08-31T09:11:29Z</time>
      </trkpt>
      <trkpt lat="42.95373" lon="0.75778">
        <ele>1367.4</ele>
        <time>2019-08-31T09:11:32Z</time>
      </trkpt>
      <trkpt lat="42.95372" lon="0.75782">
        <ele>1366.9</ele>
        <time>2019-08-31T09:11:35Z</time>
      </trkpt>
      <trkpt lat="42.9537" lon="0.75785">
        <ele>1366.4</ele>
        <time>2019-08-31T09:11:38Z</time>
      </trkpt>
      <trkpt lat="42.95368" lon="0.75789">
        <ele>1365.9</ele>
        <time>2019-08-31T09:11:41Z</time>
      </trkpt>
      <trkpt lat="42.95365" lon="0.75792">
        <ele>1365.3</ele>
        <time>2019-08-31T09:11:44Z</time>
      </trkpt>
      <trkpt lat="42.95363" lon="0.75796">
        <ele>1364.6</ele>
        <time>2019-08-31T09:11:47Z</time>
      </trkpt>
      <trkpt lat="42.95361" lon="0.758">
        <ele>1363.8</ele>
        <time>2019-08-31T09:11:50Z</time>
      </trkpt>
      <trkpt lat="42.9536" lon="0.75805">
        <ele>1362.9</ele>
        <time>2019-08-31T09:11:53Z</time>
      </trkpt>
      <trkpt lat="42.95358" lon="0.75809">
        <ele>1361.7</ele>
        <time>2019-08-31T09:11:56Z</time>
      </trkpt>
      <trkpt lat="42.95356" lon="0.75813">
        <ele>1360.5</ele>
        <time>2019-08-31T09:11:59Z</time>
      </trkpt>
      <trkpt lat="42.95355" lon="0.75817">
        <ele>1360.4</ele>
        <time>2019-08-31T09:12:02Z</time>
      </trkpt>
      <trkpt lat="42.95353" lon="0.7582">
        <ele>1360.3</ele>
        <time>2019-08-31T09:12:05Z</time>
      </trkpt>
      <trkpt lat="42.95352" lon="0.75825">
        <ele>1360.2</ele>
        <time>2019-08-31T09:12:08Z</time>
      </trkpt>
      <trkpt lat="42.95351" lon="0.7583">
        <ele>1360.2</ele>
        <time>2019-08-31T09:12:11Z</time>
      </trkpt>
      <trkpt lat="42.95351" lon="0.75834">
        <ele>1360.1</ele>
        <time>2019-08-31T09:12:13Z</time>
      </trkpt>
      <trkpt lat="42.95351" lon="0.75838">
        <ele>1359.9</ele>
        <time>2019-08-31T09:12:15Z</time>
      </trkpt>
      <trkpt lat="42.95352" lon="0.75842">
        <ele>1359.7</ele>
        <time>2019-08-31T09:12:17Z</time>
      </trkpt>
      <trkpt lat="42.95352" lon="0.75847">
        <ele>1359.4</ele>
        <time>2019-08-31T09:12:20Z</time>
      </trkpt>
      <trkpt lat="42.95352" lon="0.75852">
        <ele>1359.4</ele>
        <time>2019-08-31T09:12:23Z</time>
      </trkpt>
      <trkpt lat="42.95351" lon="0.75857">
        <ele>1359.4</ele>
        <time>2019-08-31T09:12:26Z</time>
      </trkpt>
      <trkpt lat="42.9535" lon="0.75862">
        <ele>1359.5</ele>
        <time>2019-08-31T09:12:29Z</time>
      </trkpt>
      <trkpt lat="42.95349" lon="0.75866">
        <ele>1359.6</ele>
        <time>2019-08-31T09:12:32Z</time>
      </trkpt>
      <trkpt lat="42.95348" lon="0.75871">
        <ele>1359.8</ele>
        <time>2019-08-31T09:12:35Z</time>
      </trkpt>
      <trkpt lat="42.95346" lon="0.75876">
        <ele>1359.8</ele>
        <time>2019-08-31T09:12:38Z</time>
      </trkpt>
      <trkpt lat="42.95344" lon="0.75879">
        <ele>1359.7</ele>
        <time>2019-08-31T09:12:41Z</time>
      </trkpt>
      <trkpt lat="42.95342" lon="0.75883">
        <ele>1359.6</ele>
        <time>2019-08-31T09:12:44Z</time>
      </trkpt>
      <trkpt lat="42.9534" lon="0.75886">
        <ele>1359.5</ele>
        <time>2019-08-31T09:12:46Z</time>
      </trkpt>
      <trkpt lat="42.95337" lon="0.75889">
        <ele>1359.3</ele>
        <time>2019-08-31T09:12:49Z</time>
      </trkpt>
      <trkpt lat="42.95335" lon="0.75892">
        <ele>1359.2</ele>
        <time>2019-08-31T09:12:52Z</time>
      </trkpt>
      <trkpt lat="42.95333" lon="0.75896">
        <ele>1359.2</ele>
        <time>2019-08-31T09:12:55Z</time>
      </trkpt>
      <trkpt lat="42.95331" lon="0.759">
        <ele>1359.2</ele>
        <time>2019-08-31T09:12:58Z</time>
      </trkpt>
      <trkpt lat="42.95329" lon="0.75903">
        <ele>1358.9</ele>
        <time>2019-08-31T09:13:01Z</time>
      </trkpt>
      <trkpt lat="42.95328" lon="0.75908">
        <ele>1358.5</ele>
        <time>2019-08-31T09:13:04Z</time>
      </trkpt>
      <trkpt lat="42.95326" lon="0.75911">
        <ele>1358.5</ele>
        <time>2019-08-31T09:13:07Z</time>
      </trkpt>
      <trkpt lat="42.95323" lon="0.75914">
        <ele>1358.7</ele>
        <time>2019-08-31T09:13:10Z</time>
      </trkpt>
      <trkpt lat="42.9532" lon="0.75916">
        <ele>1358.9</ele>
        <time>2019-08-31T09:13:13Z</time>
      </trkpt>
      <trkpt lat="42.95318" lon="0.75919">
        <ele>1359.4</ele>
        <time>2019-08-31T09:13:17Z</time>
      </trkpt>
      <trkpt lat="42.95318" lon="0.75923">
        <ele>1359.9</ele>
        <time>2019-08-31T09:13:25Z</time>
      </trkpt>
      <trkpt lat="42.95318" lon="0.75928">
        <ele>1360.7</ele>
        <time>2019-08-31T09:13:28Z</time>
      </trkpt>
      <trkpt lat="42.9532" lon="0.75924">
        <ele>1361.4</ele>
        <time>2019-08-31T09:14:22Z</time>
      </trkpt>
      <trkpt lat="42.95322" lon="0.75927">
        <ele>1362.2</ele>
        <time>2019-08-31T09:14:57Z</time>
      </trkpt>
      <trkpt lat="42.95324" lon="0.75924">
        <ele>1363.2</ele>
        <time>2019-08-31T09:15:53Z</time>
      </trkpt>
      <trkpt lat="42.95319" lon="0.75926">
        <ele>1364.8</ele>
        <time>2019-08-31T09:18:22Z</time>
      </trkpt>
      <trkpt lat="42.95318" lon="0.75922">
        <ele>1366</ele>
        <time>2019-08-31T09:18:25Z</time>
      </trkpt>
      <trkpt lat="42.95316" lon="0.75919">
        <ele>1367</ele>
        <time>2019-08-31T09:18:28Z</time>
      </trkpt>
      <trkpt lat="42.95315" lon="0.75916">
        <ele>1368</ele>
        <time>2019-08-31T09:18:31Z</time>
      </trkpt>
      <trkpt lat="42.95313" lon="0.75912">
        <ele>1368.4</ele>
        <time>2019-08-31T09:18:42Z</time>
      </trkpt>
      <trkpt lat="42.95311" lon="0.75908">
        <ele>1368.8</ele>
        <time>2019-08-31T09:18:45Z</time>
      </trkpt>
      <trkpt lat="42.95309" lon="0.75905">
        <ele>1369.4</ele>
        <time>2019-08-31T09:18:48Z</time>
      </trkpt>
      <trkpt lat="42.95306" lon="0.75902">
        <ele>1369.7</ele>
        <time>2019-08-31T09:18:51Z</time>
      </trkpt>
      <trkpt lat="42.95304" lon="0.759">
        <ele>1370.1</ele>
        <time>2019-08-31T09:18:54Z</time>
      </trkpt>
      <trkpt lat="42.95301" lon="0.75897">
        <ele>1370.4</ele>
        <time>2019-08-31T09:18:57Z</time>
      </trkpt>
      <trkpt lat="42.95298" lon="0.75894">
        <ele>1370.9</ele>
        <time>2019-08-31T09:19:00Z</time>
      </trkpt>
      <trkpt lat="42.95295" lon="0.75893">
        <ele>1371.4</ele>
        <time>2019-08-31T09:19:03Z</time>
      </trkpt>
      <trkpt lat="42.95291" lon="0.75892">
        <ele>1372.5</ele>
        <time>2019-08-31T09:19:06Z</time>
      </trkpt>
      <trkpt lat="42.95288" lon="0.75891">
        <ele>1373.7</ele>
        <time>2019-08-31T09:19:09Z</time>
      </trkpt>
      <trkpt lat="42.95284" lon="0.7589">
        <ele>1374.2</ele>
        <time>2019-08-31T09:19:12Z</time>
      </trkpt>
      <trkpt lat="42.95281" lon="0.7589">
        <ele>1374.6</ele>
        <time>2019-08-31T09:19:15Z</time>
      </trkpt>
      <trkpt lat="42.95278" lon="0.7589">
        <ele>1375.6</ele>
        <time>2019-08-31T09:19:18Z</time>
      </trkpt>
      <trkpt lat="42.95275" lon="0.75889">
        <ele>1376.7</ele>
        <time>2019-08-31T09:19:22Z</time>
      </trkpt>
      <trkpt lat="42.95272" lon="0.75889">
        <ele>1377.7</ele>
        <time>2019-08-31T09:19:26Z</time>
      </trkpt>
      <trkpt lat="42.95268" lon="0.75887">
        <ele>1379.2</ele>
        <time>2019-08-31T09:19:30Z</time>
      </trkpt>
      <trkpt lat="42.95266" lon="0.75885">
        <ele>1380.3</ele>
        <time>2019-08-31T09:19:33Z</time>
      </trkpt>
      <trkpt lat="42.95263" lon="0.75883">
        <ele>1381.7</ele>
        <time>2019-08-31T09:19:37Z</time>
      </trkpt>
      <trkpt lat="42.9526" lon="0.7588">
        <ele>1382.8</ele>
        <time>2019-08-31T09:19:41Z</time>
      </trkpt>
      <trkpt lat="42.95258" lon="0.75877">
        <ele>1383.9</ele>
        <time>2019-08-31T09:19:44Z</time>
      </trkpt>
      <trkpt lat="42.95256" lon="0.75874">
        <ele>1385.2</ele>
        <time>2019-08-31T09:19:47Z</time>
      </trkpt>
      <trkpt lat="42.95255" lon="0.7587">
        <ele>1386.2</ele>
        <time>2019-08-31T09:19:50Z</time>
      </trkpt>
      <trkpt lat="42.95253" lon="0.75866">
        <ele>1386.8</ele>
        <time>2019-08-31T09:19:53Z</time>
      </trkpt>
      <trkpt lat="42.95252" lon="0.75862">
        <ele>1387.4</ele>
        <time>2019-08-31T09:19:56Z</time>
      </trkpt>
      <trkpt lat="42.95249" lon="0.75859">
        <ele>1388.2</ele>
        <time>2019-08-31T09:19:59Z</time>
      </trkpt>
      <trkpt lat="42.95246" lon="0.75857">
        <ele>1389.2</ele>
        <time>2019-08-31T09:20:02Z</time>
      </trkpt>
      <trkpt lat="42.95243" lon="0.75856">
        <ele>1390.2</ele>
        <time>2019-08-31T09:20:05Z</time>
      </trkpt>
      <trkpt lat="42.95239" lon="0.75855">
        <ele>1391.4</ele>
        <time>2019-08-31T09:20:08Z</time>
      </trkpt>
      <trkpt lat="42.95236" lon="0.75854">
        <ele>1392.5</ele>
        <time>2019-08-31T09:20:11Z</time>
      </trkpt>
      <trkpt lat="42.95233" lon="0.75854">
        <ele>1393.9</ele>
        <time>2019-08-31T09:20:14Z</time>
      </trkpt>
      <trkpt lat="42.9523" lon="0.75853">
        <ele>1394.6</ele>
        <time>2019-08-31T09:20:17Z</time>
      </trkpt>
      <trkpt lat="42.95227" lon="0.75851">
        <ele>1395.3</ele>
        <time>2019-08-31T09:20:20Z</time>
      </trkpt>
      <trkpt lat="42.95224" lon="0.75849">
        <ele>1396.1</ele>
        <time>2019-08-31T09:20:23Z</time>
      </trkpt>
      <trkpt lat="42.95221" lon="0.75848">
        <ele>1396.8</ele>
        <time>2019-08-31T09:20:26Z</time>
      </trkpt>
      <trkpt lat="42.95218" lon="0.75847">
        <ele>1397.7</ele>
        <time>2019-08-31T09:20:29Z</time>
      </trkpt>
      <trkpt lat="42.95215" lon="0.75845">
        <ele>1398.6</ele>
        <time>2019-08-31T09:20:32Z</time>
      </trkpt>
      <trkpt lat="42.95212" lon="0.75845">
        <ele>1399.6</ele>
        <time>2019-08-31T09:20:35Z</time>
      </trkpt>
      <trkpt lat="42.95209" lon="0.75844">
        <ele>1400.5</ele>
        <time>2019-08-31T09:20:38Z</time>
      </trkpt>
      <trkpt lat="42.95206" lon="0.75842">
        <ele>1401.4</ele>
        <time>2019-08-31T09:20:42Z</time>
      </trkpt>
      <trkpt lat="42.95204" lon="0.75839">
        <ele>1402.1</ele>
        <time>2019-08-31T09:20:46Z</time>
      </trkpt>
      <trkpt lat="42.952" lon="0.75839">
        <ele>1402.8</ele>
        <time>2019-08-31T09:20:50Z</time>
      </trkpt>
      <trkpt lat="42.95197" lon="0.75839">
        <ele>1403.1</ele>
        <time>2019-08-31T09:20:54Z</time>
      </trkpt>
      <trkpt lat="42.95194" lon="0.75839">
        <ele>1403.3</ele>
        <time>2019-08-31T09:20:57Z</time>
      </trkpt>
      <trkpt lat="42.95191" lon="0.7584">
        <ele>1403.3</ele>
        <time>2019-08-31T09:21:00Z</time>
      </trkpt>
      <trkpt lat="42.95188" lon="0.75841">
        <ele>1403.2</ele>
        <time>2019-08-31T09:21:03Z</time>
      </trkpt>
      <trkpt lat="42.95185" lon="0.75843">
        <ele>1403.3</ele>
        <time>2019-08-31T09:21:06Z</time>
      </trkpt>
      <trkpt lat="42.95182" lon="0.75844">
        <ele>1403.7</ele>
        <time>2019-08-31T09:21:09Z</time>
      </trkpt>
      <trkpt lat="42.95179" lon="0.75846">
        <ele>1404</ele>
        <time>2019-08-31T09:21:12Z</time>
      </trkpt>
      <trkpt lat="42.95177" lon="0.75848">
        <ele>1404</ele>
        <time>2019-08-31T09:21:15Z</time>
      </trkpt>
      <trkpt lat="42.95175" lon="0.75852">
        <ele>1404.3</ele>
        <time>2019-08-31T09:21:18Z</time>
      </trkpt>
      <trkpt lat="42.95173" lon="0.75856">
        <ele>1405.1</ele>
        <time>2019-08-31T09:21:22Z</time>
      </trkpt>
      <trkpt lat="42.9517" lon="0.75858">
        <ele>1405.8</ele>
        <time>2019-08-31T09:21:25Z</time>
      </trkpt>
      <trkpt lat="42.95167" lon="0.75861">
        <ele>1406.6</ele>
        <time>2019-08-31T09:21:28Z</time>
      </trkpt>
      <trkpt lat="42.95164" lon="0.75861">
        <ele>1407.3</ele>
        <time>2019-08-31T09:21:32Z</time>
      </trkpt>
      <trkpt lat="42.95161" lon="0.75862">
        <ele>1408.1</ele>
        <time>2019-08-31T09:21:36Z</time>
      </trkpt>
      <trkpt lat="42.95158" lon="0.75863">
        <ele>1408.8</ele>
        <time>2019-08-31T09:21:40Z</time>
      </trkpt>
      <trkpt lat="42.95155" lon="0.75865">
        <ele>1409.8</ele>
        <time>2019-08-31T09:21:44Z</time>
      </trkpt>
      <trkpt lat="42.95152" lon="0.75867">
        <ele>1410.7</ele>
        <time>2019-08-31T09:21:48Z</time>
      </trkpt>
      <trkpt lat="42.95149" lon="0.75867">
        <ele>1411.5</ele>
        <time>2019-08-31T09:21:56Z</time>
      </trkpt>
      <trkpt lat="42.95147" lon="0.75865">
        <ele>1412.4</ele>
        <time>2019-08-31T09:22:00Z</time>
      </trkpt>
      <trkpt lat="42.95144" lon="0.75867">
        <ele>1413.5</ele>
        <time>2019-08-31T09:22:04Z</time>
      </trkpt>
      <trkpt lat="42.95141" lon="0.75867">
        <ele>1414.3</ele>
        <time>2019-08-31T09:22:08Z</time>
      </trkpt>
      <trkpt lat="42.95139" lon="0.75865">
        <ele>1415.2</ele>
        <time>2019-08-31T09:22:11Z</time>
      </trkpt>
      <trkpt lat="42.95136" lon="0.75863">
        <ele>1415.9</ele>
        <time>2019-08-31T09:22:14Z</time>
      </trkpt>
      <trkpt lat="42.95133" lon="0.75863">
        <ele>1416.5</ele>
        <time>2019-08-31T09:22:18Z</time>
      </trkpt>
      <trkpt lat="42.95129" lon="0.75863">
        <ele>1416.6</ele>
        <time>2019-08-31T09:22:22Z</time>
      </trkpt>
      <trkpt lat="42.95126" lon="0.75863">
        <ele>1417</ele>
        <time>2019-08-31T09:22:26Z</time>
      </trkpt>
      <trkpt lat="42.95124" lon="0.75862">
        <ele>1417.6</ele>
        <time>2019-08-31T09:22:30Z</time>
      </trkpt>
      <trkpt lat="42.95121" lon="0.7586">
        <ele>1417.9</ele>
        <time>2019-08-31T09:22:35Z</time>
      </trkpt>
      <trkpt lat="42.95118" lon="0.75862">
        <ele>1417.4</ele>
        <time>2019-08-31T09:22:40Z</time>
      </trkpt>
      <trkpt lat="42.95115" lon="0.75865">
        <ele>1417</ele>
        <time>2019-08-31T09:22:43Z</time>
      </trkpt>
      <trkpt lat="42.95114" lon="0.75868">
        <ele>1416.8</ele>
        <time>2019-08-31T09:22:46Z</time>
      </trkpt>
      <trkpt lat="42.95112" lon="0.75873">
        <ele>1416.7</ele>
        <time>2019-08-31T09:22:49Z</time>
      </trkpt>
      <trkpt lat="42.95112" lon="0.75877">
        <ele>1416.9</ele>
        <time>2019-08-31T09:22:52Z</time>
      </trkpt>
      <trkpt lat="42.95112" lon="0.75881">
        <ele>1417.7</ele>
        <time>2019-08-31T09:22:56Z</time>
      </trkpt>
      <trkpt lat="42.9511" lon="0.75885">
        <ele>1418.5</ele>
        <time>2019-08-31T09:23:02Z</time>
      </trkpt>
      <trkpt lat="42.95108" lon="0.75888">
        <ele>1419.4</ele>
        <time>2019-08-31T09:23:08Z</time>
      </trkpt>
      <trkpt lat="42.95106" lon="0.75891">
        <ele>1420.5</ele>
        <time>2019-08-31T09:23:13Z</time>
      </trkpt>
      <trkpt lat="42.95104" lon="0.75894">
        <ele>1421.1</ele>
        <time>2019-08-31T09:23:18Z</time>
      </trkpt>
      <trkpt lat="42.95102" lon="0.75896">
        <ele>1421.6</ele>
        <time>2019-08-31T09:23:25Z</time>
      </trkpt>
      <trkpt lat="42.951" lon="0.75899">
        <ele>1422.1</ele>
        <time>2019-08-31T09:23:29Z</time>
      </trkpt>
      <trkpt lat="42.95098" lon="0.75901">
        <ele>1422.9</ele>
        <time>2019-08-31T09:23:34Z</time>
      </trkpt>
      <trkpt lat="42.95095" lon="0.75899">
        <ele>1423.6</ele>
        <time>2019-08-31T09:23:40Z</time>
      </trkpt>
      <trkpt lat="42.95094" lon="0.75895">
        <ele>1424.3</ele>
        <time>2019-08-31T09:23:46Z</time>
      </trkpt>
      <trkpt lat="42.95092" lon="0.75893">
        <ele>1425.1</ele>
        <time>2019-08-31T09:23:50Z</time>
      </trkpt>
      <trkpt lat="42.95089" lon="0.7589">
        <ele>1425.9</ele>
        <time>2019-08-31T09:23:55Z</time>
      </trkpt>
      <trkpt lat="42.95088" lon="0.75887">
        <ele>1426.6</ele>
        <time>2019-08-31T09:23:59Z</time>
      </trkpt>
      <trkpt lat="42.95088" lon="0.75882">
        <ele>1427.4</ele>
        <time>2019-08-31T09:24:04Z</time>
      </trkpt>
      <trkpt lat="42.95088" lon="0.75878">
        <ele>1428.1</ele>
        <time>2019-08-31T09:24:07Z</time>
      </trkpt>
      <trkpt lat="42.95088" lon="0.75874">
        <ele>1428.8</ele>
        <time>2019-08-31T09:24:10Z</time>
      </trkpt>
      <trkpt lat="42.95088" lon="0.7587">
        <ele>1429.5</ele>
        <time>2019-08-31T09:24:14Z</time>
      </trkpt>
      <trkpt lat="42.95087" lon="0.75866">
        <ele>1430.3</ele>
        <time>2019-08-31T09:24:17Z</time>
      </trkpt>
      <trkpt lat="42.95086" lon="0.75862">
        <ele>1431.2</ele>
        <time>2019-08-31T09:24:20Z</time>
      </trkpt>
      <trkpt lat="42.95085" lon="0.75858">
        <ele>1432</ele>
        <time>2019-08-31T09:24:23Z</time>
      </trkpt>
      <trkpt lat="42.95084" lon="0.75854">
        <ele>1432.8</ele>
        <time>2019-08-31T09:24:34Z</time>
      </trkpt>
      <trkpt lat="42.95087" lon="0.75855">
        <ele>1433.5</ele>
        <time>2019-08-31T09:25:11Z</time>
      </trkpt>
      <trkpt lat="42.95084" lon="0.75852">
        <ele>1434.3</ele>
        <time>2019-08-31T09:25:21Z</time>
      </trkpt>
      <trkpt lat="42.95082" lon="0.75848">
        <ele>1435.1</ele>
        <time>2019-08-31T09:25:25Z</time>
      </trkpt>
      <trkpt lat="42.95082" lon="0.75844">
        <ele>1436</ele>
        <time>2019-08-31T09:25:29Z</time>
      </trkpt>
      <trkpt lat="42.9508" lon="0.7584">
        <ele>1437</ele>
        <time>2019-08-31T09:25:33Z</time>
      </trkpt>
      <trkpt lat="42.95078" lon="0.75837">
        <ele>1437.9</ele>
        <time>2019-08-31T09:25:37Z</time>
      </trkpt>
      <trkpt lat="42.95076" lon="0.75834">
        <ele>1438.8</ele>
        <time>2019-08-31T09:25:40Z</time>
      </trkpt>
      <trkpt lat="42.95074" lon="0.7583">
        <ele>1439.5</ele>
        <time>2019-08-31T09:25:44Z</time>
      </trkpt>
      <trkpt lat="42.95073" lon="0.75826">
        <ele>1440.2</ele>
        <time>2019-08-31T09:25:47Z</time>
      </trkpt>
      <trkpt lat="42.95072" lon="0.75822">
        <ele>1441.1</ele>
        <time>2019-08-31T09:25:51Z</time>
      </trkpt>
      <trkpt lat="42.9507" lon="0.75818">
        <ele>1442</ele>
        <time>2019-08-31T09:25:55Z</time>
      </trkpt>
      <trkpt lat="42.95069" lon="0.75815">
        <ele>1442.6</ele>
        <time>2019-08-31T09:25:58Z</time>
      </trkpt>
      <trkpt lat="42.95067" lon="0.75811">
        <ele>1443.1</ele>
        <time>2019-08-31T09:26:01Z</time>
      </trkpt>
      <trkpt lat="42.95066" lon="0.75807">
        <ele>1443.7</ele>
        <time>2019-08-31T09:26:04Z</time>
      </trkpt>
      <trkpt lat="42.95064" lon="0.75803">
        <ele>1444.8</ele>
        <time>2019-08-31T09:26:08Z</time>
      </trkpt>
      <trkpt lat="42.95063" lon="0.75799">
        <ele>1445.8</ele>
        <time>2019-08-31T09:26:12Z</time>
      </trkpt>
      <trkpt lat="42.95062" lon="0.75794">
        <ele>1446.5</ele>
        <time>2019-08-31T09:26:17Z</time>
      </trkpt>
      <trkpt lat="42.95062" lon="0.7579">
        <ele>1447.2</ele>
        <time>2019-08-31T09:26:22Z</time>
      </trkpt>
      <trkpt lat="42.95061" lon="0.75786">
        <ele>1448.5</ele>
        <time>2019-08-31T09:26:27Z</time>
      </trkpt>
      <trkpt lat="42.95061" lon="0.75782">
        <ele>1449.8</ele>
        <time>2019-08-31T09:26:32Z</time>
      </trkpt>
      <trkpt lat="42.95061" lon="0.75777">
        <ele>1451.1</ele>
        <time>2019-08-31T09:26:36Z</time>
      </trkpt>
      <trkpt lat="42.95059" lon="0.75773">
        <ele>1452.6</ele>
        <time>2019-08-31T09:26:39Z</time>
      </trkpt>
      <trkpt lat="42.95058" lon="0.75769">
        <ele>1453.8</ele>
        <time>2019-08-31T09:26:42Z</time>
      </trkpt>
      <trkpt lat="42.95057" lon="0.75765">
        <ele>1453.8</ele>
        <time>2019-08-31T09:26:46Z</time>
      </trkpt>
      <trkpt lat="42.95056" lon="0.75761">
        <ele>1453.9</ele>
        <time>2019-08-31T09:26:49Z</time>
      </trkpt>
      <trkpt lat="42.95054" lon="0.75757">
        <ele>1454.5</ele>
        <time>2019-08-31T09:26:53Z</time>
      </trkpt>
      <trkpt lat="42.95054" lon="0.75753">
        <ele>1455.1</ele>
        <time>2019-08-31T09:26:57Z</time>
      </trkpt>
      <trkpt lat="42.95055" lon="0.75748">
        <ele>1455.2</ele>
        <time>2019-08-31T09:27:01Z</time>
      </trkpt>
      <trkpt lat="42.95058" lon="0.75746">
        <ele>1455.3</ele>
        <time>2019-08-31T09:27:04Z</time>
      </trkpt>
      <trkpt lat="42.9506" lon="0.75743">
        <ele>1455.5</ele>
        <time>2019-08-31T09:27:10Z</time>
      </trkpt>
      <trkpt lat="42.95063" lon="0.75741">
        <ele>1456.3</ele>
        <time>2019-08-31T09:27:14Z</time>
      </trkpt>
      <trkpt lat="42.95065" lon="0.75739">
        <ele>1457.3</ele>
        <time>2019-08-31T09:27:18Z</time>
      </trkpt>
      <trkpt lat="42.95066" lon="0.75735">
        <ele>1459.1</ele>
        <time>2019-08-31T09:27:21Z</time>
      </trkpt>
      <trkpt lat="42.95068" lon="0.75731">
        <ele>1461.3</ele>
        <time>2019-08-31T09:27:25Z</time>
      </trkpt>
      <trkpt lat="42.95071" lon="0.75729">
        <ele>1462</ele>
        <time>2019-08-31T09:27:28Z</time>
      </trkpt>
      <trkpt lat="42.95074" lon="0.75727">
        <ele>1462.5</ele>
        <time>2019-08-31T09:27:31Z</time>
      </trkpt>
      <trkpt lat="42.95076" lon="0.75724">
        <ele>1464.6</ele>
        <time>2019-08-31T09:27:36Z</time>
      </trkpt>
      <trkpt lat="42.95077" lon="0.7572">
        <ele>1466.5</ele>
        <time>2019-08-31T09:27:42Z</time>
      </trkpt>
      <trkpt lat="42.95076" lon="0.75715">
        <ele>1466.5</ele>
        <time>2019-08-31T09:27:47Z</time>
      </trkpt>
      <trkpt lat="42.95074" lon="0.75714">
        <ele>1466.8</ele>
        <time>2019-08-31T09:27:54Z</time>
      </trkpt>
      <trkpt lat="42.95071" lon="0.75714">
        <ele>1467.5</ele>
        <time>2019-08-31T09:28:00Z</time>
      </trkpt>
      <trkpt lat="42.95067" lon="0.75714">
        <ele>1468.1</ele>
        <time>2019-08-31T09:28:04Z</time>
      </trkpt>
      <trkpt lat="42.95064" lon="0.75714">
        <ele>1468.6</ele>
        <time>2019-08-31T09:28:11Z</time>
      </trkpt>
      <trkpt lat="42.95061" lon="0.75711">
        <ele>1469</ele>
        <time>2019-08-31T09:28:17Z</time>
      </trkpt>
      <trkpt lat="42.95058" lon="0.75711">
        <ele>1468.7</ele>
        <time>2019-08-31T09:28:20Z</time>
      </trkpt>
      <trkpt lat="42.95055" lon="0.7571">
        <ele>1468.3</ele>
        <time>2019-08-31T09:28:24Z</time>
      </trkpt>
      <trkpt lat="42.95052" lon="0.7571">
        <ele>1468</ele>
        <time>2019-08-31T09:28:27Z</time>
      </trkpt>
      <trkpt lat="42.95048" lon="0.75711">
        <ele>1468.2</ele>
        <time>2019-08-31T09:28:30Z</time>
      </trkpt>
      <trkpt lat="42.95045" lon="0.75711">
        <ele>1468.5</ele>
        <time>2019-08-31T09:28:33Z</time>
      </trkpt>
      <trkpt lat="42.95042" lon="0.75712">
        <ele>1468.8</ele>
        <time>2019-08-31T09:28:36Z</time>
      </trkpt>
      <trkpt lat="42.9504" lon="0.75715">
        <ele>1469.2</ele>
        <time>2019-08-31T09:28:40Z</time>
      </trkpt>
      <trkpt lat="42.95038" lon="0.75719">
        <ele>1469.6</ele>
        <time>2019-08-31T09:28:43Z</time>
      </trkpt>
      <trkpt lat="42.95037" lon="0.75722">
        <ele>1470.1</ele>
        <time>2019-08-31T09:28:46Z</time>
      </trkpt>
      <trkpt lat="42.95035" lon="0.75725">
        <ele>1470.8</ele>
        <time>2019-08-31T09:28:49Z</time>
      </trkpt>
      <trkpt lat="42.95032" lon="0.75727">
        <ele>1471.6</ele>
        <time>2019-08-31T09:28:53Z</time>
      </trkpt>
      <trkpt lat="42.95029" lon="0.7573">
        <ele>1472</ele>
        <time>2019-08-31T09:28:57Z</time>
      </trkpt>
      <trkpt lat="42.95026" lon="0.75733">
        <ele>1472.3</ele>
        <time>2019-08-31T09:29:01Z</time>
      </trkpt>
      <trkpt lat="42.95024" lon="0.75736">
        <ele>1472.8</ele>
        <time>2019-08-31T09:29:04Z</time>
      </trkpt>
      <trkpt lat="42.95022" lon="0.7574">
        <ele>1473.5</ele>
        <time>2019-08-31T09:29:08Z</time>
      </trkpt>
      <trkpt lat="42.95019" lon="0.75742">
        <ele>1474.1</ele>
        <time>2019-08-31T09:29:12Z</time>
      </trkpt>
      <trkpt lat="42.95017" lon="0.75745">
        <ele>1474.6</ele>
        <time>2019-08-31T09:29:16Z</time>
      </trkpt>
      <trkpt lat="42.95014" lon="0.75748">
        <ele>1474.8</ele>
        <time>2019-08-31T09:29:19Z</time>
      </trkpt>
      <trkpt lat="42.95012" lon="0.75751">
        <ele>1475</ele>
        <time>2019-08-31T09:29:23Z</time>
      </trkpt>
      <trkpt lat="42.9501" lon="0.75754">
        <ele>1475.9</ele>
        <time>2019-08-31T09:29:26Z</time>
      </trkpt>
      <trkpt lat="42.95008" lon="0.75758">
        <ele>1477</ele>
        <time>2019-08-31T09:29:29Z</time>
      </trkpt>
      <trkpt lat="42.95006" lon="0.75761">
        <ele>1477.8</ele>
        <time>2019-08-31T09:29:32Z</time>
      </trkpt>
      <trkpt lat="42.95005" lon="0.75765">
        <ele>1478.8</ele>
        <time>2019-08-31T09:29:35Z</time>
      </trkpt>
      <trkpt lat="42.95003" lon="0.75769">
        <ele>1479.6</ele>
        <time>2019-08-31T09:29:38Z</time>
      </trkpt>
      <trkpt lat="42.95001" lon="0.75772">
        <ele>1480.5</ele>
        <time>2019-08-31T09:29:41Z</time>
      </trkpt>
      <trkpt lat="42.94999" lon="0.75775">
        <ele>1482</ele>
        <time>2019-08-31T09:29:44Z</time>
      </trkpt>
      <trkpt lat="42.94997" lon="0.75778">
        <ele>1483</ele>
        <time>2019-08-31T09:29:47Z</time>
      </trkpt>
      <trkpt lat="42.94994" lon="0.75781">
        <ele>1485.6</ele>
        <time>2019-08-31T09:29:51Z</time>
      </trkpt>
      <trkpt lat="42.94992" lon="0.75784">
        <ele>1488</ele>
        <time>2019-08-31T09:29:56Z</time>
      </trkpt>
      <trkpt lat="42.9499" lon="0.75787">
        <ele>1489.4</ele>
        <time>2019-08-31T09:30:01Z</time>
      </trkpt>
      <trkpt lat="42.94988" lon="0.75789">
        <ele>1490.6</ele>
        <time>2019-08-31T09:30:04Z</time>
      </trkpt>
      <trkpt lat="42.94986" lon="0.75792">
        <ele>1491.5</ele>
        <time>2019-08-31T09:30:08Z</time>
      </trkpt>
      <trkpt lat="42.94985" lon="0.75796">
        <ele>1492.1</ele>
        <time>2019-08-31T09:30:11Z</time>
      </trkpt>
      <trkpt lat="42.94984" lon="0.758">
        <ele>1492.7</ele>
        <time>2019-08-31T09:30:14Z</time>
      </trkpt>
      <trkpt lat="42.94982" lon="0.75803">
        <ele>1493.4</ele>
        <time>2019-08-31T09:30:18Z</time>
      </trkpt>
      <trkpt lat="42.9498" lon="0.75807">
        <ele>1494.7</ele>
        <time>2019-08-31T09:30:22Z</time>
      </trkpt>
      <trkpt lat="42.94979" lon="0.75811">
        <ele>1496.1</ele>
        <time>2019-08-31T09:30:27Z</time>
      </trkpt>
      <trkpt lat="42.94974" lon="0.75812">
        <ele>1498.4</ele>
        <time>2019-08-31T09:31:19Z</time>
      </trkpt>
      <trkpt lat="42.94972" lon="0.75809">
        <ele>1499.8</ele>
        <time>2019-08-31T09:31:25Z</time>
      </trkpt>
      <trkpt lat="42.94971" lon="0.75805">
        <ele>1501.1</ele>
        <time>2019-08-31T09:31:30Z</time>
      </trkpt>
      <trkpt lat="42.94971" lon="0.758">
        <ele>1502.2</ele>
        <time>2019-08-31T09:31:34Z</time>
      </trkpt>
      <trkpt lat="42.94969" lon="0.75797">
        <ele>1502.7</ele>
        <time>2019-08-31T09:31:38Z</time>
      </trkpt>
      <trkpt lat="42.94968" lon="0.75794">
        <ele>1503.3</ele>
        <time>2019-08-31T09:31:42Z</time>
      </trkpt>
      <trkpt lat="42.94967" lon="0.7579">
        <ele>1503.9</ele>
        <time>2019-08-31T09:31:45Z</time>
      </trkpt>
      <trkpt lat="42.94966" lon="0.75785">
        <ele>1506.7</ele>
        <time>2019-08-31T09:31:49Z</time>
      </trkpt>
      <trkpt lat="42.94965" lon="0.75781">
        <ele>1509.2</ele>
        <time>2019-08-31T09:31:53Z</time>
      </trkpt>
      <trkpt lat="42.94966" lon="0.75776">
        <ele>1510.3</ele>
        <time>2019-08-31T09:31:57Z</time>
      </trkpt>
      <trkpt lat="42.94965" lon="0.75771">
        <ele>1511.9</ele>
        <time>2019-08-31T09:32:00Z</time>
      </trkpt>
      <trkpt lat="42.94964" lon="0.75767">
        <ele>1513.6</ele>
        <time>2019-08-31T09:32:03Z</time>
      </trkpt>
      <trkpt lat="42.94965" lon="0.75763">
        <ele>1514.8</ele>
        <time>2019-08-31T09:32:06Z</time>
      </trkpt>
      <trkpt lat="42.94965" lon="0.75759">
        <ele>1515.9</ele>
        <time>2019-08-31T09:32:09Z</time>
      </trkpt>
      <trkpt lat="42.94966" lon="0.75754">
        <ele>1517.2</ele>
        <time>2019-08-31T09:32:13Z</time>
      </trkpt>
      <trkpt lat="42.94968" lon="0.75751">
        <ele>1518.4</ele>
        <time>2019-08-31T09:32:16Z</time>
      </trkpt>
      <trkpt lat="42.94968" lon="0.75747">
        <ele>1519.5</ele>
        <time>2019-08-31T09:32:19Z</time>
      </trkpt>
      <trkpt lat="42.94968" lon="0.75743">
        <ele>1520.4</ele>
        <time>2019-08-31T09:32:23Z</time>
      </trkpt>
      <trkpt lat="42.94968" lon="0.75738">
        <ele>1520.7</ele>
        <time>2019-08-31T09:32:27Z</time>
      </trkpt>
      <trkpt lat="42.94968" lon="0.75734">
        <ele>1520.9</ele>
        <time>2019-08-31T09:32:30Z</time>
      </trkpt>
      <trkpt lat="42.94964" lon="0.75733">
        <ele>1521.8</ele>
        <time>2019-08-31T09:32:33Z</time>
      </trkpt>
      <trkpt lat="42.94962" lon="0.75737">
        <ele>1523.1</ele>
        <time>2019-08-31T09:32:36Z</time>
      </trkpt>
      <trkpt lat="42.94959" lon="0.7574">
        <ele>1524</ele>
        <time>2019-08-31T09:32:40Z</time>
      </trkpt>
      <trkpt lat="42.94956" lon="0.7574">
        <ele>1524.3</ele>
        <time>2019-08-31T09:32:47Z</time>
      </trkpt>
      <trkpt lat="42.94953" lon="0.7574">
        <ele>1524.6</ele>
        <time>2019-08-31T09:32:52Z</time>
      </trkpt>
      <trkpt lat="42.94951" lon="0.7574">
        <ele>1525</ele>
        <time>2019-08-31T09:32:57Z</time>
      </trkpt>
      <trkpt lat="42.94948" lon="0.75741">
        <ele>1525.4</ele>
        <time>2019-08-31T09:33:04Z</time>
      </trkpt>
      <trkpt lat="42.94945" lon="0.75738">
        <ele>1525.8</ele>
        <time>2019-08-31T09:33:10Z</time>
      </trkpt>
      <trkpt lat="42.94943" lon="0.7574">
        <ele>1526.1</ele>
        <time>2019-08-31T09:33:15Z</time>
      </trkpt>
      <trkpt lat="42.9494" lon="0.75743">
        <ele>1526.4</ele>
        <time>2019-08-31T09:33:20Z</time>
      </trkpt>
      <trkpt lat="42.94938" lon="0.75746">
        <ele>1526.6</ele>
        <time>2019-08-31T09:33:24Z</time>
      </trkpt>
      <trkpt lat="42.94935" lon="0.75749">
        <ele>1527</ele>
        <time>2019-08-31T09:33:28Z</time>
      </trkpt>
      <trkpt lat="42.94934" lon="0.75752">
        <ele>1527.4</ele>
        <time>2019-08-31T09:33:32Z</time>
      </trkpt>
      <trkpt lat="42.94932" lon="0.75756">
        <ele>1527.9</ele>
        <time>2019-08-31T09:33:36Z</time>
      </trkpt>
      <trkpt lat="42.94929" lon="0.75757">
        <ele>1528.4</ele>
        <time>2019-08-31T09:33:40Z</time>
      </trkpt>
      <trkpt lat="42.94927" lon="0.7576">
        <ele>1529</ele>
        <time>2019-08-31T09:33:43Z</time>
      </trkpt>
      <trkpt lat="42.94925" lon="0.75763">
        <ele>1529.5</ele>
        <time>2019-08-31T09:33:46Z</time>
      </trkpt>
      <trkpt lat="42.94924" lon="0.75767">
        <ele>1530.1</ele>
        <time>2019-08-31T09:33:49Z</time>
      </trkpt>
      <trkpt lat="42.94922" lon="0.7577">
        <ele>1530.7</ele>
        <time>2019-08-31T09:33:53Z</time>
      </trkpt>
      <trkpt lat="42.9492" lon="0.75773">
        <ele>1531.9</ele>
        <time>2019-08-31T09:33:58Z</time>
      </trkpt>
      <trkpt lat="42.94918" lon="0.75777">
        <ele>1533</ele>
        <time>2019-08-31T09:34:01Z</time>
      </trkpt>
      <trkpt lat="42.94917" lon="0.75781">
        <ele>1534.1</ele>
        <time>2019-08-31T09:34:04Z</time>
      </trkpt>
      <trkpt lat="42.94916" lon="0.75785">
        <ele>1534.6</ele>
        <time>2019-08-31T09:34:07Z</time>
      </trkpt>
      <trkpt lat="42.94914" lon="0.75789">
        <ele>1535.1</ele>
        <time>2019-08-31T09:34:11Z</time>
      </trkpt>
      <trkpt lat="42.94913" lon="0.75792">
        <ele>1535.6</ele>
        <time>2019-08-31T09:34:14Z</time>
      </trkpt>
      <trkpt lat="42.94912" lon="0.75797">
        <ele>1536.6</ele>
        <time>2019-08-31T09:34:17Z</time>
      </trkpt>
      <trkpt lat="42.94911" lon="0.75801">
        <ele>1537.6</ele>
        <time>2019-08-31T09:34:20Z</time>
      </trkpt>
      <trkpt lat="42.94911" lon="0.75804">
        <ele>1538.4</ele>
        <time>2019-08-31T09:34:23Z</time>
      </trkpt>
      <trkpt lat="42.9491" lon="0.7581">
        <ele>1539.2</ele>
        <time>2019-08-31T09:34:26Z</time>
      </trkpt>
      <trkpt lat="42.94911" lon="0.75814">
        <ele>1539.8</ele>
        <time>2019-08-31T09:34:28Z</time>
      </trkpt>
      <trkpt lat="42.94911" lon="0.75817">
        <ele>1540.2</ele>
        <time>2019-08-31T09:34:30Z</time>
      </trkpt>
      <trkpt lat="42.94911" lon="0.75822">
        <ele>1541.5</ele>
        <time>2019-08-31T09:34:35Z</time>
      </trkpt>
      <trkpt lat="42.9491" lon="0.75827">
        <ele>1543.2</ele>
        <time>2019-08-31T09:34:38Z</time>
      </trkpt>
      <trkpt lat="42.94909" lon="0.75832">
        <ele>1544.9</ele>
        <time>2019-08-31T09:34:41Z</time>
      </trkpt>
      <trkpt lat="42.94908" lon="0.75836">
        <ele>1546.7</ele>
        <time>2019-08-31T09:34:44Z</time>
      </trkpt>
      <trkpt lat="42.94906" lon="0.75839">
        <ele>1547.5</ele>
        <time>2019-08-31T09:34:47Z</time>
      </trkpt>
      <trkpt lat="42.94903" lon="0.75842">
        <ele>1548.4</ele>
        <time>2019-08-31T09:34:51Z</time>
      </trkpt>
      <trkpt lat="42.94901" lon="0.75845">
        <ele>1549.5</ele>
        <time>2019-08-31T09:34:55Z</time>
      </trkpt>
      <trkpt lat="42.94899" lon="0.75848">
        <ele>1550.4</ele>
        <time>2019-08-31T09:34:58Z</time>
      </trkpt>
      <trkpt lat="42.94897" lon="0.75852">
        <ele>1551.2</ele>
        <time>2019-08-31T09:35:02Z</time>
      </trkpt>
      <trkpt lat="42.94895" lon="0.75855">
        <ele>1551.9</ele>
        <time>2019-08-31T09:35:06Z</time>
      </trkpt>
      <trkpt lat="42.94892" lon="0.75858">
        <ele>1553</ele>
        <time>2019-08-31T09:35:10Z</time>
      </trkpt>
      <trkpt lat="42.94892" lon="0.75862">
        <ele>1554.3</ele>
        <time>2019-08-31T09:35:13Z</time>
      </trkpt>
      <trkpt lat="42.9489" lon="0.75867">
        <ele>1555.6</ele>
        <time>2019-08-31T09:35:16Z</time>
      </trkpt>
      <trkpt lat="42.94888" lon="0.7587">
        <ele>1556.7</ele>
        <time>2019-08-31T09:35:20Z</time>
      </trkpt>
      <trkpt lat="42.94887" lon="0.75874">
        <ele>1558</ele>
        <time>2019-08-31T09:35:26Z</time>
      </trkpt>
      <trkpt lat="42.94886" lon="0.75878">
        <ele>1558.8</ele>
        <time>2019-08-31T09:35:31Z</time>
      </trkpt>
      <trkpt lat="42.94883" lon="0.75878">
        <ele>1559.6</ele>
        <time>2019-08-31T09:35:37Z</time>
      </trkpt>
      <trkpt lat="42.94881" lon="0.75876">
        <ele>1560.1</ele>
        <time>2019-08-31T09:35:42Z</time>
      </trkpt>
      <trkpt lat="42.94878" lon="0.75874">
        <ele>1560.6</ele>
        <time>2019-08-31T09:35:46Z</time>
      </trkpt>
      <trkpt lat="42.94875" lon="0.75874">
        <ele>1561.1</ele>
        <time>2019-08-31T09:35:49Z</time>
      </trkpt>
      <trkpt lat="42.94872" lon="0.75872">
        <ele>1561.7</ele>
        <time>2019-08-31T09:35:52Z</time>
      </trkpt>
      <trkpt lat="42.94869" lon="0.75872">
        <ele>1562.4</ele>
        <time>2019-08-31T09:35:57Z</time>
      </trkpt>
      <trkpt lat="42.94866" lon="0.75869">
        <ele>1563</ele>
        <time>2019-08-31T09:36:04Z</time>
      </trkpt>
      <trkpt lat="42.94864" lon="0.75866">
        <ele>1563</ele>
        <time>2019-08-31T09:36:10Z</time>
      </trkpt>
      <trkpt lat="42.94861" lon="0.75865">
        <ele>1562.7</ele>
        <time>2019-08-31T09:36:14Z</time>
      </trkpt>
      <trkpt lat="42.94859" lon="0.75862">
        <ele>1562.4</ele>
        <time>2019-08-31T09:36:17Z</time>
      </trkpt>
      <trkpt lat="42.94858" lon="0.75858">
        <ele>1562.6</ele>
        <time>2019-08-31T09:36:20Z</time>
      </trkpt>
      <trkpt lat="42.94857" lon="0.75854">
        <ele>1562.9</ele>
        <time>2019-08-31T09:36:24Z</time>
      </trkpt>
      <trkpt lat="42.94857" lon="0.7585">
        <ele>1563.2</ele>
        <time>2019-08-31T09:36:27Z</time>
      </trkpt>
      <trkpt lat="42.94855" lon="0.75846">
        <ele>1563.3</ele>
        <time>2019-08-31T09:36:31Z</time>
      </trkpt>
      <trkpt lat="42.94853" lon="0.75843">
        <ele>1563.5</ele>
        <time>2019-08-31T09:36:37Z</time>
      </trkpt>
      <trkpt lat="42.94851" lon="0.75841">
        <ele>1563.5</ele>
        <time>2019-08-31T09:36:43Z</time>
      </trkpt>
      <trkpt lat="42.94849" lon="0.75844">
        <ele>1563.4</ele>
        <time>2019-08-31T09:36:49Z</time>
      </trkpt>
      <trkpt lat="42.94846" lon="0.75845">
        <ele>1563.3</ele>
        <time>2019-08-31T09:36:53Z</time>
      </trkpt>
      <trkpt lat="42.94843" lon="0.75845">
        <ele>1563.3</ele>
        <time>2019-08-31T09:36:57Z</time>
      </trkpt>
      <trkpt lat="42.9484" lon="0.75846">
        <ele>1563.8</ele>
        <time>2019-08-31T09:37:02Z</time>
      </trkpt>
      <trkpt lat="42.94837" lon="0.75847">
        <ele>1564.2</ele>
        <time>2019-08-31T09:37:08Z</time>
      </trkpt>
      <trkpt lat="42.94835" lon="0.7585">
        <ele>1565.3</ele>
        <time>2019-08-31T09:37:12Z</time>
      </trkpt>
      <trkpt lat="42.94834" lon="0.75855">
        <ele>1566.5</ele>
        <time>2019-08-31T09:37:16Z</time>
      </trkpt>
      <trkpt lat="42.94834" lon="0.75859">
        <ele>1567.7</ele>
        <time>2019-08-31T09:37:20Z</time>
      </trkpt>
      <trkpt lat="42.94834" lon="0.75864">
        <ele>1568.6</ele>
        <time>2019-08-31T09:37:23Z</time>
      </trkpt>
      <trkpt lat="42.94833" lon="0.75868">
        <ele>1569.6</ele>
        <time>2019-08-31T09:37:27Z</time>
      </trkpt>
      <trkpt lat="42.94831" lon="0.75872">
        <ele>1570.7</ele>
        <time>2019-08-31T09:37:31Z</time>
      </trkpt>
      <trkpt lat="42.94829" lon="0.75874">
        <ele>1572.2</ele>
        <time>2019-08-31T09:37:37Z</time>
      </trkpt>
      <trkpt lat="42.94828" lon="0.75878">
        <ele>1573.6</ele>
        <time>2019-08-31T09:37:41Z</time>
      </trkpt>
      <trkpt lat="42.94829" lon="0.75882">
        <ele>1574.9</ele>
        <time>2019-08-31T09:37:47Z</time>
      </trkpt>
      <trkpt lat="42.9483" lon="0.75886">
        <ele>1575.9</ele>
        <time>2019-08-31T09:37:51Z</time>
      </trkpt>
      <trkpt lat="42.9483" lon="0.7589">
        <ele>1576.8</ele>
        <time>2019-08-31T09:37:55Z</time>
      </trkpt>
      <trkpt lat="42.94829" lon="0.75894">
        <ele>1578</ele>
        <time>2019-08-31T09:38:01Z</time>
      </trkpt>
      <trkpt lat="42.94827" lon="0.75897">
        <ele>1579.4</ele>
        <time>2019-08-31T09:38:06Z</time>
      </trkpt>
      <trkpt lat="42.94827" lon="0.75901">
        <ele>1580.7</ele>
        <time>2019-08-31T09:38:11Z</time>
      </trkpt>
      <trkpt lat="42.94826" lon="0.75906">
        <ele>1581.8</ele>
        <time>2019-08-31T09:38:16Z</time>
      </trkpt>
      <trkpt lat="42.94823" lon="0.75907">
        <ele>1582.5</ele>
        <time>2019-08-31T09:38:19Z</time>
      </trkpt>
      <trkpt lat="42.9482" lon="0.75908">
        <ele>1583.8</ele>
        <time>2019-08-31T09:38:22Z</time>
      </trkpt>
      <trkpt lat="42.94817" lon="0.75908">
        <ele>1585.1</ele>
        <time>2019-08-31T09:38:25Z</time>
      </trkpt>
      <trkpt lat="42.94814" lon="0.75909">
        <ele>1586.4</ele>
        <time>2019-08-31T09:38:29Z</time>
      </trkpt>
      <trkpt lat="42.94811" lon="0.75908">
        <ele>1587.3</ele>
        <time>2019-08-31T09:38:32Z</time>
      </trkpt>
      <trkpt lat="42.94808" lon="0.75907">
        <ele>1588</ele>
        <time>2019-08-31T09:38:35Z</time>
      </trkpt>
      <trkpt lat="42.94805" lon="0.75907">
        <ele>1588.7</ele>
        <time>2019-08-31T09:38:39Z</time>
      </trkpt>
      <trkpt lat="42.94802" lon="0.75907">
        <ele>1589.1</ele>
        <time>2019-08-31T09:38:42Z</time>
      </trkpt>
      <trkpt lat="42.94799" lon="0.75907">
        <ele>1589.5</ele>
        <time>2019-08-31T09:38:45Z</time>
      </trkpt>
      <trkpt lat="42.94796" lon="0.75908">
        <ele>1590.3</ele>
        <time>2019-08-31T09:38:48Z</time>
      </trkpt>
      <trkpt lat="42.94793" lon="0.75908">
        <ele>1591.2</ele>
        <time>2019-08-31T09:38:51Z</time>
      </trkpt>
      <trkpt lat="42.9479" lon="0.75907">
        <ele>1592</ele>
        <time>2019-08-31T09:38:54Z</time>
      </trkpt>
      <trkpt lat="42.94787" lon="0.75907">
        <ele>1592.9</ele>
        <time>2019-08-31T09:38:57Z</time>
      </trkpt>
      <trkpt lat="42.94784" lon="0.7591">
        <ele>1593.8</ele>
        <time>2019-08-31T09:39:01Z</time>
      </trkpt>
      <trkpt lat="42.94782" lon="0.75913">
        <ele>1593.7</ele>
        <time>2019-08-31T09:39:04Z</time>
      </trkpt>
      <trkpt lat="42.9478" lon="0.75915">
        <ele>1593.5</ele>
        <time>2019-08-31T09:39:07Z</time>
      </trkpt>
      <trkpt lat="42.94777" lon="0.75918">
        <ele>1593.3</ele>
        <time>2019-08-31T09:39:10Z</time>
      </trkpt>
      <trkpt lat="42.94775" lon="0.75921">
        <ele>1593.9</ele>
        <time>2019-08-31T09:39:14Z</time>
      </trkpt>
      <trkpt lat="42.94775" lon="0.75927">
        <ele>1594.6</ele>
        <time>2019-08-31T09:39:17Z</time>
      </trkpt>
      <trkpt lat="42.94774" lon="0.75931">
        <ele>1595</ele>
        <time>2019-08-31T09:39:38Z</time>
      </trkpt>
      <trkpt lat="42.94773" lon="0.75934">
        <ele>1595.1</ele>
        <time>2019-08-31T09:39:41Z</time>
      </trkpt>
      <trkpt lat="42.94772" lon="0.75938">
        <ele>1595.3</ele>
        <time>2019-08-31T09:39:44Z</time>
      </trkpt>
      <trkpt lat="42.9477" lon="0.75942">
        <ele>1595.6</ele>
        <time>2019-08-31T09:39:48Z</time>
      </trkpt>
      <trkpt lat="42.94769" lon="0.75947">
        <ele>1596.1</ele>
        <time>2019-08-31T09:39:51Z</time>
      </trkpt>
      <trkpt lat="42.94768" lon="0.7595">
        <ele>1596.5</ele>
        <time>2019-08-31T09:39:54Z</time>
      </trkpt>
      <trkpt lat="42.94768" lon="0.75956">
        <ele>1596.8</ele>
        <time>2019-08-31T09:39:57Z</time>
      </trkpt>
      <trkpt lat="42.94768" lon="0.75959">
        <ele>1596.9</ele>
        <time>2019-08-31T09:39:59Z</time>
      </trkpt>
      <trkpt lat="42.94768" lon="0.75964">
        <ele>1597.1</ele>
        <time>2019-08-31T09:40:02Z</time>
      </trkpt>
      <trkpt lat="42.94769" lon="0.75969">
        <ele>1597.7</ele>
        <time>2019-08-31T09:40:05Z</time>
      </trkpt>
      <trkpt lat="42.9477" lon="0.75973">
        <ele>1598.2</ele>
        <time>2019-08-31T09:40:08Z</time>
      </trkpt>
      <trkpt lat="42.9477" lon="0.75978">
        <ele>1598.6</ele>
        <time>2019-08-31T09:40:11Z</time>
      </trkpt>
      <trkpt lat="42.94771" lon="0.75981">
        <ele>1598.8</ele>
        <time>2019-08-31T09:40:13Z</time>
      </trkpt>
      <trkpt lat="42.9477" lon="0.75985">
        <ele>1599</ele>
        <time>2019-08-31T09:40:16Z</time>
      </trkpt>
      <trkpt lat="42.94771" lon="0.7599">
        <ele>1599.3</ele>
        <time>2019-08-31T09:40:20Z</time>
      </trkpt>
      <trkpt lat="42.94772" lon="0.75995">
        <ele>1599.9</ele>
        <time>2019-08-31T09:40:23Z</time>
      </trkpt>
      <trkpt lat="42.94772" lon="0.76">
        <ele>1600.4</ele>
        <time>2019-08-31T09:40:26Z</time>
      </trkpt>
      <trkpt lat="42.94773" lon="0.76004">
        <ele>1600.5</ele>
        <time>2019-08-31T09:40:29Z</time>
      </trkpt>
      <trkpt lat="42.94774" lon="0.76008">
        <ele>1600.6</ele>
        <time>2019-08-31T09:40:32Z</time>
      </trkpt>
      <trkpt lat="42.94774" lon="0.76012">
        <ele>1600.7</ele>
        <time>2019-08-31T09:40:35Z</time>
      </trkpt>
      <trkpt lat="42.94772" lon="0.76016">
        <ele>1601</ele>
        <time>2019-08-31T09:40:39Z</time>
      </trkpt>
      <trkpt lat="42.9477" lon="0.76019">
        <ele>1601.1</ele>
        <time>2019-08-31T09:40:44Z</time>
      </trkpt>
      <trkpt lat="42.94771" lon="0.76023">
        <ele>1601</ele>
        <time>2019-08-31T09:40:48Z</time>
      </trkpt>
      <trkpt lat="42.94773" lon="0.76027">
        <ele>1601.4</ele>
        <time>2019-08-31T09:40:51Z</time>
      </trkpt>
      <trkpt lat="42.94774" lon="0.76032">
        <ele>1602.1</ele>
        <time>2019-08-31T09:40:56Z</time>
      </trkpt>
      <trkpt lat="42.94775" lon="0.76036">
        <ele>1602.8</ele>
        <time>2019-08-31T09:41:00Z</time>
      </trkpt>
      <trkpt lat="42.94775" lon="0.7604">
        <ele>1603.5</ele>
        <time>2019-08-31T09:41:04Z</time>
      </trkpt>
      <trkpt lat="42.94776" lon="0.76044">
        <ele>1604.4</ele>
        <time>2019-08-31T09:41:09Z</time>
      </trkpt>
      <trkpt lat="42.94777" lon="0.76049">
        <ele>1605.3</ele>
        <time>2019-08-31T09:41:13Z</time>
      </trkpt>
      <trkpt lat="42.94778" lon="0.76053">
        <ele>1605.8</ele>
        <time>2019-08-31T09:41:17Z</time>
      </trkpt>
      <trkpt lat="42.9478" lon="0.76057">
        <ele>1606.3</ele>
        <time>2019-08-31T09:41:21Z</time>
      </trkpt>
      <trkpt lat="42.94782" lon="0.7606">
        <ele>1606.7</ele>
        <time>2019-08-31T09:41:24Z</time>
      </trkpt>
      <trkpt lat="42.94784" lon="0.76064">
        <ele>1607</ele>
        <time>2019-08-31T09:41:27Z</time>
      </trkpt>
      <trkpt lat="42.94786" lon="0.76068">
        <ele>1607.4</ele>
        <time>2019-08-31T09:41:31Z</time>
      </trkpt>
      <trkpt lat="42.94786" lon="0.76072">
        <ele>1607.8</ele>
        <time>2019-08-31T09:41:36Z</time>
      </trkpt>
      <trkpt lat="42.94783" lon="0.76071">
        <ele>1608.3</ele>
        <time>2019-08-31T09:41:41Z</time>
      </trkpt>
      <trkpt lat="42.9478" lon="0.7607">
        <ele>1608.8</ele>
        <time>2019-08-31T09:41:46Z</time>
      </trkpt>
      <trkpt lat="42.94777" lon="0.7607">
        <ele>1609.3</ele>
        <time>2019-08-31T09:41:52Z</time>
      </trkpt>
      <trkpt lat="42.94773" lon="0.7607">
        <ele>1609.8</ele>
        <time>2019-08-31T09:41:58Z</time>
      </trkpt>
      <trkpt lat="42.94771" lon="0.7607">
        <ele>1610.2</ele>
        <time>2019-08-31T09:42:02Z</time>
      </trkpt>
      <trkpt lat="42.94768" lon="0.76066">
        <ele>1610.6</ele>
        <time>2019-08-31T09:42:07Z</time>
      </trkpt>
      <trkpt lat="42.94766" lon="0.76063">
        <ele>1610.6</ele>
        <time>2019-08-31T09:42:11Z</time>
      </trkpt>
      <trkpt lat="42.94764" lon="0.7606">
        <ele>1610.6</ele>
        <time>2019-08-31T09:42:15Z</time>
      </trkpt>
      <trkpt lat="42.94761" lon="0.76057">
        <ele>1610.4</ele>
        <time>2019-08-31T09:42:19Z</time>
      </trkpt>
      <trkpt lat="42.9476" lon="0.76054">
        <ele>1610.3</ele>
        <time>2019-08-31T09:42:22Z</time>
      </trkpt>
      <trkpt lat="42.94759" lon="0.7605">
        <ele>1610</ele>
        <time>2019-08-31T09:42:26Z</time>
      </trkpt>
      <trkpt lat="42.94755" lon="0.7605">
        <ele>1610.2</ele>
        <time>2019-08-31T09:42:32Z</time>
      </trkpt>
      <trkpt lat="42.94753" lon="0.76047">
        <ele>1610.5</ele>
        <time>2019-08-31T09:42:35Z</time>
      </trkpt>
      <trkpt lat="42.94752" lon="0.76044">
        <ele>1611</ele>
        <time>2019-08-31T09:42:39Z</time>
      </trkpt>
      <trkpt lat="42.94751" lon="0.76039">
        <ele>1611.3</ele>
        <time>2019-08-31T09:42:43Z</time>
      </trkpt>
      <trkpt lat="42.9475" lon="0.76035">
        <ele>1611.6</ele>
        <time>2019-08-31T09:42:47Z</time>
      </trkpt>
      <trkpt lat="42.94749" lon="0.76031">
        <ele>1611.8</ele>
        <time>2019-08-31T09:42:51Z</time>
      </trkpt>
      <trkpt lat="42.94746" lon="0.7603">
        <ele>1612</ele>
        <time>2019-08-31T09:42:56Z</time>
      </trkpt>
      <trkpt lat="42.94743" lon="0.76028">
        <ele>1612.4</ele>
        <time>2019-08-31T09:43:01Z</time>
      </trkpt>
      <trkpt lat="42.94742" lon="0.76024">
        <ele>1612.7</ele>
        <time>2019-08-31T09:43:05Z</time>
      </trkpt>
      <trkpt lat="42.94741" lon="0.7602">
        <ele>1613.3</ele>
        <time>2019-08-31T09:43:09Z</time>
      </trkpt>
      <trkpt lat="42.94739" lon="0.76017">
        <ele>1614.3</ele>
        <time>2019-08-31T09:43:13Z</time>
      </trkpt>
      <trkpt lat="42.94737" lon="0.76014">
        <ele>1615.2</ele>
        <time>2019-08-31T09:43:16Z</time>
      </trkpt>
      <trkpt lat="42.94736" lon="0.7601">
        <ele>1615.9</ele>
        <time>2019-08-31T09:43:19Z</time>
      </trkpt>
      <trkpt lat="42.94735" lon="0.76006">
        <ele>1616.5</ele>
        <time>2019-08-31T09:43:23Z</time>
      </trkpt>
      <trkpt lat="42.94734" lon="0.76002">
        <ele>1616.9</ele>
        <time>2019-08-31T09:43:27Z</time>
      </trkpt>
      <trkpt lat="42.94733" lon="0.75998">
        <ele>1617.5</ele>
        <time>2019-08-31T09:44:19Z</time>
      </trkpt>
      <trkpt lat="42.94731" lon="0.75995">
        <ele>1618</ele>
        <time>2019-08-31T09:44:29Z</time>
      </trkpt>
      <trkpt lat="42.94729" lon="0.75991">
        <ele>1618.7</ele>
        <time>2019-08-31T09:44:55Z</time>
      </trkpt>
      <trkpt lat="42.94726" lon="0.75989">
        <ele>1619.5</ele>
        <time>2019-08-31T09:44:57Z</time>
      </trkpt>
      <trkpt lat="42.94725" lon="0.75985">
        <ele>1620.5</ele>
        <time>2019-08-31T09:45:01Z</time>
      </trkpt>
      <trkpt lat="42.94724" lon="0.75981">
        <ele>1621.6</ele>
        <time>2019-08-31T09:45:06Z</time>
      </trkpt>
      <trkpt lat="42.94722" lon="0.75978">
        <ele>1622.2</ele>
        <time>2019-08-31T09:45:10Z</time>
      </trkpt>
      <trkpt lat="42.94719" lon="0.75975">
        <ele>1622.8</ele>
        <time>2019-08-31T09:45:14Z</time>
      </trkpt>
      <trkpt lat="42.94717" lon="0.75973">
        <ele>1623.7</ele>
        <time>2019-08-31T09:45:17Z</time>
      </trkpt>
      <trkpt lat="42.94715" lon="0.7597">
        <ele>1624.6</ele>
        <time>2019-08-31T09:45:20Z</time>
      </trkpt>
      <trkpt lat="42.94713" lon="0.75966">
        <ele>1626</ele>
        <time>2019-08-31T09:45:24Z</time>
      </trkpt>
      <trkpt lat="42.94712" lon="0.75962">
        <ele>1627</ele>
        <time>2019-08-31T09:45:28Z</time>
      </trkpt>
      <trkpt lat="42.9471" lon="0.75958">
        <ele>1627.9</ele>
        <time>2019-08-31T09:45:32Z</time>
      </trkpt>
      <trkpt lat="42.94711" lon="0.75955">
        <ele>1628.5</ele>
        <time>2019-08-31T09:45:35Z</time>
      </trkpt>
      <trkpt lat="42.94709" lon="0.75951">
        <ele>1629.7</ele>
        <time>2019-08-31T09:45:39Z</time>
      </trkpt>
      <trkpt lat="42.94707" lon="0.75948">
        <ele>1631</ele>
        <time>2019-08-31T09:45:42Z</time>
      </trkpt>
      <trkpt lat="42.94705" lon="0.75945">
        <ele>1632.2</ele>
        <time>2019-08-31T09:45:45Z</time>
      </trkpt>
      <trkpt lat="42.94703" lon="0.75941">
        <ele>1633.2</ele>
        <time>2019-08-31T09:45:48Z</time>
      </trkpt>
      <trkpt lat="42.94701" lon="0.75938">
        <ele>1634</ele>
        <time>2019-08-31T09:45:52Z</time>
      </trkpt>
      <trkpt lat="42.94699" lon="0.75935">
        <ele>1634.7</ele>
        <time>2019-08-31T09:45:56Z</time>
      </trkpt>
      <trkpt lat="42.94698" lon="0.75931">
        <ele>1635.5</ele>
        <time>2019-08-31T09:46:00Z</time>
      </trkpt>
      <trkpt lat="42.94697" lon="0.75927">
        <ele>1636.4</ele>
        <time>2019-08-31T09:46:04Z</time>
      </trkpt>
      <trkpt lat="42.94695" lon="0.75923">
        <ele>1637.8</ele>
        <time>2019-08-31T09:46:08Z</time>
      </trkpt>
      <trkpt lat="42.94692" lon="0.7592">
        <ele>1638.9</ele>
        <time>2019-08-31T09:46:11Z</time>
      </trkpt>
      <trkpt lat="42.94691" lon="0.75916">
        <ele>1639.8</ele>
        <time>2019-08-31T09:46:15Z</time>
      </trkpt>
      <trkpt lat="42.94689" lon="0.75913">
        <ele>1640.4</ele>
        <time>2019-08-31T09:46:18Z</time>
      </trkpt>
      <trkpt lat="42.94687" lon="0.7591">
        <ele>1641.1</ele>
        <time>2019-08-31T09:46:23Z</time>
      </trkpt>
      <trkpt lat="42.94685" lon="0.75905">
        <ele>1641.8</ele>
        <time>2019-08-31T09:46:28Z</time>
      </trkpt>
      <trkpt lat="42.94684" lon="0.75902">
        <ele>1642.5</ele>
        <time>2019-08-31T09:46:32Z</time>
      </trkpt>
      <trkpt lat="42.94681" lon="0.75899">
        <ele>1643.5</ele>
        <time>2019-08-31T09:46:36Z</time>
      </trkpt>
      <trkpt lat="42.94679" lon="0.75896">
        <ele>1644.9</ele>
        <time>2019-08-31T09:46:40Z</time>
      </trkpt>
      <trkpt lat="42.94678" lon="0.75892">
        <ele>1646.1</ele>
        <time>2019-08-31T09:46:44Z</time>
      </trkpt>
      <trkpt lat="42.94676" lon="0.75888">
        <ele>1647.3</ele>
        <time>2019-08-31T09:46:48Z</time>
      </trkpt>
      <trkpt lat="42.94674" lon="0.75885">
        <ele>1648</ele>
        <time>2019-08-31T09:46:51Z</time>
      </trkpt>
      <trkpt lat="42.94672" lon="0.75882">
        <ele>1648.7</ele>
        <time>2019-08-31T09:46:55Z</time>
      </trkpt>
      <trkpt lat="42.9467" lon="0.7588">
        <ele>1649.4</ele>
        <time>2019-08-31T09:46:58Z</time>
      </trkpt>
      <trkpt lat="42.94668" lon="0.75877">
        <ele>1650</ele>
        <time>2019-08-31T09:47:01Z</time>
      </trkpt>
      <trkpt lat="42.94665" lon="0.75874">
        <ele>1650.8</ele>
        <time>2019-08-31T09:47:04Z</time>
      </trkpt>
      <trkpt lat="42.94664" lon="0.7587">
        <ele>1651.4</ele>
        <time>2019-08-31T09:47:07Z</time>
      </trkpt>
      <trkpt lat="42.94662" lon="0.75867">
        <ele>1652</ele>
        <time>2019-08-31T09:47:10Z</time>
      </trkpt>
      <trkpt lat="42.94661" lon="0.75863">
        <ele>1652.5</ele>
        <time>2019-08-31T09:47:13Z</time>
      </trkpt>
      <trkpt lat="42.94659" lon="0.7586">
        <ele>1652.6</ele>
        <time>2019-08-31T09:47:16Z</time>
      </trkpt>
      <trkpt lat="42.94658" lon="0.75856">
        <ele>1652.7</ele>
        <time>2019-08-31T09:47:19Z</time>
      </trkpt>
      <trkpt lat="42.94656" lon="0.75852">
        <ele>1652.9</ele>
        <time>2019-08-31T09:47:23Z</time>
      </trkpt>
      <trkpt lat="42.94655" lon="0.75849">
        <ele>1652.9</ele>
        <time>2019-08-31T09:47:27Z</time>
      </trkpt>
      <trkpt lat="42.94655" lon="0.75845">
        <ele>1653.1</ele>
        <time>2019-08-31T09:47:31Z</time>
      </trkpt>
      <trkpt lat="42.94654" lon="0.75841">
        <ele>1653.4</ele>
        <time>2019-08-31T09:47:36Z</time>
      </trkpt>
      <trkpt lat="42.94655" lon="0.75837">
        <ele>1654.2</ele>
        <time>2019-08-31T09:47:40Z</time>
      </trkpt>
      <trkpt lat="42.94656" lon="0.75833">
        <ele>1654.8</ele>
        <time>2019-08-31T09:47:44Z</time>
      </trkpt>
      <trkpt lat="42.94655" lon="0.75829">
        <ele>1654.6</ele>
        <time>2019-08-31T09:47:48Z</time>
      </trkpt>
      <trkpt lat="42.94656" lon="0.75825">
        <ele>1654.3</ele>
        <time>2019-08-31T09:47:52Z</time>
      </trkpt>
      <trkpt lat="42.94655" lon="0.75821">
        <ele>1654.5</ele>
        <time>2019-08-31T09:47:57Z</time>
      </trkpt>
      <trkpt lat="42.94655" lon="0.75817">
        <ele>1655.4</ele>
        <time>2019-08-31T09:48:03Z</time>
      </trkpt>
      <trkpt lat="42.94654" lon="0.75812">
        <ele>1656.4</ele>
        <time>2019-08-31T09:48:08Z</time>
      </trkpt>
      <trkpt lat="42.94655" lon="0.75808">
        <ele>1657.3</ele>
        <time>2019-08-31T09:48:12Z</time>
      </trkpt>
      <trkpt lat="42.94654" lon="0.75805">
        <ele>1658.1</ele>
        <time>2019-08-31T09:48:16Z</time>
      </trkpt>
      <trkpt lat="42.94652" lon="0.75801">
        <ele>1657.8</ele>
        <time>2019-08-31T09:48:20Z</time>
      </trkpt>
      <trkpt lat="42.94651" lon="0.75796">
        <ele>1657.4</ele>
        <time>2019-08-31T09:48:24Z</time>
      </trkpt>
      <trkpt lat="42.94652" lon="0.75792">
        <ele>1657.6</ele>
        <time>2019-08-31T09:48:28Z</time>
      </trkpt>
      <trkpt lat="42.94652" lon="0.75788">
        <ele>1657.9</ele>
        <time>2019-08-31T09:48:32Z</time>
      </trkpt>
      <trkpt lat="42.94652" lon="0.75785">
        <ele>1658.1</ele>
        <time>2019-08-31T09:48:35Z</time>
      </trkpt>
      <trkpt lat="42.94653" lon="0.7578">
        <ele>1657.9</ele>
        <time>2019-08-31T09:48:39Z</time>
      </trkpt>
      <trkpt lat="42.94654" lon="0.75776">
        <ele>1657.8</ele>
        <time>2019-08-31T09:48:43Z</time>
      </trkpt>
      <trkpt lat="42.94654" lon="0.75772">
        <ele>1658.9</ele>
        <time>2019-08-31T09:48:47Z</time>
      </trkpt>
      <trkpt lat="42.94654" lon="0.75768">
        <ele>1659.9</ele>
        <time>2019-08-31T09:48:50Z</time>
      </trkpt>
      <trkpt lat="42.94654" lon="0.75764">
        <ele>1661</ele>
        <time>2019-08-31T09:48:53Z</time>
      </trkpt>
      <trkpt lat="42.94653" lon="0.7576">
        <ele>1662.3</ele>
        <time>2019-08-31T09:48:56Z</time>
      </trkpt>
      <trkpt lat="42.94651" lon="0.75756">
        <ele>1663.6</ele>
        <time>2019-08-31T09:48:59Z</time>
      </trkpt>
      <trkpt lat="42.94649" lon="0.75753">
        <ele>1665.4</ele>
        <time>2019-08-31T09:49:03Z</time>
      </trkpt>
      <trkpt lat="42.94648" lon="0.75748">
        <ele>1667.5</ele>
        <time>2019-08-31T09:49:07Z</time>
      </trkpt>
      <trkpt lat="42.94647" lon="0.75744">
        <ele>1668.9</ele>
        <time>2019-08-31T09:49:10Z</time>
      </trkpt>
      <trkpt lat="42.94645" lon="0.75741">
        <ele>1670.4</ele>
        <time>2019-08-31T09:49:14Z</time>
      </trkpt>
      <trkpt lat="42.94642" lon="0.75739">
        <ele>1671.8</ele>
        <time>2019-08-31T09:49:18Z</time>
      </trkpt>
      <trkpt lat="42.94639" lon="0.75736">
        <ele>1673.5</ele>
        <time>2019-08-31T09:49:25Z</time>
      </trkpt>
      <trkpt lat="42.94637" lon="0.75734">
        <ele>1674.8</ele>
        <time>2019-08-31T09:49:29Z</time>
      </trkpt>
      <trkpt lat="42.94635" lon="0.75736">
        <ele>1675.5</ele>
        <time>2019-08-31T09:49:34Z</time>
      </trkpt>
      <trkpt lat="42.94632" lon="0.75737">
        <ele>1676.1</ele>
        <time>2019-08-31T09:49:39Z</time>
      </trkpt>
      <trkpt lat="42.94629" lon="0.75738">
        <ele>1676.7</ele>
        <time>2019-08-31T09:49:44Z</time>
      </trkpt>
      <trkpt lat="42.94626" lon="0.75741">
        <ele>1676.9</ele>
        <time>2019-08-31T09:49:49Z</time>
      </trkpt>
      <trkpt lat="42.94624" lon="0.75744">
        <ele>1677.1</ele>
        <time>2019-08-31T09:49:54Z</time>
      </trkpt>
      <trkpt lat="42.94622" lon="0.75748">
        <ele>1677.6</ele>
        <time>2019-08-31T09:49:59Z</time>
      </trkpt>
      <trkpt lat="42.94621" lon="0.75752">
        <ele>1678.7</ele>
        <time>2019-08-31T09:50:06Z</time>
      </trkpt>
      <trkpt lat="42.94619" lon="0.75755">
        <ele>1679.8</ele>
        <time>2019-08-31T09:50:10Z</time>
      </trkpt>
      <trkpt lat="42.94617" lon="0.75758">
        <ele>1680.5</ele>
        <time>2019-08-31T09:50:15Z</time>
      </trkpt>
      <trkpt lat="42.94616" lon="0.75761">
        <ele>1681.2</ele>
        <time>2019-08-31T09:50:19Z</time>
      </trkpt>
      <trkpt lat="42.94613" lon="0.75764">
        <ele>1682</ele>
        <time>2019-08-31T09:50:49Z</time>
      </trkpt>
      <trkpt lat="42.94611" lon="0.75767">
        <ele>1683.4</ele>
        <time>2019-08-31T09:50:53Z</time>
      </trkpt>
      <trkpt lat="42.94608" lon="0.75769">
        <ele>1684.7</ele>
        <time>2019-08-31T09:50:57Z</time>
      </trkpt>
      <trkpt lat="42.94606" lon="0.75773">
        <ele>1685.3</ele>
        <time>2019-08-31T09:51:01Z</time>
      </trkpt>
      <trkpt lat="42.94604" lon="0.75776">
        <ele>1685.7</ele>
        <time>2019-08-31T09:51:05Z</time>
      </trkpt>
      <trkpt lat="42.94603" lon="0.7578">
        <ele>1686.2</ele>
        <time>2019-08-31T09:51:09Z</time>
      </trkpt>
      <trkpt lat="42.94601" lon="0.75784">
        <ele>1686.7</ele>
        <time>2019-08-31T09:51:12Z</time>
      </trkpt>
      <trkpt lat="42.946" lon="0.75787">
        <ele>1687.1</ele>
        <time>2019-08-31T09:51:14Z</time>
      </trkpt>
      <trkpt lat="42.94598" lon="0.75792">
        <ele>1687.5</ele>
        <time>2019-08-31T09:51:17Z</time>
      </trkpt>
      <trkpt lat="42.94597" lon="0.75795">
        <ele>1687.8</ele>
        <time>2019-08-31T09:51:20Z</time>
      </trkpt>
      <trkpt lat="42.94595" lon="0.75799">
        <ele>1688.1</ele>
        <time>2019-08-31T09:51:24Z</time>
      </trkpt>
      <trkpt lat="42.94594" lon="0.75803">
        <ele>1688.6</ele>
        <time>2019-08-31T09:51:28Z</time>
      </trkpt>
      <trkpt lat="42.94593" lon="0.75806">
        <ele>1689.1</ele>
        <time>2019-08-31T09:51:31Z</time>
      </trkpt>
      <trkpt lat="42.94592" lon="0.7581">
        <ele>1689.5</ele>
        <time>2019-08-31T09:51:34Z</time>
      </trkpt>
      <trkpt lat="42.94591" lon="0.75814">
        <ele>1690</ele>
        <time>2019-08-31T09:51:38Z</time>
      </trkpt>
      <trkpt lat="42.94591" lon="0.75818">
        <ele>1690.5</ele>
        <time>2019-08-31T09:51:41Z</time>
      </trkpt>
      <trkpt lat="42.94589" lon="0.75823">
        <ele>1691.1</ele>
        <time>2019-08-31T09:51:45Z</time>
      </trkpt>
      <trkpt lat="42.94588" lon="0.75826">
        <ele>1691.6</ele>
        <time>2019-08-31T09:51:48Z</time>
      </trkpt>
      <trkpt lat="42.94587" lon="0.7583">
        <ele>1692.2</ele>
        <time>2019-08-31T09:51:51Z</time>
      </trkpt>
      <trkpt lat="42.94586" lon="0.75834">
        <ele>1692.7</ele>
        <time>2019-08-31T09:51:54Z</time>
      </trkpt>
      <trkpt lat="42.94585" lon="0.75837">
        <ele>1693.4</ele>
        <time>2019-08-31T09:51:57Z</time>
      </trkpt>
      <trkpt lat="42.94583" lon="0.7584">
        <ele>1694.4</ele>
        <time>2019-08-31T09:52:01Z</time>
      </trkpt>
      <trkpt lat="42.94583" lon="0.75844">
        <ele>1695.1</ele>
        <time>2019-08-31T09:52:05Z</time>
      </trkpt>
      <trkpt lat="42.94581" lon="0.75848">
        <ele>1695.1</ele>
        <time>2019-08-31T09:52:08Z</time>
      </trkpt>
      <trkpt lat="42.9458" lon="0.75852">
        <ele>1695.1</ele>
        <time>2019-08-31T09:52:11Z</time>
      </trkpt>
      <trkpt lat="42.9458" lon="0.75856">
        <ele>1695.1</ele>
        <time>2019-08-31T09:52:14Z</time>
      </trkpt>
      <trkpt lat="42.94581" lon="0.7586">
        <ele>1695.2</ele>
        <time>2019-08-31T09:52:17Z</time>
      </trkpt>
      <trkpt lat="42.94579" lon="0.75864">
        <ele>1695.4</ele>
        <time>2019-08-31T09:52:21Z</time>
      </trkpt>
      <trkpt lat="42.9458" lon="0.75868">
        <ele>1695.5</ele>
        <time>2019-08-31T09:52:24Z</time>
      </trkpt>
      <trkpt lat="42.94577" lon="0.7587">
        <ele>1695.7</ele>
        <time>2019-08-31T09:52:31Z</time>
      </trkpt>
      <trkpt lat="42.94576" lon="0.75874">
        <ele>1696.1</ele>
        <time>2019-08-31T09:52:36Z</time>
      </trkpt>
      <trkpt lat="42.94576" lon="0.75879">
        <ele>1696.3</ele>
        <time>2019-08-31T09:52:39Z</time>
      </trkpt>
      <trkpt lat="42.94576" lon="0.75884">
        <ele>1696.7</ele>
        <time>2019-08-31T09:52:42Z</time>
      </trkpt>
      <trkpt lat="42.94577" lon="0.75888">
        <ele>1697</ele>
        <time>2019-08-31T09:52:45Z</time>
      </trkpt>
      <trkpt lat="42.94578" lon="0.75891">
        <ele>1697.4</ele>
        <time>2019-08-31T09:52:48Z</time>
      </trkpt>
      <trkpt lat="42.94578" lon="0.75896">
        <ele>1697.9</ele>
        <time>2019-08-31T09:52:51Z</time>
      </trkpt>
      <trkpt lat="42.94579" lon="0.75901">
        <ele>1698.3</ele>
        <time>2019-08-31T09:52:55Z</time>
      </trkpt>
      <trkpt lat="42.94579" lon="0.75906">
        <ele>1698.7</ele>
        <time>2019-08-31T09:52:59Z</time>
      </trkpt>
      <trkpt lat="42.94579" lon="0.7591">
        <ele>1699</ele>
        <time>2019-08-31T09:53:03Z</time>
      </trkpt>
      <trkpt lat="42.94579" lon="0.75914">
        <ele>1698.9</ele>
        <time>2019-08-31T09:53:07Z</time>
      </trkpt>
      <trkpt lat="42.9458" lon="0.75918">
        <ele>1698.7</ele>
        <time>2019-08-31T09:53:12Z</time>
      </trkpt>
      <trkpt lat="42.94581" lon="0.75922">
        <ele>1698.4</ele>
        <time>2019-08-31T09:53:16Z</time>
      </trkpt>
      <trkpt lat="42.94581" lon="0.75926">
        <ele>1698.6</ele>
        <time>2019-08-31T09:53:23Z</time>
      </trkpt>
      <trkpt lat="42.94581" lon="0.75931">
        <ele>1699.1</ele>
        <time>2019-08-31T09:53:29Z</time>
      </trkpt>
      <trkpt lat="42.94581" lon="0.75934">
        <ele>1699.5</ele>
        <time>2019-08-31T09:53:34Z</time>
      </trkpt>
      <trkpt lat="42.94583" lon="0.75938">
        <ele>1699.9</ele>
        <time>2019-08-31T09:53:38Z</time>
      </trkpt>
      <trkpt lat="42.94584" lon="0.75942">
        <ele>1700.2</ele>
        <time>2019-08-31T09:53:42Z</time>
      </trkpt>
      <trkpt lat="42.94585" lon="0.75946">
        <ele>1700.6</ele>
        <time>2019-08-31T09:53:46Z</time>
      </trkpt>
      <trkpt lat="42.94585" lon="0.7595">
        <ele>1700.4</ele>
        <time>2019-08-31T09:53:50Z</time>
      </trkpt>
      <trkpt lat="42.94585" lon="0.75955">
        <ele>1700</ele>
        <time>2019-08-31T09:53:55Z</time>
      </trkpt>
      <trkpt lat="42.94585" lon="0.75959">
        <ele>1699.6</ele>
        <time>2019-08-31T09:53:59Z</time>
      </trkpt>
      <trkpt lat="42.94585" lon="0.75963">
        <ele>1699.6</ele>
        <time>2019-08-31T09:54:03Z</time>
      </trkpt>
      <trkpt lat="42.94584" lon="0.75967">
        <ele>1699.9</ele>
        <time>2019-08-31T09:54:07Z</time>
      </trkpt>
      <trkpt lat="42.94585" lon="0.75971">
        <ele>1700.1</ele>
        <time>2019-08-31T09:54:11Z</time>
      </trkpt>
      <trkpt lat="42.94585" lon="0.75976">
        <ele>1700.7</ele>
        <time>2019-08-31T09:54:16Z</time>
      </trkpt>
      <trkpt lat="42.94586" lon="0.7598">
        <ele>1701.3</ele>
        <time>2019-08-31T09:54:20Z</time>
      </trkpt>
      <trkpt lat="42.94586" lon="0.75984">
        <ele>1701.9</ele>
        <time>2019-08-31T09:54:24Z</time>
      </trkpt>
      <trkpt lat="42.94586" lon="0.75988">
        <ele>1702.4</ele>
        <time>2019-08-31T09:54:28Z</time>
      </trkpt>
      <trkpt lat="42.94586" lon="0.75992">
        <ele>1702.9</ele>
        <time>2019-08-31T09:54:33Z</time>
      </trkpt>
      <trkpt lat="42.94585" lon="0.75996">
        <ele>1704.2</ele>
        <time>2019-08-31T09:54:39Z</time>
      </trkpt>
      <trkpt lat="42.94586" lon="0.76001">
        <ele>1706.7</ele>
        <time>2019-08-31T09:54:42Z</time>
      </trkpt>
      <trkpt lat="42.94586" lon="0.76004">
        <ele>1707.7</ele>
        <time>2019-08-31T09:54:45Z</time>
      </trkpt>
      <trkpt lat="42.94586" lon="0.76008">
        <ele>1707.4</ele>
        <time>2019-08-31T09:54:49Z</time>
      </trkpt>
      <trkpt lat="42.94586" lon="0.76013">
        <ele>1707.5</ele>
        <time>2019-08-31T09:54:53Z</time>
      </trkpt>
      <trkpt lat="42.94587" lon="0.76016">
        <ele>1708.3</ele>
        <time>2019-08-31T09:54:56Z</time>
      </trkpt>
      <trkpt lat="42.94586" lon="0.76021">
        <ele>1709.2</ele>
        <time>2019-08-31T09:55:00Z</time>
      </trkpt>
      <trkpt lat="42.94585" lon="0.76025">
        <ele>1710.7</ele>
        <time>2019-08-31T09:55:04Z</time>
      </trkpt>
      <trkpt lat="42.94585" lon="0.7603">
        <ele>1712.6</ele>
        <time>2019-08-31T09:55:08Z</time>
      </trkpt>
      <trkpt lat="42.94585" lon="0.76035">
        <ele>1714.2</ele>
        <time>2019-08-31T09:55:12Z</time>
      </trkpt>
      <trkpt lat="42.94585" lon="0.76039">
        <ele>1715.6</ele>
        <time>2019-08-31T09:55:16Z</time>
      </trkpt>
      <trkpt lat="42.94584" lon="0.76044">
        <ele>1717</ele>
        <time>2019-08-31T09:55:21Z</time>
      </trkpt>
      <trkpt lat="42.94584" lon="0.76047">
        <ele>1718.1</ele>
        <time>2019-08-31T09:55:25Z</time>
      </trkpt>
      <trkpt lat="42.94584" lon="0.76051">
        <ele>1719.3</ele>
        <time>2019-08-31T09:55:29Z</time>
      </trkpt>
      <trkpt lat="42.94584" lon="0.76056">
        <ele>1720.8</ele>
        <time>2019-08-31T09:55:35Z</time>
      </trkpt>
      <trkpt lat="42.94586" lon="0.7606">
        <ele>1722.9</ele>
        <time>2019-08-31T09:55:39Z</time>
      </trkpt>
      <trkpt lat="42.94587" lon="0.76063">
        <ele>1724.6</ele>
        <time>2019-08-31T09:55:43Z</time>
      </trkpt>
      <trkpt lat="42.94587" lon="0.76067">
        <ele>1726.4</ele>
        <time>2019-08-31T09:55:47Z</time>
      </trkpt>
      <trkpt lat="42.94588" lon="0.76071">
        <ele>1727.7</ele>
        <time>2019-08-31T09:55:51Z</time>
      </trkpt>
      <trkpt lat="42.94591" lon="0.76073">
        <ele>1729.2</ele>
        <time>2019-08-31T09:56:02Z</time>
      </trkpt>
      <trkpt lat="42.94589" lon="0.76076">
        <ele>1730.3</ele>
        <time>2019-08-31T09:56:15Z</time>
      </trkpt>
      <trkpt lat="42.94586" lon="0.76073">
        <ele>1731.5</ele>
        <time>2019-08-31T09:56:19Z</time>
      </trkpt>
      <trkpt lat="42.94584" lon="0.7607">
        <ele>1734.8</ele>
        <time>2019-08-31T09:56:22Z</time>
      </trkpt>
      <trkpt lat="42.94582" lon="0.76066">
        <ele>1735.8</ele>
        <time>2019-08-31T09:56:25Z</time>
      </trkpt>
      <trkpt lat="42.9458" lon="0.76064">
        <ele>1736.8</ele>
        <time>2019-08-31T09:56:29Z</time>
      </trkpt>
      <trkpt lat="42.94578" lon="0.7606">
        <ele>1737.9</ele>
        <time>2019-08-31T09:56:34Z</time>
      </trkpt>
      <trkpt lat="42.94577" lon="0.76057">
        <ele>1739.2</ele>
        <time>2019-08-31T09:56:40Z</time>
      </trkpt>
      <trkpt lat="42.94574" lon="0.76056">
        <ele>1740.5</ele>
        <time>2019-08-31T09:56:44Z</time>
      </trkpt>
      <trkpt lat="42.94571" lon="0.76053">
        <ele>1741.9</ele>
        <time>2019-08-31T09:56:48Z</time>
      </trkpt>
      <trkpt lat="42.94568" lon="0.76051">
        <ele>1743</ele>
        <time>2019-08-31T09:56:51Z</time>
      </trkpt>
      <trkpt lat="42.94565" lon="0.76049">
        <ele>1744.3</ele>
        <time>2019-08-31T09:56:55Z</time>
      </trkpt>
      <trkpt lat="42.94562" lon="0.76047">
        <ele>1745.5</ele>
        <time>2019-08-31T09:56:59Z</time>
      </trkpt>
      <trkpt lat="42.9456" lon="0.76045">
        <ele>1746.6</ele>
        <time>2019-08-31T09:57:03Z</time>
      </trkpt>
      <trkpt lat="42.94557" lon="0.76044">
        <ele>1747.6</ele>
        <time>2019-08-31T09:57:07Z</time>
      </trkpt>
      <trkpt lat="42.94555" lon="0.76041">
        <ele>1748.6</ele>
        <time>2019-08-31T09:57:12Z</time>
      </trkpt>
      <trkpt lat="42.94553" lon="0.76038">
        <ele>1749.7</ele>
        <time>2019-08-31T09:57:18Z</time>
      </trkpt>
      <trkpt lat="42.94551" lon="0.76035">
        <ele>1750.8</ele>
        <time>2019-08-31T09:57:23Z</time>
      </trkpt>
      <trkpt lat="42.94549" lon="0.76033">
        <ele>1751.7</ele>
        <time>2019-08-31T09:57:27Z</time>
      </trkpt>
      <trkpt lat="42.94547" lon="0.76031">
        <ele>1752.6</ele>
        <time>2019-08-31T09:57:31Z</time>
      </trkpt>
      <trkpt lat="42.94544" lon="0.76029">
        <ele>1753.7</ele>
        <time>2019-08-31T09:57:38Z</time>
      </trkpt>
      <trkpt lat="42.94541" lon="0.76028">
        <ele>1754.8</ele>
        <time>2019-08-31T09:57:42Z</time>
      </trkpt>
      <trkpt lat="42.94539" lon="0.76025">
        <ele>1756</ele>
        <time>2019-08-31T09:57:46Z</time>
      </trkpt>
      <trkpt lat="42.94537" lon="0.76021">
        <ele>1757.2</ele>
        <time>2019-08-31T09:57:50Z</time>
      </trkpt>
      <trkpt lat="42.94535" lon="0.76019">
        <ele>1758</ele>
        <time>2019-08-31T09:57:54Z</time>
      </trkpt>
      <trkpt lat="42.94532" lon="0.76017">
        <ele>1759</ele>
        <time>2019-08-31T09:58:00Z</time>
      </trkpt>
      <trkpt lat="42.9453" lon="0.76014">
        <ele>1760.1</ele>
        <time>2019-08-31T09:58:04Z</time>
      </trkpt>
      <trkpt lat="42.94528" lon="0.76011">
        <ele>1760.9</ele>
        <time>2019-08-31T09:58:08Z</time>
      </trkpt>
      <trkpt lat="42.94526" lon="0.7601">
        <ele>1761.6</ele>
        <time>2019-08-31T09:58:13Z</time>
      </trkpt>
      <trkpt lat="42.94525" lon="0.76013">
        <ele>1762.3</ele>
        <time>2019-08-31T09:58:21Z</time>
      </trkpt>
      <trkpt lat="42.94526" lon="0.76017">
        <ele>1763.1</ele>
        <time>2019-08-31T09:58:26Z</time>
      </trkpt>
      <trkpt lat="42.94526" lon="0.76021">
        <ele>1763.9</ele>
        <time>2019-08-31T09:58:30Z</time>
      </trkpt>
      <trkpt lat="42.94526" lon="0.76025">
        <ele>1764.6</ele>
        <time>2019-08-31T09:58:34Z</time>
      </trkpt>
      <trkpt lat="42.94526" lon="0.76029">
        <ele>1765.6</ele>
        <time>2019-08-31T09:58:39Z</time>
      </trkpt>
      <trkpt lat="42.94525" lon="0.76034">
        <ele>1766.7</ele>
        <time>2019-08-31T09:58:44Z</time>
      </trkpt>
      <trkpt lat="42.94526" lon="0.76038">
        <ele>1767.7</ele>
        <time>2019-08-31T09:58:48Z</time>
      </trkpt>
      <trkpt lat="42.94527" lon="0.76042">
        <ele>1768.6</ele>
        <time>2019-08-31T09:58:52Z</time>
      </trkpt>
      <trkpt lat="42.94529" lon="0.76046">
        <ele>1769.6</ele>
        <time>2019-08-31T09:59:01Z</time>
      </trkpt>
      <trkpt lat="42.9453" lon="0.7605">
        <ele>1770.5</ele>
        <time>2019-08-31T09:59:05Z</time>
      </trkpt>
      <trkpt lat="42.94531" lon="0.76054">
        <ele>1771.5</ele>
        <time>2019-08-31T09:59:09Z</time>
      </trkpt>
      <trkpt lat="42.94532" lon="0.76059">
        <ele>1772.5</ele>
        <time>2019-08-31T09:59:13Z</time>
      </trkpt>
      <trkpt lat="42.94534" lon="0.76063">
        <ele>1773.5</ele>
        <time>2019-08-31T09:59:17Z</time>
      </trkpt>
      <trkpt lat="42.94533" lon="0.76067">
        <ele>1774.5</ele>
        <time>2019-08-31T09:59:22Z</time>
      </trkpt>
      <trkpt lat="42.94533" lon="0.76071">
        <ele>1775.5</ele>
        <time>2019-08-31T09:59:27Z</time>
      </trkpt>
      <trkpt lat="42.94535" lon="0.76075">
        <ele>1776.5</ele>
        <time>2019-08-31T09:59:31Z</time>
      </trkpt>
      <trkpt lat="42.94535" lon="0.76079">
        <ele>1777.6</ele>
        <time>2019-08-31T09:59:35Z</time>
      </trkpt>
      <trkpt lat="42.94535" lon="0.76083">
        <ele>1778.6</ele>
        <time>2019-08-31T09:59:39Z</time>
      </trkpt>
      <trkpt lat="42.94537" lon="0.76086">
        <ele>1779.6</ele>
        <time>2019-08-31T09:59:44Z</time>
      </trkpt>
      <trkpt lat="42.94538" lon="0.7609">
        <ele>1780.7</ele>
        <time>2019-08-31T09:59:47Z</time>
      </trkpt>
      <trkpt lat="42.9454" lon="0.76094">
        <ele>1782.1</ele>
        <time>2019-08-31T09:59:51Z</time>
      </trkpt>
      <trkpt lat="42.9454" lon="0.76098">
        <ele>1783.2</ele>
        <time>2019-08-31T09:59:58Z</time>
      </trkpt>
      <trkpt lat="42.94541" lon="0.76102">
        <ele>1784.5</ele>
        <time>2019-08-31T10:00:02Z</time>
      </trkpt>
      <trkpt lat="42.94542" lon="0.76107">
        <ele>1785.9</ele>
        <time>2019-08-31T10:00:06Z</time>
      </trkpt>
      <trkpt lat="42.94541" lon="0.76111">
        <ele>1787</ele>
        <time>2019-08-31T10:00:10Z</time>
      </trkpt>
      <trkpt lat="42.94541" lon="0.76115">
        <ele>1788</ele>
        <time>2019-08-31T10:00:14Z</time>
      </trkpt>
      <trkpt lat="42.94542" lon="0.76118">
        <ele>1788.8</ele>
        <time>2019-08-31T10:00:18Z</time>
      </trkpt>
      <trkpt lat="42.94543" lon="0.76122">
        <ele>1789.6</ele>
        <time>2019-08-31T10:00:22Z</time>
      </trkpt>
      <trkpt lat="42.94543" lon="0.76126">
        <ele>1790.4</ele>
        <time>2019-08-31T10:00:26Z</time>
      </trkpt>
      <trkpt lat="42.94543" lon="0.7613">
        <ele>1791.2</ele>
        <time>2019-08-31T10:00:31Z</time>
      </trkpt>
      <trkpt lat="42.94544" lon="0.76133">
        <ele>1792</ele>
        <time>2019-08-31T10:00:35Z</time>
      </trkpt>
      <trkpt lat="42.94546" lon="0.76138">
        <ele>1793</ele>
        <time>2019-08-31T10:00:39Z</time>
      </trkpt>
      <trkpt lat="42.94547" lon="0.76141">
        <ele>1793.8</ele>
        <time>2019-08-31T10:00:42Z</time>
      </trkpt>
      <trkpt lat="42.94548" lon="0.76146">
        <ele>1794.8</ele>
        <time>2019-08-31T10:00:46Z</time>
      </trkpt>
      <trkpt lat="42.94549" lon="0.7615">
        <ele>1795.8</ele>
        <time>2019-08-31T10:00:50Z</time>
      </trkpt>
      <trkpt lat="42.94549" lon="0.76154">
        <ele>1796.6</ele>
        <time>2019-08-31T10:00:54Z</time>
      </trkpt>
      <trkpt lat="42.94551" lon="0.76156">
        <ele>1797.6</ele>
        <time>2019-08-31T10:00:59Z</time>
      </trkpt>
      <trkpt lat="42.94554" lon="0.7616">
        <ele>1798.7</ele>
        <time>2019-08-31T10:01:06Z</time>
      </trkpt>
      <trkpt lat="42.94554" lon="0.76164">
        <ele>1799.8</ele>
        <time>2019-08-31T10:01:12Z</time>
      </trkpt>
      <trkpt lat="42.94554" lon="0.76168">
        <ele>1800.8</ele>
        <time>2019-08-31T10:01:17Z</time>
      </trkpt>
      <trkpt lat="42.94551" lon="0.76166">
        <ele>1801.7</ele>
        <time>2019-08-31T10:01:24Z</time>
      </trkpt>
      <trkpt lat="42.94549" lon="0.76166">
        <ele>1802.6</ele>
        <time>2019-08-31T10:01:30Z</time>
      </trkpt>
      <trkpt lat="42.94545" lon="0.76165">
        <ele>1803.6</ele>
        <time>2019-08-31T10:01:39Z</time>
      </trkpt>
      <trkpt lat="42.94542" lon="0.76163">
        <ele>1804.5</ele>
        <time>2019-08-31T10:01:45Z</time>
      </trkpt>
      <trkpt lat="42.9454" lon="0.76162">
        <ele>1805.4</ele>
        <time>2019-08-31T10:01:52Z</time>
      </trkpt>
      <trkpt lat="42.94537" lon="0.7616">
        <ele>1806.4</ele>
        <time>2019-08-31T10:01:58Z</time>
      </trkpt>
      <trkpt lat="42.94535" lon="0.76157">
        <ele>1807.4</ele>
        <time>2019-08-31T10:02:30Z</time>
      </trkpt>
      <trkpt lat="42.94532" lon="0.76156">
        <ele>1808.7</ele>
        <time>2019-08-31T10:02:34Z</time>
      </trkpt>
      <trkpt lat="42.94529" lon="0.76154">
        <ele>1809.7</ele>
        <time>2019-08-31T10:02:38Z</time>
      </trkpt>
      <trkpt lat="42.94526" lon="0.76153">
        <ele>1810.5</ele>
        <time>2019-08-31T10:02:41Z</time>
      </trkpt>
      <trkpt lat="42.94523" lon="0.76151">
        <ele>1811.5</ele>
        <time>2019-08-31T10:02:45Z</time>
      </trkpt>
      <trkpt lat="42.9452" lon="0.7615">
        <ele>1812.3</ele>
        <time>2019-08-31T10:02:49Z</time>
      </trkpt>
      <trkpt lat="42.94517" lon="0.76149">
        <ele>1813.1</ele>
        <time>2019-08-31T10:03:05Z</time>
      </trkpt>
      <trkpt lat="42.94515" lon="0.76146">
        <ele>1814.1</ele>
        <time>2019-08-31T10:03:08Z</time>
      </trkpt>
      <trkpt lat="42.94511" lon="0.76143">
        <ele>1815.2</ele>
        <time>2019-08-31T10:03:12Z</time>
      </trkpt>
      <trkpt lat="42.94509" lon="0.76141">
        <ele>1815.9</ele>
        <time>2019-08-31T10:03:15Z</time>
      </trkpt>
      <trkpt lat="42.94507" lon="0.76139">
        <ele>1816.5</ele>
        <time>2019-08-31T10:03:18Z</time>
      </trkpt>
      <trkpt lat="42.94504" lon="0.76137">
        <ele>1817.1</ele>
        <time>2019-08-31T10:03:21Z</time>
      </trkpt>
      <trkpt lat="42.94501" lon="0.76135">
        <ele>1817.7</ele>
        <time>2019-08-31T10:03:24Z</time>
      </trkpt>
      <trkpt lat="42.94499" lon="0.76132">
        <ele>1818.3</ele>
        <time>2019-08-31T10:03:27Z</time>
      </trkpt>
      <trkpt lat="42.94496" lon="0.7613">
        <ele>1818.8</ele>
        <time>2019-08-31T10:03:30Z</time>
      </trkpt>
      <trkpt lat="42.94494" lon="0.76128">
        <ele>1819.4</ele>
        <time>2019-08-31T10:03:33Z</time>
      </trkpt>
      <trkpt lat="42.94491" lon="0.76126">
        <ele>1820</ele>
        <time>2019-08-31T10:03:36Z</time>
      </trkpt>
      <trkpt lat="42.94489" lon="0.76124">
        <ele>1820.6</ele>
        <time>2019-08-31T10:03:39Z</time>
      </trkpt>
      <trkpt lat="42.94486" lon="0.76122">
        <ele>1821.3</ele>
        <time>2019-08-31T10:03:42Z</time>
      </trkpt>
      <trkpt lat="42.94484" lon="0.7612">
        <ele>1822.1</ele>
        <time>2019-08-31T10:03:45Z</time>
      </trkpt>
      <trkpt lat="42.94481" lon="0.76118">
        <ele>1823</ele>
        <time>2019-08-31T10:03:48Z</time>
      </trkpt>
      <trkpt lat="42.94478" lon="0.76116">
        <ele>1823.8</ele>
        <time>2019-08-31T10:03:52Z</time>
      </trkpt>
      <trkpt lat="42.94475" lon="0.76114">
        <ele>1824.5</ele>
        <time>2019-08-31T10:03:56Z</time>
      </trkpt>
      <trkpt lat="42.94472" lon="0.76111">
        <ele>1825.4</ele>
        <time>2019-08-31T10:04:00Z</time>
      </trkpt>
      <trkpt lat="42.9447" lon="0.76108">
        <ele>1826.3</ele>
        <time>2019-08-31T10:04:04Z</time>
      </trkpt>
      <trkpt lat="42.94467" lon="0.76106">
        <ele>1827.3</ele>
        <time>2019-08-31T10:04:08Z</time>
      </trkpt>
      <trkpt lat="42.94465" lon="0.76104">
        <ele>1828.3</ele>
        <time>2019-08-31T10:04:12Z</time>
      </trkpt>
      <trkpt lat="42.94463" lon="0.76102">
        <ele>1829.2</ele>
        <time>2019-08-31T10:04:19Z</time>
      </trkpt>
      <trkpt lat="42.9446" lon="0.76099">
        <ele>1830.3</ele>
        <time>2019-08-31T10:04:24Z</time>
      </trkpt>
      <trkpt lat="42.94458" lon="0.76097">
        <ele>1831.3</ele>
        <time>2019-08-31T10:04:28Z</time>
      </trkpt>
      <trkpt lat="42.94455" lon="0.76094">
        <ele>1832.3</ele>
        <time>2019-08-31T10:04:33Z</time>
      </trkpt>
      <trkpt lat="42.94454" lon="0.76097">
        <ele>1833.2</ele>
        <time>2019-08-31T10:04:41Z</time>
      </trkpt>
      <trkpt lat="42.94454" lon="0.76101">
        <ele>1834.2</ele>
        <time>2019-08-31T10:04:45Z</time>
      </trkpt>
      <trkpt lat="42.94452" lon="0.76105">
        <ele>1835.1</ele>
        <time>2019-08-31T10:04:50Z</time>
      </trkpt>
      <trkpt lat="42.94451" lon="0.76109">
        <ele>1836.2</ele>
        <time>2019-08-31T10:04:55Z</time>
      </trkpt>
      <trkpt lat="42.9445" lon="0.76113">
        <ele>1837.3</ele>
        <time>2019-08-31T10:05:00Z</time>
      </trkpt>
      <trkpt lat="42.94448" lon="0.76117">
        <ele>1838.4</ele>
        <time>2019-08-31T10:05:06Z</time>
      </trkpt>
      <trkpt lat="42.94447" lon="0.76121">
        <ele>1839.5</ele>
        <time>2019-08-31T10:05:10Z</time>
      </trkpt>
      <trkpt lat="42.94446" lon="0.76125">
        <ele>1840.6</ele>
        <time>2019-08-31T10:05:14Z</time>
      </trkpt>
      <trkpt lat="42.94446" lon="0.76128">
        <ele>1841.6</ele>
        <time>2019-08-31T10:05:18Z</time>
      </trkpt>
      <trkpt lat="42.94445" lon="0.76133">
        <ele>1842.7</ele>
        <time>2019-08-31T10:05:22Z</time>
      </trkpt>
      <trkpt lat="42.94445" lon="0.76137">
        <ele>1843.9</ele>
        <time>2019-08-31T10:05:26Z</time>
      </trkpt>
      <trkpt lat="42.94444" lon="0.76141">
        <ele>1844.9</ele>
        <time>2019-08-31T10:05:31Z</time>
      </trkpt>
      <trkpt lat="42.94442" lon="0.76144">
        <ele>1845.9</ele>
        <time>2019-08-31T10:05:36Z</time>
      </trkpt>
      <trkpt lat="42.9444" lon="0.76147">
        <ele>1847</ele>
        <time>2019-08-31T10:05:41Z</time>
      </trkpt>
      <trkpt lat="42.94437" lon="0.7615">
        <ele>1847.9</ele>
        <time>2019-08-31T10:05:46Z</time>
      </trkpt>
      <trkpt lat="42.94435" lon="0.76152">
        <ele>1849</ele>
        <time>2019-08-31T10:05:51Z</time>
      </trkpt>
      <trkpt lat="42.94432" lon="0.76153">
        <ele>1850.4</ele>
        <time>2019-08-31T10:05:56Z</time>
      </trkpt>
      <trkpt lat="42.94432" lon="0.76158">
        <ele>1852</ele>
        <time>2019-08-31T10:08:18Z</time>
      </trkpt>
      <trkpt lat="42.94434" lon="0.76162">
        <ele>1852.8</ele>
        <time>2019-08-31T10:08:21Z</time>
      </trkpt>
      <trkpt lat="42.94435" lon="0.76165">
        <ele>1853</ele>
        <time>2019-08-31T10:08:24Z</time>
      </trkpt>
      <trkpt lat="42.94437" lon="0.76168">
        <ele>1853.2</ele>
        <time>2019-08-31T10:08:28Z</time>
      </trkpt>
      <trkpt lat="42.94439" lon="0.76171">
        <ele>1853.5</ele>
        <time>2019-08-31T10:08:33Z</time>
      </trkpt>
      <trkpt lat="42.9444" lon="0.76175">
        <ele>1853.7</ele>
        <time>2019-08-31T10:08:38Z</time>
      </trkpt>
      <trkpt lat="42.94441" lon="0.76179">
        <ele>1853.9</ele>
        <time>2019-08-31T10:08:41Z</time>
      </trkpt>
      <trkpt lat="42.94442" lon="0.76183">
        <ele>1854.2</ele>
        <time>2019-08-31T10:08:45Z</time>
      </trkpt>
      <trkpt lat="42.94442" lon="0.76187">
        <ele>1854.4</ele>
        <time>2019-08-31T10:08:48Z</time>
      </trkpt>
      <trkpt lat="42.94444" lon="0.7619">
        <ele>1854.6</ele>
        <time>2019-08-31T10:08:52Z</time>
      </trkpt>
      <trkpt lat="42.94446" lon="0.76195">
        <ele>1854.9</ele>
        <time>2019-08-31T10:08:56Z</time>
      </trkpt>
      <trkpt lat="42.94447" lon="0.76199">
        <ele>1855.1</ele>
        <time>2019-08-31T10:09:00Z</time>
      </trkpt>
      <trkpt lat="42.94449" lon="0.76203">
        <ele>1855.3</ele>
        <time>2019-08-31T10:09:07Z</time>
      </trkpt>
      <trkpt lat="42.9445" lon="0.76206">
        <ele>1855.4</ele>
        <time>2019-08-31T10:09:10Z</time>
      </trkpt>
      <trkpt lat="42.94451" lon="0.7621">
        <ele>1855.6</ele>
        <time>2019-08-31T10:09:13Z</time>
      </trkpt>
      <trkpt lat="42.94452" lon="0.76214">
        <ele>1855.8</ele>
        <time>2019-08-31T10:09:16Z</time>
      </trkpt>
      <trkpt lat="42.94453" lon="0.76218">
        <ele>1855.9</ele>
        <time>2019-08-31T10:09:19Z</time>
      </trkpt>
      <trkpt lat="42.94455" lon="0.76222">
        <ele>1856</ele>
        <time>2019-08-31T10:09:22Z</time>
      </trkpt>
      <trkpt lat="42.94457" lon="0.76225">
        <ele>1856.1</ele>
        <time>2019-08-31T10:09:25Z</time>
      </trkpt>
      <trkpt lat="42.94459" lon="0.76228">
        <ele>1856.1</ele>
        <time>2019-08-31T10:09:28Z</time>
      </trkpt>
      <trkpt lat="42.94461" lon="0.76231">
        <ele>1856.2</ele>
        <time>2019-08-31T10:09:31Z</time>
      </trkpt>
      <trkpt lat="42.94463" lon="0.76234">
        <ele>1856.2</ele>
        <time>2019-08-31T10:09:34Z</time>
      </trkpt>
      <trkpt lat="42.94464" lon="0.76237">
        <ele>1856.2</ele>
        <time>2019-08-31T10:09:37Z</time>
      </trkpt>
      <trkpt lat="42.94466" lon="0.7624">
        <ele>1856.2</ele>
        <time>2019-08-31T10:09:40Z</time>
      </trkpt>
      <trkpt lat="42.94467" lon="0.76244">
        <ele>1856.2</ele>
        <time>2019-08-31T10:09:43Z</time>
      </trkpt>
      <trkpt lat="42.94469" lon="0.76248">
        <ele>1856.2</ele>
        <time>2019-08-31T10:09:47Z</time>
      </trkpt>
      <trkpt lat="42.94471" lon="0.76251">
        <ele>1856.2</ele>
        <time>2019-08-31T10:09:50Z</time>
      </trkpt>
      <trkpt lat="42.94472" lon="0.76254">
        <ele>1856.3</ele>
        <time>2019-08-31T10:09:53Z</time>
      </trkpt>
      <trkpt lat="42.94474" lon="0.76257">
        <ele>1856.3</ele>
        <time>2019-08-31T10:09:57Z</time>
      </trkpt>
      <trkpt lat="42.94477" lon="0.76259">
        <ele>1856.5</ele>
        <time>2019-08-31T10:10:00Z</time>
      </trkpt>
      <trkpt lat="42.94481" lon="0.76261">
        <ele>1856.6</ele>
        <time>2019-08-31T10:10:03Z</time>
      </trkpt>
      <trkpt lat="42.94483" lon="0.76264">
        <ele>1856.8</ele>
        <time>2019-08-31T10:10:06Z</time>
      </trkpt>
      <trkpt lat="42.94486" lon="0.76267">
        <ele>1857.1</ele>
        <time>2019-08-31T10:10:10Z</time>
      </trkpt>
      <trkpt lat="42.94488" lon="0.7627">
        <ele>1857.3</ele>
        <time>2019-08-31T10:10:14Z</time>
      </trkpt>
      <trkpt lat="42.9449" lon="0.76272">
        <ele>1857.5</ele>
        <time>2019-08-31T10:10:17Z</time>
      </trkpt>
      <trkpt lat="42.94493" lon="0.76275">
        <ele>1857.8</ele>
        <time>2019-08-31T10:10:21Z</time>
      </trkpt>
      <trkpt lat="42.94495" lon="0.76279">
        <ele>1858</ele>
        <time>2019-08-31T10:10:25Z</time>
      </trkpt>
      <trkpt lat="42.94498" lon="0.76281">
        <ele>1858.1</ele>
        <time>2019-08-31T10:10:28Z</time>
      </trkpt>
      <trkpt lat="42.945" lon="0.76284">
        <ele>1858.2</ele>
        <time>2019-08-31T10:10:32Z</time>
      </trkpt>
      <trkpt lat="42.94501" lon="0.76288">
        <ele>1858.2</ele>
        <time>2019-08-31T10:10:35Z</time>
      </trkpt>
      <trkpt lat="42.94503" lon="0.76292">
        <ele>1858.2</ele>
        <time>2019-08-31T10:10:38Z</time>
      </trkpt>
      <trkpt lat="42.94504" lon="0.76295">
        <ele>1858.3</ele>
        <time>2019-08-31T10:10:41Z</time>
      </trkpt>
      <trkpt lat="42.94506" lon="0.763">
        <ele>1858.3</ele>
        <time>2019-08-31T10:10:44Z</time>
      </trkpt>
      <trkpt lat="42.94507" lon="0.76305">
        <ele>1858.3</ele>
        <time>2019-08-31T10:10:47Z</time>
      </trkpt>
      <trkpt lat="42.94507" lon="0.76309">
        <ele>1858.4</ele>
        <time>2019-08-31T10:10:50Z</time>
      </trkpt>
      <trkpt lat="42.94509" lon="0.76313">
        <ele>1858.4</ele>
        <time>2019-08-31T10:10:53Z</time>
      </trkpt>
      <trkpt lat="42.9451" lon="0.76317">
        <ele>1858.5</ele>
        <time>2019-08-31T10:10:56Z</time>
      </trkpt>
      <trkpt lat="42.94511" lon="0.76321">
        <ele>1858.5</ele>
        <time>2019-08-31T10:10:59Z</time>
      </trkpt>
      <trkpt lat="42.94512" lon="0.76325">
        <ele>1858.6</ele>
        <time>2019-08-31T10:11:02Z</time>
      </trkpt>
      <trkpt lat="42.94514" lon="0.76328">
        <ele>1858.6</ele>
        <time>2019-08-31T10:11:05Z</time>
      </trkpt>
      <trkpt lat="42.94516" lon="0.76331">
        <ele>1858.7</ele>
        <time>2019-08-31T10:11:10Z</time>
      </trkpt>
      <trkpt lat="42.94519" lon="0.76333">
        <ele>1858.8</ele>
        <time>2019-08-31T10:11:13Z</time>
      </trkpt>
      <trkpt lat="42.94523" lon="0.76334">
        <ele>1858.9</ele>
        <time>2019-08-31T10:11:16Z</time>
      </trkpt>
      <trkpt lat="42.94527" lon="0.76337">
        <ele>1859.1</ele>
        <time>2019-08-31T10:11:19Z</time>
      </trkpt>
      <trkpt lat="42.94529" lon="0.7634">
        <ele>1859.3</ele>
        <time>2019-08-31T10:11:22Z</time>
      </trkpt>
      <trkpt lat="42.94532" lon="0.76344">
        <ele>1859.5</ele>
        <time>2019-08-31T10:11:25Z</time>
      </trkpt>
      <trkpt lat="42.94534" lon="0.76348">
        <ele>1859.9</ele>
        <time>2019-08-31T10:11:28Z</time>
      </trkpt>
      <trkpt lat="42.94536" lon="0.76352">
        <ele>1860.2</ele>
        <time>2019-08-31T10:11:31Z</time>
      </trkpt>
      <trkpt lat="42.94539" lon="0.76355">
        <ele>1860.7</ele>
        <time>2019-08-31T10:11:34Z</time>
      </trkpt>
      <trkpt lat="42.94541" lon="0.76358">
        <ele>1861.1</ele>
        <time>2019-08-31T10:11:36Z</time>
      </trkpt>
      <trkpt lat="42.94543" lon="0.76362">
        <ele>1861.5</ele>
        <time>2019-08-31T10:11:39Z</time>
      </trkpt>
      <trkpt lat="42.94546" lon="0.76366">
        <ele>1862</ele>
        <time>2019-08-31T10:11:42Z</time>
      </trkpt>
      <trkpt lat="42.94548" lon="0.76369">
        <ele>1862.4</ele>
        <time>2019-08-31T10:11:45Z</time>
      </trkpt>
      <trkpt lat="42.94548" lon="0.76374">
        <ele>1862.9</ele>
        <time>2019-08-31T10:11:48Z</time>
      </trkpt>
      <trkpt lat="42.94548" lon="0.76378">
        <ele>1863.2</ele>
        <time>2019-08-31T10:11:51Z</time>
      </trkpt>
      <trkpt lat="42.94548" lon="0.76382">
        <ele>1863.6</ele>
        <time>2019-08-31T10:11:55Z</time>
      </trkpt>
      <trkpt lat="42.94549" lon="0.76386">
        <ele>1864</ele>
        <time>2019-08-31T10:11:59Z</time>
      </trkpt>
      <trkpt lat="42.94551" lon="0.7639">
        <ele>1864.4</ele>
        <time>2019-08-31T10:12:02Z</time>
      </trkpt>
      <trkpt lat="42.94552" lon="0.76393">
        <ele>1864.7</ele>
        <time>2019-08-31T10:12:05Z</time>
      </trkpt>
      <trkpt lat="42.94554" lon="0.76396">
        <ele>1865</ele>
        <time>2019-08-31T10:12:08Z</time>
      </trkpt>
      <trkpt lat="42.94557" lon="0.76399">
        <ele>1865.3</ele>
        <time>2019-08-31T10:12:11Z</time>
      </trkpt>
      <trkpt lat="42.94559" lon="0.76403">
        <ele>1865.7</ele>
        <time>2019-08-31T10:12:15Z</time>
      </trkpt>
      <trkpt lat="42.94561" lon="0.76406">
        <ele>1865.9</ele>
        <time>2019-08-31T10:12:18Z</time>
      </trkpt>
      <trkpt lat="42.94562" lon="0.7641">
        <ele>1866.1</ele>
        <time>2019-08-31T10:12:23Z</time>
      </trkpt>
      <trkpt lat="42.94563" lon="0.76413">
        <ele>1866.3</ele>
        <time>2019-08-31T10:12:26Z</time>
      </trkpt>
      <trkpt lat="42.94564" lon="0.76418">
        <ele>1866.5</ele>
        <time>2019-08-31T10:12:30Z</time>
      </trkpt>
      <trkpt lat="42.94567" lon="0.76421">
        <ele>1866.7</ele>
        <time>2019-08-31T10:12:33Z</time>
      </trkpt>
      <trkpt lat="42.94569" lon="0.76425">
        <ele>1866.9</ele>
        <time>2019-08-31T10:12:37Z</time>
      </trkpt>
      <trkpt lat="42.94572" lon="0.76428">
        <ele>1867.1</ele>
        <time>2019-08-31T10:12:41Z</time>
      </trkpt>
      <trkpt lat="42.94574" lon="0.7643">
        <ele>1867.3</ele>
        <time>2019-08-31T10:12:43Z</time>
      </trkpt>
      <trkpt lat="42.94578" lon="0.76432">
        <ele>1867.6</ele>
        <time>2019-08-31T10:12:46Z</time>
      </trkpt>
      <trkpt lat="42.9458" lon="0.76435">
        <ele>1867.9</ele>
        <time>2019-08-31T10:12:49Z</time>
      </trkpt>
      <trkpt lat="42.94582" lon="0.76438">
        <ele>1868.2</ele>
        <time>2019-08-31T10:12:52Z</time>
      </trkpt>
      <trkpt lat="42.94584" lon="0.76442">
        <ele>1868.6</ele>
        <time>2019-08-31T10:12:55Z</time>
      </trkpt>
      <trkpt lat="42.94585" lon="0.76446">
        <ele>1868.9</ele>
        <time>2019-08-31T10:12:58Z</time>
      </trkpt>
      <trkpt lat="42.94586" lon="0.7645">
        <ele>1869.4</ele>
        <time>2019-08-31T10:13:01Z</time>
      </trkpt>
      <trkpt lat="42.94587" lon="0.76454">
        <ele>1869.8</ele>
        <time>2019-08-31T10:13:04Z</time>
      </trkpt>
      <trkpt lat="42.94588" lon="0.76458">
        <ele>1870.2</ele>
        <time>2019-08-31T10:13:07Z</time>
      </trkpt>
      <trkpt lat="42.9459" lon="0.76461">
        <ele>1870.5</ele>
        <time>2019-08-31T10:13:10Z</time>
      </trkpt>
      <trkpt lat="42.94591" lon="0.76465">
        <ele>1870.9</ele>
        <time>2019-08-31T10:13:14Z</time>
      </trkpt>
      <trkpt lat="42.94592" lon="0.76469">
        <ele>1871.3</ele>
        <time>2019-08-31T10:13:17Z</time>
      </trkpt>
      <trkpt lat="42.94594" lon="0.76473">
        <ele>1871.6</ele>
        <time>2019-08-31T10:13:20Z</time>
      </trkpt>
      <trkpt lat="42.94596" lon="0.76476">
        <ele>1871.9</ele>
        <time>2019-08-31T10:13:23Z</time>
      </trkpt>
      <trkpt lat="42.94598" lon="0.7648">
        <ele>1872.2</ele>
        <time>2019-08-31T10:13:26Z</time>
      </trkpt>
      <trkpt lat="42.94599" lon="0.76483">
        <ele>1872.5</ele>
        <time>2019-08-31T10:13:29Z</time>
      </trkpt>
      <trkpt lat="42.94601" lon="0.76487">
        <ele>1872.7</ele>
        <time>2019-08-31T10:13:32Z</time>
      </trkpt>
      <trkpt lat="42.94602" lon="0.76491">
        <ele>1873</ele>
        <time>2019-08-31T10:13:35Z</time>
      </trkpt>
      <trkpt lat="42.94605" lon="0.76496">
        <ele>1873.2</ele>
        <time>2019-08-31T10:13:38Z</time>
      </trkpt>
      <trkpt lat="42.94606" lon="0.765">
        <ele>1873.3</ele>
        <time>2019-08-31T10:13:41Z</time>
      </trkpt>
      <trkpt lat="42.94607" lon="0.76503">
        <ele>1873.5</ele>
        <time>2019-08-31T10:13:44Z</time>
      </trkpt>
      <trkpt lat="42.94609" lon="0.76507">
        <ele>1873.6</ele>
        <time>2019-08-31T10:13:47Z</time>
      </trkpt>
      <trkpt lat="42.94611" lon="0.7651">
        <ele>1873.8</ele>
        <time>2019-08-31T10:13:50Z</time>
      </trkpt>
      <trkpt lat="42.94613" lon="0.76515">
        <ele>1874.1</ele>
        <time>2019-08-31T10:13:54Z</time>
      </trkpt>
      <trkpt lat="42.94614" lon="0.76518">
        <ele>1874.3</ele>
        <time>2019-08-31T10:13:58Z</time>
      </trkpt>
      <trkpt lat="42.94615" lon="0.76521">
        <ele>1874.6</ele>
        <time>2019-08-31T10:14:07Z</time>
      </trkpt>
      <trkpt lat="42.94618" lon="0.76523">
        <ele>1874.9</ele>
        <time>2019-08-31T10:14:10Z</time>
      </trkpt>
      <trkpt lat="42.9462" lon="0.76525">
        <ele>1875.2</ele>
        <time>2019-08-31T10:14:13Z</time>
      </trkpt>
      <trkpt lat="42.9462" lon="0.76529">
        <ele>1875.6</ele>
        <time>2019-08-31T10:14:18Z</time>
      </trkpt>
      <trkpt lat="42.9462" lon="0.76533">
        <ele>1875.9</ele>
        <time>2019-08-31T10:14:22Z</time>
      </trkpt>
      <trkpt lat="42.94621" lon="0.76537">
        <ele>1876.2</ele>
        <time>2019-08-31T10:14:25Z</time>
      </trkpt>
      <trkpt lat="42.94621" lon="0.76542">
        <ele>1876.5</ele>
        <time>2019-08-31T10:14:29Z</time>
      </trkpt>
      <trkpt lat="42.94622" lon="0.76546">
        <ele>1876.8</ele>
        <time>2019-08-31T10:14:32Z</time>
      </trkpt>
      <trkpt lat="42.94623" lon="0.76549">
        <ele>1877.1</ele>
        <time>2019-08-31T10:14:36Z</time>
      </trkpt>
      <trkpt lat="42.94626" lon="0.76551">
        <ele>1877.4</ele>
        <time>2019-08-31T10:14:40Z</time>
      </trkpt>
      <trkpt lat="42.94628" lon="0.76554">
        <ele>1877.7</ele>
        <time>2019-08-31T10:14:43Z</time>
      </trkpt>
      <trkpt lat="42.9463" lon="0.76557">
        <ele>1878</ele>
        <time>2019-08-31T10:14:46Z</time>
      </trkpt>
      <trkpt lat="42.94631" lon="0.76561">
        <ele>1878.3</ele>
        <time>2019-08-31T10:14:50Z</time>
      </trkpt>
      <trkpt lat="42.94631" lon="0.76565">
        <ele>1878.5</ele>
        <time>2019-08-31T10:14:54Z</time>
      </trkpt>
      <trkpt lat="42.94631" lon="0.76569">
        <ele>1878.8</ele>
        <time>2019-08-31T10:15:00Z</time>
      </trkpt>
      <trkpt lat="42.94633" lon="0.76573">
        <ele>1879</ele>
        <time>2019-08-31T10:15:04Z</time>
      </trkpt>
      <trkpt lat="42.94635" lon="0.76576">
        <ele>1879.3</ele>
        <time>2019-08-31T10:15:08Z</time>
      </trkpt>
      <trkpt lat="42.94638" lon="0.76578">
        <ele>1879.6</ele>
        <time>2019-08-31T10:15:13Z</time>
      </trkpt>
      <trkpt lat="42.9464" lon="0.76578">
        <ele>1879.8</ele>
        <time>2019-08-31T10:15:17Z</time>
      </trkpt>
      <trkpt lat="42.94643" lon="0.7658">
        <ele>1880.1</ele>
        <time>2019-08-31T10:15:22Z</time>
      </trkpt>
      <trkpt lat="42.94646" lon="0.76581">
        <ele>1880.4</ele>
        <time>2019-08-31T10:15:26Z</time>
      </trkpt>
      <trkpt lat="42.94648" lon="0.76584">
        <ele>1880.5</ele>
        <time>2019-08-31T10:15:30Z</time>
      </trkpt>
      <trkpt lat="42.9465" lon="0.76588">
        <ele>1880.6</ele>
        <time>2019-08-31T10:15:35Z</time>
      </trkpt>
      <trkpt lat="42.94652" lon="0.76589">
        <ele>1880.6</ele>
        <time>2019-08-31T10:15:40Z</time>
      </trkpt>
      <trkpt lat="42.94655" lon="0.7659">
        <ele>1880.6</ele>
        <time>2019-08-31T10:15:44Z</time>
      </trkpt>
      <trkpt lat="42.94657" lon="0.76593">
        <ele>1880.5</ele>
        <time>2019-08-31T10:16:04Z</time>
      </trkpt>
      <trkpt lat="42.9466" lon="0.76593">
        <ele>1880.4</ele>
        <time>2019-08-31T10:17:14Z</time>
      </trkpt>
      <trkpt lat="42.94658" lon="0.7659">
        <ele>1880.2</ele>
        <time>2019-08-31T10:20:30Z</time>
      </trkpt>
      <trkpt lat="42.94655" lon="0.76588">
        <ele>1880</ele>
        <time>2019-08-31T10:20:38Z</time>
      </trkpt>
      <trkpt lat="42.94652" lon="0.76586">
        <ele>1879.7</ele>
        <time>2019-08-31T10:20:45Z</time>
      </trkpt>
      <trkpt lat="42.9465" lon="0.76585">
        <ele>1879.5</ele>
        <time>2019-08-31T10:20:53Z</time>
      </trkpt>
      <trkpt lat="42.94647" lon="0.76582">
        <ele>1879.2</ele>
        <time>2019-08-31T10:21:01Z</time>
      </trkpt>
      <trkpt lat="42.94645" lon="0.76581">
        <ele>1879</ele>
        <time>2019-08-31T10:21:07Z</time>
      </trkpt>
      <trkpt lat="42.94642" lon="0.7658">
        <ele>1878.7</ele>
        <time>2019-08-31T10:21:14Z</time>
      </trkpt>
      <trkpt lat="42.94639" lon="0.7658">
        <ele>1878.5</ele>
        <time>2019-08-31T10:21:17Z</time>
      </trkpt>
      <trkpt lat="42.94636" lon="0.76577">
        <ele>1878.2</ele>
        <time>2019-08-31T10:21:20Z</time>
      </trkpt>
      <trkpt lat="42.94635" lon="0.76573">
        <ele>1878</ele>
        <time>2019-08-31T10:21:23Z</time>
      </trkpt>
      <trkpt lat="42.94634" lon="0.7657">
        <ele>1877.7</ele>
        <time>2019-08-31T10:21:27Z</time>
      </trkpt>
      <trkpt lat="42.94633" lon="0.76565">
        <ele>1877.4</ele>
        <time>2019-08-31T10:21:31Z</time>
      </trkpt>
      <trkpt lat="42.94631" lon="0.76562">
        <ele>1877.1</ele>
        <time>2019-08-31T10:21:34Z</time>
      </trkpt>
      <trkpt lat="42.94629" lon="0.76559">
        <ele>1876.8</ele>
        <time>2019-08-31T10:21:37Z</time>
      </trkpt>
      <trkpt lat="42.94628" lon="0.76556">
        <ele>1876.6</ele>
        <time>2019-08-31T10:21:41Z</time>
      </trkpt>
      <trkpt lat="42.94626" lon="0.76552">
        <ele>1876.3</ele>
        <time>2019-08-31T10:21:45Z</time>
      </trkpt>
      <trkpt lat="42.94624" lon="0.7655">
        <ele>1876</ele>
        <time>2019-08-31T10:21:50Z</time>
      </trkpt>
      <trkpt lat="42.94623" lon="0.76546">
        <ele>1875.7</ele>
        <time>2019-08-31T10:21:53Z</time>
      </trkpt>
      <trkpt lat="42.94624" lon="0.76541">
        <ele>1875.4</ele>
        <time>2019-08-31T10:21:56Z</time>
      </trkpt>
      <trkpt lat="42.94624" lon="0.76537">
        <ele>1875</ele>
        <time>2019-08-31T10:21:59Z</time>
      </trkpt>
      <trkpt lat="42.94624" lon="0.76532">
        <ele>1874.7</ele>
        <time>2019-08-31T10:22:04Z</time>
      </trkpt>
      <trkpt lat="42.94622" lon="0.76529">
        <ele>1874.4</ele>
        <time>2019-08-31T10:22:07Z</time>
      </trkpt>
      <trkpt lat="42.94621" lon="0.76525">
        <ele>1874.2</ele>
        <time>2019-08-31T10:22:11Z</time>
      </trkpt>
      <trkpt lat="42.9462" lon="0.76521">
        <ele>1873.9</ele>
        <time>2019-08-31T10:22:15Z</time>
      </trkpt>
      <trkpt lat="42.94619" lon="0.76517">
        <ele>1873.7</ele>
        <time>2019-08-31T10:22:21Z</time>
      </trkpt>
      <trkpt lat="42.94617" lon="0.76513">
        <ele>1873.5</ele>
        <time>2019-08-31T10:22:25Z</time>
      </trkpt>
      <trkpt lat="42.94615" lon="0.7651">
        <ele>1873.4</ele>
        <time>2019-08-31T10:22:28Z</time>
      </trkpt>
      <trkpt lat="42.94614" lon="0.76506">
        <ele>1873.3</ele>
        <time>2019-08-31T10:22:32Z</time>
      </trkpt>
      <trkpt lat="42.94613" lon="0.76503">
        <ele>1873.1</ele>
        <time>2019-08-31T10:22:35Z</time>
      </trkpt>
      <trkpt lat="42.94611" lon="0.76499">
        <ele>1873</ele>
        <time>2019-08-31T10:22:40Z</time>
      </trkpt>
      <trkpt lat="42.94611" lon="0.76495">
        <ele>1872.8</ele>
        <time>2019-08-31T10:22:43Z</time>
      </trkpt>
      <trkpt lat="42.9461" lon="0.76491">
        <ele>1872.6</ele>
        <time>2019-08-31T10:22:46Z</time>
      </trkpt>
      <trkpt lat="42.94608" lon="0.76486">
        <ele>1872.3</ele>
        <time>2019-08-31T10:22:50Z</time>
      </trkpt>
      <trkpt lat="42.94606" lon="0.76483">
        <ele>1872</ele>
        <time>2019-08-31T10:22:53Z</time>
      </trkpt>
      <trkpt lat="42.94604" lon="0.76479">
        <ele>1871.7</ele>
        <time>2019-08-31T10:22:57Z</time>
      </trkpt>
      <trkpt lat="42.94602" lon="0.76475">
        <ele>1871.3</ele>
        <time>2019-08-31T10:23:01Z</time>
      </trkpt>
      <trkpt lat="42.94601" lon="0.76471">
        <ele>1871</ele>
        <time>2019-08-31T10:23:05Z</time>
      </trkpt>
      <trkpt lat="42.946" lon="0.76468">
        <ele>1870.7</ele>
        <time>2019-08-31T10:23:08Z</time>
      </trkpt>
      <trkpt lat="42.94598" lon="0.76465">
        <ele>1870.4</ele>
        <time>2019-08-31T10:23:11Z</time>
      </trkpt>
      <trkpt lat="42.94597" lon="0.76461">
        <ele>1870</ele>
        <time>2019-08-31T10:23:16Z</time>
      </trkpt>
      <trkpt lat="42.94596" lon="0.76457">
        <ele>1869.7</ele>
        <time>2019-08-31T10:23:20Z</time>
      </trkpt>
      <trkpt lat="42.94595" lon="0.76454">
        <ele>1869.3</ele>
        <time>2019-08-31T10:23:23Z</time>
      </trkpt>
      <trkpt lat="42.94593" lon="0.7645">
        <ele>1868.9</ele>
        <time>2019-08-31T10:23:27Z</time>
      </trkpt>
      <trkpt lat="42.94591" lon="0.76447">
        <ele>1868.5</ele>
        <time>2019-08-31T10:23:30Z</time>
      </trkpt>
      <trkpt lat="42.94589" lon="0.76443">
        <ele>1868.2</ele>
        <time>2019-08-31T10:23:33Z</time>
      </trkpt>
      <trkpt lat="42.94587" lon="0.76439">
        <ele>1867.9</ele>
        <time>2019-08-31T10:23:36Z</time>
      </trkpt>
      <trkpt lat="42.94586" lon="0.76436">
        <ele>1867.6</ele>
        <time>2019-08-31T10:23:39Z</time>
      </trkpt>
      <trkpt lat="42.94584" lon="0.76432">
        <ele>1867.4</ele>
        <time>2019-08-31T10:23:42Z</time>
      </trkpt>
      <trkpt lat="42.94581" lon="0.7643">
        <ele>1867.2</ele>
        <time>2019-08-31T10:23:45Z</time>
      </trkpt>
      <trkpt lat="42.94578" lon="0.76428">
        <ele>1867</ele>
        <time>2019-08-31T10:23:48Z</time>
      </trkpt>
      <trkpt lat="42.94575" lon="0.76427">
        <ele>1866.8</ele>
        <time>2019-08-31T10:23:51Z</time>
      </trkpt>
      <trkpt lat="42.94573" lon="0.76425">
        <ele>1866.7</ele>
        <time>2019-08-31T10:23:54Z</time>
      </trkpt>
      <trkpt lat="42.94571" lon="0.76422">
        <ele>1866.5</ele>
        <time>2019-08-31T10:23:57Z</time>
      </trkpt>
      <trkpt lat="42.94569" lon="0.76417">
        <ele>1866.3</ele>
        <time>2019-08-31T10:24:00Z</time>
      </trkpt>
      <trkpt lat="42.94567" lon="0.76414">
        <ele>1866.1</ele>
        <time>2019-08-31T10:24:03Z</time>
      </trkpt>
      <trkpt lat="42.94566" lon="0.7641">
        <ele>1865.9</ele>
        <time>2019-08-31T10:24:06Z</time>
      </trkpt>
      <trkpt lat="42.94565" lon="0.76407">
        <ele>1865.7</ele>
        <time>2019-08-31T10:24:09Z</time>
      </trkpt>
      <trkpt lat="42.94563" lon="0.76404">
        <ele>1865.5</ele>
        <time>2019-08-31T10:24:14Z</time>
      </trkpt>
      <trkpt lat="42.9456" lon="0.764">
        <ele>1865.2</ele>
        <time>2019-08-31T10:24:18Z</time>
      </trkpt>
      <trkpt lat="42.94558" lon="0.76397">
        <ele>1864.9</ele>
        <time>2019-08-31T10:24:21Z</time>
      </trkpt>
      <trkpt lat="42.94556" lon="0.76394">
        <ele>1864.5</ele>
        <time>2019-08-31T10:24:25Z</time>
      </trkpt>
      <trkpt lat="42.94553" lon="0.76391">
        <ele>1864.1</ele>
        <time>2019-08-31T10:24:29Z</time>
      </trkpt>
      <trkpt lat="42.94552" lon="0.76387">
        <ele>1863.7</ele>
        <time>2019-08-31T10:24:33Z</time>
      </trkpt>
      <trkpt lat="42.9455" lon="0.76383">
        <ele>1863.4</ele>
        <time>2019-08-31T10:24:36Z</time>
      </trkpt>
      <trkpt lat="42.94549" lon="0.76379">
        <ele>1863</ele>
        <time>2019-08-31T10:24:39Z</time>
      </trkpt>
      <trkpt lat="42.94548" lon="0.76374">
        <ele>1862.6</ele>
        <time>2019-08-31T10:24:43Z</time>
      </trkpt>
      <trkpt lat="42.94548" lon="0.76371">
        <ele>1862.2</ele>
        <time>2019-08-31T10:24:46Z</time>
      </trkpt>
      <trkpt lat="42.94549" lon="0.76366">
        <ele>1861.8</ele>
        <time>2019-08-31T10:24:49Z</time>
      </trkpt>
      <trkpt lat="42.94549" lon="0.76363">
        <ele>1861.5</ele>
        <time>2019-08-31T10:25:12Z</time>
      </trkpt>
      <trkpt lat="42.94547" lon="0.7636">
        <ele>1861.1</ele>
        <time>2019-08-31T10:25:15Z</time>
      </trkpt>
      <trkpt lat="42.94544" lon="0.76358">
        <ele>1860.8</ele>
        <time>2019-08-31T10:25:22Z</time>
      </trkpt>
      <trkpt lat="42.94541" lon="0.76354">
        <ele>1860.3</ele>
        <time>2019-08-31T10:25:25Z</time>
      </trkpt>
      <trkpt lat="42.94538" lon="0.76351">
        <ele>1860</ele>
        <time>2019-08-31T10:25:28Z</time>
      </trkpt>
      <trkpt lat="42.94536" lon="0.76348">
        <ele>1859.7</ele>
        <time>2019-08-31T10:25:32Z</time>
      </trkpt>
      <trkpt lat="42.94534" lon="0.76352">
        <ele>1859.4</ele>
        <time>2019-08-31T10:26:06Z</time>
      </trkpt>
      <trkpt lat="42.94534" lon="0.76348">
        <ele>1859.2</ele>
        <time>2019-08-31T10:26:27Z</time>
      </trkpt>
      <trkpt lat="42.94533" lon="0.76344">
        <ele>1859.1</ele>
        <time>2019-08-31T10:26:30Z</time>
      </trkpt>
      <trkpt lat="42.94532" lon="0.7634">
        <ele>1858.9</ele>
        <time>2019-08-31T10:26:33Z</time>
      </trkpt>
      <trkpt lat="42.9453" lon="0.76337">
        <ele>1858.8</ele>
        <time>2019-08-31T10:26:37Z</time>
      </trkpt>
      <trkpt lat="42.94527" lon="0.76335">
        <ele>1858.8</ele>
        <time>2019-08-31T10:26:40Z</time>
      </trkpt>
      <trkpt lat="42.94525" lon="0.76332">
        <ele>1858.7</ele>
        <time>2019-08-31T10:26:43Z</time>
      </trkpt>
      <trkpt lat="42.94522" lon="0.76329">
        <ele>1858.6</ele>
        <time>2019-08-31T10:26:46Z</time>
      </trkpt>
      <trkpt lat="42.94519" lon="0.76326">
        <ele>1858.6</ele>
        <time>2019-08-31T10:26:49Z</time>
      </trkpt>
      <trkpt lat="42.94517" lon="0.76322">
        <ele>1858.5</ele>
        <time>2019-08-31T10:26:52Z</time>
      </trkpt>
      <trkpt lat="42.94515" lon="0.76319">
        <ele>1858.5</ele>
        <time>2019-08-31T10:26:56Z</time>
      </trkpt>
      <trkpt lat="42.94514" lon="0.76315">
        <ele>1858.4</ele>
        <time>2019-08-31T10:26:59Z</time>
      </trkpt>
      <trkpt lat="42.94513" lon="0.76311">
        <ele>1858.4</ele>
        <time>2019-08-31T10:27:02Z</time>
      </trkpt>
      <trkpt lat="42.94511" lon="0.76307">
        <ele>1858.3</ele>
        <time>2019-08-31T10:27:05Z</time>
      </trkpt>
      <trkpt lat="42.9451" lon="0.76303">
        <ele>1858.3</ele>
        <time>2019-08-31T10:27:08Z</time>
      </trkpt>
      <trkpt lat="42.94509" lon="0.763">
        <ele>1858.3</ele>
        <time>2019-08-31T10:27:11Z</time>
      </trkpt>
      <trkpt lat="42.94508" lon="0.76295">
        <ele>1858.2</ele>
        <time>2019-08-31T10:27:14Z</time>
      </trkpt>
      <trkpt lat="42.94507" lon="0.76291">
        <ele>1858.2</ele>
        <time>2019-08-31T10:27:17Z</time>
      </trkpt>
      <trkpt lat="42.94505" lon="0.76287">
        <ele>1858.2</ele>
        <time>2019-08-31T10:27:20Z</time>
      </trkpt>
      <trkpt lat="42.94504" lon="0.76284">
        <ele>1858.1</ele>
        <time>2019-08-31T10:27:23Z</time>
      </trkpt>
      <trkpt lat="42.94503" lon="0.76279">
        <ele>1858</ele>
        <time>2019-08-31T10:27:26Z</time>
      </trkpt>
      <trkpt lat="42.94501" lon="0.76276">
        <ele>1857.9</ele>
        <time>2019-08-31T10:27:30Z</time>
      </trkpt>
      <trkpt lat="42.94498" lon="0.76274">
        <ele>1857.7</ele>
        <time>2019-08-31T10:27:34Z</time>
      </trkpt>
      <trkpt lat="42.94496" lon="0.76271">
        <ele>1857.5</ele>
        <time>2019-08-31T10:27:38Z</time>
      </trkpt>
      <trkpt lat="42.94493" lon="0.76269">
        <ele>1857.3</ele>
        <time>2019-08-31T10:27:41Z</time>
      </trkpt>
      <trkpt lat="42.94491" lon="0.76266">
        <ele>1857.1</ele>
        <time>2019-08-31T10:27:44Z</time>
      </trkpt>
      <trkpt lat="42.94489" lon="0.76264">
        <ele>1856.9</ele>
        <time>2019-08-31T10:27:47Z</time>
      </trkpt>
      <trkpt lat="42.94486" lon="0.76261">
        <ele>1856.6</ele>
        <time>2019-08-31T10:27:51Z</time>
      </trkpt>
      <trkpt lat="42.94485" lon="0.76258">
        <ele>1856.5</ele>
        <time>2019-08-31T10:27:54Z</time>
      </trkpt>
      <trkpt lat="42.94482" lon="0.76256">
        <ele>1856.4</ele>
        <time>2019-08-31T10:27:57Z</time>
      </trkpt>
      <trkpt lat="42.94479" lon="0.76255">
        <ele>1856.3</ele>
        <time>2019-08-31T10:28:00Z</time>
      </trkpt>
      <trkpt lat="42.94477" lon="0.76253">
        <ele>1856.2</ele>
        <time>2019-08-31T10:28:03Z</time>
      </trkpt>
      <trkpt lat="42.94475" lon="0.76249">
        <ele>1856.2</ele>
        <time>2019-08-31T10:28:06Z</time>
      </trkpt>
      <trkpt lat="42.94474" lon="0.76245">
        <ele>1856.2</ele>
        <time>2019-08-31T10:28:09Z</time>
      </trkpt>
      <trkpt lat="42.94472" lon="0.76242">
        <ele>1856.2</ele>
        <time>2019-08-31T10:28:12Z</time>
      </trkpt>
      <trkpt lat="42.9447" lon="0.7624">
        <ele>1856.2</ele>
        <time>2019-08-31T10:28:15Z</time>
      </trkpt>
      <trkpt lat="42.94468" lon="0.76237">
        <ele>1856.2</ele>
        <time>2019-08-31T10:28:18Z</time>
      </trkpt>
      <trkpt lat="42.94466" lon="0.76234">
        <ele>1856.2</ele>
        <time>2019-08-31T10:28:21Z</time>
      </trkpt>
      <trkpt lat="42.94464" lon="0.76231">
        <ele>1856.2</ele>
        <time>2019-08-31T10:28:24Z</time>
      </trkpt>
      <trkpt lat="42.94462" lon="0.76228">
        <ele>1856.1</ele>
        <time>2019-08-31T10:28:28Z</time>
      </trkpt>
      <trkpt lat="42.94459" lon="0.76225">
        <ele>1856.1</ele>
        <time>2019-08-31T10:28:32Z</time>
      </trkpt>
      <trkpt lat="42.94457" lon="0.76223">
        <ele>1856</ele>
        <time>2019-08-31T10:28:35Z</time>
      </trkpt>
      <trkpt lat="42.94455" lon="0.7622">
        <ele>1855.9</ele>
        <time>2019-08-31T10:28:38Z</time>
      </trkpt>
      <trkpt lat="42.94453" lon="0.76217">
        <ele>1855.8</ele>
        <time>2019-08-31T10:28:41Z</time>
      </trkpt>
      <trkpt lat="42.94452" lon="0.76213">
        <ele>1855.6</ele>
        <time>2019-08-31T10:28:44Z</time>
      </trkpt>
      <trkpt lat="42.94451" lon="0.76209">
        <ele>1855.5</ele>
        <time>2019-08-31T10:28:47Z</time>
      </trkpt>
      <trkpt lat="42.9445" lon="0.76205">
        <ele>1855.3</ele>
        <time>2019-08-31T10:28:50Z</time>
      </trkpt>
      <trkpt lat="42.9445" lon="0.76201">
        <ele>1855.2</ele>
        <time>2019-08-31T10:28:53Z</time>
      </trkpt>
      <trkpt lat="42.94449" lon="0.76197">
        <ele>1855</ele>
        <time>2019-08-31T10:28:56Z</time>
      </trkpt>
      <trkpt lat="42.94448" lon="0.76192">
        <ele>1854.8</ele>
        <time>2019-08-31T10:28:59Z</time>
      </trkpt>
      <trkpt lat="42.94447" lon="0.76188">
        <ele>1854.6</ele>
        <time>2019-08-31T10:29:02Z</time>
      </trkpt>
      <trkpt lat="42.94445" lon="0.76184">
        <ele>1854.3</ele>
        <time>2019-08-31T10:29:05Z</time>
      </trkpt>
      <trkpt lat="42.94444" lon="0.7618">
        <ele>1854.1</ele>
        <time>2019-08-31T10:29:08Z</time>
      </trkpt>
      <trkpt lat="42.94442" lon="0.76175">
        <ele>1853.8</ele>
        <time>2019-08-31T10:29:11Z</time>
      </trkpt>
      <trkpt lat="42.94441" lon="0.76171">
        <ele>1853.6</ele>
        <time>2019-08-31T10:29:14Z</time>
      </trkpt>
      <trkpt lat="42.94439" lon="0.76168">
        <ele>1853.3</ele>
        <time>2019-08-31T10:29:17Z</time>
      </trkpt>
      <trkpt lat="42.94437" lon="0.76164">
        <ele>1853.1</ele>
        <time>2019-08-31T10:29:20Z</time>
      </trkpt>
      <trkpt lat="42.94438" lon="0.7616">
        <ele>1852.9</ele>
        <time>2019-08-31T10:29:23Z</time>
      </trkpt>
      <trkpt lat="42.94439" lon="0.76155">
        <ele>1850.5</ele>
        <time>2019-08-31T10:29:26Z</time>
      </trkpt>
      <trkpt lat="42.9444" lon="0.7615">
        <ele>1849</ele>
        <time>2019-08-31T10:29:29Z</time>
      </trkpt>
      <trkpt lat="42.94441" lon="0.76145">
        <ele>1847.9</ele>
        <time>2019-08-31T10:29:32Z</time>
      </trkpt>
      <trkpt lat="42.94442" lon="0.76142">
        <ele>1847</ele>
        <time>2019-08-31T10:29:35Z</time>
      </trkpt>
      <trkpt lat="42.94444" lon="0.76139">
        <ele>1846.2</ele>
        <time>2019-08-31T10:29:38Z</time>
      </trkpt>
      <trkpt lat="42.94447" lon="0.76137">
        <ele>1845.2</ele>
        <time>2019-08-31T10:29:41Z</time>
      </trkpt>
      <trkpt lat="42.9445" lon="0.76136">
        <ele>1844.3</ele>
        <time>2019-08-31T10:29:48Z</time>
      </trkpt>
      <trkpt lat="42.9445" lon="0.76133">
        <ele>1843.5</ele>
        <time>2019-08-31T10:29:53Z</time>
      </trkpt>
      <trkpt lat="42.9445" lon="0.76129">
        <ele>1842.5</ele>
        <time>2019-08-31T10:29:57Z</time>
      </trkpt>
      <trkpt lat="42.9445" lon="0.76125">
        <ele>1841.6</ele>
        <time>2019-08-31T10:30:00Z</time>
      </trkpt>
      <trkpt lat="42.9445" lon="0.7612">
        <ele>1840.5</ele>
        <time>2019-08-31T10:30:04Z</time>
      </trkpt>
      <trkpt lat="42.9445" lon="0.76116">
        <ele>1839.6</ele>
        <time>2019-08-31T10:30:08Z</time>
      </trkpt>
      <trkpt lat="42.9445" lon="0.76112">
        <ele>1838.6</ele>
        <time>2019-08-31T10:30:12Z</time>
      </trkpt>
      <trkpt lat="42.94451" lon="0.76108">
        <ele>1837.7</ele>
        <time>2019-08-31T10:30:15Z</time>
      </trkpt>
      <trkpt lat="42.94452" lon="0.76104">
        <ele>1836.7</ele>
        <time>2019-08-31T10:30:20Z</time>
      </trkpt>
      <trkpt lat="42.94453" lon="0.761">
        <ele>1835.6</ele>
        <time>2019-08-31T10:30:24Z</time>
      </trkpt>
      <trkpt lat="42.94453" lon="0.76096">
        <ele>1834.7</ele>
        <time>2019-08-31T10:31:40Z</time>
      </trkpt>
      <trkpt lat="42.94453" lon="0.76091">
        <ele>1833.8</ele>
        <time>2019-08-31T10:31:44Z</time>
      </trkpt>
      <trkpt lat="42.94453" lon="0.76088">
        <ele>1833</ele>
        <time>2019-08-31T10:31:48Z</time>
      </trkpt>
      <trkpt lat="42.94455" lon="0.76084">
        <ele>1832</ele>
        <time>2019-08-31T10:31:51Z</time>
      </trkpt>
      <trkpt lat="42.94457" lon="0.76086">
        <ele>1831.1</ele>
        <time>2019-08-31T10:31:53Z</time>
      </trkpt>
      <trkpt lat="42.94458" lon="0.7609">
        <ele>1830.3</ele>
        <time>2019-08-31T10:31:55Z</time>
      </trkpt>
      <trkpt lat="42.9446" lon="0.76093">
        <ele>1829.3</ele>
        <time>2019-08-31T10:31:58Z</time>
      </trkpt>
      <trkpt lat="42.94462" lon="0.76096">
        <ele>1828.4</ele>
        <time>2019-08-31T10:32:01Z</time>
      </trkpt>
      <trkpt lat="42.94464" lon="0.76099">
        <ele>1827.4</ele>
        <time>2019-08-31T10:32:05Z</time>
      </trkpt>
      <trkpt lat="42.94467" lon="0.76102">
        <ele>1826.4</ele>
        <time>2019-08-31T10:32:09Z</time>
      </trkpt>
      <trkpt lat="42.9447" lon="0.76104">
        <ele>1825.5</ele>
        <time>2019-08-31T10:32:13Z</time>
      </trkpt>
      <trkpt lat="42.94473" lon="0.76107">
        <ele>1824.6</ele>
        <time>2019-08-31T10:32:16Z</time>
      </trkpt>
      <trkpt lat="42.94475" lon="0.76109">
        <ele>1824</ele>
        <time>2019-08-31T10:32:19Z</time>
      </trkpt>
      <trkpt lat="42.94478" lon="0.76112">
        <ele>1823.3</ele>
        <time>2019-08-31T10:32:22Z</time>
      </trkpt>
      <trkpt lat="42.94481" lon="0.76114">
        <ele>1822.4</ele>
        <time>2019-08-31T10:32:25Z</time>
      </trkpt>
      <trkpt lat="42.94484" lon="0.76117">
        <ele>1821.5</ele>
        <time>2019-08-31T10:32:28Z</time>
      </trkpt>
      <trkpt lat="42.94488" lon="0.76119">
        <ele>1820.7</ele>
        <time>2019-08-31T10:32:31Z</time>
      </trkpt>
      <trkpt lat="42.9449" lon="0.76122">
        <ele>1820</ele>
        <time>2019-08-31T10:32:34Z</time>
      </trkpt>
      <trkpt lat="42.94494" lon="0.76124">
        <ele>1819.4</ele>
        <time>2019-08-31T10:32:37Z</time>
      </trkpt>
      <trkpt lat="42.94497" lon="0.76126">
        <ele>1818.7</ele>
        <time>2019-08-31T10:32:40Z</time>
      </trkpt>
      <trkpt lat="42.945" lon="0.76129">
        <ele>1818.2</ele>
        <time>2019-08-31T10:32:43Z</time>
      </trkpt>
      <trkpt lat="42.94503" lon="0.76132">
        <ele>1817.6</ele>
        <time>2019-08-31T10:32:46Z</time>
      </trkpt>
      <trkpt lat="42.94505" lon="0.76135">
        <ele>1817</ele>
        <time>2019-08-31T10:32:49Z</time>
      </trkpt>
      <trkpt lat="42.94508" lon="0.76137">
        <ele>1816.4</ele>
        <time>2019-08-31T10:32:52Z</time>
      </trkpt>
      <trkpt lat="42.94511" lon="0.76139">
        <ele>1815.7</ele>
        <time>2019-08-31T10:32:55Z</time>
      </trkpt>
      <trkpt lat="42.94514" lon="0.76141">
        <ele>1815</ele>
        <time>2019-08-31T10:32:58Z</time>
      </trkpt>
      <trkpt lat="42.94516" lon="0.76143">
        <ele>1814.2</ele>
        <time>2019-08-31T10:33:01Z</time>
      </trkpt>
      <trkpt lat="42.94519" lon="0.76145">
        <ele>1813.4</ele>
        <time>2019-08-31T10:33:04Z</time>
      </trkpt>
      <trkpt lat="42.94521" lon="0.76147">
        <ele>1812.7</ele>
        <time>2019-08-31T10:33:07Z</time>
      </trkpt>
      <trkpt lat="42.94524" lon="0.7615">
        <ele>1811.9</ele>
        <time>2019-08-31T10:33:10Z</time>
      </trkpt>
      <trkpt lat="42.94527" lon="0.76151">
        <ele>1811.1</ele>
        <time>2019-08-31T10:33:14Z</time>
      </trkpt>
      <trkpt lat="42.9453" lon="0.76152">
        <ele>1810.3</ele>
        <time>2019-08-31T10:33:18Z</time>
      </trkpt>
      <trkpt lat="42.94533" lon="0.76152">
        <ele>1809.3</ele>
        <time>2019-08-31T10:33:25Z</time>
      </trkpt>
      <trkpt lat="42.94536" lon="0.76154">
        <ele>1808.5</ele>
        <time>2019-08-31T10:33:28Z</time>
      </trkpt>
      <trkpt lat="42.94538" lon="0.76155">
        <ele>1807.5</ele>
        <time>2019-08-31T10:33:31Z</time>
      </trkpt>
      <trkpt lat="42.94541" lon="0.76157">
        <ele>1806.6</ele>
        <time>2019-08-31T10:33:34Z</time>
      </trkpt>
      <trkpt lat="42.94544" lon="0.76159">
        <ele>1805.7</ele>
        <time>2019-08-31T10:33:38Z</time>
      </trkpt>
      <trkpt lat="42.94547" lon="0.7616">
        <ele>1804.7</ele>
        <time>2019-08-31T10:33:42Z</time>
      </trkpt>
      <trkpt lat="42.9455" lon="0.76162">
        <ele>1803.9</ele>
        <time>2019-08-31T10:33:46Z</time>
      </trkpt>
      <trkpt lat="42.94552" lon="0.76164">
        <ele>1803.2</ele>
        <time>2019-08-31T10:33:50Z</time>
      </trkpt>
      <trkpt lat="42.94555" lon="0.76166">
        <ele>1802.4</ele>
        <time>2019-08-31T10:33:53Z</time>
      </trkpt>
      <trkpt lat="42.94558" lon="0.76167">
        <ele>1801.4</ele>
        <time>2019-08-31T10:33:58Z</time>
      </trkpt>
      <trkpt lat="42.94561" lon="0.76165">
        <ele>1800.5</ele>
        <time>2019-08-31T10:34:03Z</time>
      </trkpt>
      <trkpt lat="42.9456" lon="0.76161">
        <ele>1799.4</ele>
        <time>2019-08-31T10:34:06Z</time>
      </trkpt>
      <trkpt lat="42.9456" lon="0.76156">
        <ele>1798.2</ele>
        <time>2019-08-31T10:34:11Z</time>
      </trkpt>
      <trkpt lat="42.94558" lon="0.76151">
        <ele>1797.1</ele>
        <time>2019-08-31T10:34:14Z</time>
      </trkpt>
      <trkpt lat="42.94557" lon="0.76147">
        <ele>1796.2</ele>
        <time>2019-08-31T10:34:17Z</time>
      </trkpt>
      <trkpt lat="42.94556" lon="0.76143">
        <ele>1795.3</ele>
        <time>2019-08-31T10:34:20Z</time>
      </trkpt>
      <trkpt lat="42.94555" lon="0.76139">
        <ele>1794.4</ele>
        <time>2019-08-31T10:34:24Z</time>
      </trkpt>
      <trkpt lat="42.94554" lon="0.76135">
        <ele>1793.6</ele>
        <time>2019-08-31T10:34:27Z</time>
      </trkpt>
      <trkpt lat="42.94552" lon="0.76131">
        <ele>1792.8</ele>
        <time>2019-08-31T10:34:30Z</time>
      </trkpt>
      <trkpt lat="42.94551" lon="0.76127">
        <ele>1792</ele>
        <time>2019-08-31T10:34:33Z</time>
      </trkpt>
      <trkpt lat="42.9455" lon="0.76123">
        <ele>1791.2</ele>
        <time>2019-08-31T10:34:36Z</time>
      </trkpt>
      <trkpt lat="42.94549" lon="0.7612">
        <ele>1790.5</ele>
        <time>2019-08-31T10:34:39Z</time>
      </trkpt>
      <trkpt lat="42.94548" lon="0.76116">
        <ele>1789.7</ele>
        <time>2019-08-31T10:34:42Z</time>
      </trkpt>
      <trkpt lat="42.94547" lon="0.76112">
        <ele>1788.9</ele>
        <time>2019-08-31T10:34:57Z</time>
      </trkpt>
      <trkpt lat="42.94545" lon="0.76108">
        <ele>1787.9</ele>
        <time>2019-08-31T10:35:01Z</time>
      </trkpt>
      <trkpt lat="42.94544" lon="0.76103">
        <ele>1786.9</ele>
        <time>2019-08-31T10:35:04Z</time>
      </trkpt>
      <trkpt lat="42.94543" lon="0.76099">
        <ele>1785.9</ele>
        <time>2019-08-31T10:35:07Z</time>
      </trkpt>
      <trkpt lat="42.94541" lon="0.76095">
        <ele>1784.7</ele>
        <time>2019-08-31T10:35:11Z</time>
      </trkpt>
      <trkpt lat="42.9454" lon="0.76091">
        <ele>1783.6</ele>
        <time>2019-08-31T10:35:15Z</time>
      </trkpt>
      <trkpt lat="42.94539" lon="0.76086">
        <ele>1782.2</ele>
        <time>2019-08-31T10:35:18Z</time>
      </trkpt>
      <trkpt lat="42.94537" lon="0.76082">
        <ele>1780.9</ele>
        <time>2019-08-31T10:35:22Z</time>
      </trkpt>
      <trkpt lat="42.94536" lon="0.76078">
        <ele>1779.7</ele>
        <time>2019-08-31T10:35:25Z</time>
      </trkpt>
      <trkpt lat="42.94535" lon="0.76074">
        <ele>1778.8</ele>
        <time>2019-08-31T10:35:27Z</time>
      </trkpt>
      <trkpt lat="42.94534" lon="0.7607">
        <ele>1777.7</ele>
        <time>2019-08-31T10:35:30Z</time>
      </trkpt>
      <trkpt lat="42.94533" lon="0.76066">
        <ele>1776.8</ele>
        <time>2019-08-31T10:35:33Z</time>
      </trkpt>
      <trkpt lat="42.94532" lon="0.76062">
        <ele>1775.9</ele>
        <time>2019-08-31T10:35:36Z</time>
      </trkpt>
      <trkpt lat="42.94532" lon="0.76057">
        <ele>1774.9</ele>
        <time>2019-08-31T10:35:39Z</time>
      </trkpt>
      <trkpt lat="42.94532" lon="0.76052">
        <ele>1773.8</ele>
        <time>2019-08-31T10:35:42Z</time>
      </trkpt>
      <trkpt lat="42.9453" lon="0.76047">
        <ele>1772.7</ele>
        <time>2019-08-31T10:35:45Z</time>
      </trkpt>
      <trkpt lat="42.94529" lon="0.76044">
        <ele>1771.9</ele>
        <time>2019-08-31T10:35:48Z</time>
      </trkpt>
      <trkpt lat="42.94527" lon="0.7604">
        <ele>1771</ele>
        <time>2019-08-31T10:35:52Z</time>
      </trkpt>
      <trkpt lat="42.94526" lon="0.76036">
        <ele>1770.2</ele>
        <time>2019-08-31T10:35:55Z</time>
      </trkpt>
      <trkpt lat="42.94525" lon="0.76032">
        <ele>1769.3</ele>
        <time>2019-08-31T10:35:58Z</time>
      </trkpt>
      <trkpt lat="42.94524" lon="0.76028">
        <ele>1768.5</ele>
        <time>2019-08-31T10:36:01Z</time>
      </trkpt>
      <trkpt lat="42.94524" lon="0.76023">
        <ele>1767.6</ele>
        <time>2019-08-31T10:36:04Z</time>
      </trkpt>
      <trkpt lat="42.94524" lon="0.76019">
        <ele>1766.8</ele>
        <time>2019-08-31T10:36:07Z</time>
      </trkpt>
      <trkpt lat="42.94525" lon="0.76015">
        <ele>1766</ele>
        <time>2019-08-31T10:36:10Z</time>
      </trkpt>
      <trkpt lat="42.94524" lon="0.7601">
        <ele>1764.9</ele>
        <time>2019-08-31T10:36:13Z</time>
      </trkpt>
      <trkpt lat="42.94524" lon="0.76005">
        <ele>1764</ele>
        <time>2019-08-31T10:36:16Z</time>
      </trkpt>
      <trkpt lat="42.94523" lon="0.76002">
        <ele>1763.3</ele>
        <time>2019-08-31T10:36:19Z</time>
      </trkpt>
      <trkpt lat="42.94525" lon="0.75999">
        <ele>1762.7</ele>
        <time>2019-08-31T10:36:24Z</time>
      </trkpt>
      <trkpt lat="42.94527" lon="0.76001">
        <ele>1762</ele>
        <time>2019-08-31T10:36:26Z</time>
      </trkpt>
      <trkpt lat="42.9453" lon="0.76003">
        <ele>1761.2</ele>
        <time>2019-08-31T10:36:28Z</time>
      </trkpt>
      <trkpt lat="42.94532" lon="0.76007">
        <ele>1760.5</ele>
        <time>2019-08-31T10:36:30Z</time>
      </trkpt>
      <trkpt lat="42.94533" lon="0.7601">
        <ele>1759.5</ele>
        <time>2019-08-31T10:36:32Z</time>
      </trkpt>
      <trkpt lat="42.94535" lon="0.76013">
        <ele>1758.4</ele>
        <time>2019-08-31T10:36:35Z</time>
      </trkpt>
      <trkpt lat="42.94538" lon="0.76015">
        <ele>1757.6</ele>
        <time>2019-08-31T10:36:38Z</time>
      </trkpt>
      <trkpt lat="42.94541" lon="0.76018">
        <ele>1756.7</ele>
        <time>2019-08-31T10:36:41Z</time>
      </trkpt>
      <trkpt lat="42.94543" lon="0.76021">
        <ele>1755.7</ele>
        <time>2019-08-31T10:36:44Z</time>
      </trkpt>
      <trkpt lat="42.94545" lon="0.76022">
        <ele>1754.7</ele>
        <time>2019-08-31T10:36:47Z</time>
      </trkpt>
      <trkpt lat="42.94548" lon="0.76025">
        <ele>1753.4</ele>
        <time>2019-08-31T10:36:50Z</time>
      </trkpt>
      <trkpt lat="42.94551" lon="0.76028">
        <ele>1752.2</ele>
        <time>2019-08-31T10:36:53Z</time>
      </trkpt>
      <trkpt lat="42.94553" lon="0.76031">
        <ele>1751.3</ele>
        <time>2019-08-31T10:36:56Z</time>
      </trkpt>
      <trkpt lat="42.94556" lon="0.76034">
        <ele>1750.2</ele>
        <time>2019-08-31T10:37:00Z</time>
      </trkpt>
      <trkpt lat="42.94558" lon="0.76037">
        <ele>1749.2</ele>
        <time>2019-08-31T10:37:03Z</time>
      </trkpt>
      <trkpt lat="42.94561" lon="0.76039">
        <ele>1748.2</ele>
        <time>2019-08-31T10:37:06Z</time>
      </trkpt>
      <trkpt lat="42.94563" lon="0.76041">
        <ele>1747.3</ele>
        <time>2019-08-31T10:37:09Z</time>
      </trkpt>
      <trkpt lat="42.94566" lon="0.76044">
        <ele>1746.3</ele>
        <time>2019-08-31T10:37:12Z</time>
      </trkpt>
      <trkpt lat="42.94568" lon="0.76047">
        <ele>1745.3</ele>
        <time>2019-08-31T10:37:15Z</time>
      </trkpt>
      <trkpt lat="42.9457" lon="0.76049">
        <ele>1744.2</ele>
        <time>2019-08-31T10:37:18Z</time>
      </trkpt>
      <trkpt lat="42.94573" lon="0.76052">
        <ele>1743.1</ele>
        <time>2019-08-31T10:37:21Z</time>
      </trkpt>
      <trkpt lat="42.94575" lon="0.76055">
        <ele>1742.1</ele>
        <time>2019-08-31T10:37:24Z</time>
      </trkpt>
      <trkpt lat="42.94578" lon="0.76057">
        <ele>1740.7</ele>
        <time>2019-08-31T10:37:28Z</time>
      </trkpt>
      <trkpt lat="42.9458" lon="0.76061">
        <ele>1739.4</ele>
        <time>2019-08-31T10:37:38Z</time>
      </trkpt>
      <trkpt lat="42.94583" lon="0.76063">
        <ele>1738.3</ele>
        <time>2019-08-31T10:37:41Z</time>
      </trkpt>
      <trkpt lat="42.94585" lon="0.76067">
        <ele>1737.1</ele>
        <time>2019-08-31T10:37:44Z</time>
      </trkpt>
      <trkpt lat="42.94588" lon="0.7607">
        <ele>1736</ele>
        <time>2019-08-31T10:37:47Z</time>
      </trkpt>
      <trkpt lat="42.9459" lon="0.76073">
        <ele>1735.1</ele>
        <time>2019-08-31T10:37:50Z</time>
      </trkpt>
      <trkpt lat="42.94592" lon="0.76076">
        <ele>1734.4</ele>
        <time>2019-08-31T10:37:54Z</time>
      </trkpt>
      <trkpt lat="42.94594" lon="0.76073">
        <ele>1733.6</ele>
        <time>2019-08-31T10:37:59Z</time>
      </trkpt>
      <trkpt lat="42.94593" lon="0.7607">
        <ele>1732.9</ele>
        <time>2019-08-31T10:38:01Z</time>
      </trkpt>
      <trkpt lat="42.94592" lon="0.76066">
        <ele>1729.9</ele>
        <time>2019-08-31T10:38:03Z</time>
      </trkpt>
      <trkpt lat="42.94591" lon="0.76062">
        <ele>1728.7</ele>
        <time>2019-08-31T10:38:05Z</time>
      </trkpt>
      <trkpt lat="42.94589" lon="0.76058">
        <ele>1727.1</ele>
        <time>2019-08-31T10:38:08Z</time>
      </trkpt>
      <trkpt lat="42.94587" lon="0.76054">
        <ele>1725.9</ele>
        <time>2019-08-31T10:38:10Z</time>
      </trkpt>
      <trkpt lat="42.94586" lon="0.7605">
        <ele>1723.9</ele>
        <time>2019-08-31T10:38:13Z</time>
      </trkpt>
      <trkpt lat="42.94586" lon="0.76046">
        <ele>1722</ele>
        <time>2019-08-31T10:38:16Z</time>
      </trkpt>
      <trkpt lat="42.94586" lon="0.76041">
        <ele>1720.1</ele>
        <time>2019-08-31T10:38:19Z</time>
      </trkpt>
      <trkpt lat="42.94585" lon="0.76037">
        <ele>1718.8</ele>
        <time>2019-08-31T10:38:22Z</time>
      </trkpt>
      <trkpt lat="42.94586" lon="0.76032">
        <ele>1717.4</ele>
        <time>2019-08-31T10:38:25Z</time>
      </trkpt>
      <trkpt lat="42.94586" lon="0.76028">
        <ele>1716.3</ele>
        <time>2019-08-31T10:38:27Z</time>
      </trkpt>
      <trkpt lat="42.94586" lon="0.76023">
        <ele>1714.9</ele>
        <time>2019-08-31T10:38:30Z</time>
      </trkpt>
      <trkpt lat="42.94585" lon="0.76019">
        <ele>1713.7</ele>
        <time>2019-08-31T10:38:33Z</time>
      </trkpt>
      <trkpt lat="42.94585" lon="0.76015">
        <ele>1712.1</ele>
        <time>2019-08-31T10:38:36Z</time>
      </trkpt>
      <trkpt lat="42.94586" lon="0.7601">
        <ele>1710.5</ele>
        <time>2019-08-31T10:38:39Z</time>
      </trkpt>
      <trkpt lat="42.94585" lon="0.76006">
        <ele>1709.2</ele>
        <time>2019-08-31T10:38:42Z</time>
      </trkpt>
      <trkpt lat="42.94585" lon="0.76002">
        <ele>1708.3</ele>
        <time>2019-08-31T10:38:45Z</time>
      </trkpt>
      <trkpt lat="42.94585" lon="0.75998">
        <ele>1707.6</ele>
        <time>2019-08-31T10:38:47Z</time>
      </trkpt>
      <trkpt lat="42.94585" lon="0.75994">
        <ele>1707.3</ele>
        <time>2019-08-31T10:38:49Z</time>
      </trkpt>
      <trkpt lat="42.94583" lon="0.75989">
        <ele>1707.7</ele>
        <time>2019-08-31T10:38:52Z</time>
      </trkpt>
      <trkpt lat="42.94583" lon="0.75986">
        <ele>1706.9</ele>
        <time>2019-08-31T10:38:56Z</time>
      </trkpt>
      <trkpt lat="42.94584" lon="0.75981">
        <ele>1704.3</ele>
        <time>2019-08-31T10:38:59Z</time>
      </trkpt>
      <trkpt lat="42.94584" lon="0.75977">
        <ele>1703</ele>
        <time>2019-08-31T10:39:01Z</time>
      </trkpt>
      <trkpt lat="42.94584" lon="0.75973">
        <ele>1702.6</ele>
        <time>2019-08-31T10:39:03Z</time>
      </trkpt>
      <trkpt lat="42.94583" lon="0.75968">
        <ele>1701.9</ele>
        <time>2019-08-31T10:39:06Z</time>
      </trkpt>
      <trkpt lat="42.94583" lon="0.75963">
        <ele>1701.2</ele>
        <time>2019-08-31T10:39:09Z</time>
      </trkpt>
      <trkpt lat="42.94584" lon="0.75958">
        <ele>1700.6</ele>
        <time>2019-08-31T10:39:12Z</time>
      </trkpt>
      <trkpt lat="42.94585" lon="0.75953">
        <ele>1700</ele>
        <time>2019-08-31T10:39:15Z</time>
      </trkpt>
      <trkpt lat="42.94585" lon="0.75948">
        <ele>1699.7</ele>
        <time>2019-08-31T10:39:18Z</time>
      </trkpt>
      <trkpt lat="42.94584" lon="0.75943">
        <ele>1699.4</ele>
        <time>2019-08-31T10:39:21Z</time>
      </trkpt>
      <trkpt lat="42.94583" lon="0.75939">
        <ele>1699.8</ele>
        <time>2019-08-31T10:39:24Z</time>
      </trkpt>
      <trkpt lat="42.94583" lon="0.75933">
        <ele>1700.3</ele>
        <time>2019-08-31T10:39:27Z</time>
      </trkpt>
      <trkpt lat="42.94583" lon="0.75929">
        <ele>1700.6</ele>
        <time>2019-08-31T10:39:30Z</time>
      </trkpt>
      <trkpt lat="42.94582" lon="0.75925">
        <ele>1700.3</ele>
        <time>2019-08-31T10:40:06Z</time>
      </trkpt>
      <trkpt lat="42.94582" lon="0.7592">
        <ele>1700</ele>
        <time>2019-08-31T10:40:10Z</time>
      </trkpt>
      <trkpt lat="42.94581" lon="0.75916">
        <ele>1699.6</ele>
        <time>2019-08-31T10:40:14Z</time>
      </trkpt>
      <trkpt lat="42.94582" lon="0.75913">
        <ele>1699.2</ele>
        <time>2019-08-31T10:40:17Z</time>
      </trkpt>
      <trkpt lat="42.94581" lon="0.75909">
        <ele>1698.8</ele>
        <time>2019-08-31T10:40:20Z</time>
      </trkpt>
      <trkpt lat="42.9458" lon="0.75905">
        <ele>1698.3</ele>
        <time>2019-08-31T10:40:29Z</time>
      </trkpt>
      <trkpt lat="42.9458" lon="0.75901">
        <ele>1698.6</ele>
        <time>2019-08-31T10:41:38Z</time>
      </trkpt>
      <trkpt lat="42.94579" lon="0.75897">
        <ele>1698.8</ele>
        <time>2019-08-31T10:41:41Z</time>
      </trkpt>
      <trkpt lat="42.94578" lon="0.75893">
        <ele>1699.1</ele>
        <time>2019-08-31T10:41:44Z</time>
      </trkpt>
      <trkpt lat="42.94577" lon="0.75888">
        <ele>1698.8</ele>
        <time>2019-08-31T10:41:48Z</time>
      </trkpt>
      <trkpt lat="42.94577" lon="0.75884">
        <ele>1698.5</ele>
        <time>2019-08-31T10:41:51Z</time>
      </trkpt>
      <trkpt lat="42.94577" lon="0.7588">
        <ele>1698.2</ele>
        <time>2019-08-31T10:41:54Z</time>
      </trkpt>
      <trkpt lat="42.94577" lon="0.75876">
        <ele>1697.8</ele>
        <time>2019-08-31T10:41:57Z</time>
      </trkpt>
      <trkpt lat="42.94577" lon="0.75871">
        <ele>1697.3</ele>
        <time>2019-08-31T10:42:01Z</time>
      </trkpt>
      <trkpt lat="42.94577" lon="0.75868">
        <ele>1697</ele>
        <time>2019-08-31T10:42:04Z</time>
      </trkpt>
      <trkpt lat="42.94579" lon="0.75865">
        <ele>1696.7</ele>
        <time>2019-08-31T10:42:09Z</time>
      </trkpt>
      <trkpt lat="42.94579" lon="0.75861">
        <ele>1696.4</ele>
        <time>2019-08-31T10:42:12Z</time>
      </trkpt>
      <trkpt lat="42.94579" lon="0.75857">
        <ele>1696.2</ele>
        <time>2019-08-31T10:42:15Z</time>
      </trkpt>
      <trkpt lat="42.94579" lon="0.75853">
        <ele>1695.9</ele>
        <time>2019-08-31T10:42:18Z</time>
      </trkpt>
      <trkpt lat="42.94578" lon="0.75848">
        <ele>1695.6</ele>
        <time>2019-08-31T10:42:21Z</time>
      </trkpt>
      <trkpt lat="42.94578" lon="0.75844">
        <ele>1695.4</ele>
        <time>2019-08-31T10:42:23Z</time>
      </trkpt>
      <trkpt lat="42.94577" lon="0.7584">
        <ele>1695.3</ele>
        <time>2019-08-31T10:42:26Z</time>
      </trkpt>
      <trkpt lat="42.94578" lon="0.75835">
        <ele>1695.2</ele>
        <time>2019-08-31T10:42:29Z</time>
      </trkpt>
      <trkpt lat="42.94579" lon="0.75831">
        <ele>1695.1</ele>
        <time>2019-08-31T10:42:32Z</time>
      </trkpt>
      <trkpt lat="42.94581" lon="0.75826">
        <ele>1695.1</ele>
        <time>2019-08-31T10:42:35Z</time>
      </trkpt>
      <trkpt lat="42.94583" lon="0.75821">
        <ele>1695.1</ele>
        <time>2019-08-31T10:42:38Z</time>
      </trkpt>
      <trkpt lat="42.94585" lon="0.75816">
        <ele>1694.2</ele>
        <time>2019-08-31T10:42:41Z</time>
      </trkpt>
      <trkpt lat="42.94586" lon="0.75813">
        <ele>1693.2</ele>
        <time>2019-08-31T10:42:43Z</time>
      </trkpt>
      <trkpt lat="42.94588" lon="0.75809">
        <ele>1692.5</ele>
        <time>2019-08-31T10:42:46Z</time>
      </trkpt>
      <trkpt lat="42.94589" lon="0.75805">
        <ele>1691.9</ele>
        <time>2019-08-31T10:42:50Z</time>
      </trkpt>
      <trkpt lat="42.9459" lon="0.75801">
        <ele>1691.4</ele>
        <time>2019-08-31T10:42:54Z</time>
      </trkpt>
      <trkpt lat="42.9459" lon="0.75796">
        <ele>1690.8</ele>
        <time>2019-08-31T10:42:57Z</time>
      </trkpt>
      <trkpt lat="42.94591" lon="0.75792">
        <ele>1690.4</ele>
        <time>2019-08-31T10:43:00Z</time>
      </trkpt>
      <trkpt lat="42.94592" lon="0.75789">
        <ele>1689.9</ele>
        <time>2019-08-31T10:43:03Z</time>
      </trkpt>
      <trkpt lat="42.94593" lon="0.75785">
        <ele>1689.4</ele>
        <time>2019-08-31T10:43:06Z</time>
      </trkpt>
      <trkpt lat="42.94595" lon="0.75781">
        <ele>1688.9</ele>
        <time>2019-08-31T10:43:09Z</time>
      </trkpt>
      <trkpt lat="42.94597" lon="0.75777">
        <ele>1688.3</ele>
        <time>2019-08-31T10:43:12Z</time>
      </trkpt>
      <trkpt lat="42.94599" lon="0.75773">
        <ele>1687.9</ele>
        <time>2019-08-31T10:43:15Z</time>
      </trkpt>
      <trkpt lat="42.94601" lon="0.75769">
        <ele>1687.6</ele>
        <time>2019-08-31T10:43:19Z</time>
      </trkpt>
      <trkpt lat="42.94603" lon="0.75766">
        <ele>1687.2</ele>
        <time>2019-08-31T10:43:22Z</time>
      </trkpt>
      <trkpt lat="42.94607" lon="0.75764">
        <ele>1686.7</ele>
        <time>2019-08-31T10:43:25Z</time>
      </trkpt>
      <trkpt lat="42.9461" lon="0.75761">
        <ele>1686.2</ele>
        <time>2019-08-31T10:43:28Z</time>
      </trkpt>
      <trkpt lat="42.94613" lon="0.75759">
        <ele>1685.7</ele>
        <time>2019-08-31T10:43:32Z</time>
      </trkpt>
      <trkpt lat="42.94616" lon="0.75758">
        <ele>1685.3</ele>
        <time>2019-08-31T10:43:35Z</time>
      </trkpt>
      <trkpt lat="42.94619" lon="0.75759">
        <ele>1684.9</ele>
        <time>2019-08-31T10:43:38Z</time>
      </trkpt>
      <trkpt lat="42.94622" lon="0.75757">
        <ele>1683.7</ele>
        <time>2019-08-31T10:43:42Z</time>
      </trkpt>
      <trkpt lat="42.94623" lon="0.75753">
        <ele>1682.4</ele>
        <time>2019-08-31T10:43:49Z</time>
      </trkpt>
      <trkpt lat="42.94626" lon="0.7575">
        <ele>1681.3</ele>
        <time>2019-08-31T10:43:53Z</time>
      </trkpt>
      <trkpt lat="42.94627" lon="0.75746">
        <ele>1680.6</ele>
        <time>2019-08-31T10:43:57Z</time>
      </trkpt>
      <trkpt lat="42.94628" lon="0.75742">
        <ele>1680</ele>
        <time>2019-08-31T10:44:00Z</time>
      </trkpt>
      <trkpt lat="42.9463" lon="0.75738">
        <ele>1678.9</ele>
        <time>2019-08-31T10:44:04Z</time>
      </trkpt>
      <trkpt lat="42.94631" lon="0.75734">
        <ele>1677.8</ele>
        <time>2019-08-31T10:44:07Z</time>
      </trkpt>
      <trkpt lat="42.94634" lon="0.75731">
        <ele>1677.1</ele>
        <time>2019-08-31T10:44:10Z</time>
      </trkpt>
      <trkpt lat="42.94636" lon="0.75729">
        <ele>1677</ele>
        <time>2019-08-31T10:44:13Z</time>
      </trkpt>
      <trkpt lat="42.94639" lon="0.75729">
        <ele>1676.8</ele>
        <time>2019-08-31T10:44:16Z</time>
      </trkpt>
      <trkpt lat="42.94642" lon="0.75729">
        <ele>1676.5</ele>
        <time>2019-08-31T10:44:20Z</time>
      </trkpt>
      <trkpt lat="42.94644" lon="0.75726">
        <ele>1675.9</ele>
        <time>2019-08-31T10:44:25Z</time>
      </trkpt>
      <trkpt lat="42.94646" lon="0.75729">
        <ele>1675.3</ele>
        <time>2019-08-31T10:44:28Z</time>
      </trkpt>
      <trkpt lat="42.94647" lon="0.75733">
        <ele>1674.4</ele>
        <time>2019-08-31T10:44:31Z</time>
      </trkpt>
      <trkpt lat="42.94648" lon="0.75736">
        <ele>1672.9</ele>
        <time>2019-08-31T10:44:35Z</time>
      </trkpt>
      <trkpt lat="42.9465" lon="0.7574">
        <ele>1671.2</ele>
        <time>2019-08-31T10:44:39Z</time>
      </trkpt>
      <trkpt lat="42.94651" lon="0.75745">
        <ele>1669.8</ele>
        <time>2019-08-31T10:44:42Z</time>
      </trkpt>
      <trkpt lat="42.94652" lon="0.75748">
        <ele>1668.6</ele>
        <time>2019-08-31T10:44:45Z</time>
      </trkpt>
      <trkpt lat="42.94653" lon="0.75753">
        <ele>1666.8</ele>
        <time>2019-08-31T10:44:48Z</time>
      </trkpt>
      <trkpt lat="42.94655" lon="0.75756">
        <ele>1665.2</ele>
        <time>2019-08-31T10:44:51Z</time>
      </trkpt>
      <trkpt lat="42.94657" lon="0.75759">
        <ele>1663.6</ele>
        <time>2019-08-31T10:44:54Z</time>
      </trkpt>
      <trkpt lat="42.94658" lon="0.75762">
        <ele>1662.5</ele>
        <time>2019-08-31T10:44:57Z</time>
      </trkpt>
      <trkpt lat="42.94657" lon="0.75767">
        <ele>1661.2</ele>
        <time>2019-08-31T10:45:01Z</time>
      </trkpt>
      <trkpt lat="42.94656" lon="0.75771">
        <ele>1660</ele>
        <time>2019-08-31T10:45:05Z</time>
      </trkpt>
      <trkpt lat="42.94654" lon="0.75774">
        <ele>1658.9</ele>
        <time>2019-08-31T10:45:08Z</time>
      </trkpt>
      <trkpt lat="42.94653" lon="0.75778">
        <ele>1657.9</ele>
        <time>2019-08-31T10:45:11Z</time>
      </trkpt>
      <trkpt lat="42.94653" lon="0.75782">
        <ele>1657.8</ele>
        <time>2019-08-31T10:45:15Z</time>
      </trkpt>
      <trkpt lat="42.94653" lon="0.75786">
        <ele>1658</ele>
        <time>2019-08-31T10:45:19Z</time>
      </trkpt>
      <trkpt lat="42.94652" lon="0.7579">
        <ele>1658.1</ele>
        <time>2019-08-31T10:45:23Z</time>
      </trkpt>
      <trkpt lat="42.94652" lon="0.75795">
        <ele>1657.7</ele>
        <time>2019-08-31T10:45:26Z</time>
      </trkpt>
      <trkpt lat="42.94652" lon="0.75798">
        <ele>1657.4</ele>
        <time>2019-08-31T10:45:29Z</time>
      </trkpt>
      <trkpt lat="42.94653" lon="0.75802">
        <ele>1657.5</ele>
        <time>2019-08-31T10:45:33Z</time>
      </trkpt>
      <trkpt lat="42.94655" lon="0.75806">
        <ele>1657.9</ele>
        <time>2019-08-31T10:45:37Z</time>
      </trkpt>
      <trkpt lat="42.94655" lon="0.7581">
        <ele>1658</ele>
        <time>2019-08-31T10:45:41Z</time>
      </trkpt>
      <trkpt lat="42.94656" lon="0.75814">
        <ele>1657.1</ele>
        <time>2019-08-31T10:45:46Z</time>
      </trkpt>
      <trkpt lat="42.94656" lon="0.75818">
        <ele>1656.2</ele>
        <time>2019-08-31T10:45:50Z</time>
      </trkpt>
      <trkpt lat="42.94654" lon="0.7582">
        <ele>1655.4</ele>
        <time>2019-08-31T10:46:01Z</time>
      </trkpt>
      <trkpt lat="42.94651" lon="0.75818">
        <ele>1654.5</ele>
        <time>2019-08-31T10:46:05Z</time>
      </trkpt>
      <trkpt lat="42.94649" lon="0.75815">
        <ele>1654.3</ele>
        <time>2019-08-31T10:46:10Z</time>
      </trkpt>
      <trkpt lat="42.94647" lon="0.75812">
        <ele>1654.6</ele>
        <time>2019-08-31T10:46:15Z</time>
      </trkpt>
      <trkpt lat="42.94645" lon="0.75808">
        <ele>1654.9</ele>
        <time>2019-08-31T10:46:20Z</time>
      </trkpt>
      <trkpt lat="42.94643" lon="0.75807">
        <ele>1654.3</ele>
        <time>2019-08-31T10:46:25Z</time>
      </trkpt>
      <trkpt lat="42.9464" lon="0.7581">
        <ele>1653.5</ele>
        <time>2019-08-31T10:46:49Z</time>
      </trkpt>
      <trkpt lat="42.94642" lon="0.75809">
        <ele>1653.1</ele>
        <time>2019-08-31T10:47:23Z</time>
      </trkpt>
      <trkpt lat="42.94645" lon="0.75808">
        <ele>1653</ele>
        <time>2019-08-31T11:35:29Z</time>
      </trkpt>
      <trkpt lat="42.94648" lon="0.75809">
        <ele>1652.9</ele>
        <time>2019-08-31T11:35:32Z</time>
      </trkpt>
      <trkpt lat="42.94651" lon="0.75811">
        <ele>1652.8</ele>
        <time>2019-08-31T11:35:36Z</time>
      </trkpt>
      <trkpt lat="42.94654" lon="0.75813">
        <ele>1652.7</ele>
        <time>2019-08-31T11:35:41Z</time>
      </trkpt>
      <trkpt lat="42.94655" lon="0.75818">
        <ele>1652.6</ele>
        <time>2019-08-31T11:35:50Z</time>
      </trkpt>
      <trkpt lat="42.94655" lon="0.75822">
        <ele>1652.1</ele>
        <time>2019-08-31T11:35:54Z</time>
      </trkpt>
      <trkpt lat="42.94656" lon="0.75825">
        <ele>1651.6</ele>
        <time>2019-08-31T11:35:58Z</time>
      </trkpt>
      <trkpt lat="42.94656" lon="0.75829">
        <ele>1651.1</ele>
        <time>2019-08-31T11:36:02Z</time>
      </trkpt>
      <trkpt lat="42.94657" lon="0.75833">
        <ele>1650.4</ele>
        <time>2019-08-31T11:36:07Z</time>
      </trkpt>
      <trkpt lat="42.94657" lon="0.75837">
        <ele>1649.8</ele>
        <time>2019-08-31T11:36:11Z</time>
      </trkpt>
      <trkpt lat="42.94656" lon="0.75841">
        <ele>1649.1</ele>
        <time>2019-08-31T11:36:15Z</time>
      </trkpt>
      <trkpt lat="42.94658" lon="0.75844">
        <ele>1648.4</ele>
        <time>2019-08-31T11:36:19Z</time>
      </trkpt>
      <trkpt lat="42.94659" lon="0.75849">
        <ele>1647.6</ele>
        <time>2019-08-31T11:36:23Z</time>
      </trkpt>
      <trkpt lat="42.9466" lon="0.75852">
        <ele>1647</ele>
        <time>2019-08-31T11:36:30Z</time>
      </trkpt>
      <trkpt lat="42.94662" lon="0.75856">
        <ele>1645.8</ele>
        <time>2019-08-31T11:36:34Z</time>
      </trkpt>
      <trkpt lat="42.94663" lon="0.7586">
        <ele>1644.2</ele>
        <time>2019-08-31T11:36:38Z</time>
      </trkpt>
      <trkpt lat="42.94665" lon="0.75863">
        <ele>1642.9</ele>
        <time>2019-08-31T11:36:41Z</time>
      </trkpt>
      <trkpt lat="42.94667" lon="0.75866">
        <ele>1642.3</ele>
        <time>2019-08-31T11:36:44Z</time>
      </trkpt>
      <trkpt lat="42.94669" lon="0.7587">
        <ele>1641.6</ele>
        <time>2019-08-31T11:36:47Z</time>
      </trkpt>
      <trkpt lat="42.9467" lon="0.75874">
        <ele>1641</ele>
        <time>2019-08-31T11:36:50Z</time>
      </trkpt>
      <trkpt lat="42.94672" lon="0.75878">
        <ele>1640.3</ele>
        <time>2019-08-31T11:36:54Z</time>
      </trkpt>
      <trkpt lat="42.94674" lon="0.75881">
        <ele>1639.7</ele>
        <time>2019-08-31T11:36:58Z</time>
      </trkpt>
      <trkpt lat="42.94675" lon="0.75885">
        <ele>1638.8</ele>
        <time>2019-08-31T11:37:02Z</time>
      </trkpt>
      <trkpt lat="42.94677" lon="0.75888">
        <ele>1637.8</ele>
        <time>2019-08-31T11:37:06Z</time>
      </trkpt>
      <trkpt lat="42.94678" lon="0.75892">
        <ele>1636.8</ele>
        <time>2019-08-31T11:37:09Z</time>
      </trkpt>
      <trkpt lat="42.9468" lon="0.75895">
        <ele>1635.7</ele>
        <time>2019-08-31T11:37:13Z</time>
      </trkpt>
      <trkpt lat="42.94682" lon="0.75898">
        <ele>1635</ele>
        <time>2019-08-31T11:37:16Z</time>
      </trkpt>
      <trkpt lat="42.94685" lon="0.75901">
        <ele>1634.3</ele>
        <time>2019-08-31T11:37:19Z</time>
      </trkpt>
      <trkpt lat="42.94688" lon="0.75903">
        <ele>1633.4</ele>
        <time>2019-08-31T11:37:22Z</time>
      </trkpt>
      <trkpt lat="42.94691" lon="0.75907">
        <ele>1632.3</ele>
        <time>2019-08-31T11:37:25Z</time>
      </trkpt>
      <trkpt lat="42.94692" lon="0.7591">
        <ele>1631.2</ele>
        <time>2019-08-31T11:37:28Z</time>
      </trkpt>
      <trkpt lat="42.94695" lon="0.75912">
        <ele>1629.8</ele>
        <time>2019-08-31T11:37:31Z</time>
      </trkpt>
      <trkpt lat="42.94697" lon="0.75915">
        <ele>1628.6</ele>
        <time>2019-08-31T11:37:35Z</time>
      </trkpt>
      <trkpt lat="42.94698" lon="0.75919">
        <ele>1628</ele>
        <time>2019-08-31T11:37:38Z</time>
      </trkpt>
      <trkpt lat="42.947" lon="0.75922">
        <ele>1627.4</ele>
        <time>2019-08-31T11:37:43Z</time>
      </trkpt>
      <trkpt lat="42.94701" lon="0.75926">
        <ele>1626.5</ele>
        <time>2019-08-31T11:37:47Z</time>
      </trkpt>
      <trkpt lat="42.94702" lon="0.75929">
        <ele>1625.3</ele>
        <time>2019-08-31T11:37:51Z</time>
      </trkpt>
      <trkpt lat="42.94703" lon="0.75933">
        <ele>1624.1</ele>
        <time>2019-08-31T11:37:55Z</time>
      </trkpt>
      <trkpt lat="42.94705" lon="0.75935">
        <ele>1623.2</ele>
        <time>2019-08-31T11:37:58Z</time>
      </trkpt>
      <trkpt lat="42.94708" lon="0.75937">
        <ele>1622.7</ele>
        <time>2019-08-31T11:38:01Z</time>
      </trkpt>
      <trkpt lat="42.94711" lon="0.7594">
        <ele>1622.1</ele>
        <time>2019-08-31T11:38:04Z</time>
      </trkpt>
      <trkpt lat="42.94713" lon="0.75943">
        <ele>1621.2</ele>
        <time>2019-08-31T11:38:07Z</time>
      </trkpt>
      <trkpt lat="42.94715" lon="0.75946">
        <ele>1620.1</ele>
        <time>2019-08-31T11:38:10Z</time>
      </trkpt>
      <trkpt lat="42.94717" lon="0.7595">
        <ele>1619</ele>
        <time>2019-08-31T11:38:13Z</time>
      </trkpt>
      <trkpt lat="42.94719" lon="0.75953">
        <ele>1618.3</ele>
        <time>2019-08-31T11:38:17Z</time>
      </trkpt>
      <trkpt lat="42.94721" lon="0.75956">
        <ele>1617.8</ele>
        <time>2019-08-31T11:38:20Z</time>
      </trkpt>
      <trkpt lat="42.94722" lon="0.7596">
        <ele>1617.3</ele>
        <time>2019-08-31T11:38:23Z</time>
      </trkpt>
      <trkpt lat="42.94724" lon="0.75963">
        <ele>1616.8</ele>
        <time>2019-08-31T11:38:26Z</time>
      </trkpt>
      <trkpt lat="42.94725" lon="0.75966">
        <ele>1616.4</ele>
        <time>2019-08-31T11:38:29Z</time>
      </trkpt>
      <trkpt lat="42.94726" lon="0.75971">
        <ele>1615.9</ele>
        <time>2019-08-31T11:38:33Z</time>
      </trkpt>
      <trkpt lat="42.94728" lon="0.75974">
        <ele>1615.1</ele>
        <time>2019-08-31T11:38:37Z</time>
      </trkpt>
      <trkpt lat="42.94729" lon="0.75977">
        <ele>1614.2</ele>
        <time>2019-08-31T11:38:41Z</time>
      </trkpt>
      <trkpt lat="42.94731" lon="0.75981">
        <ele>1613.4</ele>
        <time>2019-08-31T11:38:47Z</time>
      </trkpt>
      <trkpt lat="42.94732" lon="0.75984">
        <ele>1612.7</ele>
        <time>2019-08-31T11:38:51Z</time>
      </trkpt>
      <trkpt lat="42.94733" lon="0.75988">
        <ele>1612.4</ele>
        <time>2019-08-31T11:38:55Z</time>
      </trkpt>
      <trkpt lat="42.94735" lon="0.75991">
        <ele>1612.1</ele>
        <time>2019-08-31T11:38:59Z</time>
      </trkpt>
      <trkpt lat="42.94737" lon="0.75995">
        <ele>1611.8</ele>
        <time>2019-08-31T11:39:03Z</time>
      </trkpt>
      <trkpt lat="42.9474" lon="0.75998">
        <ele>1611.6</ele>
        <time>2019-08-31T11:39:06Z</time>
      </trkpt>
      <trkpt lat="42.94742" lon="0.76001">
        <ele>1611.4</ele>
        <time>2019-08-31T11:39:11Z</time>
      </trkpt>
      <trkpt lat="42.94742" lon="0.76006">
        <ele>1611</ele>
        <time>2019-08-31T11:39:14Z</time>
      </trkpt>
      <trkpt lat="42.94742" lon="0.7601">
        <ele>1610.6</ele>
        <time>2019-08-31T11:39:17Z</time>
      </trkpt>
      <trkpt lat="42.94744" lon="0.76013">
        <ele>1610.1</ele>
        <time>2019-08-31T11:39:20Z</time>
      </trkpt>
      <trkpt lat="42.94745" lon="0.76018">
        <ele>1610</ele>
        <time>2019-08-31T11:39:23Z</time>
      </trkpt>
      <trkpt lat="42.94746" lon="0.76021">
        <ele>1610.2</ele>
        <time>2019-08-31T11:39:28Z</time>
      </trkpt>
      <trkpt lat="42.94748" lon="0.76024">
        <ele>1610.5</ele>
        <time>2019-08-31T11:39:31Z</time>
      </trkpt>
      <trkpt lat="42.94749" lon="0.76027">
        <ele>1610.6</ele>
        <time>2019-08-31T11:39:34Z</time>
      </trkpt>
      <trkpt lat="42.94751" lon="0.7603">
        <ele>1610.6</ele>
        <time>2019-08-31T11:39:37Z</time>
      </trkpt>
      <trkpt lat="42.94755" lon="0.76032">
        <ele>1610.7</ele>
        <time>2019-08-31T11:39:41Z</time>
      </trkpt>
      <trkpt lat="42.94757" lon="0.76035">
        <ele>1610.5</ele>
        <time>2019-08-31T11:39:45Z</time>
      </trkpt>
      <trkpt lat="42.94758" lon="0.76039">
        <ele>1610</ele>
        <time>2019-08-31T11:39:48Z</time>
      </trkpt>
      <trkpt lat="42.9476" lon="0.76042">
        <ele>1609.5</ele>
        <time>2019-08-31T11:39:51Z</time>
      </trkpt>
      <trkpt lat="42.94762" lon="0.76046">
        <ele>1609</ele>
        <time>2019-08-31T11:39:54Z</time>
      </trkpt>
      <trkpt lat="42.94764" lon="0.7605">
        <ele>1608.5</ele>
        <time>2019-08-31T11:39:57Z</time>
      </trkpt>
      <trkpt lat="42.94766" lon="0.76053">
        <ele>1608</ele>
        <time>2019-08-31T11:40:00Z</time>
      </trkpt>
      <trkpt lat="42.94768" lon="0.76055">
        <ele>1607.5</ele>
        <time>2019-08-31T11:40:03Z</time>
      </trkpt>
      <trkpt lat="42.9477" lon="0.76057">
        <ele>1607.2</ele>
        <time>2019-08-31T11:40:06Z</time>
      </trkpt>
      <trkpt lat="42.94772" lon="0.7606">
        <ele>1607</ele>
        <time>2019-08-31T11:40:14Z</time>
      </trkpt>
      <trkpt lat="42.94774" lon="0.76063">
        <ele>1606.7</ele>
        <time>2019-08-31T11:40:18Z</time>
      </trkpt>
      <trkpt lat="42.94776" lon="0.76067">
        <ele>1606.3</ele>
        <time>2019-08-31T11:40:21Z</time>
      </trkpt>
      <trkpt lat="42.94778" lon="0.7607">
        <ele>1605.9</ele>
        <time>2019-08-31T11:40:25Z</time>
      </trkpt>
      <trkpt lat="42.94781" lon="0.76071">
        <ele>1605.4</ele>
        <time>2019-08-31T11:40:31Z</time>
      </trkpt>
      <trkpt lat="42.94784" lon="0.7607">
        <ele>1604.7</ele>
        <time>2019-08-31T11:40:35Z</time>
      </trkpt>
      <trkpt lat="42.94787" lon="0.7607">
        <ele>1604</ele>
        <time>2019-08-31T11:40:40Z</time>
      </trkpt>
      <trkpt lat="42.94789" lon="0.76072">
        <ele>1603.2</ele>
        <time>2019-08-31T11:40:45Z</time>
      </trkpt>
      <trkpt lat="42.9479" lon="0.76068">
        <ele>1602.6</ele>
        <time>2019-08-31T11:40:52Z</time>
      </trkpt>
      <trkpt lat="42.94787" lon="0.76063">
        <ele>1601.9</ele>
        <time>2019-08-31T11:40:55Z</time>
      </trkpt>
      <trkpt lat="42.94786" lon="0.76059">
        <ele>1601.1</ele>
        <time>2019-08-31T11:40:58Z</time>
      </trkpt>
      <trkpt lat="42.94784" lon="0.76056">
        <ele>1601.1</ele>
        <time>2019-08-31T11:41:01Z</time>
      </trkpt>
      <trkpt lat="42.94782" lon="0.76052">
        <ele>1601.1</ele>
        <time>2019-08-31T11:41:04Z</time>
      </trkpt>
      <trkpt lat="42.94782" lon="0.76048">
        <ele>1600.9</ele>
        <time>2019-08-31T11:41:09Z</time>
      </trkpt>
      <trkpt lat="42.94781" lon="0.76044">
        <ele>1600.7</ele>
        <time>2019-08-31T11:41:12Z</time>
      </trkpt>
      <trkpt lat="42.9478" lon="0.76041">
        <ele>1600.6</ele>
        <time>2019-08-31T11:41:15Z</time>
      </trkpt>
      <trkpt lat="42.9478" lon="0.76037">
        <ele>1600.5</ele>
        <time>2019-08-31T11:41:19Z</time>
      </trkpt>
      <trkpt lat="42.94779" lon="0.76032">
        <ele>1600.4</ele>
        <time>2019-08-31T11:41:24Z</time>
      </trkpt>
      <trkpt lat="42.94778" lon="0.76028">
        <ele>1600</ele>
        <time>2019-08-31T11:41:28Z</time>
      </trkpt>
      <trkpt lat="42.94775" lon="0.76025">
        <ele>1599.5</ele>
        <time>2019-08-31T11:41:32Z</time>
      </trkpt>
      <trkpt lat="42.94773" lon="0.76021">
        <ele>1599.1</ele>
        <time>2019-08-31T11:41:35Z</time>
      </trkpt>
      <trkpt lat="42.94772" lon="0.76017">
        <ele>1598.9</ele>
        <time>2019-08-31T11:41:39Z</time>
      </trkpt>
      <trkpt lat="42.94773" lon="0.76013">
        <ele>1598.7</ele>
        <time>2019-08-31T11:41:44Z</time>
      </trkpt>
      <trkpt lat="42.94774" lon="0.76009">
        <ele>1598.4</ele>
        <time>2019-08-31T11:41:47Z</time>
      </trkpt>
      <trkpt lat="42.94774" lon="0.76005">
        <ele>1597.9</ele>
        <time>2019-08-31T11:41:50Z</time>
      </trkpt>
      <trkpt lat="42.94773" lon="0.76001">
        <ele>1597.5</ele>
        <time>2019-08-31T11:41:56Z</time>
      </trkpt>
      <trkpt lat="42.94772" lon="0.75997">
        <ele>1597.1</ele>
        <time>2019-08-31T11:42:00Z</time>
      </trkpt>
      <trkpt lat="42.94771" lon="0.75993">
        <ele>1596.9</ele>
        <time>2019-08-31T11:42:03Z</time>
      </trkpt>
      <trkpt lat="42.94771" lon="0.75988">
        <ele>1596.8</ele>
        <time>2019-08-31T11:42:06Z</time>
      </trkpt>
      <trkpt lat="42.94769" lon="0.75984">
        <ele>1596.5</ele>
        <time>2019-08-31T11:42:10Z</time>
      </trkpt>
      <trkpt lat="42.9477" lon="0.75979">
        <ele>1596.1</ele>
        <time>2019-08-31T11:42:15Z</time>
      </trkpt>
      <trkpt lat="42.94771" lon="0.75976">
        <ele>1595.7</ele>
        <time>2019-08-31T11:42:18Z</time>
      </trkpt>
      <trkpt lat="42.9477" lon="0.75972">
        <ele>1595.4</ele>
        <time>2019-08-31T11:42:22Z</time>
      </trkpt>
      <trkpt lat="42.94769" lon="0.75968">
        <ele>1595.2</ele>
        <time>2019-08-31T11:42:25Z</time>
      </trkpt>
      <trkpt lat="42.94769" lon="0.75963">
        <ele>1595</ele>
        <time>2019-08-31T11:42:28Z</time>
      </trkpt>
      <trkpt lat="42.94769" lon="0.7596">
        <ele>1594.7</ele>
        <time>2019-08-31T11:42:30Z</time>
      </trkpt>
      <trkpt lat="42.94769" lon="0.75956">
        <ele>1594.3</ele>
        <time>2019-08-31T11:42:32Z</time>
      </trkpt>
      <trkpt lat="42.9477" lon="0.75951">
        <ele>1593.8</ele>
        <time>2019-08-31T11:42:35Z</time>
      </trkpt>
      <trkpt lat="42.94771" lon="0.75948">
        <ele>1593.6</ele>
        <time>2019-08-31T11:42:38Z</time>
      </trkpt>
      <trkpt lat="42.94773" lon="0.75943">
        <ele>1593.5</ele>
        <time>2019-08-31T11:42:41Z</time>
      </trkpt>
      <trkpt lat="42.94774" lon="0.7594">
        <ele>1593.7</ele>
        <time>2019-08-31T11:42:45Z</time>
      </trkpt>
      <trkpt lat="42.94775" lon="0.75934">
        <ele>1593.2</ele>
        <time>2019-08-31T11:42:48Z</time>
      </trkpt>
      <trkpt lat="42.94776" lon="0.7593">
        <ele>1592.5</ele>
        <time>2019-08-31T11:42:50Z</time>
      </trkpt>
      <trkpt lat="42.94777" lon="0.75926">
        <ele>1591.8</ele>
        <time>2019-08-31T11:42:52Z</time>
      </trkpt>
      <trkpt lat="42.94777" lon="0.75922">
        <ele>1591</ele>
        <time>2019-08-31T11:42:55Z</time>
      </trkpt>
      <trkpt lat="42.9478" lon="0.75919">
        <ele>1590.1</ele>
        <time>2019-08-31T11:42:58Z</time>
      </trkpt>
      <trkpt lat="42.94783" lon="0.75917">
        <ele>1589.5</ele>
        <time>2019-08-31T11:43:00Z</time>
      </trkpt>
      <trkpt lat="42.94785" lon="0.75915">
        <ele>1589</ele>
        <time>2019-08-31T11:43:02Z</time>
      </trkpt>
      <trkpt lat="42.94788" lon="0.75913">
        <ele>1588.6</ele>
        <time>2019-08-31T11:43:05Z</time>
      </trkpt>
      <trkpt lat="42.94791" lon="0.75912">
        <ele>1587.9</ele>
        <time>2019-08-31T11:43:09Z</time>
      </trkpt>
      <trkpt lat="42.94795" lon="0.75912">
        <ele>1587</ele>
        <time>2019-08-31T11:43:12Z</time>
      </trkpt>
      <trkpt lat="42.94798" lon="0.75913">
        <ele>1585.9</ele>
        <time>2019-08-31T11:43:14Z</time>
      </trkpt>
      <trkpt lat="42.94802" lon="0.75911">
        <ele>1584.5</ele>
        <time>2019-08-31T11:43:17Z</time>
      </trkpt>
      <trkpt lat="42.94805" lon="0.75911">
        <ele>1583.2</ele>
        <time>2019-08-31T11:43:21Z</time>
      </trkpt>
      <trkpt lat="42.94809" lon="0.75911">
        <ele>1582</ele>
        <time>2019-08-31T11:43:24Z</time>
      </trkpt>
      <trkpt lat="42.94813" lon="0.7591">
        <ele>1580.8</ele>
        <time>2019-08-31T11:43:27Z</time>
      </trkpt>
      <trkpt lat="42.94816" lon="0.7591">
        <ele>1579.8</ele>
        <time>2019-08-31T11:43:30Z</time>
      </trkpt>
      <trkpt lat="42.94819" lon="0.75911">
        <ele>1578.6</ele>
        <time>2019-08-31T11:43:33Z</time>
      </trkpt>
      <trkpt lat="42.94821" lon="0.75912">
        <ele>1577.4</ele>
        <time>2019-08-31T11:43:36Z</time>
      </trkpt>
      <trkpt lat="42.94825" lon="0.75913">
        <ele>1576.1</ele>
        <time>2019-08-31T11:43:39Z</time>
      </trkpt>
      <trkpt lat="42.94828" lon="0.75909">
        <ele>1575</ele>
        <time>2019-08-31T11:43:42Z</time>
      </trkpt>
      <trkpt lat="42.9483" lon="0.75906">
        <ele>1573.8</ele>
        <time>2019-08-31T11:43:45Z</time>
      </trkpt>
      <trkpt lat="42.94831" lon="0.75902">
        <ele>1572.7</ele>
        <time>2019-08-31T11:43:48Z</time>
      </trkpt>
      <trkpt lat="42.94831" lon="0.75899">
        <ele>1571.5</ele>
        <time>2019-08-31T11:43:51Z</time>
      </trkpt>
      <trkpt lat="42.94832" lon="0.75895">
        <ele>1570.4</ele>
        <time>2019-08-31T11:43:55Z</time>
      </trkpt>
      <trkpt lat="42.94834" lon="0.7589">
        <ele>1569.2</ele>
        <time>2019-08-31T11:44:00Z</time>
      </trkpt>
      <trkpt lat="42.94833" lon="0.75886">
        <ele>1568.2</ele>
        <time>2019-08-31T11:44:03Z</time>
      </trkpt>
      <trkpt lat="42.94831" lon="0.75881">
        <ele>1567</ele>
        <time>2019-08-31T11:44:06Z</time>
      </trkpt>
      <trkpt lat="42.94831" lon="0.75877">
        <ele>1566</ele>
        <time>2019-08-31T11:44:09Z</time>
      </trkpt>
      <trkpt lat="42.94832" lon="0.75873">
        <ele>1565</ele>
        <time>2019-08-31T11:44:12Z</time>
      </trkpt>
      <trkpt lat="42.94835" lon="0.75873">
        <ele>1564.3</ele>
        <time>2019-08-31T11:44:15Z</time>
      </trkpt>
      <trkpt lat="42.94837" lon="0.7587">
        <ele>1563.7</ele>
        <time>2019-08-31T11:44:18Z</time>
      </trkpt>
      <trkpt lat="42.94838" lon="0.75866">
        <ele>1563.5</ele>
        <time>2019-08-31T11:44:22Z</time>
      </trkpt>
      <trkpt lat="42.94838" lon="0.75861">
        <ele>1563.4</ele>
        <time>2019-08-31T11:44:25Z</time>
      </trkpt>
      <trkpt lat="42.94838" lon="0.75856">
        <ele>1563.4</ele>
        <time>2019-08-31T11:44:28Z</time>
      </trkpt>
      <trkpt lat="42.9484" lon="0.75852">
        <ele>1563.4</ele>
        <time>2019-08-31T11:44:31Z</time>
      </trkpt>
      <trkpt lat="42.94842" lon="0.75849">
        <ele>1563.4</ele>
        <time>2019-08-31T11:44:34Z</time>
      </trkpt>
      <trkpt lat="42.94845" lon="0.75846">
        <ele>1563.2</ele>
        <time>2019-08-31T11:44:37Z</time>
      </trkpt>
      <trkpt lat="42.94847" lon="0.75843">
        <ele>1563.1</ele>
        <time>2019-08-31T11:44:40Z</time>
      </trkpt>
      <trkpt lat="42.94849" lon="0.75842">
        <ele>1562.8</ele>
        <time>2019-08-31T11:44:43Z</time>
      </trkpt>
      <trkpt lat="42.94853" lon="0.75842">
        <ele>1562.5</ele>
        <time>2019-08-31T11:44:47Z</time>
      </trkpt>
      <trkpt lat="42.94855" lon="0.75839">
        <ele>1562.6</ele>
        <time>2019-08-31T11:44:50Z</time>
      </trkpt>
      <trkpt lat="42.94857" lon="0.75834">
        <ele>1562.8</ele>
        <time>2019-08-31T11:44:54Z</time>
      </trkpt>
      <trkpt lat="42.94859" lon="0.75837">
        <ele>1562.9</ele>
        <time>2019-08-31T11:45:00Z</time>
      </trkpt>
      <trkpt lat="42.94861" lon="0.75841">
        <ele>1562.7</ele>
        <time>2019-08-31T11:45:02Z</time>
      </trkpt>
      <trkpt lat="42.94862" lon="0.75845">
        <ele>1562.1</ele>
        <time>2019-08-31T11:45:04Z</time>
      </trkpt>
      <trkpt lat="42.94862" lon="0.7585">
        <ele>1561.4</ele>
        <time>2019-08-31T11:45:07Z</time>
      </trkpt>
      <trkpt lat="42.94863" lon="0.75855">
        <ele>1560.8</ele>
        <time>2019-08-31T11:45:10Z</time>
      </trkpt>
      <trkpt lat="42.94864" lon="0.75858">
        <ele>1560.3</ele>
        <time>2019-08-31T11:45:12Z</time>
      </trkpt>
      <trkpt lat="42.94866" lon="0.75863">
        <ele>1559.8</ele>
        <time>2019-08-31T11:45:15Z</time>
      </trkpt>
      <trkpt lat="42.94868" lon="0.75865">
        <ele>1559.1</ele>
        <time>2019-08-31T11:45:18Z</time>
      </trkpt>
      <trkpt lat="42.94872" lon="0.75864">
        <ele>1558</ele>
        <time>2019-08-31T11:45:22Z</time>
      </trkpt>
      <trkpt lat="42.94874" lon="0.75866">
        <ele>1557.3</ele>
        <time>2019-08-31T11:45:25Z</time>
      </trkpt>
      <trkpt lat="42.94875" lon="0.7587">
        <ele>1556.2</ele>
        <time>2019-08-31T11:45:28Z</time>
      </trkpt>
      <trkpt lat="42.94878" lon="0.75871">
        <ele>1555.2</ele>
        <time>2019-08-31T11:45:35Z</time>
      </trkpt>
      <trkpt lat="42.94879" lon="0.75875">
        <ele>1554.1</ele>
        <time>2019-08-31T11:45:39Z</time>
      </trkpt>
      <trkpt lat="42.94882" lon="0.75878">
        <ele>1553</ele>
        <time>2019-08-31T11:45:42Z</time>
      </trkpt>
      <trkpt lat="42.94884" lon="0.7588">
        <ele>1552</ele>
        <time>2019-08-31T11:45:46Z</time>
      </trkpt>
      <trkpt lat="42.94887" lon="0.75878">
        <ele>1551.2</ele>
        <time>2019-08-31T11:45:50Z</time>
      </trkpt>
      <trkpt lat="42.94889" lon="0.75875">
        <ele>1550.5</ele>
        <time>2019-08-31T11:45:54Z</time>
      </trkpt>
      <trkpt lat="42.94892" lon="0.75872">
        <ele>1549.6</ele>
        <time>2019-08-31T11:45:58Z</time>
      </trkpt>
      <trkpt lat="42.94894" lon="0.75869">
        <ele>1548.7</ele>
        <time>2019-08-31T11:46:04Z</time>
      </trkpt>
      <trkpt lat="42.94894" lon="0.75864">
        <ele>1547.7</ele>
        <time>2019-08-31T11:46:07Z</time>
      </trkpt>
      <trkpt lat="42.94895" lon="0.75861">
        <ele>1547</ele>
        <time>2019-08-31T11:46:10Z</time>
      </trkpt>
      <trkpt lat="42.94897" lon="0.75858">
        <ele>1545.9</ele>
        <time>2019-08-31T11:46:14Z</time>
      </trkpt>
      <trkpt lat="42.94899" lon="0.75854">
        <ele>1544.3</ele>
        <time>2019-08-31T11:46:16Z</time>
      </trkpt>
      <trkpt lat="42.949" lon="0.75851">
        <ele>1543</ele>
        <time>2019-08-31T11:46:18Z</time>
      </trkpt>
      <trkpt lat="42.94902" lon="0.75848">
        <ele>1541.6</ele>
        <time>2019-08-31T11:46:21Z</time>
      </trkpt>
      <trkpt lat="42.94904" lon="0.75844">
        <ele>1540.3</ele>
        <time>2019-08-31T11:46:24Z</time>
      </trkpt>
      <trkpt lat="42.94906" lon="0.75842">
        <ele>1539.9</ele>
        <time>2019-08-31T11:46:26Z</time>
      </trkpt>
      <trkpt lat="42.94908" lon="0.75839">
        <ele>1539.4</ele>
        <time>2019-08-31T11:46:29Z</time>
      </trkpt>
      <trkpt lat="42.9491" lon="0.75835">
        <ele>1538.8</ele>
        <time>2019-08-31T11:46:32Z</time>
      </trkpt>
      <trkpt lat="42.9491" lon="0.7583">
        <ele>1537.7</ele>
        <time>2019-08-31T11:46:35Z</time>
      </trkpt>
      <trkpt lat="42.94911" lon="0.75825">
        <ele>1536.7</ele>
        <time>2019-08-31T11:46:38Z</time>
      </trkpt>
      <trkpt lat="42.94912" lon="0.75822">
        <ele>1535.8</ele>
        <time>2019-08-31T11:46:40Z</time>
      </trkpt>
      <trkpt lat="42.94913" lon="0.75818">
        <ele>1535.3</ele>
        <time>2019-08-31T11:46:43Z</time>
      </trkpt>
      <trkpt lat="42.94913" lon="0.75814">
        <ele>1534.9</ele>
        <time>2019-08-31T11:46:46Z</time>
      </trkpt>
      <trkpt lat="42.94913" lon="0.7581">
        <ele>1534.4</ele>
        <time>2019-08-31T11:46:49Z</time>
      </trkpt>
      <trkpt lat="42.94913" lon="0.75806">
        <ele>1533.7</ele>
        <time>2019-08-31T11:46:52Z</time>
      </trkpt>
      <trkpt lat="42.94914" lon="0.75802">
        <ele>1532.6</ele>
        <time>2019-08-31T11:46:56Z</time>
      </trkpt>
      <trkpt lat="42.94916" lon="0.75798">
        <ele>1531.4</ele>
        <time>2019-08-31T11:47:00Z</time>
      </trkpt>
      <trkpt lat="42.94916" lon="0.75793">
        <ele>1530.5</ele>
        <time>2019-08-31T11:47:03Z</time>
      </trkpt>
      <trkpt lat="42.94917" lon="0.75789">
        <ele>1529.9</ele>
        <time>2019-08-31T11:47:06Z</time>
      </trkpt>
      <trkpt lat="42.94918" lon="0.75785">
        <ele>1529.4</ele>
        <time>2019-08-31T11:47:08Z</time>
      </trkpt>
      <trkpt lat="42.9492" lon="0.75781">
        <ele>1528.7</ele>
        <time>2019-08-31T11:47:11Z</time>
      </trkpt>
      <trkpt lat="42.94922" lon="0.75778">
        <ele>1528.2</ele>
        <time>2019-08-31T11:47:14Z</time>
      </trkpt>
      <trkpt lat="42.94924" lon="0.75776">
        <ele>1527.7</ele>
        <time>2019-08-31T11:47:17Z</time>
      </trkpt>
      <trkpt lat="42.94926" lon="0.75773">
        <ele>1527.3</ele>
        <time>2019-08-31T11:47:19Z</time>
      </trkpt>
      <trkpt lat="42.94929" lon="0.75769">
        <ele>1526.9</ele>
        <time>2019-08-31T11:47:22Z</time>
      </trkpt>
      <trkpt lat="42.94932" lon="0.75767">
        <ele>1526.5</ele>
        <time>2019-08-31T11:47:24Z</time>
      </trkpt>
      <trkpt lat="42.94934" lon="0.75764">
        <ele>1526.3</ele>
        <time>2019-08-31T11:47:26Z</time>
      </trkpt>
      <trkpt lat="42.94936" lon="0.7576">
        <ele>1526</ele>
        <time>2019-08-31T11:47:29Z</time>
      </trkpt>
      <trkpt lat="42.94938" lon="0.75758">
        <ele>1525.7</ele>
        <time>2019-08-31T11:47:31Z</time>
      </trkpt>
      <trkpt lat="42.94941" lon="0.75754">
        <ele>1525.2</ele>
        <time>2019-08-31T11:47:34Z</time>
      </trkpt>
      <trkpt lat="42.94943" lon="0.75752">
        <ele>1524.8</ele>
        <time>2019-08-31T11:47:36Z</time>
      </trkpt>
      <trkpt lat="42.94946" lon="0.75749">
        <ele>1524.4</ele>
        <time>2019-08-31T11:47:39Z</time>
      </trkpt>
      <trkpt lat="42.94948" lon="0.75747">
        <ele>1524.1</ele>
        <time>2019-08-31T11:47:41Z</time>
      </trkpt>
      <trkpt lat="42.94951" lon="0.75745">
        <ele>1523.6</ele>
        <time>2019-08-31T11:47:43Z</time>
      </trkpt>
      <trkpt lat="42.94953" lon="0.75743">
        <ele>1522.6</ele>
        <time>2019-08-31T11:47:46Z</time>
      </trkpt>
      <trkpt lat="42.94956" lon="0.75743">
        <ele>1521.6</ele>
        <time>2019-08-31T11:47:48Z</time>
      </trkpt>
      <trkpt lat="42.94959" lon="0.75743">
        <ele>1520.9</ele>
        <time>2019-08-31T11:47:51Z</time>
      </trkpt>
      <trkpt lat="42.94962" lon="0.75743">
        <ele>1520.7</ele>
        <time>2019-08-31T11:47:54Z</time>
      </trkpt>
      <trkpt lat="42.94965" lon="0.75744">
        <ele>1520.4</ele>
        <time>2019-08-31T11:47:56Z</time>
      </trkpt>
      <trkpt lat="42.94968" lon="0.75743">
        <ele>1520</ele>
        <time>2019-08-31T11:47:59Z</time>
      </trkpt>
      <trkpt lat="42.94971" lon="0.75741">
        <ele>1518.6</ele>
        <time>2019-08-31T11:48:04Z</time>
      </trkpt>
      <trkpt lat="42.94974" lon="0.7574">
        <ele>1517.4</ele>
        <time>2019-08-31T11:48:07Z</time>
      </trkpt>
      <trkpt lat="42.94977" lon="0.75737">
        <ele>1516.2</ele>
        <time>2019-08-31T11:48:11Z</time>
      </trkpt>
      <trkpt lat="42.94979" lon="0.75739">
        <ele>1515.1</ele>
        <time>2019-08-31T11:48:20Z</time>
      </trkpt>
      <trkpt lat="42.94978" lon="0.75743">
        <ele>1514.1</ele>
        <time>2019-08-31T11:48:22Z</time>
      </trkpt>
      <trkpt lat="42.94977" lon="0.75748">
        <ele>1512.2</ele>
        <time>2019-08-31T11:48:25Z</time>
      </trkpt>
      <trkpt lat="42.94975" lon="0.75752">
        <ele>1510.6</ele>
        <time>2019-08-31T11:48:28Z</time>
      </trkpt>
      <trkpt lat="42.94974" lon="0.75756">
        <ele>1509.7</ele>
        <time>2019-08-31T11:48:30Z</time>
      </trkpt>
      <trkpt lat="42.94973" lon="0.7576">
        <ele>1508</ele>
        <time>2019-08-31T11:48:33Z</time>
      </trkpt>
      <trkpt lat="42.94972" lon="0.75764">
        <ele>1505.6</ele>
        <time>2019-08-31T11:48:36Z</time>
      </trkpt>
      <trkpt lat="42.94972" lon="0.75769">
        <ele>1503.6</ele>
        <time>2019-08-31T11:48:39Z</time>
      </trkpt>
      <trkpt lat="42.94973" lon="0.75773">
        <ele>1503</ele>
        <time>2019-08-31T11:48:42Z</time>
      </trkpt>
      <trkpt lat="42.94972" lon="0.75778">
        <ele>1502.5</ele>
        <time>2019-08-31T11:48:46Z</time>
      </trkpt>
      <trkpt lat="42.94973" lon="0.75783">
        <ele>1501.6</ele>
        <time>2019-08-31T11:48:50Z</time>
      </trkpt>
      <trkpt lat="42.94973" lon="0.75787">
        <ele>1500.3</ele>
        <time>2019-08-31T11:48:53Z</time>
      </trkpt>
      <trkpt lat="42.94973" lon="0.75791">
        <ele>1498.8</ele>
        <time>2019-08-31T11:48:57Z</time>
      </trkpt>
      <trkpt lat="42.94974" lon="0.75795">
        <ele>1497.6</ele>
        <time>2019-08-31T11:49:00Z</time>
      </trkpt>
      <trkpt lat="42.94974" lon="0.758">
        <ele>1496</ele>
        <time>2019-08-31T11:49:04Z</time>
      </trkpt>
      <trkpt lat="42.94975" lon="0.75804">
        <ele>1494.9</ele>
        <time>2019-08-31T11:49:07Z</time>
      </trkpt>
      <trkpt lat="42.94976" lon="0.75807">
        <ele>1493.8</ele>
        <time>2019-08-31T11:49:10Z</time>
      </trkpt>
      <trkpt lat="42.94978" lon="0.75811">
        <ele>1492.9</ele>
        <time>2019-08-31T11:49:13Z</time>
      </trkpt>
      <trkpt lat="42.94979" lon="0.75816">
        <ele>1492.2</ele>
        <time>2019-08-31T11:49:17Z</time>
      </trkpt>
      <trkpt lat="42.9498" lon="0.7582">
        <ele>1491.5</ele>
        <time>2019-08-31T11:49:21Z</time>
      </trkpt>
      <trkpt lat="42.94983" lon="0.75823">
        <ele>1490.5</ele>
        <time>2019-08-31T11:49:24Z</time>
      </trkpt>
      <trkpt lat="42.94985" lon="0.75825">
        <ele>1489.4</ele>
        <time>2019-08-31T11:49:27Z</time>
      </trkpt>
      <trkpt lat="42.94987" lon="0.75822">
        <ele>1488</ele>
        <time>2019-08-31T11:49:34Z</time>
      </trkpt>
      <trkpt lat="42.94989" lon="0.75818">
        <ele>1485.7</ele>
        <time>2019-08-31T11:49:38Z</time>
      </trkpt>
      <trkpt lat="42.9499" lon="0.75813">
        <ele>1482.9</ele>
        <time>2019-08-31T11:49:41Z</time>
      </trkpt>
      <trkpt lat="42.94991" lon="0.7581">
        <ele>1481.8</ele>
        <time>2019-08-31T11:49:43Z</time>
      </trkpt>
      <trkpt lat="42.94992" lon="0.75806">
        <ele>1480.6</ele>
        <time>2019-08-31T11:49:46Z</time>
      </trkpt>
      <trkpt lat="42.94995" lon="0.75807">
        <ele>1479.7</ele>
        <time>2019-08-31T11:50:11Z</time>
      </trkpt>
      <trkpt lat="42.94997" lon="0.75804">
        <ele>1478.9</ele>
        <time>2019-08-31T11:50:17Z</time>
      </trkpt>
      <trkpt lat="42.94997" lon="0.758">
        <ele>1478.1</ele>
        <time>2019-08-31T11:50:23Z</time>
      </trkpt>
      <trkpt lat="42.94998" lon="0.75796">
        <ele>1477.2</ele>
        <time>2019-08-31T11:50:29Z</time>
      </trkpt>
      <trkpt lat="42.95" lon="0.75792">
        <ele>1476.2</ele>
        <time>2019-08-31T11:50:33Z</time>
      </trkpt>
      <trkpt lat="42.95003" lon="0.75791">
        <ele>1475.3</ele>
        <time>2019-08-31T11:50:36Z</time>
      </trkpt>
      <trkpt lat="42.95004" lon="0.75786">
        <ele>1474.8</ele>
        <time>2019-08-31T11:50:39Z</time>
      </trkpt>
      <trkpt lat="42.95006" lon="0.75783">
        <ele>1474.7</ele>
        <time>2019-08-31T11:50:42Z</time>
      </trkpt>
      <trkpt lat="42.95008" lon="0.7578">
        <ele>1474.5</ele>
        <time>2019-08-31T11:50:45Z</time>
      </trkpt>
      <trkpt lat="42.9501" lon="0.75777">
        <ele>1474</ele>
        <time>2019-08-31T11:50:47Z</time>
      </trkpt>
      <trkpt lat="42.95013" lon="0.75774">
        <ele>1473.2</ele>
        <time>2019-08-31T11:50:50Z</time>
      </trkpt>
      <trkpt lat="42.95015" lon="0.75769">
        <ele>1472.5</ele>
        <time>2019-08-31T11:50:54Z</time>
      </trkpt>
      <trkpt lat="42.95016" lon="0.75766">
        <ele>1472.2</ele>
        <time>2019-08-31T11:50:56Z</time>
      </trkpt>
      <trkpt lat="42.95017" lon="0.75761">
        <ele>1471.8</ele>
        <time>2019-08-31T11:50:59Z</time>
      </trkpt>
      <trkpt lat="42.95018" lon="0.75757">
        <ele>1471.5</ele>
        <time>2019-08-31T11:51:02Z</time>
      </trkpt>
      <trkpt lat="42.95021" lon="0.75755">
        <ele>1470.8</ele>
        <time>2019-08-31T11:51:06Z</time>
      </trkpt>
      <trkpt lat="42.95024" lon="0.75752">
        <ele>1470</ele>
        <time>2019-08-31T11:51:09Z</time>
      </trkpt>
      <trkpt lat="42.95027" lon="0.7575">
        <ele>1469.5</ele>
        <time>2019-08-31T11:51:13Z</time>
      </trkpt>
      <trkpt lat="42.95029" lon="0.75748">
        <ele>1469.2</ele>
        <time>2019-08-31T11:51:17Z</time>
      </trkpt>
      <trkpt lat="42.95032" lon="0.75745">
        <ele>1468.8</ele>
        <time>2019-08-31T11:51:20Z</time>
      </trkpt>
      <trkpt lat="42.95034" lon="0.75742">
        <ele>1468.5</ele>
        <time>2019-08-31T11:51:23Z</time>
      </trkpt>
      <trkpt lat="42.95037" lon="0.75738">
        <ele>1468.2</ele>
        <time>2019-08-31T11:51:26Z</time>
      </trkpt>
      <trkpt lat="42.95039" lon="0.75735">
        <ele>1467.9</ele>
        <time>2019-08-31T11:51:30Z</time>
      </trkpt>
      <trkpt lat="42.9504" lon="0.75731">
        <ele>1468.3</ele>
        <time>2019-08-31T11:51:33Z</time>
      </trkpt>
      <trkpt lat="42.95041" lon="0.75727">
        <ele>1468.7</ele>
        <time>2019-08-31T11:51:36Z</time>
      </trkpt>
      <trkpt lat="42.95043" lon="0.75723">
        <ele>1469</ele>
        <time>2019-08-31T11:51:39Z</time>
      </trkpt>
      <trkpt lat="42.95046" lon="0.75721">
        <ele>1468.6</ele>
        <time>2019-08-31T11:51:42Z</time>
      </trkpt>
      <trkpt lat="42.95049" lon="0.75721">
        <ele>1468.2</ele>
        <time>2019-08-31T11:51:44Z</time>
      </trkpt>
      <trkpt lat="42.95051" lon="0.7572">
        <ele>1467.9</ele>
        <time>2019-08-31T11:51:47Z</time>
      </trkpt>
      <trkpt lat="42.95054" lon="0.7572">
        <ele>1467.2</ele>
        <time>2019-08-31T11:51:50Z</time>
      </trkpt>
      <trkpt lat="42.95057" lon="0.75723">
        <ele>1466.5</ele>
        <time>2019-08-31T11:51:54Z</time>
      </trkpt>
      <trkpt lat="42.95061" lon="0.75724">
        <ele>1466.6</ele>
        <time>2019-08-31T11:51:56Z</time>
      </trkpt>
      <trkpt lat="42.95064" lon="0.75725">
        <ele>1465.2</ele>
        <time>2019-08-31T11:51:58Z</time>
      </trkpt>
      <trkpt lat="42.95067" lon="0.75725">
        <ele>1463</ele>
        <time>2019-08-31T11:52:01Z</time>
      </trkpt>
      <trkpt lat="42.9507" lon="0.75724">
        <ele>1462.2</ele>
        <time>2019-08-31T11:52:03Z</time>
      </trkpt>
      <trkpt lat="42.95074" lon="0.75724">
        <ele>1461.5</ele>
        <time>2019-08-31T11:52:06Z</time>
      </trkpt>
      <trkpt lat="42.95077" lon="0.75725">
        <ele>1459.7</ele>
        <time>2019-08-31T11:52:09Z</time>
      </trkpt>
      <trkpt lat="42.95081" lon="0.75727">
        <ele>1457.4</ele>
        <time>2019-08-31T11:52:12Z</time>
      </trkpt>
      <trkpt lat="42.95084" lon="0.7573">
        <ele>1456.1</ele>
        <time>2019-08-31T11:52:15Z</time>
      </trkpt>
      <trkpt lat="42.95086" lon="0.75733">
        <ele>1455.5</ele>
        <time>2019-08-31T11:52:18Z</time>
      </trkpt>
      <trkpt lat="42.95086" lon="0.75736">
        <ele>1455.3</ele>
        <time>2019-08-31T11:52:22Z</time>
      </trkpt>
      <trkpt lat="42.95085" lon="0.75741">
        <ele>1455.2</ele>
        <time>2019-08-31T11:52:25Z</time>
      </trkpt>
      <trkpt lat="42.95082" lon="0.75743">
        <ele>1455.1</ele>
        <time>2019-08-31T11:52:28Z</time>
      </trkpt>
      <trkpt lat="42.95079" lon="0.75744">
        <ele>1454.6</ele>
        <time>2019-08-31T11:52:31Z</time>
      </trkpt>
      <trkpt lat="42.95075" lon="0.75745">
        <ele>1453.9</ele>
        <time>2019-08-31T11:52:34Z</time>
      </trkpt>
      <trkpt lat="42.95072" lon="0.75747">
        <ele>1453.8</ele>
        <time>2019-08-31T11:52:36Z</time>
      </trkpt>
      <trkpt lat="42.9507" lon="0.75749">
        <ele>1453.8</ele>
        <time>2019-08-31T11:52:38Z</time>
      </trkpt>
      <trkpt lat="42.95067" lon="0.75754">
        <ele>1452.5</ele>
        <time>2019-08-31T11:52:41Z</time>
      </trkpt>
      <trkpt lat="42.95065" lon="0.75757">
        <ele>1451.2</ele>
        <time>2019-08-31T11:52:43Z</time>
      </trkpt>
      <trkpt lat="42.95062" lon="0.75761">
        <ele>1449.6</ele>
        <time>2019-08-31T11:52:46Z</time>
      </trkpt>
      <trkpt lat="42.95062" lon="0.75765">
        <ele>1448.4</ele>
        <time>2019-08-31T11:52:48Z</time>
      </trkpt>
      <trkpt lat="42.95062" lon="0.75769">
        <ele>1447.2</ele>
        <time>2019-08-31T11:52:50Z</time>
      </trkpt>
      <trkpt lat="42.95062" lon="0.75773">
        <ele>1446.7</ele>
        <time>2019-08-31T11:52:52Z</time>
      </trkpt>
      <trkpt lat="42.95064" lon="0.75776">
        <ele>1446</ele>
        <time>2019-08-31T11:52:56Z</time>
      </trkpt>
      <trkpt lat="42.95067" lon="0.75779">
        <ele>1445</ele>
        <time>2019-08-31T11:52:59Z</time>
      </trkpt>
      <trkpt lat="42.95068" lon="0.75783">
        <ele>1444.2</ele>
        <time>2019-08-31T11:53:03Z</time>
      </trkpt>
      <trkpt lat="42.95068" lon="0.75787">
        <ele>1443.3</ele>
        <time>2019-08-31T11:53:08Z</time>
      </trkpt>
      <trkpt lat="42.95069" lon="0.7579">
        <ele>1442.9</ele>
        <time>2019-08-31T11:53:12Z</time>
      </trkpt>
      <trkpt lat="42.95069" lon="0.75794">
        <ele>1442.5</ele>
        <time>2019-08-31T11:53:16Z</time>
      </trkpt>
      <trkpt lat="42.9507" lon="0.75798">
        <ele>1442</ele>
        <time>2019-08-31T11:53:19Z</time>
      </trkpt>
      <trkpt lat="42.95071" lon="0.75802">
        <ele>1441.2</ele>
        <time>2019-08-31T11:53:23Z</time>
      </trkpt>
      <trkpt lat="42.95072" lon="0.75805">
        <ele>1440.4</ele>
        <time>2019-08-31T11:53:27Z</time>
      </trkpt>
      <trkpt lat="42.95072" lon="0.75809">
        <ele>1439.7</ele>
        <time>2019-08-31T11:53:30Z</time>
      </trkpt>
      <trkpt lat="42.95074" lon="0.75812">
        <ele>1439.1</ele>
        <time>2019-08-31T11:53:34Z</time>
      </trkpt>
      <trkpt lat="42.95077" lon="0.75815">
        <ele>1438.5</ele>
        <time>2019-08-31T11:53:39Z</time>
      </trkpt>
      <trkpt lat="42.95079" lon="0.75818">
        <ele>1437.7</ele>
        <time>2019-08-31T11:53:43Z</time>
      </trkpt>
      <trkpt lat="42.95081" lon="0.75822">
        <ele>1436.6</ele>
        <time>2019-08-31T11:53:47Z</time>
      </trkpt>
      <trkpt lat="42.95083" lon="0.75824">
        <ele>1435.7</ele>
        <time>2019-08-31T11:53:51Z</time>
      </trkpt>
      <trkpt lat="42.95084" lon="0.75829">
        <ele>1434.9</ele>
        <time>2019-08-31T11:53:55Z</time>
      </trkpt>
      <trkpt lat="42.95086" lon="0.75832">
        <ele>1434.2</ele>
        <time>2019-08-31T11:53:58Z</time>
      </trkpt>
      <trkpt lat="42.95088" lon="0.75837">
        <ele>1433.4</ele>
        <time>2019-08-31T11:54:01Z</time>
      </trkpt>
      <trkpt lat="42.95089" lon="0.7584">
        <ele>1432.6</ele>
        <time>2019-08-31T11:54:04Z</time>
      </trkpt>
      <trkpt lat="42.95091" lon="0.75844">
        <ele>1431.8</ele>
        <time>2019-08-31T11:54:07Z</time>
      </trkpt>
      <trkpt lat="42.95093" lon="0.75848">
        <ele>1430.8</ele>
        <time>2019-08-31T11:54:10Z</time>
      </trkpt>
      <trkpt lat="42.95095" lon="0.75853">
        <ele>1429.9</ele>
        <time>2019-08-31T11:54:13Z</time>
      </trkpt>
      <trkpt lat="42.95096" lon="0.75857">
        <ele>1429</ele>
        <time>2019-08-31T11:54:16Z</time>
      </trkpt>
      <trkpt lat="42.95099" lon="0.7586">
        <ele>1428.4</ele>
        <time>2019-08-31T11:54:19Z</time>
      </trkpt>
      <trkpt lat="42.95101" lon="0.75863">
        <ele>1427.7</ele>
        <time>2019-08-31T11:54:22Z</time>
      </trkpt>
      <trkpt lat="42.95102" lon="0.75868">
        <ele>1426.8</ele>
        <time>2019-08-31T11:54:25Z</time>
      </trkpt>
      <trkpt lat="42.95101" lon="0.75873">
        <ele>1425.8</ele>
        <time>2019-08-31T11:54:28Z</time>
      </trkpt>
      <trkpt lat="42.95101" lon="0.75878">
        <ele>1425</ele>
        <time>2019-08-31T11:54:31Z</time>
      </trkpt>
      <trkpt lat="42.95101" lon="0.75883">
        <ele>1424.1</ele>
        <time>2019-08-31T11:54:35Z</time>
      </trkpt>
      <trkpt lat="42.951" lon="0.75886">
        <ele>1423.4</ele>
        <time>2019-08-31T11:54:38Z</time>
      </trkpt>
      <trkpt lat="42.95099" lon="0.7589">
        <ele>1422.7</ele>
        <time>2019-08-31T11:54:41Z</time>
      </trkpt>
      <trkpt lat="42.95099" lon="0.75894">
        <ele>1422.1</ele>
        <time>2019-08-31T11:54:45Z</time>
      </trkpt>
      <trkpt lat="42.95101" lon="0.75897">
        <ele>1421.6</ele>
        <time>2019-08-31T11:54:49Z</time>
      </trkpt>
      <trkpt lat="42.95104" lon="0.75899">
        <ele>1421.1</ele>
        <time>2019-08-31T11:54:52Z</time>
      </trkpt>
      <trkpt lat="42.95106" lon="0.75902">
        <ele>1420.5</ele>
        <time>2019-08-31T11:54:55Z</time>
      </trkpt>
      <trkpt lat="42.95107" lon="0.75905">
        <ele>1419.5</ele>
        <time>2019-08-31T11:54:58Z</time>
      </trkpt>
      <trkpt lat="42.95109" lon="0.75908">
        <ele>1418.6</ele>
        <time>2019-08-31T11:55:04Z</time>
      </trkpt>
      <trkpt lat="42.9511" lon="0.75905">
        <ele>1417.9</ele>
        <time>2019-08-31T11:55:13Z</time>
      </trkpt>
      <trkpt lat="42.95111" lon="0.75901">
        <ele>1417.1</ele>
        <time>2019-08-31T11:55:21Z</time>
      </trkpt>
      <trkpt lat="42.95112" lon="0.75897">
        <ele>1416.6</ele>
        <time>2019-08-31T11:55:25Z</time>
      </trkpt>
      <trkpt lat="42.95112" lon="0.75893">
        <ele>1416.8</ele>
        <time>2019-08-31T11:55:29Z</time>
      </trkpt>
      <trkpt lat="42.95112" lon="0.75888">
        <ele>1416.9</ele>
        <time>2019-08-31T11:55:32Z</time>
      </trkpt>
      <trkpt lat="42.95114" lon="0.75884">
        <ele>1417.3</ele>
        <time>2019-08-31T11:55:37Z</time>
      </trkpt>
      <trkpt lat="42.95115" lon="0.7588">
        <ele>1417.7</ele>
        <time>2019-08-31T11:55:40Z</time>
      </trkpt>
      <trkpt lat="42.95115" lon="0.75876">
        <ele>1418</ele>
        <time>2019-08-31T11:55:42Z</time>
      </trkpt>
      <trkpt lat="42.95116" lon="0.75872">
        <ele>1417.3</ele>
        <time>2019-08-31T11:55:44Z</time>
      </trkpt>
      <trkpt lat="42.95118" lon="0.75867">
        <ele>1416.6</ele>
        <time>2019-08-31T11:55:47Z</time>
      </trkpt>
      <trkpt lat="42.9512" lon="0.75864">
        <ele>1416.5</ele>
        <time>2019-08-31T11:55:49Z</time>
      </trkpt>
      <trkpt lat="42.95123" lon="0.75862">
        <ele>1416.2</ele>
        <time>2019-08-31T11:55:52Z</time>
      </trkpt>
      <trkpt lat="42.95126" lon="0.75864">
        <ele>1415.3</ele>
        <time>2019-08-31T11:55:55Z</time>
      </trkpt>
      <trkpt lat="42.95128" lon="0.75869">
        <ele>1414.3</ele>
        <time>2019-08-31T11:55:58Z</time>
      </trkpt>
      <trkpt lat="42.95131" lon="0.7587">
        <ele>1413.4</ele>
        <time>2019-08-31T11:56:01Z</time>
      </trkpt>
      <trkpt lat="42.95134" lon="0.75871">
        <ele>1412.4</ele>
        <time>2019-08-31T11:56:04Z</time>
      </trkpt>
      <trkpt lat="42.95138" lon="0.75871">
        <ele>1411.1</ele>
        <time>2019-08-31T11:56:07Z</time>
      </trkpt>
      <trkpt lat="42.95142" lon="0.7587">
        <ele>1410.1</ele>
        <time>2019-08-31T11:56:10Z</time>
      </trkpt>
      <trkpt lat="42.95145" lon="0.75871">
        <ele>1409.3</ele>
        <time>2019-08-31T11:56:12Z</time>
      </trkpt>
      <trkpt lat="42.95148" lon="0.75871">
        <ele>1408.5</ele>
        <time>2019-08-31T11:56:15Z</time>
      </trkpt>
      <trkpt lat="42.95152" lon="0.75871">
        <ele>1407.7</ele>
        <time>2019-08-31T11:56:18Z</time>
      </trkpt>
      <trkpt lat="42.95155" lon="0.75871">
        <ele>1407</ele>
        <time>2019-08-31T11:56:21Z</time>
      </trkpt>
      <trkpt lat="42.95157" lon="0.7587">
        <ele>1406.3</ele>
        <time>2019-08-31T11:56:27Z</time>
      </trkpt>
      <trkpt lat="42.9516" lon="0.75873">
        <ele>1405.6</ele>
        <time>2019-08-31T11:56:36Z</time>
      </trkpt>
      <trkpt lat="42.95162" lon="0.75871">
        <ele>1405.1</ele>
        <time>2019-08-31T11:56:41Z</time>
      </trkpt>
      <trkpt lat="42.95165" lon="0.75869">
        <ele>1404.5</ele>
        <time>2019-08-31T11:56:46Z</time>
      </trkpt>
      <trkpt lat="42.95168" lon="0.75869">
        <ele>1404.1</ele>
        <time>2019-08-31T11:56:50Z</time>
      </trkpt>
      <trkpt lat="42.95171" lon="0.75869">
        <ele>1404</ele>
        <time>2019-08-31T11:56:54Z</time>
      </trkpt>
      <trkpt lat="42.95175" lon="0.75866">
        <ele>1403.8</ele>
        <time>2019-08-31T11:56:57Z</time>
      </trkpt>
      <trkpt lat="42.95177" lon="0.75864">
        <ele>1403.4</ele>
        <time>2019-08-31T11:57:01Z</time>
      </trkpt>
      <trkpt lat="42.95178" lon="0.75859">
        <ele>1403.2</ele>
        <time>2019-08-31T11:57:05Z</time>
      </trkpt>
      <trkpt lat="42.95179" lon="0.75855">
        <ele>1403.3</ele>
        <time>2019-08-31T11:57:08Z</time>
      </trkpt>
      <trkpt lat="42.95182" lon="0.75853">
        <ele>1403.3</ele>
        <time>2019-08-31T11:57:11Z</time>
      </trkpt>
      <trkpt lat="42.95185" lon="0.75852">
        <ele>1403.1</ele>
        <time>2019-08-31T11:57:16Z</time>
      </trkpt>
      <trkpt lat="42.95188" lon="0.75851">
        <ele>1402.9</ele>
        <time>2019-08-31T11:57:19Z</time>
      </trkpt>
      <trkpt lat="42.95191" lon="0.75851">
        <ele>1402.3</ele>
        <time>2019-08-31T11:57:23Z</time>
      </trkpt>
      <trkpt lat="42.95195" lon="0.75851">
        <ele>1401.5</ele>
        <time>2019-08-31T11:57:27Z</time>
      </trkpt>
      <trkpt lat="42.95198" lon="0.75851">
        <ele>1400.7</ele>
        <time>2019-08-31T11:57:29Z</time>
      </trkpt>
      <trkpt lat="42.95202" lon="0.75852">
        <ele>1399.6</ele>
        <time>2019-08-31T11:57:32Z</time>
      </trkpt>
      <trkpt lat="42.95205" lon="0.75852">
        <ele>1398.7</ele>
        <time>2019-08-31T11:57:35Z</time>
      </trkpt>
      <trkpt lat="42.95208" lon="0.75853">
        <ele>1397.9</ele>
        <time>2019-08-31T11:57:38Z</time>
      </trkpt>
      <trkpt lat="42.95212" lon="0.75854">
        <ele>1396.8</ele>
        <time>2019-08-31T11:57:41Z</time>
      </trkpt>
      <trkpt lat="42.95215" lon="0.75855">
        <ele>1396</ele>
        <time>2019-08-31T11:57:43Z</time>
      </trkpt>
      <trkpt lat="42.95218" lon="0.75857">
        <ele>1395.3</ele>
        <time>2019-08-31T11:57:46Z</time>
      </trkpt>
      <trkpt lat="42.95221" lon="0.75859">
        <ele>1394.6</ele>
        <time>2019-08-31T11:57:48Z</time>
      </trkpt>
      <trkpt lat="42.95225" lon="0.7586">
        <ele>1393.5</ele>
        <time>2019-08-31T11:57:50Z</time>
      </trkpt>
      <trkpt lat="42.95229" lon="0.75861">
        <ele>1392.1</ele>
        <time>2019-08-31T11:57:52Z</time>
      </trkpt>
      <trkpt lat="42.95232" lon="0.75862">
        <ele>1390.9</ele>
        <time>2019-08-31T11:57:54Z</time>
      </trkpt>
      <trkpt lat="42.95235" lon="0.75864">
        <ele>1389.8</ele>
        <time>2019-08-31T11:57:56Z</time>
      </trkpt>
      <trkpt lat="42.95239" lon="0.75865">
        <ele>1388.8</ele>
        <time>2019-08-31T11:57:59Z</time>
      </trkpt>
      <trkpt lat="42.95243" lon="0.75866">
        <ele>1387.7</ele>
        <time>2019-08-31T11:58:02Z</time>
      </trkpt>
      <trkpt lat="42.95246" lon="0.75865">
        <ele>1387.1</ele>
        <time>2019-08-31T11:58:04Z</time>
      </trkpt>
      <trkpt lat="42.95249" lon="0.75866">
        <ele>1386.5</ele>
        <time>2019-08-31T11:58:07Z</time>
      </trkpt>
      <trkpt lat="42.95253" lon="0.75867">
        <ele>1385.9</ele>
        <time>2019-08-31T11:58:10Z</time>
      </trkpt>
      <trkpt lat="42.95256" lon="0.75869">
        <ele>1384.3</ele>
        <time>2019-08-31T11:58:13Z</time>
      </trkpt>
      <trkpt lat="42.95259" lon="0.75872">
        <ele>1382.9</ele>
        <time>2019-08-31T11:58:16Z</time>
      </trkpt>
      <trkpt lat="42.95261" lon="0.75875">
        <ele>1382.1</ele>
        <time>2019-08-31T11:58:18Z</time>
      </trkpt>
      <trkpt lat="42.95262" lon="0.7588">
        <ele>1380.7</ele>
        <time>2019-08-31T11:58:21Z</time>
      </trkpt>
      <trkpt lat="42.95263" lon="0.75885">
        <ele>1379.3</ele>
        <time>2019-08-31T11:58:24Z</time>
      </trkpt>
      <trkpt lat="42.95265" lon="0.75889">
        <ele>1378</ele>
        <time>2019-08-31T11:58:27Z</time>
      </trkpt>
      <trkpt lat="42.95267" lon="0.75893">
        <ele>1376.7</ele>
        <time>2019-08-31T11:58:30Z</time>
      </trkpt>
      <trkpt lat="42.95269" lon="0.75896">
        <ele>1375.6</ele>
        <time>2019-08-31T11:58:33Z</time>
      </trkpt>
      <trkpt lat="42.95273" lon="0.75898">
        <ele>1374.4</ele>
        <time>2019-08-31T11:58:36Z</time>
      </trkpt>
      <trkpt lat="42.95276" lon="0.75899">
        <ele>1374.2</ele>
        <time>2019-08-31T11:58:39Z</time>
      </trkpt>
      <trkpt lat="42.95279" lon="0.75898">
        <ele>1374</ele>
        <time>2019-08-31T11:59:01Z</time>
      </trkpt>
      <trkpt lat="42.95282" lon="0.75898">
        <ele>1372.9</ele>
        <time>2019-08-31T11:59:04Z</time>
      </trkpt>
      <trkpt lat="42.95286" lon="0.75898">
        <ele>1371.8</ele>
        <time>2019-08-31T11:59:06Z</time>
      </trkpt>
      <trkpt lat="42.95289" lon="0.75898">
        <ele>1371.1</ele>
        <time>2019-08-31T11:59:08Z</time>
      </trkpt>
      <trkpt lat="42.95292" lon="0.75897">
        <ele>1370.8</ele>
        <time>2019-08-31T11:59:10Z</time>
      </trkpt>
      <trkpt lat="42.95296" lon="0.75897">
        <ele>1370.3</ele>
        <time>2019-08-31T11:59:13Z</time>
      </trkpt>
      <trkpt lat="42.95298" lon="0.75898">
        <ele>1370</ele>
        <time>2019-08-31T11:59:15Z</time>
      </trkpt>
      <trkpt lat="42.95301" lon="0.75899">
        <ele>1369.7</ele>
        <time>2019-08-31T11:59:17Z</time>
      </trkpt>
      <trkpt lat="42.95304" lon="0.75899">
        <ele>1369.4</ele>
        <time>2019-08-31T11:59:19Z</time>
      </trkpt>
      <trkpt lat="42.95308" lon="0.75901">
        <ele>1368.8</ele>
        <time>2019-08-31T11:59:22Z</time>
      </trkpt>
      <trkpt lat="42.9531" lon="0.75903">
        <ele>1368.4</ele>
        <time>2019-08-31T11:59:25Z</time>
      </trkpt>
      <trkpt lat="42.95313" lon="0.75907">
        <ele>1367.9</ele>
        <time>2019-08-31T11:59:28Z</time>
      </trkpt>
      <trkpt lat="42.95314" lon="0.75911">
        <ele>1366.9</ele>
        <time>2019-08-31T11:59:31Z</time>
      </trkpt>
      <trkpt lat="42.95316" lon="0.75915">
        <ele>1365.8</ele>
        <time>2019-08-31T11:59:43Z</time>
      </trkpt>
      <trkpt lat="42.95318" lon="0.75918">
        <ele>1364.8</ele>
        <time>2019-08-31T11:59:56Z</time>
      </trkpt>
      <trkpt lat="42.95319" lon="0.75921">
        <ele>1363.9</ele>
        <time>2019-08-31T12:00:00Z</time>
      </trkpt>
      <trkpt lat="42.95322" lon="0.75922">
        <ele>1362.9</ele>
        <time>2019-08-31T12:00:04Z</time>
      </trkpt>
      <trkpt lat="42.95325" lon="0.75921">
        <ele>1362</ele>
        <time>2019-08-31T12:00:07Z</time>
      </trkpt>
      <trkpt lat="42.95324" lon="0.75917">
        <ele>1361.2</ele>
        <time>2019-08-31T12:00:31Z</time>
      </trkpt>
      <trkpt lat="42.95325" lon="0.75913">
        <ele>1360.6</ele>
        <time>2019-08-31T12:00:34Z</time>
      </trkpt>
      <trkpt lat="42.95328" lon="0.7591">
        <ele>1359.9</ele>
        <time>2019-08-31T12:00:37Z</time>
      </trkpt>
      <trkpt lat="42.9533" lon="0.75907">
        <ele>1359.4</ele>
        <time>2019-08-31T12:00:40Z</time>
      </trkpt>
      <trkpt lat="42.95331" lon="0.75902">
        <ele>1358.9</ele>
        <time>2019-08-31T12:00:43Z</time>
      </trkpt>
      <trkpt lat="42.95333" lon="0.75898">
        <ele>1358.6</ele>
        <time>2019-08-31T12:00:46Z</time>
      </trkpt>
      <trkpt lat="42.95335" lon="0.75895">
        <ele>1358.4</ele>
        <time>2019-08-31T12:00:49Z</time>
      </trkpt>
      <trkpt lat="42.95338" lon="0.7589">
        <ele>1358.7</ele>
        <time>2019-08-31T12:00:52Z</time>
      </trkpt>
      <trkpt lat="42.9534" lon="0.75887">
        <ele>1359</ele>
        <time>2019-08-31T12:00:55Z</time>
      </trkpt>
      <trkpt lat="42.95342" lon="0.75883">
        <ele>1359.2</ele>
        <time>2019-08-31T12:00:58Z</time>
      </trkpt>
      <trkpt lat="42.95344" lon="0.75879">
        <ele>1359.2</ele>
        <time>2019-08-31T12:01:01Z</time>
      </trkpt>
      <trkpt lat="42.95346" lon="0.75875">
        <ele>1359.2</ele>
        <time>2019-08-31T12:01:05Z</time>
      </trkpt>
      <trkpt lat="42.95348" lon="0.7587">
        <ele>1359.4</ele>
        <time>2019-08-31T12:01:08Z</time>
      </trkpt>
      <trkpt lat="42.95348" lon="0.75865">
        <ele>1359.6</ele>
        <time>2019-08-31T12:01:11Z</time>
      </trkpt>
      <trkpt lat="42.9535" lon="0.75861">
        <ele>1359.7</ele>
        <time>2019-08-31T12:01:14Z</time>
      </trkpt>
      <trkpt lat="42.95351" lon="0.75856">
        <ele>1359.8</ele>
        <time>2019-08-31T12:01:17Z</time>
      </trkpt>
      <trkpt lat="42.95352" lon="0.75852">
        <ele>1359.8</ele>
        <time>2019-08-31T12:01:20Z</time>
      </trkpt>
      <trkpt lat="42.95352" lon="0.75846">
        <ele>1359.7</ele>
        <time>2019-08-31T12:01:23Z</time>
      </trkpt>
      <trkpt lat="42.95353" lon="0.75842">
        <ele>1359.5</ele>
        <time>2019-08-31T12:01:25Z</time>
      </trkpt>
      <trkpt lat="42.95353" lon="0.75838">
        <ele>1359.4</ele>
        <time>2019-08-31T12:01:27Z</time>
      </trkpt>
      <trkpt lat="42.95354" lon="0.75834">
        <ele>1359.4</ele>
        <time>2019-08-31T12:01:29Z</time>
      </trkpt>
      <trkpt lat="42.95355" lon="0.7583">
        <ele>1359.4</ele>
        <time>2019-08-31T12:01:31Z</time>
      </trkpt>
      <trkpt lat="42.95356" lon="0.75827">
        <ele>1359.4</ele>
        <time>2019-08-31T12:01:33Z</time>
      </trkpt>
      <trkpt lat="42.95357" lon="0.75822">
        <ele>1359.6</ele>
        <time>2019-08-31T12:01:36Z</time>
      </trkpt>
      <trkpt lat="42.95358" lon="0.75816">
        <ele>1359.8</ele>
        <time>2019-08-31T12:01:39Z</time>
      </trkpt>
      <trkpt lat="42.95359" lon="0.75811">
        <ele>1360.1</ele>
        <time>2019-08-31T12:01:42Z</time>
      </trkpt>
      <trkpt lat="42.9536" lon="0.75806">
        <ele>1360.2</ele>
        <time>2019-08-31T12:01:45Z</time>
      </trkpt>
      <trkpt lat="42.95361" lon="0.75801">
        <ele>1360.2</ele>
        <time>2019-08-31T12:01:48Z</time>
      </trkpt>
      <trkpt lat="42.95362" lon="0.75797">
        <ele>1360.3</ele>
        <time>2019-08-31T12:01:51Z</time>
      </trkpt>
      <trkpt lat="42.95364" lon="0.75793">
        <ele>1360.4</ele>
        <time>2019-08-31T12:01:54Z</time>
      </trkpt>
      <trkpt lat="42.95366" lon="0.7579">
        <ele>1360.6</ele>
        <time>2019-08-31T12:01:56Z</time>
      </trkpt>
      <trkpt lat="42.95368" lon="0.75786">
        <ele>1361.7</ele>
        <time>2019-08-31T12:01:59Z</time>
      </trkpt>
      <trkpt lat="42.9537" lon="0.75782">
        <ele>1362.8</ele>
        <time>2019-08-31T12:02:01Z</time>
      </trkpt>
      <trkpt lat="42.95372" lon="0.75778">
        <ele>1363.8</ele>
        <time>2019-08-31T12:02:04Z</time>
      </trkpt>
      <trkpt lat="42.95374" lon="0.75774">
        <ele>1364.7</ele>
        <time>2019-08-31T12:02:07Z</time>
      </trkpt>
      <trkpt lat="42.95376" lon="0.75771">
        <ele>1365.2</ele>
        <time>2019-08-31T12:02:09Z</time>
      </trkpt>
      <trkpt lat="42.95379" lon="0.75768">
        <ele>1365.7</ele>
        <time>2019-08-31T12:02:12Z</time>
      </trkpt>
      <trkpt lat="42.95381" lon="0.75765">
        <ele>1366.1</ele>
        <time>2019-08-31T12:02:14Z</time>
      </trkpt>
      <trkpt lat="42.95383" lon="0.75762">
        <ele>1366.6</ele>
        <time>2019-08-31T12:02:16Z</time>
      </trkpt>
      <trkpt lat="42.95385" lon="0.75759">
        <ele>1367</ele>
        <time>2019-08-31T12:02:18Z</time>
      </trkpt>
      <trkpt lat="42.95386" lon="0.75755">
        <ele>1367.5</ele>
        <time>2019-08-31T12:02:20Z</time>
      </trkpt>
      <trkpt lat="42.95387" lon="0.75752">
        <ele>1367.3</ele>
        <time>2019-08-31T12:02:22Z</time>
      </trkpt>
      <trkpt lat="42.95389" lon="0.75748">
        <ele>1367.1</ele>
        <time>2019-08-31T12:02:24Z</time>
      </trkpt>
      <trkpt lat="42.9539" lon="0.75745">
        <ele>1367</ele>
        <time>2019-08-31T12:02:26Z</time>
      </trkpt>
      <trkpt lat="42.95392" lon="0.7574">
        <ele>1367.6</ele>
        <time>2019-08-31T12:02:29Z</time>
      </trkpt>
      <trkpt lat="42.95394" lon="0.75736">
        <ele>1368.2</ele>
        <time>2019-08-31T12:02:32Z</time>
      </trkpt>
      <trkpt lat="42.95396" lon="0.75732">
        <ele>1368.1</ele>
        <time>2019-08-31T12:02:35Z</time>
      </trkpt>
      <trkpt lat="42.95399" lon="0.75729">
        <ele>1368.1</ele>
        <time>2019-08-31T12:02:38Z</time>
      </trkpt>
      <trkpt lat="42.95401" lon="0.75726">
        <ele>1368.2</ele>
        <time>2019-08-31T12:02:41Z</time>
      </trkpt>
      <trkpt lat="42.95403" lon="0.75722">
        <ele>1368.4</ele>
        <time>2019-08-31T12:02:43Z</time>
      </trkpt>
      <trkpt lat="42.95405" lon="0.75719">
        <ele>1368.6</ele>
        <time>2019-08-31T12:02:45Z</time>
      </trkpt>
      <trkpt lat="42.95408" lon="0.75716">
        <ele>1368.4</ele>
        <time>2019-08-31T12:02:48Z</time>
      </trkpt>
      <trkpt lat="42.95411" lon="0.75713">
        <ele>1368</ele>
        <time>2019-08-31T12:02:51Z</time>
      </trkpt>
      <trkpt lat="42.95415" lon="0.75711">
        <ele>1367.9</ele>
        <time>2019-08-31T12:02:54Z</time>
      </trkpt>
      <trkpt lat="42.95417" lon="0.75707">
        <ele>1368</ele>
        <time>2019-08-31T12:02:57Z</time>
      </trkpt>
      <trkpt lat="42.95419" lon="0.75704">
        <ele>1368.1</ele>
        <time>2019-08-31T12:02:59Z</time>
      </trkpt>
      <trkpt lat="42.95421" lon="0.757">
        <ele>1367.8</ele>
        <time>2019-08-31T12:03:02Z</time>
      </trkpt>
      <trkpt lat="42.95424" lon="0.75697">
        <ele>1367.6</ele>
        <time>2019-08-31T12:03:04Z</time>
      </trkpt>
      <trkpt lat="42.95427" lon="0.75694">
        <ele>1367.3</ele>
        <time>2019-08-31T12:03:07Z</time>
      </trkpt>
      <trkpt lat="42.9543" lon="0.75691">
        <ele>1367</ele>
        <time>2019-08-31T12:03:10Z</time>
      </trkpt>
      <trkpt lat="42.95432" lon="0.75688">
        <ele>1366.6</ele>
        <time>2019-08-31T12:03:13Z</time>
      </trkpt>
      <trkpt lat="42.95435" lon="0.75685">
        <ele>1366.1</ele>
        <time>2019-08-31T12:03:16Z</time>
      </trkpt>
      <trkpt lat="42.95438" lon="0.75682">
        <ele>1365.4</ele>
        <time>2019-08-31T12:03:19Z</time>
      </trkpt>
      <trkpt lat="42.95441" lon="0.75678">
        <ele>1364.7</ele>
        <time>2019-08-31T12:03:22Z</time>
      </trkpt>
      <trkpt lat="42.95442" lon="0.75675">
        <ele>1364.2</ele>
        <time>2019-08-31T12:03:24Z</time>
      </trkpt>
      <trkpt lat="42.95445" lon="0.75673">
        <ele>1363.9</ele>
        <time>2019-08-31T12:03:27Z</time>
      </trkpt>
      <trkpt lat="42.95448" lon="0.75672">
        <ele>1363.6</ele>
        <time>2019-08-31T12:03:30Z</time>
      </trkpt>
      <trkpt lat="42.95451" lon="0.75671">
        <ele>1363.1</ele>
        <time>2019-08-31T12:03:33Z</time>
      </trkpt>
      <trkpt lat="42.95455" lon="0.75671">
        <ele>1362.7</ele>
        <time>2019-08-31T12:03:36Z</time>
      </trkpt>
      <trkpt lat="42.95458" lon="0.75671">
        <ele>1362.4</ele>
        <time>2019-08-31T12:03:39Z</time>
      </trkpt>
      <trkpt lat="42.95462" lon="0.75672">
        <ele>1361.8</ele>
        <time>2019-08-31T12:03:42Z</time>
      </trkpt>
      <trkpt lat="42.95465" lon="0.75672">
        <ele>1361.3</ele>
        <time>2019-08-31T12:03:45Z</time>
      </trkpt>
      <trkpt lat="42.95469" lon="0.75671">
        <ele>1360.7</ele>
        <time>2019-08-31T12:03:48Z</time>
      </trkpt>
      <trkpt lat="42.95471" lon="0.75667">
        <ele>1359.9</ele>
        <time>2019-08-31T12:03:51Z</time>
      </trkpt>
      <trkpt lat="42.95473" lon="0.75664">
        <ele>1359.1</ele>
        <time>2019-08-31T12:03:53Z</time>
      </trkpt>
      <trkpt lat="42.95475" lon="0.75661">
        <ele>1358.5</ele>
        <time>2019-08-31T12:03:55Z</time>
      </trkpt>
      <trkpt lat="42.95477" lon="0.75658">
        <ele>1357.9</ele>
        <time>2019-08-31T12:03:57Z</time>
      </trkpt>
      <trkpt lat="42.95479" lon="0.75654">
        <ele>1357.1</ele>
        <time>2019-08-31T12:04:00Z</time>
      </trkpt>
      <trkpt lat="42.95482" lon="0.75651">
        <ele>1356.4</ele>
        <time>2019-08-31T12:04:03Z</time>
      </trkpt>
      <trkpt lat="42.95485" lon="0.75648">
        <ele>1355.5</ele>
        <time>2019-08-31T12:04:06Z</time>
      </trkpt>
      <trkpt lat="42.95487" lon="0.75645">
        <ele>1354.6</ele>
        <time>2019-08-31T12:04:09Z</time>
      </trkpt>
      <trkpt lat="42.95489" lon="0.75641">
        <ele>1353.7</ele>
        <time>2019-08-31T12:04:12Z</time>
      </trkpt>
      <trkpt lat="42.9549" lon="0.75636">
        <ele>1353</ele>
        <time>2019-08-31T12:04:15Z</time>
      </trkpt>
      <trkpt lat="42.95491" lon="0.75631">
        <ele>1352.3</ele>
        <time>2019-08-31T12:04:18Z</time>
      </trkpt>
      <trkpt lat="42.95493" lon="0.75626">
        <ele>1351.5</ele>
        <time>2019-08-31T12:04:21Z</time>
      </trkpt>
      <trkpt lat="42.95494" lon="0.75621">
        <ele>1350.6</ele>
        <time>2019-08-31T12:04:24Z</time>
      </trkpt>
      <trkpt lat="42.95495" lon="0.75617">
        <ele>1349.9</ele>
        <time>2019-08-31T12:04:27Z</time>
      </trkpt>
      <trkpt lat="42.95498" lon="0.75613">
        <ele>1348.9</ele>
        <time>2019-08-31T12:04:31Z</time>
      </trkpt>
      <trkpt lat="42.95501" lon="0.75609">
        <ele>1348</ele>
        <time>2019-08-31T12:04:34Z</time>
      </trkpt>
      <trkpt lat="42.95504" lon="0.75606">
        <ele>1347.6</ele>
        <time>2019-08-31T12:04:37Z</time>
      </trkpt>
      <trkpt lat="42.95506" lon="0.75604">
        <ele>1347.2</ele>
        <time>2019-08-31T12:04:40Z</time>
      </trkpt>
      <trkpt lat="42.9551" lon="0.75602">
        <ele>1346.5</ele>
        <time>2019-08-31T12:04:43Z</time>
      </trkpt>
      <trkpt lat="42.95513" lon="0.756">
        <ele>1345.8</ele>
        <time>2019-08-31T12:04:46Z</time>
      </trkpt>
      <trkpt lat="42.95515" lon="0.75597">
        <ele>1345.1</ele>
        <time>2019-08-31T12:04:49Z</time>
      </trkpt>
      <trkpt lat="42.95517" lon="0.75593">
        <ele>1344.7</ele>
        <time>2019-08-31T12:04:51Z</time>
      </trkpt>
      <trkpt lat="42.95518" lon="0.7559">
        <ele>1344.4</ele>
        <time>2019-08-31T12:04:53Z</time>
      </trkpt>
      <trkpt lat="42.9552" lon="0.75587">
        <ele>1344</ele>
        <time>2019-08-31T12:04:55Z</time>
      </trkpt>
      <trkpt lat="42.95523" lon="0.75584">
        <ele>1343.5</ele>
        <time>2019-08-31T12:04:58Z</time>
      </trkpt>
      <trkpt lat="42.95525" lon="0.75581">
        <ele>1343.1</ele>
        <time>2019-08-31T12:05:00Z</time>
      </trkpt>
      <trkpt lat="42.95527" lon="0.75579">
        <ele>1342.6</ele>
        <time>2019-08-31T12:05:03Z</time>
      </trkpt>
      <trkpt lat="42.95531" lon="0.75577">
        <ele>1341.9</ele>
        <time>2019-08-31T12:05:06Z</time>
      </trkpt>
      <trkpt lat="42.95534" lon="0.75577">
        <ele>1341.3</ele>
        <time>2019-08-31T12:05:09Z</time>
      </trkpt>
      <trkpt lat="42.95537" lon="0.75576">
        <ele>1340.7</ele>
        <time>2019-08-31T12:05:12Z</time>
      </trkpt>
      <trkpt lat="42.95541" lon="0.75576">
        <ele>1339.7</ele>
        <time>2019-08-31T12:05:15Z</time>
      </trkpt>
      <trkpt lat="42.95545" lon="0.75576">
        <ele>1338.5</ele>
        <time>2019-08-31T12:05:18Z</time>
      </trkpt>
      <trkpt lat="42.95548" lon="0.75577">
        <ele>1337.7</ele>
        <time>2019-08-31T12:05:21Z</time>
      </trkpt>
      <trkpt lat="42.9555" lon="0.75577">
        <ele>1336.9</ele>
        <time>2019-08-31T12:05:24Z</time>
      </trkpt>
      <trkpt lat="42.95553" lon="0.75577">
        <ele>1336</ele>
        <time>2019-08-31T12:05:28Z</time>
      </trkpt>
      <trkpt lat="42.95556" lon="0.75576">
        <ele>1335.2</ele>
        <time>2019-08-31T12:05:32Z</time>
      </trkpt>
      <trkpt lat="42.95558" lon="0.75572">
        <ele>1334.5</ele>
        <time>2019-08-31T12:05:36Z</time>
      </trkpt>
      <trkpt lat="42.9556" lon="0.75569">
        <ele>1333.9</ele>
        <time>2019-08-31T12:05:40Z</time>
      </trkpt>
      <trkpt lat="42.95562" lon="0.75567">
        <ele>1333</ele>
        <time>2019-08-31T12:05:43Z</time>
      </trkpt>
      <trkpt lat="42.95564" lon="0.75564">
        <ele>1332.3</ele>
        <time>2019-08-31T12:05:45Z</time>
      </trkpt>
      <trkpt lat="42.95567" lon="0.75561">
        <ele>1331.2</ele>
        <time>2019-08-31T12:05:48Z</time>
      </trkpt>
      <trkpt lat="42.9557" lon="0.75559">
        <ele>1330</ele>
        <time>2019-08-31T12:05:50Z</time>
      </trkpt>
      <trkpt lat="42.95572" lon="0.75556">
        <ele>1328.7</ele>
        <time>2019-08-31T12:05:52Z</time>
      </trkpt>
      <trkpt lat="42.95574" lon="0.75553">
        <ele>1327.9</ele>
        <time>2019-08-31T12:05:54Z</time>
      </trkpt>
      <trkpt lat="42.95576" lon="0.7555">
        <ele>1327.2</ele>
        <time>2019-08-31T12:05:57Z</time>
      </trkpt>
      <trkpt lat="42.95577" lon="0.75546">
        <ele>1326.5</ele>
        <time>2019-08-31T12:05:59Z</time>
      </trkpt>
      <trkpt lat="42.95578" lon="0.75541">
        <ele>1325.6</ele>
        <time>2019-08-31T12:06:02Z</time>
      </trkpt>
      <trkpt lat="42.9558" lon="0.75538">
        <ele>1325</ele>
        <time>2019-08-31T12:06:05Z</time>
      </trkpt>
      <trkpt lat="42.95581" lon="0.75534">
        <ele>1324.4</ele>
        <time>2019-08-31T12:06:08Z</time>
      </trkpt>
      <trkpt lat="42.95582" lon="0.7553">
        <ele>1323.5</ele>
        <time>2019-08-31T12:06:11Z</time>
      </trkpt>
      <trkpt lat="42.95581" lon="0.75525">
        <ele>1322.2</ele>
        <time>2019-08-31T12:06:14Z</time>
      </trkpt>
      <trkpt lat="42.95581" lon="0.75521">
        <ele>1321.2</ele>
        <time>2019-08-31T12:06:16Z</time>
      </trkpt>
      <trkpt lat="42.95582" lon="0.75518">
        <ele>1320.6</ele>
        <time>2019-08-31T12:06:19Z</time>
      </trkpt>
      <trkpt lat="42.95584" lon="0.75515">
        <ele>1319.9</ele>
        <time>2019-08-31T12:06:22Z</time>
      </trkpt>
      <trkpt lat="42.95587" lon="0.75515">
        <ele>1318.9</ele>
        <time>2019-08-31T12:06:26Z</time>
      </trkpt>
      <trkpt lat="42.95591" lon="0.75513">
        <ele>1317.8</ele>
        <time>2019-08-31T12:06:30Z</time>
      </trkpt>
      <trkpt lat="42.95592" lon="0.7551">
        <ele>1317.1</ele>
        <time>2019-08-31T12:06:37Z</time>
      </trkpt>
      <trkpt lat="42.95591" lon="0.75506">
        <ele>1316.5</ele>
        <time>2019-08-31T12:06:42Z</time>
      </trkpt>
      <trkpt lat="42.95593" lon="0.75503">
        <ele>1315.7</ele>
        <time>2019-08-31T12:06:47Z</time>
      </trkpt>
      <trkpt lat="42.95592" lon="0.75499">
        <ele>1314.8</ele>
        <time>2019-08-31T12:06:52Z</time>
      </trkpt>
      <trkpt lat="42.9559" lon="0.75496">
        <ele>1313.9</ele>
        <time>2019-08-31T12:06:56Z</time>
      </trkpt>
      <trkpt lat="42.95591" lon="0.75492">
        <ele>1313.1</ele>
        <time>2019-08-31T12:07:02Z</time>
      </trkpt>
      <trkpt lat="42.95593" lon="0.75491">
        <ele>1312.4</ele>
        <time>2019-08-31T12:07:09Z</time>
      </trkpt>
      <trkpt lat="42.95596" lon="0.75488">
        <ele>1311.6</ele>
        <time>2019-08-31T12:07:14Z</time>
      </trkpt>
      <trkpt lat="42.95598" lon="0.7549">
        <ele>1310.8</ele>
        <time>2019-08-31T12:07:16Z</time>
      </trkpt>
      <trkpt lat="42.95601" lon="0.75491">
        <ele>1309.7</ele>
        <time>2019-08-31T12:07:20Z</time>
      </trkpt>
      <trkpt lat="42.95603" lon="0.75488">
        <ele>1308.3</ele>
        <time>2019-08-31T12:07:24Z</time>
      </trkpt>
      <trkpt lat="42.95606" lon="0.75484">
        <ele>1306.8</ele>
        <time>2019-08-31T12:07:32Z</time>
      </trkpt>
      <trkpt lat="42.95608" lon="0.75481">
        <ele>1305.5</ele>
        <time>2019-08-31T12:07:36Z</time>
      </trkpt>
      <trkpt lat="42.95611" lon="0.75479">
        <ele>1304</ele>
        <time>2019-08-31T12:07:40Z</time>
      </trkpt>
      <trkpt lat="42.95613" lon="0.75478">
        <ele>1302.8</ele>
        <time>2019-08-31T12:07:44Z</time>
      </trkpt>
      <trkpt lat="42.95617" lon="0.75476">
        <ele>1301.8</ele>
        <time>2019-08-31T12:07:49Z</time>
      </trkpt>
      <trkpt lat="42.9562" lon="0.75475">
        <ele>1301.2</ele>
        <time>2019-08-31T12:07:52Z</time>
      </trkpt>
      <trkpt lat="42.95623" lon="0.75474">
        <ele>1300.5</ele>
        <time>2019-08-31T12:07:56Z</time>
      </trkpt>
      <trkpt lat="42.95625" lon="0.75472">
        <ele>1299.5</ele>
        <time>2019-08-31T12:08:00Z</time>
      </trkpt>
      <trkpt lat="42.95628" lon="0.75471">
        <ele>1298.6</ele>
        <time>2019-08-31T12:08:03Z</time>
      </trkpt>
      <trkpt lat="42.9563" lon="0.75469">
        <ele>1297.6</ele>
        <time>2019-08-31T12:08:07Z</time>
      </trkpt>
      <trkpt lat="42.95633" lon="0.75467">
        <ele>1296.5</ele>
        <time>2019-08-31T12:08:11Z</time>
      </trkpt>
      <trkpt lat="42.95635" lon="0.75465">
        <ele>1295.5</ele>
        <time>2019-08-31T12:08:17Z</time>
      </trkpt>
      <trkpt lat="42.95639" lon="0.75464">
        <ele>1294.2</ele>
        <time>2019-08-31T12:08:22Z</time>
      </trkpt>
      <trkpt lat="42.95642" lon="0.75462">
        <ele>1292.5</ele>
        <time>2019-08-31T12:08:27Z</time>
      </trkpt>
      <trkpt lat="42.95646" lon="0.7546">
        <ele>1291</ele>
        <time>2019-08-31T12:08:31Z</time>
      </trkpt>
      <trkpt lat="42.95649" lon="0.75459">
        <ele>1290.2</ele>
        <time>2019-08-31T12:08:34Z</time>
      </trkpt>
      <trkpt lat="42.95652" lon="0.75459">
        <ele>1289.3</ele>
        <time>2019-08-31T12:08:37Z</time>
      </trkpt>
      <trkpt lat="42.95655" lon="0.75458">
        <ele>1288.4</ele>
        <time>2019-08-31T12:08:41Z</time>
      </trkpt>
      <trkpt lat="42.95659" lon="0.7546">
        <ele>1287.1</ele>
        <time>2019-08-31T12:08:44Z</time>
      </trkpt>
      <trkpt lat="42.95662" lon="0.75462">
        <ele>1285.9</ele>
        <time>2019-08-31T12:08:46Z</time>
      </trkpt>
      <trkpt lat="42.95665" lon="0.75465">
        <ele>1284.9</ele>
        <time>2019-08-31T12:08:48Z</time>
      </trkpt>
      <trkpt lat="42.95668" lon="0.75468">
        <ele>1284</ele>
        <time>2019-08-31T12:08:52Z</time>
      </trkpt>
      <trkpt lat="42.9567" lon="0.7547">
        <ele>1283.1</ele>
        <time>2019-08-31T12:08:55Z</time>
      </trkpt>
      <trkpt lat="42.95673" lon="0.75474">
        <ele>1281.9</ele>
        <time>2019-08-31T12:08:58Z</time>
      </trkpt>
      <trkpt lat="42.95676" lon="0.75477">
        <ele>1280.8</ele>
        <time>2019-08-31T12:09:01Z</time>
      </trkpt>
      <trkpt lat="42.95679" lon="0.75478">
        <ele>1279.9</ele>
        <time>2019-08-31T12:09:03Z</time>
      </trkpt>
      <trkpt lat="42.95683" lon="0.7548">
        <ele>1278.9</ele>
        <time>2019-08-31T12:09:05Z</time>
      </trkpt>
      <trkpt lat="42.95686" lon="0.75481">
        <ele>1278</ele>
        <time>2019-08-31T12:09:07Z</time>
      </trkpt>
      <trkpt lat="42.95688" lon="0.75484">
        <ele>1277.3</ele>
        <time>2019-08-31T12:09:09Z</time>
      </trkpt>
      <trkpt lat="42.95691" lon="0.75487">
        <ele>1276.5</ele>
        <time>2019-08-31T12:09:12Z</time>
      </trkpt>
      <trkpt lat="42.95694" lon="0.7549">
        <ele>1275.7</ele>
        <time>2019-08-31T12:09:15Z</time>
      </trkpt>
      <trkpt lat="42.95698" lon="0.75493">
        <ele>1275</ele>
        <time>2019-08-31T12:09:18Z</time>
      </trkpt>
      <trkpt lat="42.957" lon="0.75496">
        <ele>1274.2</ele>
        <time>2019-08-31T12:09:21Z</time>
      </trkpt>
      <trkpt lat="42.95702" lon="0.755">
        <ele>1273.5</ele>
        <time>2019-08-31T12:09:24Z</time>
      </trkpt>
      <trkpt lat="42.95703" lon="0.75503">
        <ele>1273.3</ele>
        <time>2019-08-31T12:09:27Z</time>
      </trkpt>
      <trkpt lat="42.95706" lon="0.75506">
        <ele>1273</ele>
        <time>2019-08-31T12:09:30Z</time>
      </trkpt>
      <trkpt lat="42.95709" lon="0.75508">
        <ele>1272.8</ele>
        <time>2019-08-31T12:09:32Z</time>
      </trkpt>
      <trkpt lat="42.95712" lon="0.75509">
        <ele>1272.3</ele>
        <time>2019-08-31T12:09:34Z</time>
      </trkpt>
      <trkpt lat="42.95714" lon="0.75511">
        <ele>1271.7</ele>
        <time>2019-08-31T12:09:37Z</time>
      </trkpt>
      <trkpt lat="42.95717" lon="0.75514">
        <ele>1271.1</ele>
        <time>2019-08-31T12:09:41Z</time>
      </trkpt>
      <trkpt lat="42.9572" lon="0.75516">
        <ele>1270.8</ele>
        <time>2019-08-31T12:09:43Z</time>
      </trkpt>
      <trkpt lat="42.95722" lon="0.75517">
        <ele>1270.6</ele>
        <time>2019-08-31T12:09:45Z</time>
      </trkpt>
      <trkpt lat="42.95725" lon="0.75518">
        <ele>1270.4</ele>
        <time>2019-08-31T12:09:47Z</time>
      </trkpt>
      <trkpt lat="42.95728" lon="0.75518">
        <ele>1270</ele>
        <time>2019-08-31T12:09:51Z</time>
      </trkpt>
      <trkpt lat="42.95731" lon="0.75518">
        <ele>1269.6</ele>
        <time>2019-08-31T12:09:56Z</time>
      </trkpt>
      <trkpt lat="42.95734" lon="0.75519">
        <ele>1269.3</ele>
        <time>2019-08-31T12:09:59Z</time>
      </trkpt>
      <trkpt lat="42.95737" lon="0.75518">
        <ele>1269.6</ele>
        <time>2019-08-31T12:10:04Z</time>
      </trkpt>
      <trkpt lat="42.9574" lon="0.75518">
        <ele>1269.8</ele>
        <time>2019-08-31T12:10:08Z</time>
      </trkpt>
      <trkpt lat="42.95743" lon="0.7552">
        <ele>1269.6</ele>
        <time>2019-08-31T12:10:12Z</time>
      </trkpt>
      <trkpt lat="42.95746" lon="0.75522">
        <ele>1269</ele>
        <time>2019-08-31T12:10:16Z</time>
      </trkpt>
      <trkpt lat="42.95749" lon="0.75525">
        <ele>1268.3</ele>
        <time>2019-08-31T12:10:20Z</time>
      </trkpt>
      <trkpt lat="42.95752" lon="0.75525">
        <ele>1267.8</ele>
        <time>2019-08-31T12:10:23Z</time>
      </trkpt>
      <trkpt lat="42.95756" lon="0.75526">
        <ele>1267.1</ele>
        <time>2019-08-31T12:10:26Z</time>
      </trkpt>
      <trkpt lat="42.95759" lon="0.75527">
        <ele>1266.6</ele>
        <time>2019-08-31T12:10:30Z</time>
      </trkpt>
      <trkpt lat="42.95762" lon="0.75528">
        <ele>1266.1</ele>
        <time>2019-08-31T12:10:33Z</time>
      </trkpt>
      <trkpt lat="42.95765" lon="0.75529">
        <ele>1265.5</ele>
        <time>2019-08-31T12:10:36Z</time>
      </trkpt>
      <trkpt lat="42.95767" lon="0.75531">
        <ele>1264.8</ele>
        <time>2019-08-31T12:10:40Z</time>
      </trkpt>
      <trkpt lat="42.9577" lon="0.75532">
        <ele>1264.1</ele>
        <time>2019-08-31T12:10:43Z</time>
      </trkpt>
      <trkpt lat="42.95773" lon="0.75532">
        <ele>1263.4</ele>
        <time>2019-08-31T12:10:47Z</time>
      </trkpt>
      <trkpt lat="42.95775" lon="0.75536">
        <ele>1262.5</ele>
        <time>2019-08-31T12:10:51Z</time>
      </trkpt>
      <trkpt lat="42.95778" lon="0.75537">
        <ele>1261.8</ele>
        <time>2019-08-31T12:10:55Z</time>
      </trkpt>
      <trkpt lat="42.9578" lon="0.7554">
        <ele>1261.1</ele>
        <time>2019-08-31T12:10:59Z</time>
      </trkpt>
      <trkpt lat="42.95784" lon="0.75541">
        <ele>1260.2</ele>
        <time>2019-08-31T12:11:02Z</time>
      </trkpt>
      <trkpt lat="42.95787" lon="0.75542">
        <ele>1259.3</ele>
        <time>2019-08-31T12:11:04Z</time>
      </trkpt>
      <trkpt lat="42.9579" lon="0.75542">
        <ele>1258.5</ele>
        <time>2019-08-31T12:11:06Z</time>
      </trkpt>
      <trkpt lat="42.95793" lon="0.7554">
        <ele>1257.6</ele>
        <time>2019-08-31T12:11:10Z</time>
      </trkpt>
      <trkpt lat="42.95795" lon="0.75538">
        <ele>1256.6</ele>
        <time>2019-08-31T12:11:13Z</time>
      </trkpt>
      <trkpt lat="42.95797" lon="0.75534">
        <ele>1255.2</ele>
        <time>2019-08-31T12:11:17Z</time>
      </trkpt>
      <trkpt lat="42.95798" lon="0.7553">
        <ele>1254</ele>
        <time>2019-08-31T12:11:21Z</time>
      </trkpt>
      <trkpt lat="42.95797" lon="0.75526">
        <ele>1253.2</ele>
        <time>2019-08-31T12:11:24Z</time>
      </trkpt>
      <trkpt lat="42.95796" lon="0.75522">
        <ele>1252.3</ele>
        <time>2019-08-31T12:11:27Z</time>
      </trkpt>
      <trkpt lat="42.95797" lon="0.75516">
        <ele>1251.1</ele>
        <time>2019-08-31T12:11:30Z</time>
      </trkpt>
      <trkpt lat="42.95797" lon="0.75511">
        <ele>1250</ele>
        <time>2019-08-31T12:11:34Z</time>
      </trkpt>
      <trkpt lat="42.95796" lon="0.75506">
        <ele>1248.6</ele>
        <time>2019-08-31T12:11:37Z</time>
      </trkpt>
      <trkpt lat="42.95796" lon="0.75502">
        <ele>1247.4</ele>
        <time>2019-08-31T12:11:39Z</time>
      </trkpt>
      <trkpt lat="42.95795" lon="0.75498">
        <ele>1246.2</ele>
        <time>2019-08-31T12:11:42Z</time>
      </trkpt>
      <trkpt lat="42.95795" lon="0.75494">
        <ele>1245.2</ele>
        <time>2019-08-31T12:11:45Z</time>
      </trkpt>
      <trkpt lat="42.95795" lon="0.75489">
        <ele>1244.5</ele>
        <time>2019-08-31T12:11:48Z</time>
      </trkpt>
      <trkpt lat="42.95795" lon="0.75484">
        <ele>1243.7</ele>
        <time>2019-08-31T12:11:51Z</time>
      </trkpt>
      <trkpt lat="42.95795" lon="0.7548">
        <ele>1242.8</ele>
        <time>2019-08-31T12:11:54Z</time>
      </trkpt>
      <trkpt lat="42.95795" lon="0.75475">
        <ele>1241.7</ele>
        <time>2019-08-31T12:11:57Z</time>
      </trkpt>
      <trkpt lat="42.95795" lon="0.75471">
        <ele>1240.8</ele>
        <time>2019-08-31T12:11:59Z</time>
      </trkpt>
      <trkpt lat="42.95795" lon="0.75467">
        <ele>1239.3</ele>
        <time>2019-08-31T12:12:03Z</time>
      </trkpt>
      <trkpt lat="42.95796" lon="0.75462">
        <ele>1237.7</ele>
        <time>2019-08-31T12:12:07Z</time>
      </trkpt>
      <trkpt lat="42.95796" lon="0.75458">
        <ele>1236.7</ele>
        <time>2019-08-31T12:12:10Z</time>
      </trkpt>
      <trkpt lat="42.95796" lon="0.75454">
        <ele>1236</ele>
        <time>2019-08-31T12:12:15Z</time>
      </trkpt>
      <trkpt lat="42.95796" lon="0.75448">
        <ele>1235.6</ele>
        <time>2019-08-31T12:12:18Z</time>
      </trkpt>
      <trkpt lat="42.95797" lon="0.75443">
        <ele>1234.9</ele>
        <time>2019-08-31T12:12:21Z</time>
      </trkpt>
      <trkpt lat="42.95798" lon="0.75439">
        <ele>1234.1</ele>
        <time>2019-08-31T12:12:25Z</time>
      </trkpt>
      <trkpt lat="42.958" lon="0.75436">
        <ele>1233.8</ele>
        <time>2019-08-31T12:12:34Z</time>
      </trkpt>
      <trkpt lat="42.95801" lon="0.75432">
        <ele>1233.4</ele>
        <time>2019-08-31T12:12:38Z</time>
      </trkpt>
      <trkpt lat="42.95803" lon="0.75428">
        <ele>1233.1</ele>
        <time>2019-08-31T12:12:42Z</time>
      </trkpt>
      <trkpt lat="42.95805" lon="0.75425">
        <ele>1232.6</ele>
        <time>2019-08-31T12:12:46Z</time>
      </trkpt>
      <trkpt lat="42.95807" lon="0.75423">
        <ele>1231.9</ele>
        <time>2019-08-31T12:12:49Z</time>
      </trkpt>
      <trkpt lat="42.95808" lon="0.7542">
        <ele>1231.4</ele>
        <time>2019-08-31T12:12:52Z</time>
      </trkpt>
      <trkpt lat="42.95811" lon="0.75417">
        <ele>1231.1</ele>
        <time>2019-08-31T12:12:55Z</time>
      </trkpt>
      <trkpt lat="42.95813" lon="0.75413">
        <ele>1230.7</ele>
        <time>2019-08-31T12:12:59Z</time>
      </trkpt>
      <trkpt lat="42.95813" lon="0.75409">
        <ele>1230.3</ele>
        <time>2019-08-31T12:13:02Z</time>
      </trkpt>
      <trkpt lat="42.95813" lon="0.75405">
        <ele>1230.1</ele>
        <time>2019-08-31T12:13:05Z</time>
      </trkpt>
      <trkpt lat="42.95816" lon="0.75402">
        <ele>1229.9</ele>
        <time>2019-08-31T12:13:10Z</time>
      </trkpt>
      <trkpt lat="42.95818" lon="0.75398">
        <ele>1229.5</ele>
        <time>2019-08-31T12:13:14Z</time>
      </trkpt>
      <trkpt lat="42.95821" lon="0.75395">
        <ele>1228.7</ele>
        <time>2019-08-31T12:13:17Z</time>
      </trkpt>
      <trkpt lat="42.95822" lon="0.75392">
        <ele>1228.1</ele>
        <time>2019-08-31T12:13:20Z</time>
      </trkpt>
      <trkpt lat="42.95823" lon="0.75388">
        <ele>1227.8</ele>
        <time>2019-08-31T12:13:24Z</time>
      </trkpt>
      <trkpt lat="42.95825" lon="0.75384">
        <ele>1227.6</ele>
        <time>2019-08-31T12:13:27Z</time>
      </trkpt>
      <trkpt lat="42.95825" lon="0.7538">
        <ele>1227.2</ele>
        <time>2019-08-31T12:13:29Z</time>
      </trkpt>
      <trkpt lat="42.95826" lon="0.75375">
        <ele>1226.3</ele>
        <time>2019-08-31T12:13:32Z</time>
      </trkpt>
      <trkpt lat="42.95826" lon="0.75371">
        <ele>1225.6</ele>
        <time>2019-08-31T12:13:35Z</time>
      </trkpt>
      <trkpt lat="42.95826" lon="0.75366">
        <ele>1224.7</ele>
        <time>2019-08-31T12:13:38Z</time>
      </trkpt>
      <trkpt lat="42.95827" lon="0.75363">
        <ele>1223.9</ele>
        <time>2019-08-31T12:13:40Z</time>
      </trkpt>
      <trkpt lat="42.95828" lon="0.75358">
        <ele>1223</ele>
        <time>2019-08-31T12:13:43Z</time>
      </trkpt>
      <trkpt lat="42.95829" lon="0.75353">
        <ele>1222</ele>
        <time>2019-08-31T12:13:46Z</time>
      </trkpt>
      <trkpt lat="42.9583" lon="0.75349">
        <ele>1221.3</ele>
        <time>2019-08-31T12:13:49Z</time>
      </trkpt>
      <trkpt lat="42.9583" lon="0.75345">
        <ele>1220.5</ele>
        <time>2019-08-31T12:13:52Z</time>
      </trkpt>
      <trkpt lat="42.95831" lon="0.75342">
        <ele>1219.8</ele>
        <time>2019-08-31T12:13:55Z</time>
      </trkpt>
      <trkpt lat="42.95831" lon="0.75338">
        <ele>1219.2</ele>
        <time>2019-08-31T12:13:59Z</time>
      </trkpt>
      <trkpt lat="42.95832" lon="0.75335">
        <ele>1218.6</ele>
        <time>2019-08-31T12:14:03Z</time>
      </trkpt>
      <trkpt lat="42.95833" lon="0.7533">
        <ele>1217.8</ele>
        <time>2019-08-31T12:14:07Z</time>
      </trkpt>
      <trkpt lat="42.95835" lon="0.75326">
        <ele>1216.6</ele>
        <time>2019-08-31T12:14:11Z</time>
      </trkpt>
      <trkpt lat="42.95837" lon="0.75323">
        <ele>1215.4</ele>
        <time>2019-08-31T12:14:15Z</time>
      </trkpt>
      <trkpt lat="42.95839" lon="0.75321">
        <ele>1214.4</ele>
        <time>2019-08-31T12:14:19Z</time>
      </trkpt>
      <trkpt lat="42.95842" lon="0.75319">
        <ele>1213.4</ele>
        <time>2019-08-31T12:14:24Z</time>
      </trkpt>
      <trkpt lat="42.95845" lon="0.75317">
        <ele>1212.5</ele>
        <time>2019-08-31T12:14:28Z</time>
      </trkpt>
      <trkpt lat="42.95848" lon="0.75319">
        <ele>1211.4</ele>
        <time>2019-08-31T12:14:33Z</time>
      </trkpt>
      <trkpt lat="42.9585" lon="0.75321">
        <ele>1210.5</ele>
        <time>2019-08-31T12:14:37Z</time>
      </trkpt>
      <trkpt lat="42.95852" lon="0.75325">
        <ele>1209.5</ele>
        <time>2019-08-31T12:14:42Z</time>
      </trkpt>
      <trkpt lat="42.95855" lon="0.75325">
        <ele>1208.9</ele>
        <time>2019-08-31T12:14:44Z</time>
      </trkpt>
      <trkpt lat="42.95858" lon="0.75324">
        <ele>1208.4</ele>
        <time>2019-08-31T12:14:46Z</time>
      </trkpt>
      <trkpt lat="42.9586" lon="0.75321">
        <ele>1207.7</ele>
        <time>2019-08-31T12:14:48Z</time>
      </trkpt>
      <trkpt lat="42.95862" lon="0.75318">
        <ele>1206.9</ele>
        <time>2019-08-31T12:14:51Z</time>
      </trkpt>
      <trkpt lat="42.95865" lon="0.75318">
        <ele>1205.8</ele>
        <time>2019-08-31T12:14:54Z</time>
      </trkpt>
      <trkpt lat="42.95867" lon="0.75315">
        <ele>1205.2</ele>
        <time>2019-08-31T12:14:56Z</time>
      </trkpt>
      <trkpt lat="42.9587" lon="0.75314">
        <ele>1204.5</ele>
        <time>2019-08-31T12:14:58Z</time>
      </trkpt>
      <trkpt lat="42.95873" lon="0.75312">
        <ele>1204</ele>
        <time>2019-08-31T12:15:00Z</time>
      </trkpt>
      <trkpt lat="42.95875" lon="0.7531">
        <ele>1202.9</ele>
        <time>2019-08-31T12:15:03Z</time>
      </trkpt>
      <trkpt lat="42.95879" lon="0.75313">
        <ele>1201.4</ele>
        <time>2019-08-31T12:15:06Z</time>
      </trkpt>
      <trkpt lat="42.95881" lon="0.75313">
        <ele>1200.3</ele>
        <time>2019-08-31T12:15:08Z</time>
      </trkpt>
      <trkpt lat="42.95884" lon="0.75312">
        <ele>1199.6</ele>
        <time>2019-08-31T12:15:11Z</time>
      </trkpt>
      <trkpt lat="42.95888" lon="0.7531">
        <ele>1198.9</ele>
        <time>2019-08-31T12:15:14Z</time>
      </trkpt>
      <trkpt lat="42.9589" lon="0.75313">
        <ele>1198</ele>
        <time>2019-08-31T12:15:17Z</time>
      </trkpt>
      <trkpt lat="42.95893" lon="0.75317">
        <ele>1196.8</ele>
        <time>2019-08-31T12:15:20Z</time>
      </trkpt>
      <trkpt lat="42.95896" lon="0.75317">
        <ele>1195.7</ele>
        <time>2019-08-31T12:15:22Z</time>
      </trkpt>
      <trkpt lat="42.95899" lon="0.75319">
        <ele>1194.9</ele>
        <time>2019-08-31T12:15:25Z</time>
      </trkpt>
      <trkpt lat="42.95902" lon="0.75321">
        <ele>1194</ele>
        <time>2019-08-31T12:15:28Z</time>
      </trkpt>
      <trkpt lat="42.95904" lon="0.75324">
        <ele>1193.2</ele>
        <time>2019-08-31T12:15:30Z</time>
      </trkpt>
      <trkpt lat="42.95907" lon="0.75327">
        <ele>1192.4</ele>
        <time>2019-08-31T12:15:32Z</time>
      </trkpt>
      <trkpt lat="42.95909" lon="0.75329">
        <ele>1191.2</ele>
        <time>2019-08-31T12:15:34Z</time>
      </trkpt>
      <trkpt lat="42.95912" lon="0.75334">
        <ele>1189.5</ele>
        <time>2019-08-31T12:15:37Z</time>
      </trkpt>
      <trkpt lat="42.95912" lon="0.75338">
        <ele>1188.5</ele>
        <time>2019-08-31T12:15:39Z</time>
      </trkpt>
      <trkpt lat="42.95914" lon="0.75342">
        <ele>1187.4</ele>
        <time>2019-08-31T12:15:42Z</time>
      </trkpt>
      <trkpt lat="42.95916" lon="0.75345">
        <ele>1186.2</ele>
        <time>2019-08-31T12:15:46Z</time>
      </trkpt>
      <trkpt lat="42.95919" lon="0.75347">
        <ele>1185.2</ele>
        <time>2019-08-31T12:15:50Z</time>
      </trkpt>
      <trkpt lat="42.95923" lon="0.75347">
        <ele>1184.2</ele>
        <time>2019-08-31T12:15:56Z</time>
      </trkpt>
      <trkpt lat="42.95925" lon="0.75344">
        <ele>1183.3</ele>
        <time>2019-08-31T12:16:00Z</time>
      </trkpt>
      <trkpt lat="42.95927" lon="0.75341">
        <ele>1182.4</ele>
        <time>2019-08-31T12:16:04Z</time>
      </trkpt>
      <trkpt lat="42.95929" lon="0.75337">
        <ele>1181.6</ele>
        <time>2019-08-31T12:16:06Z</time>
      </trkpt>
      <trkpt lat="42.9593" lon="0.75333">
        <ele>1180.8</ele>
        <time>2019-08-31T12:16:08Z</time>
      </trkpt>
      <trkpt lat="42.9593" lon="0.7533">
        <ele>1179.9</ele>
        <time>2019-08-31T12:16:11Z</time>
      </trkpt>
      <trkpt lat="42.95931" lon="0.75325">
        <ele>1178.9</ele>
        <time>2019-08-31T12:16:14Z</time>
      </trkpt>
      <trkpt lat="42.95933" lon="0.75321">
        <ele>1177.7</ele>
        <time>2019-08-31T12:16:17Z</time>
      </trkpt>
      <trkpt lat="42.95934" lon="0.75317">
        <ele>1176.7</ele>
        <time>2019-08-31T12:16:20Z</time>
      </trkpt>
      <trkpt lat="42.95935" lon="0.75313">
        <ele>1176.5</ele>
        <time>2019-08-31T12:16:23Z</time>
      </trkpt>
      <trkpt lat="42.95936" lon="0.75308">
        <ele>1176.3</ele>
        <time>2019-08-31T12:16:26Z</time>
      </trkpt>
      <trkpt lat="42.95937" lon="0.75303">
        <ele>1175.6</ele>
        <time>2019-08-31T12:16:29Z</time>
      </trkpt>
      <trkpt lat="42.95937" lon="0.75299">
        <ele>1174.9</ele>
        <time>2019-08-31T12:16:32Z</time>
      </trkpt>
      <trkpt lat="42.95938" lon="0.75295">
        <ele>1174.4</ele>
        <time>2019-08-31T12:16:35Z</time>
      </trkpt>
      <trkpt lat="42.95939" lon="0.7529">
        <ele>1173.8</ele>
        <time>2019-08-31T12:16:38Z</time>
      </trkpt>
      <trkpt lat="42.95939" lon="0.75286">
        <ele>1173.5</ele>
        <time>2019-08-31T12:16:41Z</time>
      </trkpt>
      <trkpt lat="42.95941" lon="0.75282">
        <ele>1173.5</ele>
        <time>2019-08-31T12:16:45Z</time>
      </trkpt>
      <trkpt lat="42.95942" lon="0.75278">
        <ele>1173</ele>
        <time>2019-08-31T12:16:49Z</time>
      </trkpt>
      <trkpt lat="42.95942" lon="0.75273">
        <ele>1171.7</ele>
        <time>2019-08-31T12:16:52Z</time>
      </trkpt>
      <trkpt lat="42.95942" lon="0.75268">
        <ele>1170.6</ele>
        <time>2019-08-31T12:16:55Z</time>
      </trkpt>
      <trkpt lat="42.95942" lon="0.75264">
        <ele>1169.6</ele>
        <time>2019-08-31T12:16:58Z</time>
      </trkpt>
      <trkpt lat="42.95942" lon="0.75259">
        <ele>1168.6</ele>
        <time>2019-08-31T12:17:02Z</time>
      </trkpt>
      <trkpt lat="42.95942" lon="0.75255">
        <ele>1167.3</ele>
        <time>2019-08-31T12:17:05Z</time>
      </trkpt>
      <trkpt lat="42.95942" lon="0.75251">
        <ele>1166.4</ele>
        <time>2019-08-31T12:17:07Z</time>
      </trkpt>
      <trkpt lat="42.95942" lon="0.75246">
        <ele>1165.3</ele>
        <time>2019-08-31T12:17:10Z</time>
      </trkpt>
      <trkpt lat="42.95943" lon="0.75242">
        <ele>1164.6</ele>
        <time>2019-08-31T12:17:12Z</time>
      </trkpt>
      <trkpt lat="42.95946" lon="0.75239">
        <ele>1163.9</ele>
        <time>2019-08-31T12:17:15Z</time>
      </trkpt>
      <trkpt lat="42.95949" lon="0.75239">
        <ele>1163.1</ele>
        <time>2019-08-31T12:17:18Z</time>
      </trkpt>
      <trkpt lat="42.95951" lon="0.75242">
        <ele>1162.4</ele>
        <time>2019-08-31T12:17:21Z</time>
      </trkpt>
      <trkpt lat="42.95952" lon="0.75245">
        <ele>1161.5</ele>
        <time>2019-08-31T12:17:24Z</time>
      </trkpt>
      <trkpt lat="42.95955" lon="0.75248">
        <ele>1160.3</ele>
        <time>2019-08-31T12:17:28Z</time>
      </trkpt>
      <trkpt lat="42.95958" lon="0.75249">
        <ele>1159.4</ele>
        <time>2019-08-31T12:17:31Z</time>
      </trkpt>
      <trkpt lat="42.95961" lon="0.7525">
        <ele>1158.7</ele>
        <time>2019-08-31T12:17:34Z</time>
      </trkpt>
      <trkpt lat="42.95965" lon="0.75251">
        <ele>1157.7</ele>
        <time>2019-08-31T12:17:37Z</time>
      </trkpt>
      <trkpt lat="42.95967" lon="0.7525">
        <ele>1156.9</ele>
        <time>2019-08-31T12:17:39Z</time>
      </trkpt>
      <trkpt lat="42.9597" lon="0.75252">
        <ele>1156</ele>
        <time>2019-08-31T12:17:42Z</time>
      </trkpt>
      <trkpt lat="42.95973" lon="0.75256">
        <ele>1154.8</ele>
        <time>2019-08-31T12:17:45Z</time>
      </trkpt>
      <trkpt lat="42.95975" lon="0.7526">
        <ele>1153.6</ele>
        <time>2019-08-31T12:17:48Z</time>
      </trkpt>
      <trkpt lat="42.95979" lon="0.75264">
        <ele>1152</ele>
        <time>2019-08-31T12:17:51Z</time>
      </trkpt>
      <trkpt lat="42.95982" lon="0.75267">
        <ele>1150.5</ele>
        <time>2019-08-31T12:17:53Z</time>
      </trkpt>
      <trkpt lat="42.95986" lon="0.7527">
        <ele>1148.9</ele>
        <time>2019-08-31T12:17:55Z</time>
      </trkpt>
      <trkpt lat="42.95987" lon="0.75273">
        <ele>1147.7</ele>
        <time>2019-08-31T12:17:57Z</time>
      </trkpt>
      <trkpt lat="42.9599" lon="0.75276">
        <ele>1146.6</ele>
        <time>2019-08-31T12:18:00Z</time>
      </trkpt>
      <trkpt lat="42.95993" lon="0.75278">
        <ele>1145.2</ele>
        <time>2019-08-31T12:18:03Z</time>
      </trkpt>
      <trkpt lat="42.95996" lon="0.75279">
        <ele>1144</ele>
        <time>2019-08-31T12:18:06Z</time>
      </trkpt>
      <trkpt lat="42.95999" lon="0.75282">
        <ele>1142.7</ele>
        <time>2019-08-31T12:18:08Z</time>
      </trkpt>
      <trkpt lat="42.96001" lon="0.75285">
        <ele>1141.6</ele>
        <time>2019-08-31T12:18:10Z</time>
      </trkpt>
      <trkpt lat="42.96003" lon="0.75289">
        <ele>1140.6</ele>
        <time>2019-08-31T12:18:13Z</time>
      </trkpt>
      <trkpt lat="42.96005" lon="0.75293">
        <ele>1140.3</ele>
        <time>2019-08-31T12:18:16Z</time>
      </trkpt>
      <trkpt lat="42.96008" lon="0.75296">
        <ele>1139.6</ele>
        <time>2019-08-31T12:18:19Z</time>
      </trkpt>
      <trkpt lat="42.96012" lon="0.75299">
        <ele>1138.4</ele>
        <time>2019-08-31T12:18:22Z</time>
      </trkpt>
      <trkpt lat="42.96014" lon="0.75303">
        <ele>1138.8</ele>
        <time>2019-08-31T12:18:25Z</time>
      </trkpt>
      <trkpt lat="42.96016" lon="0.75307">
        <ele>1139.3</ele>
        <time>2019-08-31T12:18:28Z</time>
      </trkpt>
      <trkpt lat="42.96019" lon="0.75311">
        <ele>1138.8</ele>
        <time>2019-08-31T12:18:31Z</time>
      </trkpt>
      <trkpt lat="42.96021" lon="0.75314">
        <ele>1138.2</ele>
        <time>2019-08-31T12:18:33Z</time>
      </trkpt>
      <trkpt lat="42.96023" lon="0.75318">
        <ele>1137.7</ele>
        <time>2019-08-31T12:18:36Z</time>
      </trkpt>
      <trkpt lat="42.96024" lon="0.75322">
        <ele>1137.1</ele>
        <time>2019-08-31T12:18:39Z</time>
      </trkpt>
      <trkpt lat="42.96026" lon="0.75325">
        <ele>1136.8</ele>
        <time>2019-08-31T12:18:42Z</time>
      </trkpt>
      <trkpt lat="42.96027" lon="0.75329">
        <ele>1136.4</ele>
        <time>2019-08-31T12:18:45Z</time>
      </trkpt>
      <trkpt lat="42.96029" lon="0.75333">
        <ele>1136</ele>
        <time>2019-08-31T12:18:48Z</time>
      </trkpt>
      <trkpt lat="42.9603" lon="0.75337">
        <ele>1135.3</ele>
        <time>2019-08-31T12:18:51Z</time>
      </trkpt>
      <trkpt lat="42.96031" lon="0.75341">
        <ele>1134.6</ele>
        <time>2019-08-31T12:18:54Z</time>
      </trkpt>
      <trkpt lat="42.96032" lon="0.75346">
        <ele>1133.7</ele>
        <time>2019-08-31T12:18:57Z</time>
      </trkpt>
      <trkpt lat="42.96035" lon="0.75349">
        <ele>1133.3</ele>
        <time>2019-08-31T12:19:00Z</time>
      </trkpt>
      <trkpt lat="42.96037" lon="0.75346">
        <ele>1133.1</ele>
        <time>2019-08-31T12:19:04Z</time>
      </trkpt>
      <trkpt lat="42.96037" lon="0.75342">
        <ele>1132.9</ele>
        <time>2019-08-31T12:19:07Z</time>
      </trkpt>
      <trkpt lat="42.96036" lon="0.75338">
        <ele>1132.5</ele>
        <time>2019-08-31T12:19:10Z</time>
      </trkpt>
      <trkpt lat="42.96038" lon="0.75334">
        <ele>1131.9</ele>
        <time>2019-08-31T12:19:13Z</time>
      </trkpt>
      <trkpt lat="42.9604" lon="0.75331">
        <ele>1131.3</ele>
        <time>2019-08-31T12:19:16Z</time>
      </trkpt>
      <trkpt lat="42.96043" lon="0.7533">
        <ele>1130.5</ele>
        <time>2019-08-31T12:19:19Z</time>
      </trkpt>
      <trkpt lat="42.96046" lon="0.75329">
        <ele>1129.7</ele>
        <time>2019-08-31T12:19:22Z</time>
      </trkpt>
      <trkpt lat="42.96049" lon="0.75327">
        <ele>1128.9</ele>
        <time>2019-08-31T12:19:26Z</time>
      </trkpt>
      <trkpt lat="42.96052" lon="0.75325">
        <ele>1127.7</ele>
        <time>2019-08-31T12:19:29Z</time>
      </trkpt>
      <trkpt lat="42.96054" lon="0.75322">
        <ele>1126.6</ele>
        <time>2019-08-31T12:19:32Z</time>
      </trkpt>
      <trkpt lat="42.96058" lon="0.75323">
        <ele>1125.6</ele>
        <time>2019-08-31T12:19:34Z</time>
      </trkpt>
      <trkpt lat="42.96059" lon="0.7532">
        <ele>1125.2</ele>
        <time>2019-08-31T12:19:39Z</time>
      </trkpt>
      <trkpt lat="42.96062" lon="0.75323">
        <ele>1124.8</ele>
        <time>2019-08-31T12:19:45Z</time>
      </trkpt>
      <trkpt lat="42.96064" lon="0.75326">
        <ele>1123.8</ele>
        <time>2019-08-31T12:19:47Z</time>
      </trkpt>
      <trkpt lat="42.96067" lon="0.75328">
        <ele>1122.8</ele>
        <time>2019-08-31T12:19:49Z</time>
      </trkpt>
      <trkpt lat="42.96071" lon="0.75328">
        <ele>1121.6</ele>
        <time>2019-08-31T12:19:52Z</time>
      </trkpt>
      <trkpt lat="42.96074" lon="0.75329">
        <ele>1120.8</ele>
        <time>2019-08-31T12:19:54Z</time>
      </trkpt>
      <trkpt lat="42.96077" lon="0.75328">
        <ele>1120.1</ele>
        <time>2019-08-31T12:19:58Z</time>
      </trkpt>
      <trkpt lat="42.9608" lon="0.75326">
        <ele>1119.4</ele>
        <time>2019-08-31T12:20:01Z</time>
      </trkpt>
      <trkpt lat="42.96084" lon="0.75326">
        <ele>1118.5</ele>
        <time>2019-08-31T12:20:04Z</time>
      </trkpt>
      <trkpt lat="42.96088" lon="0.75325">
        <ele>1116.9</ele>
        <time>2019-08-31T12:20:07Z</time>
      </trkpt>
      <trkpt lat="42.9609" lon="0.75323">
        <ele>1115.6</ele>
        <time>2019-08-31T12:20:09Z</time>
      </trkpt>
      <trkpt lat="42.96092" lon="0.75319">
        <ele>1114.2</ele>
        <time>2019-08-31T12:20:11Z</time>
      </trkpt>
      <trkpt lat="42.96092" lon="0.75314">
        <ele>1113.3</ele>
        <time>2019-08-31T12:20:13Z</time>
      </trkpt>
      <trkpt lat="42.96094" lon="0.7531">
        <ele>1112.3</ele>
        <time>2019-08-31T12:20:15Z</time>
      </trkpt>
      <trkpt lat="42.96095" lon="0.75306">
        <ele>1111.3</ele>
        <time>2019-08-31T12:20:17Z</time>
      </trkpt>
      <trkpt lat="42.96097" lon="0.75302">
        <ele>1110.1</ele>
        <time>2019-08-31T12:20:20Z</time>
      </trkpt>
      <trkpt lat="42.96098" lon="0.75298">
        <ele>1109.2</ele>
        <time>2019-08-31T12:20:23Z</time>
      </trkpt>
      <trkpt lat="42.96097" lon="0.75294">
        <ele>1108.6</ele>
        <time>2019-08-31T12:20:25Z</time>
      </trkpt>
      <trkpt lat="42.96097" lon="0.7529">
        <ele>1107.7</ele>
        <time>2019-08-31T12:20:27Z</time>
      </trkpt>
      <trkpt lat="42.96099" lon="0.75286">
        <ele>1106.1</ele>
        <time>2019-08-31T12:20:30Z</time>
      </trkpt>
      <trkpt lat="42.96101" lon="0.75282">
        <ele>1104.6</ele>
        <time>2019-08-31T12:20:34Z</time>
      </trkpt>
      <trkpt lat="42.96104" lon="0.75279">
        <ele>1103.3</ele>
        <time>2019-08-31T12:20:37Z</time>
      </trkpt>
      <trkpt lat="42.96106" lon="0.75274">
        <ele>1102.1</ele>
        <time>2019-08-31T12:20:40Z</time>
      </trkpt>
      <trkpt lat="42.96107" lon="0.7527">
        <ele>1101</ele>
        <time>2019-08-31T12:20:43Z</time>
      </trkpt>
      <trkpt lat="42.96107" lon="0.75265">
        <ele>1099.7</ele>
        <time>2019-08-31T12:20:47Z</time>
      </trkpt>
      <trkpt lat="42.96108" lon="0.75261">
        <ele>1098.6</ele>
        <time>2019-08-31T12:20:53Z</time>
      </trkpt>
      <trkpt lat="42.96109" lon="0.75257">
        <ele>1097.5</ele>
        <time>2019-08-31T12:20:59Z</time>
      </trkpt>
      <trkpt lat="42.96112" lon="0.75257">
        <ele>1096.4</ele>
        <time>2019-08-31T12:21:04Z</time>
      </trkpt>
      <trkpt lat="42.96114" lon="0.7526">
        <ele>1095.2</ele>
        <time>2019-08-31T12:21:07Z</time>
      </trkpt>
      <trkpt lat="42.96116" lon="0.75264">
        <ele>1093.8</ele>
        <time>2019-08-31T12:21:10Z</time>
      </trkpt>
      <trkpt lat="42.96117" lon="0.7526">
        <ele>1092.1</ele>
        <time>2019-08-31T12:21:18Z</time>
      </trkpt>
      <trkpt lat="42.9612" lon="0.75259">
        <ele>1090.2</ele>
        <time>2019-08-31T12:21:22Z</time>
      </trkpt>
      <trkpt lat="42.96121" lon="0.75255">
        <ele>1088.5</ele>
        <time>2019-08-31T12:21:27Z</time>
      </trkpt>
      <trkpt lat="42.96123" lon="0.75251">
        <ele>1087.4</ele>
        <time>2019-08-31T12:21:30Z</time>
      </trkpt>
      <trkpt lat="42.96125" lon="0.75248">
        <ele>1086.4</ele>
        <time>2019-08-31T12:21:33Z</time>
      </trkpt>
      <trkpt lat="42.96127" lon="0.75251">
        <ele>1084.6</ele>
        <time>2019-08-31T12:21:37Z</time>
      </trkpt>
      <trkpt lat="42.9613" lon="0.7525">
        <ele>1082.6</ele>
        <time>2019-08-31T12:21:42Z</time>
      </trkpt>
      <trkpt lat="42.96134" lon="0.7525">
        <ele>1080.6</ele>
        <time>2019-08-31T12:21:46Z</time>
      </trkpt>
      <trkpt lat="42.96137" lon="0.75251">
        <ele>1079</ele>
        <time>2019-08-31T12:21:49Z</time>
      </trkpt>
      <trkpt lat="42.9614" lon="0.75252">
        <ele>1077.3</ele>
        <time>2019-08-31T12:21:52Z</time>
      </trkpt>
      <trkpt lat="42.96144" lon="0.75253">
        <ele>1075.8</ele>
        <time>2019-08-31T12:21:54Z</time>
      </trkpt>
      <trkpt lat="42.96147" lon="0.75256">
        <ele>1073.9</ele>
        <time>2019-08-31T12:21:56Z</time>
      </trkpt>
      <trkpt lat="42.96151" lon="0.75258">
        <ele>1071.9</ele>
        <time>2019-08-31T12:21:58Z</time>
      </trkpt>
      <trkpt lat="42.96154" lon="0.75256">
        <ele>1070.2</ele>
        <time>2019-08-31T12:22:03Z</time>
      </trkpt>
      <trkpt lat="42.96159" lon="0.75257">
        <ele>1068.6</ele>
        <time>2019-08-31T12:22:06Z</time>
      </trkpt>
      <trkpt lat="42.96162" lon="0.75258">
        <ele>1067.2</ele>
        <time>2019-08-31T12:22:08Z</time>
      </trkpt>
      <trkpt lat="42.96166" lon="0.75259">
        <ele>1065.9</ele>
        <time>2019-08-31T12:22:10Z</time>
      </trkpt>
      <trkpt lat="42.96169" lon="0.7526">
        <ele>1064.9</ele>
        <time>2019-08-31T12:22:12Z</time>
      </trkpt>
      <trkpt lat="42.9617" lon="0.75256">
        <ele>1063.8</ele>
        <time>2019-08-31T12:22:17Z</time>
      </trkpt>
      <trkpt lat="42.96172" lon="0.75262">
        <ele>1062.1</ele>
        <time>2019-08-31T12:22:49Z</time>
      </trkpt>
      <trkpt lat="42.96174" lon="0.75262">
        <ele>1061.4</ele>
        <time>2019-08-31T12:22:58Z</time>
      </trkpt>
      <trkpt lat="42.96177" lon="0.75259">
        <ele>1060.8</ele>
        <time>2019-08-31T12:23:02Z</time>
      </trkpt>
      <trkpt lat="42.9618" lon="0.75259">
        <ele>1060.1</ele>
        <time>2019-08-31T12:23:07Z</time>
      </trkpt>
      <trkpt lat="42.96183" lon="0.75257">
        <ele>1058.8</ele>
        <time>2019-08-31T12:23:11Z</time>
      </trkpt>
      <trkpt lat="42.96187" lon="0.75258">
        <ele>1056.9</ele>
        <time>2019-08-31T12:23:17Z</time>
      </trkpt>
      <trkpt lat="42.96191" lon="0.75257">
        <ele>1054.8</ele>
        <time>2019-08-31T12:23:20Z</time>
      </trkpt>
      <trkpt lat="42.96194" lon="0.75256">
        <ele>1053.2</ele>
        <time>2019-08-31T12:23:22Z</time>
      </trkpt>
      <trkpt lat="42.96197" lon="0.75256">
        <ele>1052.2</ele>
        <time>2019-08-31T12:23:26Z</time>
      </trkpt>
      <trkpt lat="42.96199" lon="0.75259">
        <ele>1051.6</ele>
        <time>2019-08-31T12:23:33Z</time>
      </trkpt>
      <trkpt lat="42.96201" lon="0.75259">
        <ele>1051</ele>
        <time>2019-08-31T12:23:35Z</time>
      </trkpt>
      <trkpt lat="42.96204" lon="0.75257">
        <ele>1050.2</ele>
        <time>2019-08-31T12:23:38Z</time>
      </trkpt>
      <trkpt lat="42.96208" lon="0.75254">
        <ele>1049</ele>
        <time>2019-08-31T12:23:41Z</time>
      </trkpt>
      <trkpt lat="42.96211" lon="0.75253">
        <ele>1048</ele>
        <time>2019-08-31T12:23:43Z</time>
      </trkpt>
      <trkpt lat="42.96213" lon="0.75249">
        <ele>1046.9</ele>
        <time>2019-08-31T12:23:46Z</time>
      </trkpt>
      <trkpt lat="42.96214" lon="0.75246">
        <ele>1046</ele>
        <time>2019-08-31T12:23:49Z</time>
      </trkpt>
      <trkpt lat="42.96216" lon="0.75243">
        <ele>1045.1</ele>
        <time>2019-08-31T12:23:53Z</time>
      </trkpt>
      <trkpt lat="42.96219" lon="0.75243">
        <ele>1044.2</ele>
        <time>2019-08-31T12:23:56Z</time>
      </trkpt>
      <trkpt lat="42.96222" lon="0.75242">
        <ele>1043.4</ele>
        <time>2019-08-31T12:23:59Z</time>
      </trkpt>
      <trkpt lat="42.96225" lon="0.75239">
        <ele>1042.4</ele>
        <time>2019-08-31T12:24:02Z</time>
      </trkpt>
      <trkpt lat="42.96227" lon="0.75236">
        <ele>1041.1</ele>
        <time>2019-08-31T12:24:05Z</time>
      </trkpt>
      <trkpt lat="42.9623" lon="0.75232">
        <ele>1039.8</ele>
        <time>2019-08-31T12:24:08Z</time>
      </trkpt>
      <trkpt lat="42.96232" lon="0.75227">
        <ele>1038.4</ele>
        <time>2019-08-31T12:24:11Z</time>
      </trkpt>
      <trkpt lat="42.96234" lon="0.75224">
        <ele>1037.4</ele>
        <time>2019-08-31T12:24:13Z</time>
      </trkpt>
      <trkpt lat="42.96235" lon="0.75221">
        <ele>1036.5</ele>
        <time>2019-08-31T12:24:15Z</time>
      </trkpt>
      <trkpt lat="42.96237" lon="0.75217">
        <ele>1035.3</ele>
        <time>2019-08-31T12:24:18Z</time>
      </trkpt>
      <trkpt lat="42.96239" lon="0.75212">
        <ele>1034.2</ele>
        <time>2019-08-31T12:24:21Z</time>
      </trkpt>
      <trkpt lat="42.9624" lon="0.75208">
        <ele>1033.3</ele>
        <time>2019-08-31T12:24:24Z</time>
      </trkpt>
      <trkpt lat="42.96242" lon="0.75205">
        <ele>1032.5</ele>
        <time>2019-08-31T12:24:27Z</time>
      </trkpt>
      <trkpt lat="42.96244" lon="0.75202">
        <ele>1031.7</ele>
        <time>2019-08-31T12:24:30Z</time>
      </trkpt>
      <trkpt lat="42.96246" lon="0.75199">
        <ele>1031</ele>
        <time>2019-08-31T12:24:33Z</time>
      </trkpt>
      <trkpt lat="42.96248" lon="0.75196">
        <ele>1030.2</ele>
        <time>2019-08-31T12:24:37Z</time>
      </trkpt>
      <trkpt lat="42.96251" lon="0.75196">
        <ele>1029.4</ele>
        <time>2019-08-31T12:24:40Z</time>
      </trkpt>
      <trkpt lat="42.96254" lon="0.75195">
        <ele>1028.5</ele>
        <time>2019-08-31T12:24:43Z</time>
      </trkpt>
      <trkpt lat="42.96257" lon="0.75193">
        <ele>1027.5</ele>
        <time>2019-08-31T12:24:45Z</time>
      </trkpt>
      <trkpt lat="42.96259" lon="0.7519">
        <ele>1026.5</ele>
        <time>2019-08-31T12:24:48Z</time>
      </trkpt>
      <trkpt lat="42.96262" lon="0.75186">
        <ele>1025</ele>
        <time>2019-08-31T12:24:51Z</time>
      </trkpt>
      <trkpt lat="42.96264" lon="0.75184">
        <ele>1024.1</ele>
        <time>2019-08-31T12:24:53Z</time>
      </trkpt>
      <trkpt lat="42.96266" lon="0.75181">
        <ele>1023.1</ele>
        <time>2019-08-31T12:24:56Z</time>
      </trkpt>
      <trkpt lat="42.9627" lon="0.7518">
        <ele>1022</ele>
        <time>2019-08-31T12:24:59Z</time>
      </trkpt>
      <trkpt lat="42.96274" lon="0.75181">
        <ele>1021.4</ele>
        <time>2019-08-31T12:25:02Z</time>
      </trkpt>
      <trkpt lat="42.96277" lon="0.75182">
        <ele>1020.8</ele>
        <time>2019-08-31T12:25:05Z</time>
      </trkpt>
      <trkpt lat="42.9628" lon="0.75183">
        <ele>1020.1</ele>
        <time>2019-08-31T12:25:08Z</time>
      </trkpt>
      <trkpt lat="42.96284" lon="0.75184">
        <ele>1019.1</ele>
        <time>2019-08-31T12:25:11Z</time>
      </trkpt>
      <trkpt lat="42.96286" lon="0.75186">
        <ele>1018.4</ele>
        <time>2019-08-31T12:25:13Z</time>
      </trkpt>
      <trkpt lat="42.9629" lon="0.75187">
        <ele>1017.8</ele>
        <time>2019-08-31T12:25:16Z</time>
      </trkpt>
      <trkpt lat="42.96293" lon="0.75188">
        <ele>1017.3</ele>
        <time>2019-08-31T12:25:19Z</time>
      </trkpt>
      <trkpt lat="42.96296" lon="0.7519">
        <ele>1016.9</ele>
        <time>2019-08-31T12:25:21Z</time>
      </trkpt>
      <trkpt lat="42.96299" lon="0.75191">
        <ele>1016.7</ele>
        <time>2019-08-31T12:25:23Z</time>
      </trkpt>
      <trkpt lat="42.96302" lon="0.75191">
        <ele>1016.5</ele>
        <time>2019-08-31T12:25:26Z</time>
      </trkpt>
      <trkpt lat="42.96306" lon="0.75191">
        <ele>1016.2</ele>
        <time>2019-08-31T12:25:29Z</time>
      </trkpt>
      <trkpt lat="42.96309" lon="0.75188">
        <ele>1015.9</ele>
        <time>2019-08-31T12:25:32Z</time>
      </trkpt>
      <trkpt lat="42.96313" lon="0.75187">
        <ele>1015.4</ele>
        <time>2019-08-31T12:25:35Z</time>
      </trkpt>
      <trkpt lat="42.96315" lon="0.75184">
        <ele>1014.8</ele>
        <time>2019-08-31T12:25:38Z</time>
      </trkpt>
      <trkpt lat="42.96317" lon="0.75181">
        <ele>1014.1</ele>
        <time>2019-08-31T12:25:41Z</time>
      </trkpt>
      <trkpt lat="42.96321" lon="0.75179">
        <ele>1013.7</ele>
        <time>2019-08-31T12:25:44Z</time>
      </trkpt>
      <trkpt lat="42.96324" lon="0.75176">
        <ele>1013.5</ele>
        <time>2019-08-31T12:25:47Z</time>
      </trkpt>
      <trkpt lat="42.96327" lon="0.75173">
        <ele>1012.9</ele>
        <time>2019-08-31T12:25:50Z</time>
      </trkpt>
      <trkpt lat="42.9633" lon="0.7517">
        <ele>1012.4</ele>
        <time>2019-08-31T12:25:53Z</time>
      </trkpt>
      <trkpt lat="42.96332" lon="0.75167">
        <ele>1011.8</ele>
        <time>2019-08-31T12:25:56Z</time>
      </trkpt>
      <trkpt lat="42.96334" lon="0.75164">
        <ele>1011.2</ele>
        <time>2019-08-31T12:25:59Z</time>
      </trkpt>
      <trkpt lat="42.96337" lon="0.75162">
        <ele>1010.6</ele>
        <time>2019-08-31T12:26:02Z</time>
      </trkpt>
      <trkpt lat="42.96341" lon="0.75159">
        <ele>1010</ele>
        <time>2019-08-31T12:26:05Z</time>
      </trkpt>
      <trkpt lat="42.96343" lon="0.75156">
        <ele>1009.3</ele>
        <time>2019-08-31T12:26:08Z</time>
      </trkpt>
      <trkpt lat="42.96346" lon="0.75153">
        <ele>1008.6</ele>
        <time>2019-08-31T12:26:11Z</time>
      </trkpt>
      <trkpt lat="42.96349" lon="0.75153">
        <ele>1008.1</ele>
        <time>2019-08-31T12:26:14Z</time>
      </trkpt>
      <trkpt lat="42.96352" lon="0.75153">
        <ele>1007.7</ele>
        <time>2019-08-31T12:26:16Z</time>
      </trkpt>
      <trkpt lat="42.96356" lon="0.75152">
        <ele>1007.1</ele>
        <time>2019-08-31T12:26:19Z</time>
      </trkpt>
      <trkpt lat="42.96358" lon="0.7515">
        <ele>1006.6</ele>
        <time>2019-08-31T12:26:21Z</time>
      </trkpt>
      <trkpt lat="42.96361" lon="0.75149">
        <ele>1006.1</ele>
        <time>2019-08-31T12:26:23Z</time>
      </trkpt>
      <trkpt lat="42.96364" lon="0.75147">
        <ele>1005.4</ele>
        <time>2019-08-31T12:26:26Z</time>
      </trkpt>
      <trkpt lat="42.96368" lon="0.75146">
        <ele>1004.7</ele>
        <time>2019-08-31T12:26:29Z</time>
      </trkpt>
      <trkpt lat="42.96372" lon="0.75144">
        <ele>1003.9</ele>
        <time>2019-08-31T12:26:32Z</time>
      </trkpt>
      <trkpt lat="42.96374" lon="0.75142">
        <ele>1003.4</ele>
        <time>2019-08-31T12:26:34Z</time>
      </trkpt>
      <trkpt lat="42.96376" lon="0.75139">
        <ele>1002.8</ele>
        <time>2019-08-31T12:26:37Z</time>
      </trkpt>
      <trkpt lat="42.9638" lon="0.75138">
        <ele>1002.1</ele>
        <time>2019-08-31T12:26:40Z</time>
      </trkpt>
      <trkpt lat="42.96382" lon="0.75136">
        <ele>1001.5</ele>
        <time>2019-08-31T12:26:42Z</time>
      </trkpt>
      <trkpt lat="42.96384" lon="0.75133">
        <ele>1000.9</ele>
        <time>2019-08-31T12:26:44Z</time>
      </trkpt>
      <trkpt lat="42.96387" lon="0.7513">
        <ele>1000.3</ele>
        <time>2019-08-31T12:26:46Z</time>
      </trkpt>
      <trkpt lat="42.96389" lon="0.75129">
        <ele>999.7</ele>
        <time>2019-08-31T12:26:48Z</time>
      </trkpt>
      <trkpt lat="42.96392" lon="0.75126">
        <ele>998.7</ele>
        <time>2019-08-31T12:26:51Z</time>
      </trkpt>
      <trkpt lat="42.96393" lon="0.75121">
        <ele>997.5</ele>
        <time>2019-08-31T12:26:55Z</time>
      </trkpt>
      <trkpt lat="42.96393" lon="0.75117">
        <ele>996.6</ele>
        <time>2019-08-31T12:26:57Z</time>
      </trkpt>
      <trkpt lat="42.96395" lon="0.75112">
        <ele>995.6</ele>
        <time>2019-08-31T12:27:00Z</time>
      </trkpt>
      <trkpt lat="42.96396" lon="0.75108">
        <ele>994.9</ele>
        <time>2019-08-31T12:27:02Z</time>
      </trkpt>
      <trkpt lat="42.96399" lon="0.75105">
        <ele>994.2</ele>
        <time>2019-08-31T12:27:05Z</time>
      </trkpt>
      <trkpt lat="42.96402" lon="0.75105">
        <ele>993.4</ele>
        <time>2019-08-31T12:27:08Z</time>
      </trkpt>
      <trkpt lat="42.96405" lon="0.75102">
        <ele>992.6</ele>
        <time>2019-08-31T12:27:11Z</time>
      </trkpt>
      <trkpt lat="42.96408" lon="0.75099">
        <ele>991.7</ele>
        <time>2019-08-31T12:27:13Z</time>
      </trkpt>
      <trkpt lat="42.9641" lon="0.75097">
        <ele>990.8</ele>
        <time>2019-08-31T12:27:15Z</time>
      </trkpt>
      <trkpt lat="42.96413" lon="0.75095">
        <ele>989.6</ele>
        <time>2019-08-31T12:27:18Z</time>
      </trkpt>
      <trkpt lat="42.96416" lon="0.75093">
        <ele>988.7</ele>
        <time>2019-08-31T12:27:20Z</time>
      </trkpt>
      <trkpt lat="42.96418" lon="0.75091">
        <ele>988.1</ele>
        <time>2019-08-31T12:27:22Z</time>
      </trkpt>
      <trkpt lat="42.96421" lon="0.75089">
        <ele>987.4</ele>
        <time>2019-08-31T12:27:25Z</time>
      </trkpt>
      <trkpt lat="42.96424" lon="0.75088">
        <ele>986.7</ele>
        <time>2019-08-31T12:27:28Z</time>
      </trkpt>
      <trkpt lat="42.96428" lon="0.75087">
        <ele>985.8</ele>
        <time>2019-08-31T12:27:31Z</time>
      </trkpt>
      <trkpt lat="42.96431" lon="0.75085">
        <ele>984.9</ele>
        <time>2019-08-31T12:27:34Z</time>
      </trkpt>
      <trkpt lat="42.96434" lon="0.75084">
        <ele>984.2</ele>
        <time>2019-08-31T12:27:37Z</time>
      </trkpt>
      <trkpt lat="42.96437" lon="0.75081">
        <ele>983.5</ele>
        <time>2019-08-31T12:27:42Z</time>
      </trkpt>
      <trkpt lat="42.9644" lon="0.75079">
        <ele>982.7</ele>
        <time>2019-08-31T12:27:46Z</time>
      </trkpt>
      <trkpt lat="42.96442" lon="0.75078">
        <ele>982</ele>
        <time>2019-08-31T12:27:48Z</time>
      </trkpt>
      <trkpt lat="42.96446" lon="0.75075">
        <ele>981.3</ele>
        <time>2019-08-31T12:27:51Z</time>
      </trkpt>
      <trkpt lat="42.96448" lon="0.75074">
        <ele>980.8</ele>
        <time>2019-08-31T12:27:54Z</time>
      </trkpt>
      <trkpt lat="42.96452" lon="0.75072">
        <ele>980.1</ele>
        <time>2019-08-31T12:27:57Z</time>
      </trkpt>
      <trkpt lat="42.96455" lon="0.75068">
        <ele>979.1</ele>
        <time>2019-08-31T12:28:00Z</time>
      </trkpt>
      <trkpt lat="42.96457" lon="0.75065">
        <ele>978.4</ele>
        <time>2019-08-31T12:28:02Z</time>
      </trkpt>
      <trkpt lat="42.96459" lon="0.75062">
        <ele>977.6</ele>
        <time>2019-08-31T12:28:04Z</time>
      </trkpt>
      <trkpt lat="42.96461" lon="0.7506">
        <ele>976.9</ele>
        <time>2019-08-31T12:28:06Z</time>
      </trkpt>
      <trkpt lat="42.96464" lon="0.75058">
        <ele>976</ele>
        <time>2019-08-31T12:28:09Z</time>
      </trkpt>
      <trkpt lat="42.96467" lon="0.75057">
        <ele>975.5</ele>
        <time>2019-08-31T12:28:12Z</time>
      </trkpt>
      <trkpt lat="42.96471" lon="0.75057">
        <ele>974.9</ele>
        <time>2019-08-31T12:28:15Z</time>
      </trkpt>
      <trkpt lat="42.96474" lon="0.75057">
        <ele>974.3</ele>
        <time>2019-08-31T12:28:18Z</time>
      </trkpt>
      <trkpt lat="42.96475" lon="0.75053">
        <ele>973.8</ele>
        <time>2019-08-31T12:28:21Z</time>
      </trkpt>
      <trkpt lat="42.96475" lon="0.75049">
        <ele>973.3</ele>
        <time>2019-08-31T12:28:24Z</time>
      </trkpt>
      <trkpt lat="42.96473" lon="0.75046">
        <ele>972.8</ele>
        <time>2019-08-31T12:28:27Z</time>
      </trkpt>
      <trkpt lat="42.9647" lon="0.75044">
        <ele>972.2</ele>
        <time>2019-08-31T12:28:30Z</time>
      </trkpt>
      <trkpt lat="42.96468" lon="0.75041">
        <ele>971.6</ele>
        <time>2019-08-31T12:28:33Z</time>
      </trkpt>
      <trkpt lat="42.96467" lon="0.75037">
        <ele>971</ele>
        <time>2019-08-31T12:28:36Z</time>
      </trkpt>
      <trkpt lat="42.96468" lon="0.75032">
        <ele>970.5</ele>
        <time>2019-08-31T12:28:39Z</time>
      </trkpt>
      <trkpt lat="42.96469" lon="0.75029">
        <ele>970.1</ele>
        <time>2019-08-31T12:28:42Z</time>
      </trkpt>
      <trkpt lat="42.96472" lon="0.75031">
        <ele>969.6</ele>
        <time>2019-08-31T12:28:48Z</time>
      </trkpt>
      <trkpt lat="42.96475" lon="0.75029">
        <ele>969.3</ele>
        <time>2019-08-31T12:28:51Z</time>
      </trkpt>
      <trkpt lat="42.96472" lon="0.75033">
        <ele>968.9</ele>
        <time>2019-08-31T12:29:06Z</time>
      </trkpt>
      <trkpt lat="42.96471" lon="0.75038">
        <ele>968.7</ele>
        <time>2019-08-31T12:29:09Z</time>
      </trkpt>
      <trkpt lat="42.96469" lon="0.75042">
        <ele>968.5</ele>
        <time>2019-08-31T12:29:13Z</time>
      </trkpt>
      <trkpt lat="42.96468" lon="0.75047">
        <ele>968.3</ele>
        <time>2019-08-31T12:29:16Z</time>
      </trkpt>
      <trkpt lat="42.96467" lon="0.7505">
        <ele>968.1</ele>
        <time>2019-08-31T12:29:19Z</time>
      </trkpt>
      <trkpt lat="42.96466" lon="0.75054">
        <ele>967.9</ele>
        <time>2019-08-31T12:29:23Z</time>
      </trkpt>
      <trkpt lat="42.96467" lon="0.7505">
        <ele>967.8</ele>
        <time>2019-08-31T12:29:54Z</time>
      </trkpt>
      <trkpt lat="42.96467" lon="0.75046">
        <ele>967.8</ele>
        <time>2019-08-31T12:29:57Z</time>
      </trkpt>
      <trkpt lat="42.96468" lon="0.75042">
        <ele>967.8</ele>
        <time>2019-08-31T12:30:00Z</time>
      </trkpt>
      <trkpt lat="42.9647" lon="0.75038">
        <ele>967.5</ele>
        <time>2019-08-31T12:30:03Z</time>
      </trkpt>
      <trkpt lat="42.9647" lon="0.75035">
        <ele>967.3</ele>
        <time>2019-08-31T12:30:05Z</time>
      </trkpt>
      <trkpt lat="42.96471" lon="0.7503">
        <ele>966.9</ele>
        <time>2019-08-31T12:30:08Z</time>
      </trkpt>
      <trkpt lat="42.96471" lon="0.75026">
        <ele>966.6</ele>
        <time>2019-08-31T12:30:11Z</time>
      </trkpt>
      <trkpt lat="42.96473" lon="0.75022">
        <ele>966.1</ele>
        <time>2019-08-31T12:30:14Z</time>
      </trkpt>
      <trkpt lat="42.96475" lon="0.75018">
        <ele>965.7</ele>
        <time>2019-08-31T12:30:17Z</time>
      </trkpt>
      <trkpt lat="42.96477" lon="0.75014">
        <ele>965.3</ele>
        <time>2019-08-31T12:30:20Z</time>
      </trkpt>
      <trkpt lat="42.96478" lon="0.75009">
        <ele>964.9</ele>
        <time>2019-08-31T12:30:23Z</time>
      </trkpt>
      <trkpt lat="42.96479" lon="0.75005">
        <ele>964.6</ele>
        <time>2019-08-31T12:30:26Z</time>
      </trkpt>
      <trkpt lat="42.9648" lon="0.75">
        <ele>964.3</ele>
        <time>2019-08-31T12:30:29Z</time>
      </trkpt>
      <trkpt lat="42.96481" lon="0.74995">
        <ele>963.9</ele>
        <time>2019-08-31T12:30:32Z</time>
      </trkpt>
      <trkpt lat="42.96482" lon="0.74991">
        <ele>963.5</ele>
        <time>2019-08-31T12:30:35Z</time>
      </trkpt>
      <trkpt lat="42.96483" lon="0.74986">
        <ele>963.1</ele>
        <time>2019-08-31T12:30:38Z</time>
      </trkpt>
      <trkpt lat="42.96484" lon="0.74982">
        <ele>962.6</ele>
        <time>2019-08-31T12:30:41Z</time>
      </trkpt>
      <trkpt lat="42.96485" lon="0.74977">
        <ele>962.2</ele>
        <time>2019-08-31T12:30:44Z</time>
      </trkpt>
      <trkpt lat="42.96485" lon="0.74973">
        <ele>961.9</ele>
        <time>2019-08-31T12:30:52Z</time>
      </trkpt>
      <trkpt lat="42.96486" lon="0.74969">
        <ele>961.6</ele>
        <time>2019-08-31T12:30:56Z</time>
      </trkpt>
      <trkpt lat="42.96488" lon="0.74965">
        <ele>961.3</ele>
        <time>2019-08-31T12:31:02Z</time>
      </trkpt>
      <trkpt lat="42.96491" lon="0.74965">
        <ele>961</ele>
        <time>2019-08-31T12:31:51Z</time>
      </trkpt>
      <trkpt lat="42.96494" lon="0.74964">
        <ele>960.7</ele>
        <time>2019-08-31T12:32:35Z</time>
      </trkpt>
    </trkseg>
  </trk>
</gpx>